<?xml version="1.0" encoding="UTF-8" standalone="no" ?>
<gpx xmlns="http://www.topografix.com/GPX/1/1" xmlns:xsi="http://www.w3.org/2001/XMLSchema-instance" xsi:schemaLocation="http://www.topografix.com/GPX/1/1 http://www.topografix.com/GPX/1/1/gpx.xsd" version="1.1" creator="VisuGPX - https://www.visugpx.com">
  <metadata>
    <name>Rallye du muget 2016 Sillans</name>
    <desc><![CDATA[Jolie ballade sans trop de route.]]></desc>
  </metadata>
  <trk>
    <name><![CDATA[rallye du muguet 35 pour 1000]]></name>
    <trkseg>
      <trkpt lat="45.34122" lon="5.38544">
        <ele>399</ele>
        <time>2016-05-08T07:21:12Z</time>
      </trkpt>
      <trkpt lat="45.34126" lon="5.38538">
        <ele>399</ele>
        <time>2016-05-08T07:21:15Z</time>
      </trkpt>
      <trkpt lat="45.34135" lon="5.3854">
        <ele>399</ele>
        <time>2016-05-08T07:21:18Z</time>
      </trkpt>
      <trkpt lat="45.3414" lon="5.38546">
        <ele>399</ele>
        <time>2016-05-08T07:21:21Z</time>
      </trkpt>
      <trkpt lat="45.34145" lon="5.38552">
        <ele>399</ele>
        <time>2016-05-08T07:21:25Z</time>
      </trkpt>
      <trkpt lat="45.34149" lon="5.38562">
        <ele>399</ele>
        <time>2016-05-08T07:21:28Z</time>
      </trkpt>
      <trkpt lat="45.34152" lon="5.38576">
        <ele>399</ele>
        <time>2016-05-08T07:21:32Z</time>
      </trkpt>
      <trkpt lat="45.34154" lon="5.38593">
        <ele>399</ele>
        <time>2016-05-08T07:21:35Z</time>
      </trkpt>
      <trkpt lat="45.34153" lon="5.38607">
        <ele>399</ele>
        <time>2016-05-08T07:21:38Z</time>
      </trkpt>
      <trkpt lat="45.34143" lon="5.38614">
        <ele>399</ele>
        <time>2016-05-08T07:21:42Z</time>
      </trkpt>
      <trkpt lat="45.34133" lon="5.38617">
        <ele>399</ele>
        <time>2016-05-08T07:21:45Z</time>
      </trkpt>
      <trkpt lat="45.34123" lon="5.38619">
        <ele>399</ele>
        <time>2016-05-08T07:21:48Z</time>
      </trkpt>
      <trkpt lat="45.34115" lon="5.38619">
        <ele>399</ele>
        <time>2016-05-08T07:21:51Z</time>
      </trkpt>
      <trkpt lat="45.34107" lon="5.38619">
        <ele>399</ele>
        <time>2016-05-08T07:21:54Z</time>
      </trkpt>
      <trkpt lat="45.34092" lon="5.38618">
        <ele>399</ele>
        <time>2016-05-08T07:21:58Z</time>
      </trkpt>
      <trkpt lat="45.34083" lon="5.3862">
        <ele>399</ele>
        <time>2016-05-08T07:22:01Z</time>
      </trkpt>
      <trkpt lat="45.34074" lon="5.38622">
        <ele>399</ele>
        <time>2016-05-08T07:22:04Z</time>
      </trkpt>
      <trkpt lat="45.3406" lon="5.38626">
        <ele>399</ele>
        <time>2016-05-08T07:22:08Z</time>
      </trkpt>
      <trkpt lat="45.3405" lon="5.38625">
        <ele>399</ele>
        <time>2016-05-08T07:22:12Z</time>
      </trkpt>
      <trkpt lat="45.34041" lon="5.38623">
        <ele>399</ele>
        <time>2016-05-08T07:22:15Z</time>
      </trkpt>
      <trkpt lat="45.34029" lon="5.38619">
        <ele>399</ele>
        <time>2016-05-08T07:22:19Z</time>
      </trkpt>
      <trkpt lat="45.34017" lon="5.3862">
        <ele>399</ele>
        <time>2016-05-08T07:22:22Z</time>
      </trkpt>
      <trkpt lat="45.34009" lon="5.3862">
        <ele>399</ele>
        <time>2016-05-08T07:22:26Z</time>
      </trkpt>
      <trkpt lat="45.34004" lon="5.38619">
        <ele>399</ele>
        <time>2016-05-08T07:22:39Z</time>
      </trkpt>
      <trkpt lat="45.33995" lon="5.38622">
        <ele>399</ele>
        <time>2016-05-08T07:22:42Z</time>
      </trkpt>
      <trkpt lat="45.33978" lon="5.38626">
        <ele>399</ele>
        <time>2016-05-08T07:22:46Z</time>
      </trkpt>
      <trkpt lat="45.33961" lon="5.38629">
        <ele>399</ele>
        <time>2016-05-08T07:22:50Z</time>
      </trkpt>
      <trkpt lat="45.33947" lon="5.3863">
        <ele>399</ele>
        <time>2016-05-08T07:22:54Z</time>
      </trkpt>
      <trkpt lat="45.33936" lon="5.3863">
        <ele>399</ele>
        <time>2016-05-08T07:22:57Z</time>
      </trkpt>
      <trkpt lat="45.33923" lon="5.38628">
        <ele>399</ele>
        <time>2016-05-08T07:23:00Z</time>
      </trkpt>
      <trkpt lat="45.3391" lon="5.38634">
        <ele>399</ele>
        <time>2016-05-08T07:23:04Z</time>
      </trkpt>
      <trkpt lat="45.33904" lon="5.3866">
        <ele>399</ele>
        <time>2016-05-08T07:23:08Z</time>
      </trkpt>
      <trkpt lat="45.33898" lon="5.38676">
        <ele>399</ele>
        <time>2016-05-08T07:23:11Z</time>
      </trkpt>
      <trkpt lat="45.33892" lon="5.38692">
        <ele>399</ele>
        <time>2016-05-08T07:23:14Z</time>
      </trkpt>
      <trkpt lat="45.33885" lon="5.38711">
        <ele>399</ele>
        <time>2016-05-08T07:23:18Z</time>
      </trkpt>
      <trkpt lat="45.33879" lon="5.38726">
        <ele>399</ele>
        <time>2016-05-08T07:23:21Z</time>
      </trkpt>
      <trkpt lat="45.33872" lon="5.38748">
        <ele>399</ele>
        <time>2016-05-08T07:23:25Z</time>
      </trkpt>
      <trkpt lat="45.33868" lon="5.38764">
        <ele>399</ele>
        <time>2016-05-08T07:23:28Z</time>
      </trkpt>
      <trkpt lat="45.33864" lon="5.38781">
        <ele>399</ele>
        <time>2016-05-08T07:23:32Z</time>
      </trkpt>
      <trkpt lat="45.33861" lon="5.388">
        <ele>399</ele>
        <time>2016-05-08T07:23:36Z</time>
      </trkpt>
      <trkpt lat="45.33858" lon="5.3882">
        <ele>399</ele>
        <time>2016-05-08T07:23:39Z</time>
      </trkpt>
      <trkpt lat="45.33855" lon="5.38846">
        <ele>399.152222</ele>
        <time>2016-05-08T07:23:43Z</time>
      </trkpt>
      <trkpt lat="45.33853" lon="5.38864">
        <ele>399.372589</ele>
        <time>2016-05-08T07:23:46Z</time>
      </trkpt>
      <trkpt lat="45.33852" lon="5.38888">
        <ele>399.651917</ele>
        <time>2016-05-08T07:23:50Z</time>
      </trkpt>
      <trkpt lat="45.3386" lon="5.3891">
        <ele>399.920563</ele>
        <time>2016-05-08T07:23:54Z</time>
      </trkpt>
      <trkpt lat="45.33873" lon="5.38925">
        <ele>400.145203</ele>
        <time>2016-05-08T07:23:58Z</time>
      </trkpt>
      <trkpt lat="45.33881" lon="5.38941">
        <ele>400.458496</ele>
        <time>2016-05-08T07:24:01Z</time>
      </trkpt>
      <trkpt lat="45.3388" lon="5.38965">
        <ele>400.901245</ele>
        <time>2016-05-08T07:24:05Z</time>
      </trkpt>
      <trkpt lat="45.33877" lon="5.38981">
        <ele>401.173157</ele>
        <time>2016-05-08T07:24:08Z</time>
      </trkpt>
      <trkpt lat="45.33874" lon="5.39005">
        <ele>401.610901</ele>
        <time>2016-05-08T07:24:12Z</time>
      </trkpt>
      <trkpt lat="45.33868" lon="5.39015">
        <ele>401.761688</ele>
        <time>2016-05-08T07:24:15Z</time>
      </trkpt>
      <trkpt lat="45.33855" lon="5.39011">
        <ele>401.516998</ele>
        <time>2016-05-08T07:24:19Z</time>
      </trkpt>
      <trkpt lat="45.33843" lon="5.39005">
        <ele>401.235199</ele>
        <time>2016-05-08T07:24:22Z</time>
      </trkpt>
      <trkpt lat="45.33828" lon="5.38997">
        <ele>401.26236</ele>
        <time>2016-05-08T07:24:26Z</time>
      </trkpt>
      <trkpt lat="45.33812" lon="5.38989">
        <ele>402.087311</ele>
        <time>2016-05-08T07:24:30Z</time>
      </trkpt>
      <trkpt lat="45.33796" lon="5.38981">
        <ele>402.896454</ele>
        <time>2016-05-08T07:24:34Z</time>
      </trkpt>
      <trkpt lat="45.33784" lon="5.38975">
        <ele>403.488068</ele>
        <time>2016-05-08T07:24:37Z</time>
      </trkpt>
      <trkpt lat="45.33772" lon="5.38972">
        <ele>404.11676</ele>
        <time>2016-05-08T07:24:40Z</time>
      </trkpt>
      <trkpt lat="45.33757" lon="5.38967">
        <ele>404.817627</ele>
        <time>2016-05-08T07:24:44Z</time>
      </trkpt>
      <trkpt lat="45.3374" lon="5.38955">
        <ele>405.604645</ele>
        <time>2016-05-08T07:24:48Z</time>
      </trkpt>
      <trkpt lat="45.33727" lon="5.38949">
        <ele>406.25531</ele>
        <time>2016-05-08T07:24:51Z</time>
      </trkpt>
      <trkpt lat="45.3371" lon="5.3894">
        <ele>407.082153</ele>
        <time>2016-05-08T07:24:55Z</time>
      </trkpt>
      <trkpt lat="45.33696" lon="5.38939">
        <ele>407.919189</ele>
        <time>2016-05-08T07:24:58Z</time>
      </trkpt>
      <trkpt lat="45.33682" lon="5.38942">
        <ele>408.956177</ele>
        <time>2016-05-08T07:25:02Z</time>
      </trkpt>
      <trkpt lat="45.3367" lon="5.38945">
        <ele>409.79599</ele>
        <time>2016-05-08T07:25:05Z</time>
      </trkpt>
      <trkpt lat="45.33653" lon="5.38946">
        <ele>411.014679</ele>
        <time>2016-05-08T07:25:09Z</time>
      </trkpt>
      <trkpt lat="45.3364" lon="5.38945">
        <ele>411.828766</ele>
        <time>2016-05-08T07:25:12Z</time>
      </trkpt>
      <trkpt lat="45.33625" lon="5.3894">
        <ele>412.593323</ele>
        <time>2016-05-08T07:25:16Z</time>
      </trkpt>
      <trkpt lat="45.33614" lon="5.38937">
        <ele>413.192017</ele>
        <time>2016-05-08T07:25:19Z</time>
      </trkpt>
      <trkpt lat="45.33601" lon="5.38933">
        <ele>413.8349</ele>
        <time>2016-05-08T07:25:23Z</time>
      </trkpt>
      <trkpt lat="45.33589" lon="5.38934">
        <ele>414.695404</ele>
        <time>2016-05-08T07:25:27Z</time>
      </trkpt>
      <trkpt lat="45.33582" lon="5.38951">
        <ele>416.219727</ele>
        <time>2016-05-08T07:25:31Z</time>
      </trkpt>
      <trkpt lat="45.33579" lon="5.38962">
        <ele>417.16629</ele>
        <time>2016-05-08T07:25:34Z</time>
      </trkpt>
      <trkpt lat="45.33575" lon="5.38972">
        <ele>418.122894</ele>
        <time>2016-05-08T07:25:38Z</time>
      </trkpt>
      <trkpt lat="45.33567" lon="5.38982">
        <ele>419.338867</ele>
        <time>2016-05-08T07:25:42Z</time>
      </trkpt>
      <trkpt lat="45.33558" lon="5.3899">
        <ele>420.579956</ele>
        <time>2016-05-08T07:25:46Z</time>
      </trkpt>
      <trkpt lat="45.33551" lon="5.39">
        <ele>421.692566</ele>
        <time>2016-05-08T07:25:50Z</time>
      </trkpt>
      <trkpt lat="45.33547" lon="5.39009">
        <ele>422.815063</ele>
        <time>2016-05-08T07:25:54Z</time>
      </trkpt>
      <trkpt lat="45.33542" lon="5.3902">
        <ele>424.094666</ele>
        <time>2016-05-08T07:25:58Z</time>
      </trkpt>
      <trkpt lat="45.33541" lon="5.39029">
        <ele>424.970459</ele>
        <time>2016-05-08T07:26:01Z</time>
      </trkpt>
      <trkpt lat="45.3354" lon="5.39037">
        <ele>425.799103</ele>
        <time>2016-05-08T07:26:04Z</time>
      </trkpt>
      <trkpt lat="45.33539" lon="5.39047">
        <ele>426.781769</ele>
        <time>2016-05-08T07:26:07Z</time>
      </trkpt>
      <trkpt lat="45.33538" lon="5.39058">
        <ele>427.838745</ele>
        <time>2016-05-08T07:26:10Z</time>
      </trkpt>
      <trkpt lat="45.33534" lon="5.39071">
        <ele>429.377869</ele>
        <time>2016-05-08T07:26:14Z</time>
      </trkpt>
      <trkpt lat="45.33529" lon="5.3908">
        <ele>430.88031</ele>
        <time>2016-05-08T07:26:17Z</time>
      </trkpt>
      <trkpt lat="45.33522" lon="5.39092">
        <ele>432.30246</ele>
        <time>2016-05-08T07:26:21Z</time>
      </trkpt>
      <trkpt lat="45.33519" lon="5.391">
        <ele>432.949341</ele>
        <time>2016-05-08T07:26:24Z</time>
      </trkpt>
      <trkpt lat="45.33518" lon="5.39114">
        <ele>433.336029</ele>
        <time>2016-05-08T07:26:28Z</time>
      </trkpt>
      <trkpt lat="45.33518" lon="5.39122">
        <ele>433.617279</ele>
        <time>2016-05-08T07:26:31Z</time>
      </trkpt>
      <trkpt lat="45.33515" lon="5.39133">
        <ele>434.229431</ele>
        <time>2016-05-08T07:26:35Z</time>
      </trkpt>
      <trkpt lat="45.33511" lon="5.39139">
        <ele>434.919556</ele>
        <time>2016-05-08T07:26:39Z</time>
      </trkpt>
      <trkpt lat="45.33509" lon="5.39146">
        <ele>435.311768</ele>
        <time>2016-05-08T07:26:42Z</time>
      </trkpt>
      <trkpt lat="45.33507" lon="5.39154">
        <ele>435.773254</ele>
        <time>2016-05-08T07:26:46Z</time>
      </trkpt>
      <trkpt lat="45.33506" lon="5.39161">
        <ele>436.091675</ele>
        <time>2016-05-08T07:26:49Z</time>
      </trkpt>
      <trkpt lat="45.33507" lon="5.3917">
        <ele>435.968384</ele>
        <time>2016-05-08T07:26:52Z</time>
      </trkpt>
      <trkpt lat="45.33503" lon="5.39185">
        <ele>436.23233</ele>
        <time>2016-05-08T07:26:56Z</time>
      </trkpt>
      <trkpt lat="45.33499" lon="5.39191">
        <ele>436.442383</ele>
        <time>2016-05-08T07:26:59Z</time>
      </trkpt>
      <trkpt lat="45.33494" lon="5.39198">
        <ele>436.5672</ele>
        <time>2016-05-08T07:27:02Z</time>
      </trkpt>
      <trkpt lat="45.33485" lon="5.39211">
        <ele>436.832672</ele>
        <time>2016-05-08T07:27:06Z</time>
      </trkpt>
      <trkpt lat="45.33481" lon="5.39227">
        <ele>436.865112</ele>
        <time>2016-05-08T07:27:10Z</time>
      </trkpt>
      <trkpt lat="45.33481" lon="5.39242">
        <ele>436.729706</ele>
        <time>2016-05-08T07:27:14Z</time>
      </trkpt>
      <trkpt lat="45.33481" lon="5.39253">
        <ele>436.5383</ele>
        <time>2016-05-08T07:27:17Z</time>
      </trkpt>
      <trkpt lat="45.3348" lon="5.39265">
        <ele>436.34137</ele>
        <time>2016-05-08T07:27:21Z</time>
      </trkpt>
      <trkpt lat="45.33478" lon="5.39274">
        <ele>436.279602</ele>
        <time>2016-05-08T07:27:24Z</time>
      </trkpt>
      <trkpt lat="45.33474" lon="5.39287">
        <ele>436.371429</ele>
        <time>2016-05-08T07:27:28Z</time>
      </trkpt>
      <trkpt lat="45.3347" lon="5.39303">
        <ele>436.507141</ele>
        <time>2016-05-08T07:27:32Z</time>
      </trkpt>
      <trkpt lat="45.33467" lon="5.39318">
        <ele>436.677826</ele>
        <time>2016-05-08T07:27:36Z</time>
      </trkpt>
      <trkpt lat="45.33462" lon="5.39326">
        <ele>437.159119</ele>
        <time>2016-05-08T07:27:39Z</time>
      </trkpt>
      <trkpt lat="45.33457" lon="5.39334">
        <ele>437.636719</ele>
        <time>2016-05-08T07:27:43Z</time>
      </trkpt>
      <trkpt lat="45.3345" lon="5.39335">
        <ele>438.621735</ele>
        <time>2016-05-08T07:27:46Z</time>
      </trkpt>
      <trkpt lat="45.33442" lon="5.3934">
        <ele>439.48761</ele>
        <time>2016-05-08T07:27:50Z</time>
      </trkpt>
      <trkpt lat="45.33436" lon="5.39345">
        <ele>440.25</ele>
        <time>2016-05-08T07:27:54Z</time>
      </trkpt>
      <trkpt lat="45.33432" lon="5.39349">
        <ele>440.835754</ele>
        <time>2016-05-08T07:27:57Z</time>
      </trkpt>
      <trkpt lat="45.3343" lon="5.39361">
        <ele>441.046143</ele>
        <time>2016-05-08T07:28:01Z</time>
      </trkpt>
      <trkpt lat="45.33432" lon="5.39387">
        <ele>440.475006</ele>
        <time>2016-05-08T07:28:05Z</time>
      </trkpt>
      <trkpt lat="45.33423" lon="5.39414">
        <ele>441.856384</ele>
        <time>2016-05-08T07:28:08Z</time>
      </trkpt>
      <trkpt lat="45.33423" lon="5.39431">
        <ele>441.021118</ele>
        <time>2016-05-08T07:28:12Z</time>
      </trkpt>
      <trkpt lat="45.33419" lon="5.39444">
        <ele>441.32666</ele>
        <time>2016-05-08T07:28:15Z</time>
      </trkpt>
      <trkpt lat="45.33417" lon="5.39452">
        <ele>441.29541</ele>
        <time>2016-05-08T07:28:18Z</time>
      </trkpt>
      <trkpt lat="45.33408" lon="5.39461">
        <ele>442.772552</ele>
        <time>2016-05-08T07:28:22Z</time>
      </trkpt>
      <trkpt lat="45.33403" lon="5.39471">
        <ele>443.503479</ele>
        <time>2016-05-08T07:28:25Z</time>
      </trkpt>
      <trkpt lat="45.33395" lon="5.39487">
        <ele>444.944366</ele>
        <time>2016-05-08T07:28:29Z</time>
      </trkpt>
      <trkpt lat="45.3339" lon="5.39498">
        <ele>445.733307</ele>
        <time>2016-05-08T07:28:32Z</time>
      </trkpt>
      <trkpt lat="45.33387" lon="5.39515">
        <ele>445.636658</ele>
        <time>2016-05-08T07:28:36Z</time>
      </trkpt>
      <trkpt lat="45.33384" lon="5.39529">
        <ele>445.86554</ele>
        <time>2016-05-08T07:28:39Z</time>
      </trkpt>
      <trkpt lat="45.33378" lon="5.39546">
        <ele>446.400146</ele>
        <time>2016-05-08T07:28:42Z</time>
      </trkpt>
      <trkpt lat="45.33371" lon="5.39562">
        <ele>447.543701</ele>
        <time>2016-05-08T07:28:45Z</time>
      </trkpt>
      <trkpt lat="45.33366" lon="5.39575">
        <ele>448.29071</ele>
        <time>2016-05-08T07:28:48Z</time>
      </trkpt>
      <trkpt lat="45.33361" lon="5.39589">
        <ele>449.309021</ele>
        <time>2016-05-08T07:28:52Z</time>
      </trkpt>
      <trkpt lat="45.33358" lon="5.39602">
        <ele>449.852783</ele>
        <time>2016-05-08T07:28:55Z</time>
      </trkpt>
      <trkpt lat="45.33361" lon="5.3962">
        <ele>449.062012</ele>
        <time>2016-05-08T07:28:59Z</time>
      </trkpt>
      <trkpt lat="45.33364" lon="5.3963">
        <ele>448.130646</ele>
        <time>2016-05-08T07:29:02Z</time>
      </trkpt>
      <trkpt lat="45.33362" lon="5.39642">
        <ele>448.536133</ele>
        <time>2016-05-08T07:29:05Z</time>
      </trkpt>
      <trkpt lat="45.33358" lon="5.39651">
        <ele>449.264252</ele>
        <time>2016-05-08T07:29:08Z</time>
      </trkpt>
      <trkpt lat="45.33356" lon="5.3966">
        <ele>449.675964</ele>
        <time>2016-05-08T07:29:11Z</time>
      </trkpt>
      <trkpt lat="45.33358" lon="5.39671">
        <ele>449.197113</ele>
        <time>2016-05-08T07:29:14Z</time>
      </trkpt>
      <trkpt lat="45.3336" lon="5.39687">
        <ele>449.099487</ele>
        <time>2016-05-08T07:29:18Z</time>
      </trkpt>
      <trkpt lat="45.33365" lon="5.39703">
        <ele>448.454407</ele>
        <time>2016-05-08T07:29:22Z</time>
      </trkpt>
      <trkpt lat="45.33368" lon="5.39712">
        <ele>448.032898</ele>
        <time>2016-05-08T07:29:25Z</time>
      </trkpt>
      <trkpt lat="45.33369" lon="5.39726">
        <ele>448.078308</ele>
        <time>2016-05-08T07:29:28Z</time>
      </trkpt>
      <trkpt lat="45.33375" lon="5.39744">
        <ele>447.387817</ele>
        <time>2016-05-08T07:29:32Z</time>
      </trkpt>
      <trkpt lat="45.33379" lon="5.39766">
        <ele>447.122559</ele>
        <time>2016-05-08T07:29:36Z</time>
      </trkpt>
      <trkpt lat="45.33378" lon="5.39783">
        <ele>447.809204</ele>
        <time>2016-05-08T07:29:40Z</time>
      </trkpt>
      <trkpt lat="45.33375" lon="5.39798">
        <ele>448.966553</ele>
        <time>2016-05-08T07:29:43Z</time>
      </trkpt>
      <trkpt lat="45.33372" lon="5.39811">
        <ele>450.059326</ele>
        <time>2016-05-08T07:29:46Z</time>
      </trkpt>
      <trkpt lat="45.3337" lon="5.39824">
        <ele>450.863617</ele>
        <time>2016-05-08T07:29:49Z</time>
      </trkpt>
      <trkpt lat="45.33371" lon="5.39844">
        <ele>450.936584</ele>
        <time>2016-05-08T07:29:53Z</time>
      </trkpt>
      <trkpt lat="45.33378" lon="5.3986">
        <ele>449.476715</ele>
        <time>2016-05-08T07:29:56Z</time>
      </trkpt>
      <trkpt lat="45.33386" lon="5.39879">
        <ele>447.867737</ele>
        <time>2016-05-08T07:29:59Z</time>
      </trkpt>
      <trkpt lat="45.33384" lon="5.39898">
        <ele>448.303223</ele>
        <time>2016-05-08T07:30:03Z</time>
      </trkpt>
      <trkpt lat="45.3338" lon="5.39915">
        <ele>449.357422</ele>
        <time>2016-05-08T07:30:07Z</time>
      </trkpt>
      <trkpt lat="45.33379" lon="5.39923">
        <ele>449.581604</ele>
        <time>2016-05-08T07:30:10Z</time>
      </trkpt>
      <trkpt lat="45.33377" lon="5.39935">
        <ele>449.702789</ele>
        <time>2016-05-08T07:30:13Z</time>
      </trkpt>
      <trkpt lat="45.33379" lon="5.39948">
        <ele>449.129517</ele>
        <time>2016-05-08T07:30:17Z</time>
      </trkpt>
      <trkpt lat="45.33379" lon="5.39959">
        <ele>448.831116</ele>
        <time>2016-05-08T07:30:20Z</time>
      </trkpt>
      <trkpt lat="45.33375" lon="5.3997">
        <ele>449.636688</ele>
        <time>2016-05-08T07:30:24Z</time>
      </trkpt>
      <trkpt lat="45.33372" lon="5.39983">
        <ele>450.047852</ele>
        <time>2016-05-08T07:30:28Z</time>
      </trkpt>
      <trkpt lat="45.33369" lon="5.39993">
        <ele>450.606934</ele>
        <time>2016-05-08T07:30:32Z</time>
      </trkpt>
      <trkpt lat="45.33361" lon="5.40001">
        <ele>452.384399</ele>
        <time>2016-05-08T07:30:35Z</time>
      </trkpt>
      <trkpt lat="45.33352" lon="5.40016">
        <ele>453.998383</ele>
        <time>2016-05-08T07:30:39Z</time>
      </trkpt>
      <trkpt lat="45.33348" lon="5.40022">
        <ele>454.889343</ele>
        <time>2016-05-08T07:30:43Z</time>
      </trkpt>
      <trkpt lat="45.33344" lon="5.40029">
        <ele>455.68515</ele>
        <time>2016-05-08T07:30:57Z</time>
      </trkpt>
      <trkpt lat="45.33338" lon="5.40033">
        <ele>456.952606</ele>
        <time>2016-05-08T07:31:03Z</time>
      </trkpt>
      <trkpt lat="45.33333" lon="5.40035">
        <ele>458.179199</ele>
        <time>2016-05-08T07:31:08Z</time>
      </trkpt>
      <trkpt lat="45.33328" lon="5.40036">
        <ele>458.578491</ele>
        <time>2016-05-08T07:31:13Z</time>
      </trkpt>
      <trkpt lat="45.33323" lon="5.40041">
        <ele>458.848602</ele>
        <time>2016-05-08T07:31:22Z</time>
      </trkpt>
      <trkpt lat="45.33319" lon="5.40044">
        <ele>459.191437</ele>
        <time>2016-05-08T07:31:28Z</time>
      </trkpt>
      <trkpt lat="45.33322" lon="5.40048">
        <ele>458.795593</ele>
        <time>2016-05-08T07:31:34Z</time>
      </trkpt>
      <trkpt lat="45.33327" lon="5.40048">
        <ele>458.406555</ele>
        <time>2016-05-08T07:31:42Z</time>
      </trkpt>
      <trkpt lat="45.33332" lon="5.40049">
        <ele>457.977753</ele>
        <time>2016-05-08T07:31:45Z</time>
      </trkpt>
      <trkpt lat="45.33341" lon="5.40053">
        <ele>455.852814</ele>
        <time>2016-05-08T07:31:49Z</time>
      </trkpt>
      <trkpt lat="45.33352" lon="5.40062">
        <ele>452.740173</ele>
        <time>2016-05-08T07:31:53Z</time>
      </trkpt>
      <trkpt lat="45.33356" lon="5.40068">
        <ele>451.553345</ele>
        <time>2016-05-08T07:31:56Z</time>
      </trkpt>
      <trkpt lat="45.33359" lon="5.40075">
        <ele>450.580688</ele>
        <time>2016-05-08T07:31:59Z</time>
      </trkpt>
      <trkpt lat="45.33366" lon="5.40081">
        <ele>448.581909</ele>
        <time>2016-05-08T07:32:03Z</time>
      </trkpt>
      <trkpt lat="45.33375" lon="5.40091">
        <ele>445.654388</ele>
        <time>2016-05-08T07:32:07Z</time>
      </trkpt>
      <trkpt lat="45.33382" lon="5.40105">
        <ele>443.601044</ele>
        <time>2016-05-08T07:32:10Z</time>
      </trkpt>
      <trkpt lat="45.33388" lon="5.40126">
        <ele>441.176819</ele>
        <time>2016-05-08T07:32:14Z</time>
      </trkpt>
      <trkpt lat="45.33386" lon="5.40151">
        <ele>440.978271</ele>
        <time>2016-05-08T07:32:18Z</time>
      </trkpt>
      <trkpt lat="45.33382" lon="5.40169">
        <ele>441.436554</ele>
        <time>2016-05-08T07:32:22Z</time>
      </trkpt>
      <trkpt lat="45.33378" lon="5.40183">
        <ele>442.160858</ele>
        <time>2016-05-08T07:32:25Z</time>
      </trkpt>
      <trkpt lat="45.33372" lon="5.40197">
        <ele>443.394348</ele>
        <time>2016-05-08T07:32:28Z</time>
      </trkpt>
      <trkpt lat="45.33373" lon="5.40215">
        <ele>442.678467</ele>
        <time>2016-05-08T07:32:32Z</time>
      </trkpt>
      <trkpt lat="45.33376" lon="5.40227">
        <ele>441.506897</ele>
        <time>2016-05-08T07:32:35Z</time>
      </trkpt>
      <trkpt lat="45.33369" lon="5.40235">
        <ele>443.074493</ele>
        <time>2016-05-08T07:32:39Z</time>
      </trkpt>
      <trkpt lat="45.33363" lon="5.40241">
        <ele>444.728638</ele>
        <time>2016-05-08T07:32:42Z</time>
      </trkpt>
      <trkpt lat="45.33359" lon="5.40248">
        <ele>445.799316</ele>
        <time>2016-05-08T07:32:46Z</time>
      </trkpt>
      <trkpt lat="45.33357" lon="5.40256">
        <ele>446.467224</ele>
        <time>2016-05-08T07:32:50Z</time>
      </trkpt>
      <trkpt lat="45.33354" lon="5.40263">
        <ele>447.384705</ele>
        <time>2016-05-08T07:32:54Z</time>
      </trkpt>
      <trkpt lat="45.33352" lon="5.40271">
        <ele>448.489563</ele>
        <time>2016-05-08T07:32:57Z</time>
      </trkpt>
      <trkpt lat="45.33345" lon="5.40279">
        <ele>450.643738</ele>
        <time>2016-05-08T07:33:01Z</time>
      </trkpt>
      <trkpt lat="45.33343" lon="5.40286">
        <ele>451.873596</ele>
        <time>2016-05-08T07:33:05Z</time>
      </trkpt>
      <trkpt lat="45.33339" lon="5.40293">
        <ele>453.317383</ele>
        <time>2016-05-08T07:33:09Z</time>
      </trkpt>
      <trkpt lat="45.33337" lon="5.40301">
        <ele>454.247589</ele>
        <time>2016-05-08T07:33:12Z</time>
      </trkpt>
      <trkpt lat="45.33339" lon="5.40309">
        <ele>454.05545</ele>
        <time>2016-05-08T07:33:16Z</time>
      </trkpt>
      <trkpt lat="45.33337" lon="5.40316">
        <ele>454.934753</ele>
        <time>2016-05-08T07:33:21Z</time>
      </trkpt>
      <trkpt lat="45.33331" lon="5.4032">
        <ele>456.691833</ele>
        <time>2016-05-08T07:33:25Z</time>
      </trkpt>
      <trkpt lat="45.33327" lon="5.40326">
        <ele>457.748413</ele>
        <time>2016-05-08T07:33:29Z</time>
      </trkpt>
      <trkpt lat="45.33324" lon="5.40331">
        <ele>458.468323</ele>
        <time>2016-05-08T07:33:33Z</time>
      </trkpt>
      <trkpt lat="45.33325" lon="5.40339">
        <ele>458.615448</ele>
        <time>2016-05-08T07:33:38Z</time>
      </trkpt>
      <trkpt lat="45.33324" lon="5.40345">
        <ele>458.975647</ele>
        <time>2016-05-08T07:33:42Z</time>
      </trkpt>
      <trkpt lat="45.33319" lon="5.40352">
        <ele>460.063477</ele>
        <time>2016-05-08T07:33:46Z</time>
      </trkpt>
      <trkpt lat="45.33318" lon="5.40359">
        <ele>460.616394</ele>
        <time>2016-05-08T07:33:50Z</time>
      </trkpt>
      <trkpt lat="45.33315" lon="5.40364">
        <ele>461.361084</ele>
        <time>2016-05-08T07:33:55Z</time>
      </trkpt>
      <trkpt lat="45.33308" lon="5.40364">
        <ele>462.479065</ele>
        <time>2016-05-08T07:33:58Z</time>
      </trkpt>
      <trkpt lat="45.33303" lon="5.40364">
        <ele>463.372803</ele>
        <time>2016-05-08T07:34:02Z</time>
      </trkpt>
      <trkpt lat="45.33296" lon="5.40363">
        <ele>464.421631</ele>
        <time>2016-05-08T07:34:06Z</time>
      </trkpt>
      <trkpt lat="45.33291" lon="5.40361">
        <ele>465.22052</ele>
        <time>2016-05-08T07:34:10Z</time>
      </trkpt>
      <trkpt lat="45.33286" lon="5.40358">
        <ele>465.941589</ele>
        <time>2016-05-08T07:34:16Z</time>
      </trkpt>
      <trkpt lat="45.33281" lon="5.40355">
        <ele>466.76767</ele>
        <time>2016-05-08T07:34:20Z</time>
      </trkpt>
      <trkpt lat="45.33276" lon="5.4035">
        <ele>467.418213</ele>
        <time>2016-05-08T07:34:25Z</time>
      </trkpt>
      <trkpt lat="45.33271" lon="5.40345">
        <ele>467.951843</ele>
        <time>2016-05-08T07:34:28Z</time>
      </trkpt>
      <trkpt lat="45.33267" lon="5.4034">
        <ele>468.455475</ele>
        <time>2016-05-08T07:34:31Z</time>
      </trkpt>
      <trkpt lat="45.33262" lon="5.40336">
        <ele>469.031586</ele>
        <time>2016-05-08T07:34:35Z</time>
      </trkpt>
      <trkpt lat="45.33258" lon="5.40331">
        <ele>469.551025</ele>
        <time>2016-05-08T07:34:39Z</time>
      </trkpt>
      <trkpt lat="45.33253" lon="5.40327">
        <ele>470.205139</ele>
        <time>2016-05-08T07:34:43Z</time>
      </trkpt>
      <trkpt lat="45.33246" lon="5.4032">
        <ele>470.751434</ele>
        <time>2016-05-08T07:34:47Z</time>
      </trkpt>
      <trkpt lat="45.33242" lon="5.40313">
        <ele>470.823669</ele>
        <time>2016-05-08T07:34:51Z</time>
      </trkpt>
      <trkpt lat="45.33238" lon="5.40308">
        <ele>471.061096</ele>
        <time>2016-05-08T07:34:54Z</time>
      </trkpt>
      <trkpt lat="45.33234" lon="5.40305">
        <ele>471.320923</ele>
        <time>2016-05-08T07:34:57Z</time>
      </trkpt>
      <trkpt lat="45.33229" lon="5.40301">
        <ele>471.579742</ele>
        <time>2016-05-08T07:35:01Z</time>
      </trkpt>
      <trkpt lat="45.33225" lon="5.40297">
        <ele>471.81424</ele>
        <time>2016-05-08T07:35:04Z</time>
      </trkpt>
      <trkpt lat="45.33219" lon="5.40293">
        <ele>472.180511</ele>
        <time>2016-05-08T07:35:08Z</time>
      </trkpt>
      <trkpt lat="45.33214" lon="5.40287">
        <ele>472.461029</ele>
        <time>2016-05-08T07:35:12Z</time>
      </trkpt>
      <trkpt lat="45.33209" lon="5.40284">
        <ele>472.71283</ele>
        <time>2016-05-08T07:35:15Z</time>
      </trkpt>
      <trkpt lat="45.33204" lon="5.4028">
        <ele>473.109222</ele>
        <time>2016-05-08T07:35:18Z</time>
      </trkpt>
      <trkpt lat="45.33199" lon="5.40277">
        <ele>473.400818</ele>
        <time>2016-05-08T07:35:21Z</time>
      </trkpt>
      <trkpt lat="45.33194" lon="5.40272">
        <ele>473.596802</ele>
        <time>2016-05-08T07:35:24Z</time>
      </trkpt>
      <trkpt lat="45.3319" lon="5.40269">
        <ele>473.852661</ele>
        <time>2016-05-08T07:35:27Z</time>
      </trkpt>
      <trkpt lat="45.33184" lon="5.40264">
        <ele>474.106018</ele>
        <time>2016-05-08T07:35:30Z</time>
      </trkpt>
      <trkpt lat="45.33177" lon="5.4026">
        <ele>474.543488</ele>
        <time>2016-05-08T07:35:34Z</time>
      </trkpt>
      <trkpt lat="45.33171" lon="5.40257">
        <ele>475.038147</ele>
        <time>2016-05-08T07:35:37Z</time>
      </trkpt>
      <trkpt lat="45.3316" lon="5.40258">
        <ele>476.103821</ele>
        <time>2016-05-08T07:35:41Z</time>
      </trkpt>
      <trkpt lat="45.33156" lon="5.40264">
        <ele>476.794067</ele>
        <time>2016-05-08T07:35:44Z</time>
      </trkpt>
      <trkpt lat="45.33157" lon="5.40275">
        <ele>477.363129</ele>
        <time>2016-05-08T07:35:48Z</time>
      </trkpt>
      <trkpt lat="45.33158" lon="5.40288">
        <ele>478.057922</ele>
        <time>2016-05-08T07:35:52Z</time>
      </trkpt>
      <trkpt lat="45.33155" lon="5.40302">
        <ele>479.106323</ele>
        <time>2016-05-08T07:35:56Z</time>
      </trkpt>
      <trkpt lat="45.33152" lon="5.4031">
        <ele>479.918457</ele>
        <time>2016-05-08T07:36:00Z</time>
      </trkpt>
      <trkpt lat="45.33154" lon="5.4032">
        <ele>480.349243</ele>
        <time>2016-05-08T07:36:04Z</time>
      </trkpt>
      <trkpt lat="45.33157" lon="5.40328">
        <ele>480.48172</ele>
        <time>2016-05-08T07:36:07Z</time>
      </trkpt>
      <trkpt lat="45.3316" lon="5.40343">
        <ele>480.936584</ele>
        <time>2016-05-08T07:36:11Z</time>
      </trkpt>
      <trkpt lat="45.33162" lon="5.40353">
        <ele>481.150238</ele>
        <time>2016-05-08T07:36:14Z</time>
      </trkpt>
      <trkpt lat="45.33162" lon="5.40372">
        <ele>481.77713</ele>
        <time>2016-05-08T07:36:18Z</time>
      </trkpt>
      <trkpt lat="45.33163" lon="5.40386">
        <ele>482.226929</ele>
        <time>2016-05-08T07:36:22Z</time>
      </trkpt>
      <trkpt lat="45.33163" lon="5.40398">
        <ele>482.648651</ele>
        <time>2016-05-08T07:36:26Z</time>
      </trkpt>
      <trkpt lat="45.33161" lon="5.40409">
        <ele>483.279053</ele>
        <time>2016-05-08T07:36:29Z</time>
      </trkpt>
      <trkpt lat="45.33154" lon="5.40423">
        <ele>484.494751</ele>
        <time>2016-05-08T07:36:33Z</time>
      </trkpt>
      <trkpt lat="45.33149" lon="5.40435">
        <ele>485.549316</ele>
        <time>2016-05-08T07:36:36Z</time>
      </trkpt>
      <trkpt lat="45.33147" lon="5.40446">
        <ele>486.348022</ele>
        <time>2016-05-08T07:36:39Z</time>
      </trkpt>
      <trkpt lat="45.33146" lon="5.40462">
        <ele>487.187256</ele>
        <time>2016-05-08T07:36:43Z</time>
      </trkpt>
      <trkpt lat="45.33145" lon="5.40472">
        <ele>487.800415</ele>
        <time>2016-05-08T07:36:46Z</time>
      </trkpt>
      <trkpt lat="45.33146" lon="5.40486">
        <ele>488.333008</ele>
        <time>2016-05-08T07:36:50Z</time>
      </trkpt>
      <trkpt lat="45.33147" lon="5.40496">
        <ele>488.703979</ele>
        <time>2016-05-08T07:36:53Z</time>
      </trkpt>
      <trkpt lat="45.33148" lon="5.40506">
        <ele>488.977478</ele>
        <time>2016-05-08T07:36:56Z</time>
      </trkpt>
      <trkpt lat="45.33149" lon="5.40518">
        <ele>489.381073</ele>
        <time>2016-05-08T07:37:00Z</time>
      </trkpt>
      <trkpt lat="45.33148" lon="5.40528">
        <ele>489.751038</ele>
        <time>2016-05-08T07:37:03Z</time>
      </trkpt>
      <trkpt lat="45.33148" lon="5.40538">
        <ele>490.13324</ele>
        <time>2016-05-08T07:37:06Z</time>
      </trkpt>
      <trkpt lat="45.33148" lon="5.40552">
        <ele>490.667694</ele>
        <time>2016-05-08T07:37:10Z</time>
      </trkpt>
      <trkpt lat="45.33147" lon="5.40561">
        <ele>491.076263</ele>
        <time>2016-05-08T07:37:13Z</time>
      </trkpt>
      <trkpt lat="45.33146" lon="5.40575">
        <ele>491.637451</ele>
        <time>2016-05-08T07:37:17Z</time>
      </trkpt>
      <trkpt lat="45.33146" lon="5.40588">
        <ele>492.18927</ele>
        <time>2016-05-08T07:37:21Z</time>
      </trkpt>
      <trkpt lat="45.33145" lon="5.40598">
        <ele>492.657013</ele>
        <time>2016-05-08T07:37:24Z</time>
      </trkpt>
      <trkpt lat="45.33144" lon="5.40606">
        <ele>493.120728</ele>
        <time>2016-05-08T07:37:27Z</time>
      </trkpt>
      <trkpt lat="45.33139" lon="5.40617">
        <ele>493.936401</ele>
        <time>2016-05-08T07:37:31Z</time>
      </trkpt>
      <trkpt lat="45.33136" lon="5.40625">
        <ele>494.651794</ele>
        <time>2016-05-08T07:37:34Z</time>
      </trkpt>
      <trkpt lat="45.33132" lon="5.40637">
        <ele>495.500824</ele>
        <time>2016-05-08T07:37:38Z</time>
      </trkpt>
      <trkpt lat="45.3313" lon="5.40647">
        <ele>496.173889</ele>
        <time>2016-05-08T07:37:41Z</time>
      </trkpt>
      <trkpt lat="45.33127" lon="5.40657">
        <ele>496.925964</ele>
        <time>2016-05-08T07:37:45Z</time>
      </trkpt>
      <trkpt lat="45.33124" lon="5.40664">
        <ele>497.469177</ele>
        <time>2016-05-08T07:37:48Z</time>
      </trkpt>
      <trkpt lat="45.33122" lon="5.40672">
        <ele>498.028015</ele>
        <time>2016-05-08T07:37:51Z</time>
      </trkpt>
      <trkpt lat="45.3312" lon="5.40684">
        <ele>498.687744</ele>
        <time>2016-05-08T07:37:55Z</time>
      </trkpt>
      <trkpt lat="45.33117" lon="5.40692">
        <ele>499.314209</ele>
        <time>2016-05-08T07:37:59Z</time>
      </trkpt>
      <trkpt lat="45.33113" lon="5.40698">
        <ele>499.923859</ele>
        <time>2016-05-08T07:38:03Z</time>
      </trkpt>
      <trkpt lat="45.33111" lon="5.40706">
        <ele>500.482239</ele>
        <time>2016-05-08T07:38:06Z</time>
      </trkpt>
      <trkpt lat="45.33108" lon="5.40712">
        <ele>500.923889</ele>
        <time>2016-05-08T07:38:09Z</time>
      </trkpt>
      <trkpt lat="45.33106" lon="5.4072">
        <ele>501.465027</ele>
        <time>2016-05-08T07:38:13Z</time>
      </trkpt>
      <trkpt lat="45.33103" lon="5.40727">
        <ele>501.991119</ele>
        <time>2016-05-08T07:38:17Z</time>
      </trkpt>
      <trkpt lat="45.33101" lon="5.40732">
        <ele>502.458679</ele>
        <time>2016-05-08T07:38:20Z</time>
      </trkpt>
      <trkpt lat="45.33097" lon="5.40738">
        <ele>503.091003</ele>
        <time>2016-05-08T07:38:24Z</time>
      </trkpt>
      <trkpt lat="45.33093" lon="5.40745">
        <ele>503.796173</ele>
        <time>2016-05-08T07:38:28Z</time>
      </trkpt>
      <trkpt lat="45.33088" lon="5.40749">
        <ele>504.45697</ele>
        <time>2016-05-08T07:38:32Z</time>
      </trkpt>
      <trkpt lat="45.33084" lon="5.40745">
        <ele>504.795563</ele>
        <time>2016-05-08T07:38:36Z</time>
      </trkpt>
      <trkpt lat="45.33081" lon="5.40737">
        <ele>505.007233</ele>
        <time>2016-05-08T07:38:40Z</time>
      </trkpt>
      <trkpt lat="45.33079" lon="5.4073">
        <ele>505.248291</ele>
        <time>2016-05-08T07:38:43Z</time>
      </trkpt>
      <trkpt lat="45.33075" lon="5.40719">
        <ele>505.696625</ele>
        <time>2016-05-08T07:38:47Z</time>
      </trkpt>
      <trkpt lat="45.33074" lon="5.40712">
        <ele>505.752563</ele>
        <time>2016-05-08T07:38:50Z</time>
      </trkpt>
      <trkpt lat="45.3307" lon="5.40704">
        <ele>506.320007</ele>
        <time>2016-05-08T07:38:53Z</time>
      </trkpt>
      <trkpt lat="45.33062" lon="5.4069">
        <ele>507.496826</ele>
        <time>2016-05-08T07:38:57Z</time>
      </trkpt>
      <trkpt lat="45.33054" lon="5.40679">
        <ele>508.765991</ele>
        <time>2016-05-08T07:39:01Z</time>
      </trkpt>
      <trkpt lat="45.33046" lon="5.40672">
        <ele>510.242004</ele>
        <time>2016-05-08T07:39:05Z</time>
      </trkpt>
      <trkpt lat="45.33042" lon="5.40666">
        <ele>510.827698</ele>
        <time>2016-05-08T07:39:08Z</time>
      </trkpt>
      <trkpt lat="45.33035" lon="5.40658">
        <ele>512.01709</ele>
        <time>2016-05-08T07:39:12Z</time>
      </trkpt>
      <trkpt lat="45.3303" lon="5.40653">
        <ele>512.994507</ele>
        <time>2016-05-08T07:39:15Z</time>
      </trkpt>
      <trkpt lat="45.33026" lon="5.40646">
        <ele>513.518738</ele>
        <time>2016-05-08T07:39:18Z</time>
      </trkpt>
      <trkpt lat="45.33022" lon="5.40638">
        <ele>514.089539</ele>
        <time>2016-05-08T07:39:21Z</time>
      </trkpt>
      <trkpt lat="45.33017" lon="5.4063">
        <ele>515.0047</ele>
        <time>2016-05-08T07:39:25Z</time>
      </trkpt>
      <trkpt lat="45.33014" lon="5.40624">
        <ele>515.423584</ele>
        <time>2016-05-08T07:39:28Z</time>
      </trkpt>
      <trkpt lat="45.3301" lon="5.40619">
        <ele>516.03363</ele>
        <time>2016-05-08T07:39:31Z</time>
      </trkpt>
      <trkpt lat="45.33004" lon="5.40613">
        <ele>517.161499</ele>
        <time>2016-05-08T07:39:35Z</time>
      </trkpt>
      <trkpt lat="45.33" lon="5.40607">
        <ele>517.828613</ele>
        <time>2016-05-08T07:39:38Z</time>
      </trkpt>
      <trkpt lat="45.32997" lon="5.40602">
        <ele>518.625549</ele>
        <time>2016-05-08T07:39:41Z</time>
      </trkpt>
      <trkpt lat="45.32992" lon="5.40596">
        <ele>519.966675</ele>
        <time>2016-05-08T07:39:45Z</time>
      </trkpt>
      <trkpt lat="45.32987" lon="5.40588">
        <ele>521.286926</ele>
        <time>2016-05-08T07:39:49Z</time>
      </trkpt>
      <trkpt lat="45.32984" lon="5.40582">
        <ele>522.007141</ele>
        <time>2016-05-08T07:39:53Z</time>
      </trkpt>
      <trkpt lat="45.32981" lon="5.40574">
        <ele>522.692871</ele>
        <time>2016-05-08T07:39:57Z</time>
      </trkpt>
      <trkpt lat="45.32978" lon="5.40565">
        <ele>523.203918</ele>
        <time>2016-05-08T07:40:00Z</time>
      </trkpt>
      <trkpt lat="45.32977" lon="5.40554">
        <ele>523.125061</ele>
        <time>2016-05-08T07:40:04Z</time>
      </trkpt>
      <trkpt lat="45.32977" lon="5.40543">
        <ele>522.653442</ele>
        <time>2016-05-08T07:40:08Z</time>
      </trkpt>
      <trkpt lat="45.32977" lon="5.40531">
        <ele>522.466248</ele>
        <time>2016-05-08T07:40:11Z</time>
      </trkpt>
      <trkpt lat="45.32972" lon="5.4052">
        <ele>523.537292</ele>
        <time>2016-05-08T07:40:15Z</time>
      </trkpt>
      <trkpt lat="45.32968" lon="5.40512">
        <ele>524.501648</ele>
        <time>2016-05-08T07:40:18Z</time>
      </trkpt>
      <trkpt lat="45.32966" lon="5.40504">
        <ele>524.839539</ele>
        <time>2016-05-08T07:40:22Z</time>
      </trkpt>
      <trkpt lat="45.32963" lon="5.40498">
        <ele>525.489929</ele>
        <time>2016-05-08T07:40:26Z</time>
      </trkpt>
      <trkpt lat="45.32959" lon="5.40492">
        <ele>526.495483</ele>
        <time>2016-05-08T07:40:30Z</time>
      </trkpt>
      <trkpt lat="45.32955" lon="5.40485">
        <ele>527.585632</ele>
        <time>2016-05-08T07:40:34Z</time>
      </trkpt>
      <trkpt lat="45.32951" lon="5.40477">
        <ele>528.444397</ele>
        <time>2016-05-08T07:40:38Z</time>
      </trkpt>
      <trkpt lat="45.32948" lon="5.40472">
        <ele>529.236145</ele>
        <time>2016-05-08T07:40:42Z</time>
      </trkpt>
      <trkpt lat="45.32944" lon="5.40467">
        <ele>530.233704</ele>
        <time>2016-05-08T07:40:47Z</time>
      </trkpt>
      <trkpt lat="45.3294" lon="5.40463">
        <ele>531.23114</ele>
        <time>2016-05-08T07:40:51Z</time>
      </trkpt>
      <trkpt lat="45.32936" lon="5.40459">
        <ele>532.53833</ele>
        <time>2016-05-08T07:40:56Z</time>
      </trkpt>
      <trkpt lat="45.32931" lon="5.40455">
        <ele>533.773804</ele>
        <time>2016-05-08T07:41:00Z</time>
      </trkpt>
      <trkpt lat="45.32926" lon="5.4045">
        <ele>535.119385</ele>
        <time>2016-05-08T07:41:05Z</time>
      </trkpt>
      <trkpt lat="45.32922" lon="5.40446">
        <ele>536.318665</ele>
        <time>2016-05-08T07:41:10Z</time>
      </trkpt>
      <trkpt lat="45.32918" lon="5.40441">
        <ele>537.56665</ele>
        <time>2016-05-08T07:41:14Z</time>
      </trkpt>
      <trkpt lat="45.32914" lon="5.40436">
        <ele>538.449097</ele>
        <time>2016-05-08T07:41:18Z</time>
      </trkpt>
      <trkpt lat="45.32911" lon="5.40431">
        <ele>539.111694</ele>
        <time>2016-05-08T07:41:22Z</time>
      </trkpt>
      <trkpt lat="45.32908" lon="5.40425">
        <ele>539.780029</ele>
        <time>2016-05-08T07:41:26Z</time>
      </trkpt>
      <trkpt lat="45.32904" lon="5.40418">
        <ele>540.729309</ele>
        <time>2016-05-08T07:41:30Z</time>
      </trkpt>
      <trkpt lat="45.329" lon="5.40411">
        <ele>541.690002</ele>
        <time>2016-05-08T07:41:34Z</time>
      </trkpt>
      <trkpt lat="45.32895" lon="5.40403">
        <ele>542.684082</ele>
        <time>2016-05-08T07:41:38Z</time>
      </trkpt>
      <trkpt lat="45.32891" lon="5.40397">
        <ele>543.400085</ele>
        <time>2016-05-08T07:41:41Z</time>
      </trkpt>
      <trkpt lat="45.32888" lon="5.40391">
        <ele>544.106445</ele>
        <time>2016-05-08T07:41:45Z</time>
      </trkpt>
      <trkpt lat="45.32884" lon="5.40387">
        <ele>545.019775</ele>
        <time>2016-05-08T07:41:50Z</time>
      </trkpt>
      <trkpt lat="45.3288" lon="5.40382">
        <ele>545.895508</ele>
        <time>2016-05-08T07:41:55Z</time>
      </trkpt>
      <trkpt lat="45.32875" lon="5.40377">
        <ele>546.874939</ele>
        <time>2016-05-08T07:42:00Z</time>
      </trkpt>
      <trkpt lat="45.32871" lon="5.40373">
        <ele>547.711121</ele>
        <time>2016-05-08T07:42:05Z</time>
      </trkpt>
      <trkpt lat="45.32866" lon="5.40369">
        <ele>548.754761</ele>
        <time>2016-05-08T07:42:09Z</time>
      </trkpt>
      <trkpt lat="45.32862" lon="5.40366">
        <ele>549.639771</ele>
        <time>2016-05-08T07:42:13Z</time>
      </trkpt>
      <trkpt lat="45.32858" lon="5.40363">
        <ele>550.713501</ele>
        <time>2016-05-08T07:42:18Z</time>
      </trkpt>
      <trkpt lat="45.32853" lon="5.40358">
        <ele>551.703125</ele>
        <time>2016-05-08T07:42:22Z</time>
      </trkpt>
      <trkpt lat="45.32846" lon="5.40351">
        <ele>552.95105</ele>
        <time>2016-05-08T07:42:26Z</time>
      </trkpt>
      <trkpt lat="45.32842" lon="5.40348">
        <ele>553.808838</ele>
        <time>2016-05-08T07:42:29Z</time>
      </trkpt>
      <trkpt lat="45.32838" lon="5.40344">
        <ele>554.588257</ele>
        <time>2016-05-08T07:42:32Z</time>
      </trkpt>
      <trkpt lat="45.32832" lon="5.40338">
        <ele>555.522278</ele>
        <time>2016-05-08T07:42:36Z</time>
      </trkpt>
      <trkpt lat="45.32827" lon="5.40333">
        <ele>555.966919</ele>
        <time>2016-05-08T07:42:40Z</time>
      </trkpt>
      <trkpt lat="45.32823" lon="5.40327">
        <ele>555.948914</ele>
        <time>2016-05-08T07:42:43Z</time>
      </trkpt>
      <trkpt lat="45.32815" lon="5.40321">
        <ele>556.219116</ele>
        <time>2016-05-08T07:42:47Z</time>
      </trkpt>
      <trkpt lat="45.32809" lon="5.40312">
        <ele>556.177002</ele>
        <time>2016-05-08T07:42:51Z</time>
      </trkpt>
      <trkpt lat="45.32802" lon="5.40304">
        <ele>556.150574</ele>
        <time>2016-05-08T07:42:55Z</time>
      </trkpt>
      <trkpt lat="45.32797" lon="5.40297">
        <ele>556.010986</ele>
        <time>2016-05-08T07:42:58Z</time>
      </trkpt>
      <trkpt lat="45.3279" lon="5.40285">
        <ele>555.320068</ele>
        <time>2016-05-08T07:43:02Z</time>
      </trkpt>
      <trkpt lat="45.32781" lon="5.40278">
        <ele>555.732239</ele>
        <time>2016-05-08T07:43:06Z</time>
      </trkpt>
      <trkpt lat="45.32773" lon="5.40277">
        <ele>556.678955</ele>
        <time>2016-05-08T07:43:10Z</time>
      </trkpt>
      <trkpt lat="45.32765" lon="5.40276">
        <ele>557.644836</ele>
        <time>2016-05-08T07:43:14Z</time>
      </trkpt>
      <trkpt lat="45.32759" lon="5.40276">
        <ele>558.588623</ele>
        <time>2016-05-08T07:43:17Z</time>
      </trkpt>
      <trkpt lat="45.3275" lon="5.40275">
        <ele>559.602112</ele>
        <time>2016-05-08T07:43:21Z</time>
      </trkpt>
      <trkpt lat="45.32743" lon="5.40277">
        <ele>559.215759</ele>
        <time>2016-05-08T07:43:25Z</time>
      </trkpt>
      <trkpt lat="45.32736" lon="5.40279">
        <ele>558.810364</ele>
        <time>2016-05-08T07:43:29Z</time>
      </trkpt>
      <trkpt lat="45.3273" lon="5.40281">
        <ele>558.568176</ele>
        <time>2016-05-08T07:43:32Z</time>
      </trkpt>
      <trkpt lat="45.32723" lon="5.40285">
        <ele>558.578613</ele>
        <time>2016-05-08T07:43:36Z</time>
      </trkpt>
      <trkpt lat="45.32719" lon="5.40289">
        <ele>558.755737</ele>
        <time>2016-05-08T07:43:39Z</time>
      </trkpt>
      <trkpt lat="45.32712" lon="5.40294">
        <ele>558.928345</ele>
        <time>2016-05-08T07:43:43Z</time>
      </trkpt>
      <trkpt lat="45.32705" lon="5.40297">
        <ele>558.821838</ele>
        <time>2016-05-08T07:43:47Z</time>
      </trkpt>
      <trkpt lat="45.327" lon="5.403">
        <ele>558.83374</ele>
        <time>2016-05-08T07:43:50Z</time>
      </trkpt>
      <trkpt lat="45.32695" lon="5.40303">
        <ele>559.039001</ele>
        <time>2016-05-08T07:43:54Z</time>
      </trkpt>
      <trkpt lat="45.3269" lon="5.4031">
        <ele>559.67749</ele>
        <time>2016-05-08T07:43:58Z</time>
      </trkpt>
      <trkpt lat="45.32685" lon="5.40313">
        <ele>559.899414</ele>
        <time>2016-05-08T07:44:01Z</time>
      </trkpt>
      <trkpt lat="45.32681" lon="5.40317">
        <ele>560.144897</ele>
        <time>2016-05-08T07:44:04Z</time>
      </trkpt>
      <trkpt lat="45.32677" lon="5.40321">
        <ele>560.564697</ele>
        <time>2016-05-08T07:44:08Z</time>
      </trkpt>
      <trkpt lat="45.32678" lon="5.40328">
        <ele>561.80835</ele>
        <time>2016-05-08T07:44:15Z</time>
      </trkpt>
      <trkpt lat="45.32678" lon="5.40334">
        <ele>562.975586</ele>
        <time>2016-05-08T07:44:19Z</time>
      </trkpt>
      <trkpt lat="45.32681" lon="5.4034">
        <ele>564.140503</ele>
        <time>2016-05-08T07:44:25Z</time>
      </trkpt>
      <trkpt lat="45.32685" lon="5.40342">
        <ele>564.617432</ele>
        <time>2016-05-08T07:44:29Z</time>
      </trkpt>
      <trkpt lat="45.3269" lon="5.40344">
        <ele>565.266174</ele>
        <time>2016-05-08T07:44:33Z</time>
      </trkpt>
      <trkpt lat="45.32695" lon="5.40348">
        <ele>566.172791</ele>
        <time>2016-05-08T07:44:37Z</time>
      </trkpt>
      <trkpt lat="45.32699" lon="5.40352">
        <ele>567.002136</ele>
        <time>2016-05-08T07:44:41Z</time>
      </trkpt>
      <trkpt lat="45.32703" lon="5.40356">
        <ele>567.866028</ele>
        <time>2016-05-08T07:44:45Z</time>
      </trkpt>
      <trkpt lat="45.32704" lon="5.40364">
        <ele>568.998596</ele>
        <time>2016-05-08T07:44:50Z</time>
      </trkpt>
      <trkpt lat="45.327" lon="5.40369">
        <ele>569.482666</ele>
        <time>2016-05-08T07:44:54Z</time>
      </trkpt>
      <trkpt lat="45.32696" lon="5.40373">
        <ele>569.978516</ele>
        <time>2016-05-08T07:44:58Z</time>
      </trkpt>
      <trkpt lat="45.32694" lon="5.40379">
        <ele>570.673828</ele>
        <time>2016-05-08T07:45:02Z</time>
      </trkpt>
      <trkpt lat="45.3269" lon="5.40383">
        <ele>571.22406</ele>
        <time>2016-05-08T07:45:06Z</time>
      </trkpt>
      <trkpt lat="45.32688" lon="5.40389">
        <ele>572.023438</ele>
        <time>2016-05-08T07:45:10Z</time>
      </trkpt>
      <trkpt lat="45.32687" lon="5.40396">
        <ele>573.111572</ele>
        <time>2016-05-08T07:45:14Z</time>
      </trkpt>
      <trkpt lat="45.32685" lon="5.40402">
        <ele>573.945374</ele>
        <time>2016-05-08T07:45:19Z</time>
      </trkpt>
      <trkpt lat="45.32679" lon="5.40406">
        <ele>574.499146</ele>
        <time>2016-05-08T07:45:23Z</time>
      </trkpt>
      <trkpt lat="45.32675" lon="5.4041">
        <ele>575.075562</ele>
        <time>2016-05-08T07:45:27Z</time>
      </trkpt>
      <trkpt lat="45.32672" lon="5.40415">
        <ele>575.854065</ele>
        <time>2016-05-08T07:45:30Z</time>
      </trkpt>
      <trkpt lat="45.3267" lon="5.40423">
        <ele>577.098022</ele>
        <time>2016-05-08T07:45:35Z</time>
      </trkpt>
      <trkpt lat="45.32668" lon="5.40429">
        <ele>578.227051</ele>
        <time>2016-05-08T07:45:39Z</time>
      </trkpt>
      <trkpt lat="45.32664" lon="5.40435">
        <ele>578.729675</ele>
        <time>2016-05-08T07:45:43Z</time>
      </trkpt>
      <trkpt lat="45.32658" lon="5.40441">
        <ele>578.540588</ele>
        <time>2016-05-08T07:45:47Z</time>
      </trkpt>
      <trkpt lat="45.32653" lon="5.40448">
        <ele>578.616272</ele>
        <time>2016-05-08T07:45:51Z</time>
      </trkpt>
      <trkpt lat="45.32647" lon="5.40455">
        <ele>578.633423</ele>
        <time>2016-05-08T07:45:54Z</time>
      </trkpt>
      <trkpt lat="45.32644" lon="5.40463">
        <ele>579.354858</ele>
        <time>2016-05-08T07:45:58Z</time>
      </trkpt>
      <trkpt lat="45.32646" lon="5.40473">
        <ele>581.345581</ele>
        <time>2016-05-08T07:46:02Z</time>
      </trkpt>
      <trkpt lat="45.32646" lon="5.40481">
        <ele>582.708679</ele>
        <time>2016-05-08T07:46:06Z</time>
      </trkpt>
      <trkpt lat="45.32645" lon="5.40489">
        <ele>583.944458</ele>
        <time>2016-05-08T07:46:10Z</time>
      </trkpt>
      <trkpt lat="45.32642" lon="5.40495">
        <ele>584.391602</ele>
        <time>2016-05-08T07:46:14Z</time>
      </trkpt>
      <trkpt lat="45.32642" lon="5.40502">
        <ele>585.37738</ele>
        <time>2016-05-08T07:46:18Z</time>
      </trkpt>
      <trkpt lat="45.32641" lon="5.40509">
        <ele>585.839539</ele>
        <time>2016-05-08T07:46:22Z</time>
      </trkpt>
      <trkpt lat="45.3264" lon="5.40516">
        <ele>586.454956</ele>
        <time>2016-05-08T07:46:27Z</time>
      </trkpt>
      <trkpt lat="45.3264" lon="5.40523">
        <ele>587.322571</ele>
        <time>2016-05-08T07:46:31Z</time>
      </trkpt>
      <trkpt lat="45.32638" lon="5.4053">
        <ele>587.743103</ele>
        <time>2016-05-08T07:46:35Z</time>
      </trkpt>
      <trkpt lat="45.32637" lon="5.40537">
        <ele>588.401367</ele>
        <time>2016-05-08T07:46:39Z</time>
      </trkpt>
      <trkpt lat="45.32635" lon="5.40545">
        <ele>588.89386</ele>
        <time>2016-05-08T07:46:43Z</time>
      </trkpt>
      <trkpt lat="45.32635" lon="5.40553">
        <ele>589.758484</ele>
        <time>2016-05-08T07:46:47Z</time>
      </trkpt>
      <trkpt lat="45.32637" lon="5.40559">
        <ele>590.911743</ele>
        <time>2016-05-08T07:46:51Z</time>
      </trkpt>
      <trkpt lat="45.32637" lon="5.40565">
        <ele>591.849548</ele>
        <time>2016-05-08T07:46:55Z</time>
      </trkpt>
      <trkpt lat="45.32635" lon="5.40573">
        <ele>592.360474</ele>
        <time>2016-05-08T07:46:59Z</time>
      </trkpt>
      <trkpt lat="45.32634" lon="5.40583">
        <ele>593.346863</ele>
        <time>2016-05-08T07:47:03Z</time>
      </trkpt>
      <trkpt lat="45.32634" lon="5.40591">
        <ele>593.479919</ele>
        <time>2016-05-08T07:47:06Z</time>
      </trkpt>
      <trkpt lat="45.32634" lon="5.40601">
        <ele>593.578491</ele>
        <time>2016-05-08T07:47:10Z</time>
      </trkpt>
      <trkpt lat="45.32634" lon="5.40608">
        <ele>593.814514</ele>
        <time>2016-05-08T07:47:13Z</time>
      </trkpt>
      <trkpt lat="45.32636" lon="5.40618">
        <ele>594.379089</ele>
        <time>2016-05-08T07:47:17Z</time>
      </trkpt>
      <trkpt lat="45.3264" lon="5.40624">
        <ele>595.266968</ele>
        <time>2016-05-08T07:47:21Z</time>
      </trkpt>
      <trkpt lat="45.32643" lon="5.4063">
        <ele>595.862976</ele>
        <time>2016-05-08T07:47:24Z</time>
      </trkpt>
      <trkpt lat="45.32646" lon="5.40637">
        <ele>596.357666</ele>
        <time>2016-05-08T07:47:27Z</time>
      </trkpt>
      <trkpt lat="45.32647" lon="5.40644">
        <ele>596.654663</ele>
        <time>2016-05-08T07:47:30Z</time>
      </trkpt>
      <trkpt lat="45.32651" lon="5.40654">
        <ele>597.39093</ele>
        <time>2016-05-08T07:47:34Z</time>
      </trkpt>
      <trkpt lat="45.32651" lon="5.40665">
        <ele>597.580078</ele>
        <time>2016-05-08T07:47:38Z</time>
      </trkpt>
      <trkpt lat="45.3265" lon="5.40677">
        <ele>597.412048</ele>
        <time>2016-05-08T07:47:42Z</time>
      </trkpt>
      <trkpt lat="45.32646" lon="5.40693">
        <ele>596.548218</ele>
        <time>2016-05-08T07:47:45Z</time>
      </trkpt>
      <trkpt lat="45.32657" lon="5.40723">
        <ele>598.247009</ele>
        <time>2016-05-08T07:47:48Z</time>
      </trkpt>
      <trkpt lat="45.32663" lon="5.40769">
        <ele>599.25177</ele>
        <time>2016-05-08T07:47:52Z</time>
      </trkpt>
      <trkpt lat="45.32665" lon="5.40809">
        <ele>599.701233</ele>
        <time>2016-05-08T07:47:55Z</time>
      </trkpt>
      <trkpt lat="45.32671" lon="5.40851">
        <ele>598.786133</ele>
        <time>2016-05-08T07:47:58Z</time>
      </trkpt>
      <trkpt lat="45.32685" lon="5.40902">
        <ele>595.723511</ele>
        <time>2016-05-08T07:48:02Z</time>
      </trkpt>
      <trkpt lat="45.32691" lon="5.40941">
        <ele>592.74353</ele>
        <time>2016-05-08T07:48:05Z</time>
      </trkpt>
      <trkpt lat="45.32699" lon="5.4095">
        <ele>591.809875</ele>
        <time>2016-05-08T07:48:09Z</time>
      </trkpt>
      <trkpt lat="45.32713" lon="5.40952">
        <ele>591.398926</ele>
        <time>2016-05-08T07:48:13Z</time>
      </trkpt>
      <trkpt lat="45.32733" lon="5.40955">
        <ele>590.868042</ele>
        <time>2016-05-08T07:48:17Z</time>
      </trkpt>
      <trkpt lat="45.3275" lon="5.40985">
        <ele>589.520386</ele>
        <time>2016-05-08T07:48:20Z</time>
      </trkpt>
      <trkpt lat="45.32758" lon="5.41024">
        <ele>587.002319</ele>
        <time>2016-05-08T07:48:24Z</time>
      </trkpt>
      <trkpt lat="45.3275" lon="5.41051">
        <ele>587.154663</ele>
        <time>2016-05-08T07:48:27Z</time>
      </trkpt>
      <trkpt lat="45.32755" lon="5.41069">
        <ele>586.007263</ele>
        <time>2016-05-08T07:48:30Z</time>
      </trkpt>
      <trkpt lat="45.32768" lon="5.41081">
        <ele>584.279541</ele>
        <time>2016-05-08T07:48:34Z</time>
      </trkpt>
      <trkpt lat="45.32782" lon="5.41088">
        <ele>582.854492</ele>
        <time>2016-05-08T07:48:37Z</time>
      </trkpt>
      <trkpt lat="45.328" lon="5.41086">
        <ele>581.138916</ele>
        <time>2016-05-08T07:48:41Z</time>
      </trkpt>
      <trkpt lat="45.3282" lon="5.41088">
        <ele>579.279541</ele>
        <time>2016-05-08T07:48:44Z</time>
      </trkpt>
      <trkpt lat="45.32848" lon="5.41102">
        <ele>574.454468</ele>
        <time>2016-05-08T07:48:47Z</time>
      </trkpt>
      <trkpt lat="45.32887" lon="5.41121">
        <ele>564.589417</ele>
        <time>2016-05-08T07:48:51Z</time>
      </trkpt>
      <trkpt lat="45.32908" lon="5.41128">
        <ele>559.319153</ele>
        <time>2016-05-08T07:48:54Z</time>
      </trkpt>
      <trkpt lat="45.32924" lon="5.41137">
        <ele>555.462158</ele>
        <time>2016-05-08T07:48:57Z</time>
      </trkpt>
      <trkpt lat="45.32935" lon="5.41146">
        <ele>552.723083</ele>
        <time>2016-05-08T07:49:00Z</time>
      </trkpt>
      <trkpt lat="45.3295" lon="5.41163">
        <ele>549.474426</ele>
        <time>2016-05-08T07:49:04Z</time>
      </trkpt>
      <trkpt lat="45.32965" lon="5.41171">
        <ele>546.061096</ele>
        <time>2016-05-08T07:49:07Z</time>
      </trkpt>
      <trkpt lat="45.32982" lon="5.41185">
        <ele>542.50824</ele>
        <time>2016-05-08T07:49:11Z</time>
      </trkpt>
      <trkpt lat="45.3299" lon="5.4119">
        <ele>540.691223</ele>
        <time>2016-05-08T07:49:14Z</time>
      </trkpt>
      <trkpt lat="45.32991" lon="5.41196">
        <ele>540.813904</ele>
        <time>2016-05-08T07:50:51Z</time>
      </trkpt>
      <trkpt lat="45.32999" lon="5.41201">
        <ele>538.895447</ele>
        <time>2016-05-08T07:50:54Z</time>
      </trkpt>
      <trkpt lat="45.33015" lon="5.41206">
        <ele>535.95105</ele>
        <time>2016-05-08T07:50:57Z</time>
      </trkpt>
      <trkpt lat="45.33036" lon="5.41213">
        <ele>532.032532</ele>
        <time>2016-05-08T07:51:00Z</time>
      </trkpt>
      <trkpt lat="45.3306" lon="5.41214">
        <ele>527.420959</ele>
        <time>2016-05-08T07:51:04Z</time>
      </trkpt>
      <trkpt lat="45.33083" lon="5.41215">
        <ele>522.833008</ele>
        <time>2016-05-08T07:51:08Z</time>
      </trkpt>
      <trkpt lat="45.33101" lon="5.41214">
        <ele>520.719849</ele>
        <time>2016-05-08T07:51:11Z</time>
      </trkpt>
      <trkpt lat="45.33123" lon="5.41217">
        <ele>518.267334</ele>
        <time>2016-05-08T07:51:14Z</time>
      </trkpt>
      <trkpt lat="45.33146" lon="5.41222">
        <ele>515.77594</ele>
        <time>2016-05-08T07:51:18Z</time>
      </trkpt>
      <trkpt lat="45.33152" lon="5.41225">
        <ele>515.099121</ele>
        <time>2016-05-08T07:51:22Z</time>
      </trkpt>
      <trkpt lat="45.33153" lon="5.41239">
        <ele>515.340088</ele>
        <time>2016-05-08T07:51:26Z</time>
      </trkpt>
      <trkpt lat="45.33152" lon="5.41262">
        <ele>515.779663</ele>
        <time>2016-05-08T07:51:30Z</time>
      </trkpt>
      <trkpt lat="45.33153" lon="5.41281">
        <ele>515.740234</ele>
        <time>2016-05-08T07:51:33Z</time>
      </trkpt>
      <trkpt lat="45.33151" lon="5.41301">
        <ele>516.073059</ele>
        <time>2016-05-08T07:51:37Z</time>
      </trkpt>
      <trkpt lat="45.33147" lon="5.41313">
        <ele>516.682617</ele>
        <time>2016-05-08T07:51:40Z</time>
      </trkpt>
      <trkpt lat="45.33147" lon="5.41323">
        <ele>516.723633</ele>
        <time>2016-05-08T07:51:43Z</time>
      </trkpt>
      <trkpt lat="45.33143" lon="5.41332">
        <ele>517.347595</ele>
        <time>2016-05-08T07:51:47Z</time>
      </trkpt>
      <trkpt lat="45.33138" lon="5.41337">
        <ele>518.058044</ele>
        <time>2016-05-08T07:51:51Z</time>
      </trkpt>
      <trkpt lat="45.33133" lon="5.41345">
        <ele>518.604248</ele>
        <time>2016-05-08T07:51:55Z</time>
      </trkpt>
      <trkpt lat="45.33131" lon="5.41354">
        <ele>518.711792</ele>
        <time>2016-05-08T07:51:59Z</time>
      </trkpt>
      <trkpt lat="45.33129" lon="5.41362">
        <ele>518.816895</ele>
        <time>2016-05-08T07:52:03Z</time>
      </trkpt>
      <trkpt lat="45.33123" lon="5.4137">
        <ele>519.647705</ele>
        <time>2016-05-08T07:52:07Z</time>
      </trkpt>
      <trkpt lat="45.33118" lon="5.41373">
        <ele>520.58197</ele>
        <time>2016-05-08T07:52:11Z</time>
      </trkpt>
      <trkpt lat="45.33111" lon="5.41375">
        <ele>521.60907</ele>
        <time>2016-05-08T07:52:15Z</time>
      </trkpt>
      <trkpt lat="45.33105" lon="5.4138">
        <ele>522.72583</ele>
        <time>2016-05-08T07:52:19Z</time>
      </trkpt>
      <trkpt lat="45.331" lon="5.41384">
        <ele>523.660461</ele>
        <time>2016-05-08T07:52:22Z</time>
      </trkpt>
      <trkpt lat="45.33096" lon="5.41392">
        <ele>524.392029</ele>
        <time>2016-05-08T07:52:26Z</time>
      </trkpt>
      <trkpt lat="45.33093" lon="5.41397">
        <ele>524.920776</ele>
        <time>2016-05-08T07:52:29Z</time>
      </trkpt>
      <trkpt lat="45.33088" lon="5.41401">
        <ele>525.963135</ele>
        <time>2016-05-08T07:52:32Z</time>
      </trkpt>
      <trkpt lat="45.33082" lon="5.41403">
        <ele>527.290649</ele>
        <time>2016-05-08T07:52:36Z</time>
      </trkpt>
      <trkpt lat="45.33076" lon="5.41405">
        <ele>528.590088</ele>
        <time>2016-05-08T07:52:39Z</time>
      </trkpt>
      <trkpt lat="45.33072" lon="5.41409">
        <ele>529.772583</ele>
        <time>2016-05-08T07:52:42Z</time>
      </trkpt>
      <trkpt lat="45.33067" lon="5.41414">
        <ele>530.947388</ele>
        <time>2016-05-08T07:52:46Z</time>
      </trkpt>
      <trkpt lat="45.33064" lon="5.41419">
        <ele>531.801636</ele>
        <time>2016-05-08T07:52:49Z</time>
      </trkpt>
      <trkpt lat="45.33059" lon="5.41427">
        <ele>532.862305</ele>
        <time>2016-05-08T07:52:53Z</time>
      </trkpt>
      <trkpt lat="45.33057" lon="5.41433">
        <ele>533.303345</ele>
        <time>2016-05-08T07:52:56Z</time>
      </trkpt>
      <trkpt lat="45.33054" lon="5.41442">
        <ele>533.949036</ele>
        <time>2016-05-08T07:53:00Z</time>
      </trkpt>
      <trkpt lat="45.33052" lon="5.41454">
        <ele>534.268433</ele>
        <time>2016-05-08T07:53:04Z</time>
      </trkpt>
      <trkpt lat="45.3305" lon="5.41462">
        <ele>534.827637</ele>
        <time>2016-05-08T07:53:07Z</time>
      </trkpt>
      <trkpt lat="45.33047" lon="5.41468">
        <ele>535.424072</ele>
        <time>2016-05-08T07:53:10Z</time>
      </trkpt>
      <trkpt lat="45.33045" lon="5.41475">
        <ele>536.042664</ele>
        <time>2016-05-08T07:53:14Z</time>
      </trkpt>
      <trkpt lat="45.3304" lon="5.41479">
        <ele>537.119873</ele>
        <time>2016-05-08T07:53:18Z</time>
      </trkpt>
      <trkpt lat="45.33035" lon="5.41482">
        <ele>538.65155</ele>
        <time>2016-05-08T07:53:24Z</time>
      </trkpt>
      <trkpt lat="45.3303" lon="5.41483">
        <ele>539.930359</ele>
        <time>2016-05-08T07:53:28Z</time>
      </trkpt>
      <trkpt lat="45.33026" lon="5.41488">
        <ele>541.022095</ele>
        <time>2016-05-08T07:53:32Z</time>
      </trkpt>
      <trkpt lat="45.33021" lon="5.41493">
        <ele>542.132812</ele>
        <time>2016-05-08T07:53:36Z</time>
      </trkpt>
      <trkpt lat="45.33018" lon="5.41496">
        <ele>543.178589</ele>
        <time>2016-05-08T07:53:39Z</time>
      </trkpt>
      <trkpt lat="45.33013" lon="5.415">
        <ele>544.508423</ele>
        <time>2016-05-08T07:53:43Z</time>
      </trkpt>
      <trkpt lat="45.3301" lon="5.41507">
        <ele>545.280334</ele>
        <time>2016-05-08T07:53:48Z</time>
      </trkpt>
      <trkpt lat="45.33005" lon="5.41508">
        <ele>546.606384</ele>
        <time>2016-05-08T07:53:53Z</time>
      </trkpt>
      <trkpt lat="45.33" lon="5.41507">
        <ele>548.003662</ele>
        <time>2016-05-08T07:53:58Z</time>
      </trkpt>
      <trkpt lat="45.32997" lon="5.41513">
        <ele>548.716675</ele>
        <time>2016-05-08T07:54:05Z</time>
      </trkpt>
      <trkpt lat="45.32995" lon="5.41519">
        <ele>549.339355</ele>
        <time>2016-05-08T07:54:09Z</time>
      </trkpt>
      <trkpt lat="45.32992" lon="5.41526">
        <ele>549.844666</ele>
        <time>2016-05-08T07:54:13Z</time>
      </trkpt>
      <trkpt lat="45.32993" lon="5.41536">
        <ele>549.678162</ele>
        <time>2016-05-08T07:54:16Z</time>
      </trkpt>
      <trkpt lat="45.32993" lon="5.41548">
        <ele>549.833618</ele>
        <time>2016-05-08T07:54:20Z</time>
      </trkpt>
      <trkpt lat="45.3299" lon="5.41559">
        <ele>550.407837</ele>
        <time>2016-05-08T07:54:23Z</time>
      </trkpt>
      <trkpt lat="45.32989" lon="5.41569">
        <ele>550.820007</ele>
        <time>2016-05-08T07:54:26Z</time>
      </trkpt>
      <trkpt lat="45.32988" lon="5.41582">
        <ele>551.032532</ele>
        <time>2016-05-08T07:54:30Z</time>
      </trkpt>
      <trkpt lat="45.32986" lon="5.41592">
        <ele>551.337402</ele>
        <time>2016-05-08T07:54:33Z</time>
      </trkpt>
      <trkpt lat="45.32986" lon="5.41599">
        <ele>551.204956</ele>
        <time>2016-05-08T07:54:36Z</time>
      </trkpt>
      <trkpt lat="45.32985" lon="5.4161">
        <ele>551.094727</ele>
        <time>2016-05-08T07:54:40Z</time>
      </trkpt>
      <trkpt lat="45.32983" lon="5.41618">
        <ele>551.375061</ele>
        <time>2016-05-08T07:54:43Z</time>
      </trkpt>
      <trkpt lat="45.32982" lon="5.41626">
        <ele>551.508606</ele>
        <time>2016-05-08T07:54:46Z</time>
      </trkpt>
      <trkpt lat="45.32981" lon="5.41635">
        <ele>551.52301</ele>
        <time>2016-05-08T07:54:50Z</time>
      </trkpt>
      <trkpt lat="45.32979" lon="5.41643">
        <ele>551.775452</ele>
        <time>2016-05-08T07:54:53Z</time>
      </trkpt>
      <trkpt lat="45.32977" lon="5.41652">
        <ele>552.176514</ele>
        <time>2016-05-08T07:54:57Z</time>
      </trkpt>
      <trkpt lat="45.32973" lon="5.41658">
        <ele>553.070679</ele>
        <time>2016-05-08T07:55:01Z</time>
      </trkpt>
      <trkpt lat="45.32968" lon="5.41659">
        <ele>554.260376</ele>
        <time>2016-05-08T07:55:04Z</time>
      </trkpt>
      <trkpt lat="45.32963" lon="5.41658">
        <ele>555.559814</ele>
        <time>2016-05-08T07:55:08Z</time>
      </trkpt>
      <trkpt lat="45.32958" lon="5.41658">
        <ele>556.891541</ele>
        <time>2016-05-08T07:55:12Z</time>
      </trkpt>
      <trkpt lat="45.32952" lon="5.41657">
        <ele>558.261475</ele>
        <time>2016-05-08T07:55:17Z</time>
      </trkpt>
      <trkpt lat="45.32947" lon="5.41655">
        <ele>559.544556</ele>
        <time>2016-05-08T07:55:21Z</time>
      </trkpt>
      <trkpt lat="45.32943" lon="5.41651">
        <ele>560.826355</ele>
        <time>2016-05-08T07:55:26Z</time>
      </trkpt>
      <trkpt lat="45.32937" lon="5.41648">
        <ele>562.203552</ele>
        <time>2016-05-08T07:55:31Z</time>
      </trkpt>
      <trkpt lat="45.32932" lon="5.41645">
        <ele>563.744629</ele>
        <time>2016-05-08T07:55:35Z</time>
      </trkpt>
      <trkpt lat="45.32928" lon="5.4164">
        <ele>564.713806</ele>
        <time>2016-05-08T07:55:42Z</time>
      </trkpt>
      <trkpt lat="45.32924" lon="5.41636">
        <ele>565.907898</ele>
        <time>2016-05-08T07:55:46Z</time>
      </trkpt>
      <trkpt lat="45.3292" lon="5.41631">
        <ele>567.005981</ele>
        <time>2016-05-08T07:55:50Z</time>
      </trkpt>
      <trkpt lat="45.32916" lon="5.41627">
        <ele>568.032471</ele>
        <time>2016-05-08T07:55:54Z</time>
      </trkpt>
      <trkpt lat="45.32912" lon="5.41624">
        <ele>568.584045</ele>
        <time>2016-05-08T07:55:57Z</time>
      </trkpt>
      <trkpt lat="45.32907" lon="5.41625">
        <ele>569.191101</ele>
        <time>2016-05-08T07:56:02Z</time>
      </trkpt>
      <trkpt lat="45.32903" lon="5.41628">
        <ele>569.609009</ele>
        <time>2016-05-08T07:56:10Z</time>
      </trkpt>
      <trkpt lat="45.32899" lon="5.41633">
        <ele>569.953979</ele>
        <time>2016-05-08T07:56:14Z</time>
      </trkpt>
      <trkpt lat="45.32895" lon="5.41638">
        <ele>570.235901</ele>
        <time>2016-05-08T07:56:24Z</time>
      </trkpt>
      <trkpt lat="45.32892" lon="5.41643">
        <ele>570.49469</ele>
        <time>2016-05-08T07:56:29Z</time>
      </trkpt>
      <trkpt lat="45.32888" lon="5.41647">
        <ele>570.864624</ele>
        <time>2016-05-08T07:56:35Z</time>
      </trkpt>
      <trkpt lat="45.32887" lon="5.41654">
        <ele>570.802002</ele>
        <time>2016-05-08T07:56:42Z</time>
      </trkpt>
      <trkpt lat="45.32885" lon="5.4166">
        <ele>570.972656</ele>
        <time>2016-05-08T07:56:48Z</time>
      </trkpt>
      <trkpt lat="45.32884" lon="5.41667">
        <ele>570.956665</ele>
        <time>2016-05-08T07:56:57Z</time>
      </trkpt>
      <trkpt lat="45.3288" lon="5.41672">
        <ele>571.293396</ele>
        <time>2016-05-08T07:57:04Z</time>
      </trkpt>
      <trkpt lat="45.32876" lon="5.41676">
        <ele>571.709229</ele>
        <time>2016-05-08T07:57:09Z</time>
      </trkpt>
      <trkpt lat="45.32871" lon="5.41677">
        <ele>572.189636</ele>
        <time>2016-05-08T07:57:14Z</time>
      </trkpt>
      <trkpt lat="45.32867" lon="5.41679">
        <ele>572.671875</ele>
        <time>2016-05-08T07:57:19Z</time>
      </trkpt>
      <trkpt lat="45.32862" lon="5.4168">
        <ele>573.250671</ele>
        <time>2016-05-08T07:57:25Z</time>
      </trkpt>
      <trkpt lat="45.32857" lon="5.41679">
        <ele>573.784058</ele>
        <time>2016-05-08T07:57:29Z</time>
      </trkpt>
      <trkpt lat="45.32852" lon="5.41679">
        <ele>574.345215</ele>
        <time>2016-05-08T07:57:34Z</time>
      </trkpt>
      <trkpt lat="45.32848" lon="5.41679">
        <ele>574.86853</ele>
        <time>2016-05-08T07:57:45Z</time>
      </trkpt>
      <trkpt lat="45.32843" lon="5.4168">
        <ele>575.446594</ele>
        <time>2016-05-08T07:57:50Z</time>
      </trkpt>
      <trkpt lat="45.32838" lon="5.4168">
        <ele>575.988831</ele>
        <time>2016-05-08T07:57:55Z</time>
      </trkpt>
      <trkpt lat="45.32833" lon="5.41679">
        <ele>576.55249</ele>
        <time>2016-05-08T07:58:00Z</time>
      </trkpt>
      <trkpt lat="45.32828" lon="5.41679">
        <ele>576.264771</ele>
        <time>2016-05-08T07:58:05Z</time>
      </trkpt>
      <trkpt lat="45.32823" lon="5.41682">
        <ele>575.881836</ele>
        <time>2016-05-08T07:58:13Z</time>
      </trkpt>
      <trkpt lat="45.32819" lon="5.41682">
        <ele>575.593262</ele>
        <time>2016-05-08T07:58:16Z</time>
      </trkpt>
      <trkpt lat="45.32811" lon="5.41682">
        <ele>575.145813</ele>
        <time>2016-05-08T07:58:20Z</time>
      </trkpt>
      <trkpt lat="45.32802" lon="5.41682">
        <ele>574.637817</ele>
        <time>2016-05-08T07:58:24Z</time>
      </trkpt>
      <trkpt lat="45.32794" lon="5.41681">
        <ele>574.210449</ele>
        <time>2016-05-08T07:58:28Z</time>
      </trkpt>
      <trkpt lat="45.3279" lon="5.41678">
        <ele>574.064209</ele>
        <time>2016-05-08T07:58:31Z</time>
      </trkpt>
      <trkpt lat="45.32785" lon="5.41666">
        <ele>574.085999</ele>
        <time>2016-05-08T07:58:35Z</time>
      </trkpt>
      <trkpt lat="45.32775" lon="5.41654">
        <ele>573.805115</ele>
        <time>2016-05-08T07:58:38Z</time>
      </trkpt>
      <trkpt lat="45.32758" lon="5.41647">
        <ele>572.949219</ele>
        <time>2016-05-08T07:58:41Z</time>
      </trkpt>
      <trkpt lat="45.32743" lon="5.41644">
        <ele>570.494934</ele>
        <time>2016-05-08T07:58:44Z</time>
      </trkpt>
      <trkpt lat="45.32727" lon="5.41637">
        <ele>566.208313</ele>
        <time>2016-05-08T07:58:48Z</time>
      </trkpt>
      <trkpt lat="45.3272" lon="5.41605">
        <ele>564.886475</ele>
        <time>2016-05-08T07:58:52Z</time>
      </trkpt>
      <trkpt lat="45.32725" lon="5.41566">
        <ele>567.039368</ele>
        <time>2016-05-08T07:58:56Z</time>
      </trkpt>
      <trkpt lat="45.32711" lon="5.41545">
        <ele>563.471802</ele>
        <time>2016-05-08T07:58:59Z</time>
      </trkpt>
      <trkpt lat="45.32707" lon="5.41535">
        <ele>562.365723</ele>
        <time>2016-05-08T07:59:02Z</time>
      </trkpt>
      <trkpt lat="45.32704" lon="5.4152">
        <ele>561.757324</ele>
        <time>2016-05-08T07:59:05Z</time>
      </trkpt>
      <trkpt lat="45.32696" lon="5.4151">
        <ele>559.557068</ele>
        <time>2016-05-08T07:59:08Z</time>
      </trkpt>
      <trkpt lat="45.32695" lon="5.41495">
        <ele>559.476807</ele>
        <time>2016-05-08T07:59:12Z</time>
      </trkpt>
      <trkpt lat="45.32688" lon="5.41488">
        <ele>557.797791</ele>
        <time>2016-05-08T07:59:15Z</time>
      </trkpt>
      <trkpt lat="45.32671" lon="5.41467">
        <ele>553.045654</ele>
        <time>2016-05-08T07:59:19Z</time>
      </trkpt>
      <trkpt lat="45.32658" lon="5.41454">
        <ele>549.104065</ele>
        <time>2016-05-08T07:59:22Z</time>
      </trkpt>
      <trkpt lat="45.32648" lon="5.41442">
        <ele>546.229187</ele>
        <time>2016-05-08T07:59:26Z</time>
      </trkpt>
      <trkpt lat="45.32641" lon="5.41444">
        <ele>543.753418</ele>
        <time>2016-05-08T07:59:30Z</time>
      </trkpt>
      <trkpt lat="45.32635" lon="5.41457">
        <ele>541.345337</ele>
        <time>2016-05-08T07:59:33Z</time>
      </trkpt>
      <trkpt lat="45.32626" lon="5.41494">
        <ele>537.317993</ele>
        <time>2016-05-08T07:59:37Z</time>
      </trkpt>
      <trkpt lat="45.3262" lon="5.4153">
        <ele>534.897827</ele>
        <time>2016-05-08T07:59:40Z</time>
      </trkpt>
      <trkpt lat="45.32622" lon="5.4158">
        <ele>534.57019</ele>
        <time>2016-05-08T07:59:44Z</time>
      </trkpt>
      <trkpt lat="45.32623" lon="5.41617">
        <ele>534.073486</ele>
        <time>2016-05-08T07:59:47Z</time>
      </trkpt>
      <trkpt lat="45.32627" lon="5.41654">
        <ele>534.554932</ele>
        <time>2016-05-08T07:59:50Z</time>
      </trkpt>
      <trkpt lat="45.32628" lon="5.41685">
        <ele>534.203064</ele>
        <time>2016-05-08T07:59:54Z</time>
      </trkpt>
      <trkpt lat="45.32622" lon="5.41699">
        <ele>531.797363</ele>
        <time>2016-05-08T07:59:58Z</time>
      </trkpt>
      <trkpt lat="45.32614" lon="5.41698">
        <ele>528.909302</ele>
        <time>2016-05-08T08:00:02Z</time>
      </trkpt>
      <trkpt lat="45.32608" lon="5.41681">
        <ele>527.133057</ele>
        <time>2016-05-08T08:00:05Z</time>
      </trkpt>
      <trkpt lat="45.32598" lon="5.41642">
        <ele>524.667236</ele>
        <time>2016-05-08T08:00:08Z</time>
      </trkpt>
      <trkpt lat="45.32585" lon="5.41611">
        <ele>520.953369</ele>
        <time>2016-05-08T08:00:12Z</time>
      </trkpt>
      <trkpt lat="45.32573" lon="5.416">
        <ele>519.183777</ele>
        <time>2016-05-08T08:00:15Z</time>
      </trkpt>
      <trkpt lat="45.32545" lon="5.41599">
        <ele>515.626831</ele>
        <time>2016-05-08T08:00:19Z</time>
      </trkpt>
      <trkpt lat="45.32538" lon="5.41574">
        <ele>515.272522</ele>
        <time>2016-05-08T08:00:23Z</time>
      </trkpt>
      <trkpt lat="45.32535" lon="5.41557">
        <ele>515.291321</ele>
        <time>2016-05-08T08:00:26Z</time>
      </trkpt>
      <trkpt lat="45.32519" lon="5.41545">
        <ele>513.372925</ele>
        <time>2016-05-08T08:00:30Z</time>
      </trkpt>
      <trkpt lat="45.32517" lon="5.41521">
        <ele>513.769775</ele>
        <time>2016-05-08T08:00:33Z</time>
      </trkpt>
      <trkpt lat="45.32493" lon="5.41518">
        <ele>510.851074</ele>
        <time>2016-05-08T08:00:37Z</time>
      </trkpt>
      <trkpt lat="45.32477" lon="5.41523">
        <ele>509.048401</ele>
        <time>2016-05-08T08:00:40Z</time>
      </trkpt>
      <trkpt lat="45.32459" lon="5.41531">
        <ele>507.025208</ele>
        <time>2016-05-08T08:00:44Z</time>
      </trkpt>
      <trkpt lat="45.32439" lon="5.41538">
        <ele>504.814331</ele>
        <time>2016-05-08T08:00:48Z</time>
      </trkpt>
      <trkpt lat="45.32422" lon="5.41545">
        <ele>502.973907</ele>
        <time>2016-05-08T08:00:51Z</time>
      </trkpt>
      <trkpt lat="45.32402" lon="5.41558">
        <ele>503.62854</ele>
        <time>2016-05-08T08:00:55Z</time>
      </trkpt>
      <trkpt lat="45.32393" lon="5.41565">
        <ele>504.31366</ele>
        <time>2016-05-08T08:00:58Z</time>
      </trkpt>
      <trkpt lat="45.32385" lon="5.41565">
        <ele>504.930328</ele>
        <time>2016-05-08T08:01:02Z</time>
      </trkpt>
      <trkpt lat="45.32382" lon="5.41558">
        <ele>505.331085</ele>
        <time>2016-05-08T08:01:05Z</time>
      </trkpt>
      <trkpt lat="45.32376" lon="5.41542">
        <ele>506.190765</ele>
        <time>2016-05-08T08:01:09Z</time>
      </trkpt>
      <trkpt lat="45.3237" lon="5.41529">
        <ele>506.923584</ele>
        <time>2016-05-08T08:01:12Z</time>
      </trkpt>
      <trkpt lat="45.32366" lon="5.41515">
        <ele>507.584625</ele>
        <time>2016-05-08T08:01:15Z</time>
      </trkpt>
      <trkpt lat="45.3236" lon="5.41498">
        <ele>508.460602</ele>
        <time>2016-05-08T08:01:19Z</time>
      </trkpt>
      <trkpt lat="45.32357" lon="5.41486">
        <ele>508.923767</ele>
        <time>2016-05-08T08:01:22Z</time>
      </trkpt>
      <trkpt lat="45.32353" lon="5.4147">
        <ele>509.492035</ele>
        <time>2016-05-08T08:01:26Z</time>
      </trkpt>
      <trkpt lat="45.32351" lon="5.41458">
        <ele>509.84668</ele>
        <time>2016-05-08T08:01:29Z</time>
      </trkpt>
      <trkpt lat="45.32348" lon="5.41442">
        <ele>510.258972</ele>
        <time>2016-05-08T08:01:33Z</time>
      </trkpt>
      <trkpt lat="45.3235" lon="5.41428">
        <ele>510.309631</ele>
        <time>2016-05-08T08:01:37Z</time>
      </trkpt>
      <trkpt lat="45.32351" lon="5.41417">
        <ele>510.325043</ele>
        <time>2016-05-08T08:01:40Z</time>
      </trkpt>
      <trkpt lat="45.32352" lon="5.41406">
        <ele>510.360657</ele>
        <time>2016-05-08T08:01:43Z</time>
      </trkpt>
      <trkpt lat="45.32352" lon="5.41397">
        <ele>510.420898</ele>
        <time>2016-05-08T08:01:46Z</time>
      </trkpt>
      <trkpt lat="45.32351" lon="5.41383">
        <ele>510.704468</ele>
        <time>2016-05-08T08:01:50Z</time>
      </trkpt>
      <trkpt lat="45.32347" lon="5.41374">
        <ele>511.23291</ele>
        <time>2016-05-08T08:01:53Z</time>
      </trkpt>
      <trkpt lat="45.32339" lon="5.41363">
        <ele>512.070984</ele>
        <time>2016-05-08T08:01:57Z</time>
      </trkpt>
      <trkpt lat="45.32332" lon="5.41352">
        <ele>512.859436</ele>
        <time>2016-05-08T08:02:01Z</time>
      </trkpt>
      <trkpt lat="45.32325" lon="5.41341">
        <ele>513.592346</ele>
        <time>2016-05-08T08:02:05Z</time>
      </trkpt>
      <trkpt lat="45.32321" lon="5.41336">
        <ele>514.039124</ele>
        <time>2016-05-08T08:02:08Z</time>
      </trkpt>
      <trkpt lat="45.32314" lon="5.41327">
        <ele>514.722046</ele>
        <time>2016-05-08T08:02:12Z</time>
      </trkpt>
      <trkpt lat="45.32308" lon="5.41318">
        <ele>515.289429</ele>
        <time>2016-05-08T08:02:15Z</time>
      </trkpt>
      <trkpt lat="45.32303" lon="5.41303">
        <ele>515.911133</ele>
        <time>2016-05-08T08:02:19Z</time>
      </trkpt>
      <trkpt lat="45.32299" lon="5.41293">
        <ele>516.356628</ele>
        <time>2016-05-08T08:02:22Z</time>
      </trkpt>
      <trkpt lat="45.32293" lon="5.41281">
        <ele>517.007812</ele>
        <time>2016-05-08T08:02:26Z</time>
      </trkpt>
      <trkpt lat="45.3229" lon="5.41273">
        <ele>517.411011</ele>
        <time>2016-05-08T08:02:30Z</time>
      </trkpt>
      <trkpt lat="45.32284" lon="5.41266">
        <ele>517.991333</ele>
        <time>2016-05-08T08:02:33Z</time>
      </trkpt>
      <trkpt lat="45.32277" lon="5.41259">
        <ele>518.62146</ele>
        <time>2016-05-08T08:02:37Z</time>
      </trkpt>
      <trkpt lat="45.32273" lon="5.4125">
        <ele>519.086853</ele>
        <time>2016-05-08T08:02:41Z</time>
      </trkpt>
      <trkpt lat="45.32267" lon="5.4124">
        <ele>520.362305</ele>
        <time>2016-05-08T08:02:45Z</time>
      </trkpt>
      <trkpt lat="45.32261" lon="5.41238">
        <ele>521.084839</ele>
        <time>2016-05-08T08:02:48Z</time>
      </trkpt>
      <trkpt lat="45.32251" lon="5.41238">
        <ele>522.080811</ele>
        <time>2016-05-08T08:02:52Z</time>
      </trkpt>
      <trkpt lat="45.32244" lon="5.41236">
        <ele>523.114502</ele>
        <time>2016-05-08T08:02:55Z</time>
      </trkpt>
      <trkpt lat="45.32238" lon="5.41236">
        <ele>523.846924</ele>
        <time>2016-05-08T08:02:58Z</time>
      </trkpt>
      <trkpt lat="45.32231" lon="5.41237">
        <ele>524.705383</ele>
        <time>2016-05-08T08:03:02Z</time>
      </trkpt>
      <trkpt lat="45.32223" lon="5.41239">
        <ele>525.546753</ele>
        <time>2016-05-08T08:03:06Z</time>
      </trkpt>
      <trkpt lat="45.32218" lon="5.4124">
        <ele>526.103027</ele>
        <time>2016-05-08T08:03:09Z</time>
      </trkpt>
      <trkpt lat="45.32213" lon="5.41241">
        <ele>526.686279</ele>
        <time>2016-05-08T08:03:12Z</time>
      </trkpt>
      <trkpt lat="45.32206" lon="5.4124">
        <ele>527.683289</ele>
        <time>2016-05-08T08:03:16Z</time>
      </trkpt>
      <trkpt lat="45.322" lon="5.41237">
        <ele>528.67865</ele>
        <time>2016-05-08T08:03:19Z</time>
      </trkpt>
      <trkpt lat="45.32196" lon="5.41233">
        <ele>529.470825</ele>
        <time>2016-05-08T08:03:22Z</time>
      </trkpt>
      <trkpt lat="45.32193" lon="5.41225">
        <ele>530.458374</ele>
        <time>2016-05-08T08:03:26Z</time>
      </trkpt>
      <trkpt lat="45.32191" lon="5.41218">
        <ele>531.402649</ele>
        <time>2016-05-08T08:03:29Z</time>
      </trkpt>
      <trkpt lat="45.32189" lon="5.41208">
        <ele>532.372681</ele>
        <time>2016-05-08T08:03:33Z</time>
      </trkpt>
      <trkpt lat="45.3219" lon="5.41199">
        <ele>532.973511</ele>
        <time>2016-05-08T08:03:36Z</time>
      </trkpt>
      <trkpt lat="45.32191" lon="5.41188">
        <ele>533.754883</ele>
        <time>2016-05-08T08:03:40Z</time>
      </trkpt>
      <trkpt lat="45.32191" lon="5.41177">
        <ele>534.585205</ele>
        <time>2016-05-08T08:03:43Z</time>
      </trkpt>
      <trkpt lat="45.32191" lon="5.41165">
        <ele>535.48175</ele>
        <time>2016-05-08T08:03:47Z</time>
      </trkpt>
      <trkpt lat="45.32188" lon="5.41156">
        <ele>536.055786</ele>
        <time>2016-05-08T08:03:51Z</time>
      </trkpt>
      <trkpt lat="45.32185" lon="5.4115">
        <ele>536.637817</ele>
        <time>2016-05-08T08:03:54Z</time>
      </trkpt>
      <trkpt lat="45.32182" lon="5.41143">
        <ele>537.224365</ele>
        <time>2016-05-08T08:03:58Z</time>
      </trkpt>
      <trkpt lat="45.32179" lon="5.41136">
        <ele>537.670227</ele>
        <time>2016-05-08T08:04:01Z</time>
      </trkpt>
      <trkpt lat="45.32174" lon="5.41129">
        <ele>538.346497</ele>
        <time>2016-05-08T08:04:05Z</time>
      </trkpt>
      <trkpt lat="45.32171" lon="5.41123">
        <ele>538.707886</ele>
        <time>2016-05-08T08:04:08Z</time>
      </trkpt>
      <trkpt lat="45.32167" lon="5.41118">
        <ele>539.183777</ele>
        <time>2016-05-08T08:04:11Z</time>
      </trkpt>
      <trkpt lat="45.32162" lon="5.41111">
        <ele>539.595215</ele>
        <time>2016-05-08T08:04:15Z</time>
      </trkpt>
      <trkpt lat="45.32156" lon="5.41104">
        <ele>539.996338</ele>
        <time>2016-05-08T08:04:19Z</time>
      </trkpt>
      <trkpt lat="45.32152" lon="5.41099">
        <ele>540.266541</ele>
        <time>2016-05-08T08:04:22Z</time>
      </trkpt>
      <trkpt lat="45.32146" lon="5.41094">
        <ele>540.630798</ele>
        <time>2016-05-08T08:04:26Z</time>
      </trkpt>
      <trkpt lat="45.32141" lon="5.41089">
        <ele>540.866272</ele>
        <time>2016-05-08T08:04:29Z</time>
      </trkpt>
      <trkpt lat="45.32134" lon="5.41081">
        <ele>541.160645</ele>
        <time>2016-05-08T08:04:33Z</time>
      </trkpt>
      <trkpt lat="45.32127" lon="5.41075">
        <ele>541.325928</ele>
        <time>2016-05-08T08:04:37Z</time>
      </trkpt>
      <trkpt lat="45.32121" lon="5.41066">
        <ele>541.405701</ele>
        <time>2016-05-08T08:04:41Z</time>
      </trkpt>
      <trkpt lat="45.32117" lon="5.41059">
        <ele>541.435059</ele>
        <time>2016-05-08T08:04:44Z</time>
      </trkpt>
      <trkpt lat="45.32112" lon="5.41046">
        <ele>541.373474</ele>
        <time>2016-05-08T08:04:48Z</time>
      </trkpt>
      <trkpt lat="45.32107" lon="5.41032">
        <ele>541.269836</ele>
        <time>2016-05-08T08:04:52Z</time>
      </trkpt>
      <trkpt lat="45.32102" lon="5.41021">
        <ele>541.161316</ele>
        <time>2016-05-08T08:04:55Z</time>
      </trkpt>
      <trkpt lat="45.32098" lon="5.41009">
        <ele>541.009644</ele>
        <time>2016-05-08T08:04:58Z</time>
      </trkpt>
      <trkpt lat="45.32092" lon="5.40995">
        <ele>540.830627</ele>
        <time>2016-05-08T08:05:02Z</time>
      </trkpt>
      <trkpt lat="45.32088" lon="5.40985">
        <ele>540.745911</ele>
        <time>2016-05-08T08:05:05Z</time>
      </trkpt>
      <trkpt lat="45.3208" lon="5.40972">
        <ele>541.089783</ele>
        <time>2016-05-08T08:05:09Z</time>
      </trkpt>
      <trkpt lat="45.32077" lon="5.40961">
        <ele>541.428589</ele>
        <time>2016-05-08T08:05:12Z</time>
      </trkpt>
      <trkpt lat="45.32069" lon="5.40951">
        <ele>542.277832</ele>
        <time>2016-05-08T08:05:16Z</time>
      </trkpt>
      <trkpt lat="45.32062" lon="5.40958">
        <ele>543.272522</ele>
        <time>2016-05-08T08:05:20Z</time>
      </trkpt>
      <trkpt lat="45.32057" lon="5.40963">
        <ele>544.034973</ele>
        <time>2016-05-08T08:05:24Z</time>
      </trkpt>
      <trkpt lat="45.32053" lon="5.40968">
        <ele>544.694214</ele>
        <time>2016-05-08T08:05:29Z</time>
      </trkpt>
      <trkpt lat="45.32048" lon="5.4097">
        <ele>545.418091</ele>
        <time>2016-05-08T08:05:32Z</time>
      </trkpt>
      <trkpt lat="45.32043" lon="5.40974">
        <ele>546.260742</ele>
        <time>2016-05-08T08:05:37Z</time>
      </trkpt>
      <trkpt lat="45.32039" lon="5.40977">
        <ele>546.883667</ele>
        <time>2016-05-08T08:05:41Z</time>
      </trkpt>
      <trkpt lat="45.32034" lon="5.40983">
        <ele>547.64978</ele>
        <time>2016-05-08T08:05:45Z</time>
      </trkpt>
      <trkpt lat="45.32032" lon="5.40989">
        <ele>548.10144</ele>
        <time>2016-05-08T08:05:50Z</time>
      </trkpt>
      <trkpt lat="45.32029" lon="5.40995">
        <ele>548.660095</ele>
        <time>2016-05-08T08:05:53Z</time>
      </trkpt>
      <trkpt lat="45.32027" lon="5.41002">
        <ele>549.228638</ele>
        <time>2016-05-08T08:05:57Z</time>
      </trkpt>
      <trkpt lat="45.32024" lon="5.41007">
        <ele>549.882751</ele>
        <time>2016-05-08T08:06:01Z</time>
      </trkpt>
      <trkpt lat="45.32019" lon="5.41018">
        <ele>551.065674</ele>
        <time>2016-05-08T08:06:05Z</time>
      </trkpt>
      <trkpt lat="45.32016" lon="5.41028">
        <ele>551.967957</ele>
        <time>2016-05-08T08:06:09Z</time>
      </trkpt>
      <trkpt lat="45.32014" lon="5.41036">
        <ele>552.656067</ele>
        <time>2016-05-08T08:06:13Z</time>
      </trkpt>
      <trkpt lat="45.32011" lon="5.41043">
        <ele>553.391052</ele>
        <time>2016-05-08T08:06:17Z</time>
      </trkpt>
      <trkpt lat="45.32008" lon="5.41049">
        <ele>554.118896</ele>
        <time>2016-05-08T08:06:21Z</time>
      </trkpt>
      <trkpt lat="45.32004" lon="5.41054">
        <ele>554.898682</ele>
        <time>2016-05-08T08:06:25Z</time>
      </trkpt>
      <trkpt lat="45.32001" lon="5.41061">
        <ele>555.752014</ele>
        <time>2016-05-08T08:06:30Z</time>
      </trkpt>
      <trkpt lat="45.31998" lon="5.41067">
        <ele>556.625793</ele>
        <time>2016-05-08T08:06:34Z</time>
      </trkpt>
      <trkpt lat="45.31995" lon="5.41073">
        <ele>557.458008</ele>
        <time>2016-05-08T08:06:38Z</time>
      </trkpt>
      <trkpt lat="45.31992" lon="5.4108">
        <ele>558.454651</ele>
        <time>2016-05-08T08:06:42Z</time>
      </trkpt>
      <trkpt lat="45.31988" lon="5.41087">
        <ele>559.597595</ele>
        <time>2016-05-08T08:06:46Z</time>
      </trkpt>
      <trkpt lat="45.31984" lon="5.41095">
        <ele>560.991028</ele>
        <time>2016-05-08T08:06:50Z</time>
      </trkpt>
      <trkpt lat="45.3198" lon="5.41102">
        <ele>562.260864</ele>
        <time>2016-05-08T08:06:54Z</time>
      </trkpt>
      <trkpt lat="45.31978" lon="5.41109">
        <ele>563.224487</ele>
        <time>2016-05-08T08:06:58Z</time>
      </trkpt>
      <trkpt lat="45.31976" lon="5.41116">
        <ele>564.155273</ele>
        <time>2016-05-08T08:07:02Z</time>
      </trkpt>
      <trkpt lat="45.31976" lon="5.41123">
        <ele>564.847168</ele>
        <time>2016-05-08T08:07:05Z</time>
      </trkpt>
      <trkpt lat="45.31977" lon="5.41134">
        <ele>565.583618</ele>
        <time>2016-05-08T08:07:09Z</time>
      </trkpt>
      <trkpt lat="45.31979" lon="5.41147">
        <ele>566.035034</ele>
        <time>2016-05-08T08:07:12Z</time>
      </trkpt>
      <trkpt lat="45.31983" lon="5.41162">
        <ele>566.102661</ele>
        <time>2016-05-08T08:07:15Z</time>
      </trkpt>
      <trkpt lat="45.31994" lon="5.41185">
        <ele>564.695312</ele>
        <time>2016-05-08T08:07:19Z</time>
      </trkpt>
      <trkpt lat="45.32006" lon="5.41199">
        <ele>562.73468</ele>
        <time>2016-05-08T08:07:22Z</time>
      </trkpt>
      <trkpt lat="45.3202" lon="5.41229">
        <ele>560.868835</ele>
        <time>2016-05-08T08:07:26Z</time>
      </trkpt>
      <trkpt lat="45.32029" lon="5.41261">
        <ele>560.369263</ele>
        <time>2016-05-08T08:07:29Z</time>
      </trkpt>
      <trkpt lat="45.32043" lon="5.41294">
        <ele>558.32251</ele>
        <time>2016-05-08T08:07:33Z</time>
      </trkpt>
      <trkpt lat="45.32049" lon="5.41316">
        <ele>557.464539</ele>
        <time>2016-05-08T08:07:36Z</time>
      </trkpt>
      <trkpt lat="45.32055" lon="5.41339">
        <ele>556.385864</ele>
        <time>2016-05-08T08:07:40Z</time>
      </trkpt>
      <trkpt lat="45.32059" lon="5.41354">
        <ele>555.135071</ele>
        <time>2016-05-08T08:07:43Z</time>
      </trkpt>
      <trkpt lat="45.32064" lon="5.41368">
        <ele>553.665588</ele>
        <time>2016-05-08T08:07:46Z</time>
      </trkpt>
      <trkpt lat="45.32069" lon="5.41384">
        <ele>551.839966</ele>
        <time>2016-05-08T08:07:49Z</time>
      </trkpt>
      <trkpt lat="45.32077" lon="5.41405">
        <ele>549.065552</ele>
        <time>2016-05-08T08:07:52Z</time>
      </trkpt>
      <trkpt lat="45.32088" lon="5.41435">
        <ele>545.483704</ele>
        <time>2016-05-08T08:07:56Z</time>
      </trkpt>
      <trkpt lat="45.32093" lon="5.41476">
        <ele>543.546265</ele>
        <time>2016-05-08T08:08:00Z</time>
      </trkpt>
      <trkpt lat="45.32095" lon="5.4151">
        <ele>542.52832</ele>
        <time>2016-05-08T08:08:03Z</time>
      </trkpt>
      <trkpt lat="45.32086" lon="5.41553">
        <ele>543.317627</ele>
        <time>2016-05-08T08:08:07Z</time>
      </trkpt>
      <trkpt lat="45.32076" lon="5.41579">
        <ele>545.385498</ele>
        <time>2016-05-08T08:08:10Z</time>
      </trkpt>
      <trkpt lat="45.32066" lon="5.41611">
        <ele>547.744446</ele>
        <time>2016-05-08T08:08:14Z</time>
      </trkpt>
      <trkpt lat="45.32061" lon="5.41628">
        <ele>548.602905</ele>
        <time>2016-05-08T08:08:17Z</time>
      </trkpt>
      <trkpt lat="45.32053" lon="5.41654">
        <ele>550.431702</ele>
        <time>2016-05-08T08:08:21Z</time>
      </trkpt>
      <trkpt lat="45.32052" lon="5.41694">
        <ele>548.784729</ele>
        <time>2016-05-08T08:08:25Z</time>
      </trkpt>
      <trkpt lat="45.32049" lon="5.41737">
        <ele>547.55249</ele>
        <time>2016-05-08T08:08:29Z</time>
      </trkpt>
      <trkpt lat="45.32043" lon="5.41773">
        <ele>547.080688</ele>
        <time>2016-05-08T08:08:33Z</time>
      </trkpt>
      <trkpt lat="45.32038" lon="5.41796">
        <ele>546.544617</ele>
        <time>2016-05-08T08:08:36Z</time>
      </trkpt>
      <trkpt lat="45.32028" lon="5.41835">
        <ele>546.199158</ele>
        <time>2016-05-08T08:08:40Z</time>
      </trkpt>
      <trkpt lat="45.3202" lon="5.4187">
        <ele>544.395386</ele>
        <time>2016-05-08T08:08:44Z</time>
      </trkpt>
      <trkpt lat="45.32015" lon="5.41898">
        <ele>542.545288</ele>
        <time>2016-05-08T08:08:47Z</time>
      </trkpt>
      <trkpt lat="45.32008" lon="5.41939">
        <ele>539.070923</ele>
        <time>2016-05-08T08:08:51Z</time>
      </trkpt>
      <trkpt lat="45.32005" lon="5.41971">
        <ele>535.966858</ele>
        <time>2016-05-08T08:08:54Z</time>
      </trkpt>
      <trkpt lat="45.3199" lon="5.42004">
        <ele>533.789673</ele>
        <time>2016-05-08T08:08:57Z</time>
      </trkpt>
      <trkpt lat="45.31974" lon="5.42036">
        <ele>531.380005</ele>
        <time>2016-05-08T08:09:01Z</time>
      </trkpt>
      <trkpt lat="45.31979" lon="5.42072">
        <ele>526.335693</ele>
        <time>2016-05-08T08:09:05Z</time>
      </trkpt>
      <trkpt lat="45.31976" lon="5.42091">
        <ele>523.673706</ele>
        <time>2016-05-08T08:09:09Z</time>
      </trkpt>
      <trkpt lat="45.31954" lon="5.42099">
        <ele>523.047424</ele>
        <time>2016-05-08T08:09:13Z</time>
      </trkpt>
      <trkpt lat="45.31931" lon="5.42105">
        <ele>522.558411</ele>
        <time>2016-05-08T08:09:16Z</time>
      </trkpt>
      <trkpt lat="45.31909" lon="5.42112">
        <ele>522.147888</ele>
        <time>2016-05-08T08:09:19Z</time>
      </trkpt>
      <trkpt lat="45.31882" lon="5.42127">
        <ele>521.298157</ele>
        <time>2016-05-08T08:09:23Z</time>
      </trkpt>
      <trkpt lat="45.31846" lon="5.42142">
        <ele>519.973206</ele>
        <time>2016-05-08T08:09:27Z</time>
      </trkpt>
      <trkpt lat="45.31818" lon="5.42149">
        <ele>520.044739</ele>
        <time>2016-05-08T08:09:30Z</time>
      </trkpt>
      <trkpt lat="45.31794" lon="5.42158">
        <ele>518.686279</ele>
        <time>2016-05-08T08:09:33Z</time>
      </trkpt>
      <trkpt lat="45.31757" lon="5.42165">
        <ele>518.31897</ele>
        <time>2016-05-08T08:09:37Z</time>
      </trkpt>
      <trkpt lat="45.31723" lon="5.42162">
        <ele>520.587158</ele>
        <time>2016-05-08T08:09:41Z</time>
      </trkpt>
      <trkpt lat="45.31687" lon="5.4216">
        <ele>522.753052</ele>
        <time>2016-05-08T08:09:45Z</time>
      </trkpt>
      <trkpt lat="45.31655" lon="5.42166">
        <ele>522.057922</ele>
        <time>2016-05-08T08:09:49Z</time>
      </trkpt>
      <trkpt lat="45.31621" lon="5.42175">
        <ele>523.664917</ele>
        <time>2016-05-08T08:09:53Z</time>
      </trkpt>
      <trkpt lat="45.31595" lon="5.4218">
        <ele>525.232666</ele>
        <time>2016-05-08T08:09:56Z</time>
      </trkpt>
      <trkpt lat="45.31571" lon="5.42186">
        <ele>526.838074</ele>
        <time>2016-05-08T08:09:59Z</time>
      </trkpt>
      <trkpt lat="45.31542" lon="5.42194">
        <ele>529.456238</ele>
        <time>2016-05-08T08:10:03Z</time>
      </trkpt>
      <trkpt lat="45.31525" lon="5.42198">
        <ele>531.204346</ele>
        <time>2016-05-08T08:10:06Z</time>
      </trkpt>
      <trkpt lat="45.31506" lon="5.42196">
        <ele>533.381531</ele>
        <time>2016-05-08T08:10:10Z</time>
      </trkpt>
      <trkpt lat="45.31495" lon="5.42196">
        <ele>534.387939</ele>
        <time>2016-05-08T08:10:13Z</time>
      </trkpt>
      <trkpt lat="45.31485" lon="5.42196">
        <ele>535.061584</ele>
        <time>2016-05-08T08:10:17Z</time>
      </trkpt>
      <trkpt lat="45.3148" lon="5.42199">
        <ele>535.41095</ele>
        <time>2016-05-08T08:10:20Z</time>
      </trkpt>
      <trkpt lat="45.31475" lon="5.42199">
        <ele>535.759216</ele>
        <time>2016-05-08T08:10:24Z</time>
      </trkpt>
      <trkpt lat="45.31469" lon="5.42195">
        <ele>536.192749</ele>
        <time>2016-05-08T08:10:27Z</time>
      </trkpt>
      <trkpt lat="45.31464" lon="5.4219">
        <ele>536.653381</ele>
        <time>2016-05-08T08:10:30Z</time>
      </trkpt>
      <trkpt lat="45.31459" lon="5.42184">
        <ele>537.168396</ele>
        <time>2016-05-08T08:10:34Z</time>
      </trkpt>
      <trkpt lat="45.31454" lon="5.4218">
        <ele>537.587402</ele>
        <time>2016-05-08T08:10:37Z</time>
      </trkpt>
      <trkpt lat="45.31449" lon="5.42178">
        <ele>538.051147</ele>
        <time>2016-05-08T08:10:40Z</time>
      </trkpt>
      <trkpt lat="45.31441" lon="5.42175">
        <ele>538.765991</ele>
        <time>2016-05-08T08:10:44Z</time>
      </trkpt>
      <trkpt lat="45.31435" lon="5.42174">
        <ele>539.259094</ele>
        <time>2016-05-08T08:10:47Z</time>
      </trkpt>
      <trkpt lat="45.31427" lon="5.42172">
        <ele>539.959106</ele>
        <time>2016-05-08T08:10:51Z</time>
      </trkpt>
      <trkpt lat="45.31422" lon="5.42171">
        <ele>540.434326</ele>
        <time>2016-05-08T08:10:54Z</time>
      </trkpt>
      <trkpt lat="45.31414" lon="5.42169">
        <ele>541.188171</ele>
        <time>2016-05-08T08:10:58Z</time>
      </trkpt>
      <trkpt lat="45.31405" lon="5.42167">
        <ele>542.207886</ele>
        <time>2016-05-08T08:11:02Z</time>
      </trkpt>
      <trkpt lat="45.31398" lon="5.42164">
        <ele>543.229858</ele>
        <time>2016-05-08T08:11:06Z</time>
      </trkpt>
      <trkpt lat="45.31394" lon="5.42162">
        <ele>543.900391</ele>
        <time>2016-05-08T08:11:09Z</time>
      </trkpt>
      <trkpt lat="45.31387" lon="5.4216">
        <ele>544.734741</ele>
        <time>2016-05-08T08:11:13Z</time>
      </trkpt>
      <trkpt lat="45.31383" lon="5.42159">
        <ele>545.290649</ele>
        <time>2016-05-08T08:11:16Z</time>
      </trkpt>
      <trkpt lat="45.31377" lon="5.42157">
        <ele>546.101562</ele>
        <time>2016-05-08T08:11:20Z</time>
      </trkpt>
      <trkpt lat="45.31372" lon="5.42155">
        <ele>546.743286</ele>
        <time>2016-05-08T08:11:23Z</time>
      </trkpt>
      <trkpt lat="45.31367" lon="5.42153">
        <ele>547.615723</ele>
        <time>2016-05-08T08:11:27Z</time>
      </trkpt>
      <trkpt lat="45.31362" lon="5.42147">
        <ele>548.592285</ele>
        <time>2016-05-08T08:11:31Z</time>
      </trkpt>
      <trkpt lat="45.31358" lon="5.42143">
        <ele>549.333374</ele>
        <time>2016-05-08T08:11:34Z</time>
      </trkpt>
      <trkpt lat="45.31354" lon="5.4214">
        <ele>550.069031</ele>
        <time>2016-05-08T08:11:38Z</time>
      </trkpt>
      <trkpt lat="45.3135" lon="5.42135">
        <ele>550.796387</ele>
        <time>2016-05-08T08:11:42Z</time>
      </trkpt>
      <trkpt lat="45.3135" lon="5.42142">
        <ele>550.20752</ele>
        <time>2016-05-08T08:11:47Z</time>
      </trkpt>
      <trkpt lat="45.31351" lon="5.42151">
        <ele>549.43689</ele>
        <time>2016-05-08T08:11:50Z</time>
      </trkpt>
      <trkpt lat="45.31349" lon="5.42159">
        <ele>548.961792</ele>
        <time>2016-05-08T08:11:53Z</time>
      </trkpt>
      <trkpt lat="45.31347" lon="5.42167">
        <ele>548.484497</ele>
        <time>2016-05-08T08:11:57Z</time>
      </trkpt>
      <trkpt lat="45.31345" lon="5.42174">
        <ele>548.375916</ele>
        <time>2016-05-08T08:12:01Z</time>
      </trkpt>
      <trkpt lat="45.31339" lon="5.42173">
        <ele>548.95459</ele>
        <time>2016-05-08T08:12:05Z</time>
      </trkpt>
      <trkpt lat="45.31337" lon="5.42165">
        <ele>549.776855</ele>
        <time>2016-05-08T08:12:09Z</time>
      </trkpt>
      <trkpt lat="45.31336" lon="5.42158">
        <ele>550.49353</ele>
        <time>2016-05-08T08:12:13Z</time>
      </trkpt>
      <trkpt lat="45.31334" lon="5.42152">
        <ele>551.190308</ele>
        <time>2016-05-08T08:12:16Z</time>
      </trkpt>
      <trkpt lat="45.31329" lon="5.42146">
        <ele>552.423523</ele>
        <time>2016-05-08T08:12:20Z</time>
      </trkpt>
      <trkpt lat="45.31325" lon="5.42141">
        <ele>553.341614</ele>
        <time>2016-05-08T08:12:24Z</time>
      </trkpt>
      <trkpt lat="45.3132" lon="5.42139">
        <ele>554.219421</ele>
        <time>2016-05-08T08:12:28Z</time>
      </trkpt>
      <trkpt lat="45.31314" lon="5.4213">
        <ele>555.488586</ele>
        <time>2016-05-08T08:12:31Z</time>
      </trkpt>
      <trkpt lat="45.31313" lon="5.42123">
        <ele>556.089355</ele>
        <time>2016-05-08T08:12:36Z</time>
      </trkpt>
      <trkpt lat="45.31309" lon="5.42119">
        <ele>556.801514</ele>
        <time>2016-05-08T08:12:41Z</time>
      </trkpt>
      <trkpt lat="45.31305" lon="5.42115">
        <ele>557.444885</ele>
        <time>2016-05-08T08:12:46Z</time>
      </trkpt>
      <trkpt lat="45.31301" lon="5.42112">
        <ele>558.015869</ele>
        <time>2016-05-08T08:12:51Z</time>
      </trkpt>
      <trkpt lat="45.31297" lon="5.42108">
        <ele>558.602905</ele>
        <time>2016-05-08T08:12:56Z</time>
      </trkpt>
      <trkpt lat="45.31293" lon="5.42104">
        <ele>559.122314</ele>
        <time>2016-05-08T08:13:02Z</time>
      </trkpt>
      <trkpt lat="45.31289" lon="5.42099">
        <ele>559.699951</ele>
        <time>2016-05-08T08:13:07Z</time>
      </trkpt>
      <trkpt lat="45.31285" lon="5.42096">
        <ele>560.170044</ele>
        <time>2016-05-08T08:13:10Z</time>
      </trkpt>
      <trkpt lat="45.3128" lon="5.42092">
        <ele>560.626038</ele>
        <time>2016-05-08T08:13:14Z</time>
      </trkpt>
      <trkpt lat="45.31276" lon="5.42089">
        <ele>561.03302</ele>
        <time>2016-05-08T08:13:18Z</time>
      </trkpt>
      <trkpt lat="45.31272" lon="5.42085">
        <ele>561.400818</ele>
        <time>2016-05-08T08:13:22Z</time>
      </trkpt>
      <trkpt lat="45.31267" lon="5.42084">
        <ele>561.772949</ele>
        <time>2016-05-08T08:13:26Z</time>
      </trkpt>
      <trkpt lat="45.31263" lon="5.42081">
        <ele>562.515198</ele>
        <time>2016-05-08T08:13:30Z</time>
      </trkpt>
      <trkpt lat="45.31258" lon="5.42078">
        <ele>563.354248</ele>
        <time>2016-05-08T08:13:36Z</time>
      </trkpt>
      <trkpt lat="45.31253" lon="5.42076">
        <ele>564.008118</ele>
        <time>2016-05-08T08:13:41Z</time>
      </trkpt>
      <trkpt lat="45.31249" lon="5.42072">
        <ele>565.154297</ele>
        <time>2016-05-08T08:13:45Z</time>
      </trkpt>
      <trkpt lat="45.31245" lon="5.42069">
        <ele>566.529358</ele>
        <time>2016-05-08T08:13:50Z</time>
      </trkpt>
      <trkpt lat="45.3124" lon="5.42068">
        <ele>567.61969</ele>
        <time>2016-05-08T08:13:54Z</time>
      </trkpt>
      <trkpt lat="45.31235" lon="5.42067">
        <ele>568.72467</ele>
        <time>2016-05-08T08:13:58Z</time>
      </trkpt>
      <trkpt lat="45.31229" lon="5.42066">
        <ele>569.943115</ele>
        <time>2016-05-08T08:14:02Z</time>
      </trkpt>
      <trkpt lat="45.31225" lon="5.42064">
        <ele>571.06781</ele>
        <time>2016-05-08T08:14:06Z</time>
      </trkpt>
      <trkpt lat="45.31219" lon="5.42063">
        <ele>572.150146</ele>
        <time>2016-05-08T08:14:10Z</time>
      </trkpt>
      <trkpt lat="45.31213" lon="5.42062">
        <ele>573.283875</ele>
        <time>2016-05-08T08:14:15Z</time>
      </trkpt>
      <trkpt lat="45.31208" lon="5.42061">
        <ele>574.325439</ele>
        <time>2016-05-08T08:14:20Z</time>
      </trkpt>
      <trkpt lat="45.31204" lon="5.42061">
        <ele>575.141479</ele>
        <time>2016-05-08T08:14:25Z</time>
      </trkpt>
      <trkpt lat="45.31199" lon="5.42061">
        <ele>575.997131</ele>
        <time>2016-05-08T08:14:29Z</time>
      </trkpt>
      <trkpt lat="45.31194" lon="5.42059">
        <ele>577.019165</ele>
        <time>2016-05-08T08:14:34Z</time>
      </trkpt>
      <trkpt lat="45.31189" lon="5.42056">
        <ele>578.20105</ele>
        <time>2016-05-08T08:14:40Z</time>
      </trkpt>
      <trkpt lat="45.31184" lon="5.42056">
        <ele>579.017578</ele>
        <time>2016-05-08T08:14:44Z</time>
      </trkpt>
      <trkpt lat="45.31179" lon="5.42055">
        <ele>580.01178</ele>
        <time>2016-05-08T08:14:48Z</time>
      </trkpt>
      <trkpt lat="45.31173" lon="5.4205">
        <ele>581.289978</ele>
        <time>2016-05-08T08:14:52Z</time>
      </trkpt>
      <trkpt lat="45.31169" lon="5.42047">
        <ele>582.246338</ele>
        <time>2016-05-08T08:14:56Z</time>
      </trkpt>
      <trkpt lat="45.31164" lon="5.42043">
        <ele>583.394104</ele>
        <time>2016-05-08T08:15:00Z</time>
      </trkpt>
      <trkpt lat="45.31158" lon="5.42038">
        <ele>584.580688</ele>
        <time>2016-05-08T08:15:04Z</time>
      </trkpt>
      <trkpt lat="45.31154" lon="5.42033">
        <ele>585.562134</ele>
        <time>2016-05-08T08:15:07Z</time>
      </trkpt>
      <trkpt lat="45.31148" lon="5.42027">
        <ele>586.844604</ele>
        <time>2016-05-08T08:15:11Z</time>
      </trkpt>
      <trkpt lat="45.31142" lon="5.42025">
        <ele>587.846436</ele>
        <time>2016-05-08T08:15:14Z</time>
      </trkpt>
      <trkpt lat="45.31136" lon="5.42021">
        <ele>588.920532</ele>
        <time>2016-05-08T08:15:17Z</time>
      </trkpt>
      <trkpt lat="45.31129" lon="5.42017">
        <ele>590.07782</ele>
        <time>2016-05-08T08:15:21Z</time>
      </trkpt>
      <trkpt lat="45.31123" lon="5.42013">
        <ele>591.092041</ele>
        <time>2016-05-08T08:15:25Z</time>
      </trkpt>
      <trkpt lat="45.31119" lon="5.42011">
        <ele>591.850281</ele>
        <time>2016-05-08T08:15:28Z</time>
      </trkpt>
      <trkpt lat="45.31114" lon="5.42008">
        <ele>592.577881</ele>
        <time>2016-05-08T08:15:31Z</time>
      </trkpt>
      <trkpt lat="45.3111" lon="5.42005">
        <ele>593.288025</ele>
        <time>2016-05-08T08:15:35Z</time>
      </trkpt>
      <trkpt lat="45.31103" lon="5.42003">
        <ele>594.26416</ele>
        <time>2016-05-08T08:15:39Z</time>
      </trkpt>
      <trkpt lat="45.31098" lon="5.42">
        <ele>595.12439</ele>
        <time>2016-05-08T08:15:43Z</time>
      </trkpt>
      <trkpt lat="45.31092" lon="5.41999">
        <ele>596.155212</ele>
        <time>2016-05-08T08:15:47Z</time>
      </trkpt>
      <trkpt lat="45.31086" lon="5.41997">
        <ele>597.172729</ele>
        <time>2016-05-08T08:15:50Z</time>
      </trkpt>
      <trkpt lat="45.31079" lon="5.41996">
        <ele>598.19696</ele>
        <time>2016-05-08T08:15:54Z</time>
      </trkpt>
      <trkpt lat="45.31074" lon="5.41996">
        <ele>598.657837</ele>
        <time>2016-05-08T08:15:57Z</time>
      </trkpt>
      <trkpt lat="45.31067" lon="5.41995">
        <ele>599.428528</ele>
        <time>2016-05-08T08:16:01Z</time>
      </trkpt>
      <trkpt lat="45.31062" lon="5.41994">
        <ele>600.025208</ele>
        <time>2016-05-08T08:16:05Z</time>
      </trkpt>
      <trkpt lat="45.31056" lon="5.41993">
        <ele>600.797424</ele>
        <time>2016-05-08T08:16:09Z</time>
      </trkpt>
      <trkpt lat="45.3105" lon="5.41993">
        <ele>601.354797</ele>
        <time>2016-05-08T08:16:14Z</time>
      </trkpt>
      <trkpt lat="45.31045" lon="5.41993">
        <ele>601.882324</ele>
        <time>2016-05-08T08:16:18Z</time>
      </trkpt>
      <trkpt lat="45.31038" lon="5.41991">
        <ele>602.919312</ele>
        <time>2016-05-08T08:16:22Z</time>
      </trkpt>
      <trkpt lat="45.31033" lon="5.4199">
        <ele>603.67688</ele>
        <time>2016-05-08T08:16:26Z</time>
      </trkpt>
      <trkpt lat="45.31027" lon="5.41989">
        <ele>604.298584</ele>
        <time>2016-05-08T08:16:29Z</time>
      </trkpt>
      <trkpt lat="45.3102" lon="5.41988">
        <ele>605.328186</ele>
        <time>2016-05-08T08:16:33Z</time>
      </trkpt>
      <trkpt lat="45.31014" lon="5.4199">
        <ele>605.545837</ele>
        <time>2016-05-08T08:16:37Z</time>
      </trkpt>
      <trkpt lat="45.31008" lon="5.41988">
        <ele>606.414185</ele>
        <time>2016-05-08T08:16:40Z</time>
      </trkpt>
      <trkpt lat="45.31001" lon="5.41988">
        <ele>607.10083</ele>
        <time>2016-05-08T08:16:44Z</time>
      </trkpt>
      <trkpt lat="45.30996" lon="5.41983">
        <ele>608.565186</ele>
        <time>2016-05-08T08:16:48Z</time>
      </trkpt>
      <trkpt lat="45.30993" lon="5.41979">
        <ele>609.802124</ele>
        <time>2016-05-08T08:16:56Z</time>
      </trkpt>
      <trkpt lat="45.30988" lon="5.41979">
        <ele>610.473755</ele>
        <time>2016-05-08T08:17:02Z</time>
      </trkpt>
      <trkpt lat="45.30983" lon="5.41978">
        <ele>611.245789</ele>
        <time>2016-05-08T08:17:07Z</time>
      </trkpt>
      <trkpt lat="45.30979" lon="5.41976">
        <ele>612.119202</ele>
        <time>2016-05-08T08:17:31Z</time>
      </trkpt>
      <trkpt lat="45.30974" lon="5.41976">
        <ele>612.828247</ele>
        <time>2016-05-08T08:17:38Z</time>
      </trkpt>
      <trkpt lat="45.3097" lon="5.41972">
        <ele>613.872314</ele>
        <time>2016-05-08T08:17:58Z</time>
      </trkpt>
      <trkpt lat="45.30965" lon="5.41971">
        <ele>614.620972</ele>
        <time>2016-05-08T08:18:05Z</time>
      </trkpt>
      <trkpt lat="45.3096" lon="5.41972">
        <ele>615.109314</ele>
        <time>2016-05-08T08:18:10Z</time>
      </trkpt>
      <trkpt lat="45.30956" lon="5.41975">
        <ele>615.253296</ele>
        <time>2016-05-08T08:18:22Z</time>
      </trkpt>
      <trkpt lat="45.3095" lon="5.41974">
        <ele>616.200073</ele>
        <time>2016-05-08T08:18:26Z</time>
      </trkpt>
      <trkpt lat="45.30945" lon="5.41972">
        <ele>617.057129</ele>
        <time>2016-05-08T08:18:33Z</time>
      </trkpt>
      <trkpt lat="45.3094" lon="5.41976">
        <ele>617.319031</ele>
        <time>2016-05-08T08:18:47Z</time>
      </trkpt>
      <trkpt lat="45.30936" lon="5.41973">
        <ele>618.128235</ele>
        <time>2016-05-08T08:18:53Z</time>
      </trkpt>
      <trkpt lat="45.30933" lon="5.41969">
        <ele>618.949707</ele>
        <time>2016-05-08T08:18:58Z</time>
      </trkpt>
      <trkpt lat="45.30928" lon="5.41964">
        <ele>619.806458</ele>
        <time>2016-05-08T08:19:03Z</time>
      </trkpt>
      <trkpt lat="45.30924" lon="5.41961">
        <ele>620.588806</ele>
        <time>2016-05-08T08:19:09Z</time>
      </trkpt>
      <trkpt lat="45.30919" lon="5.41958">
        <ele>621.302185</ele>
        <time>2016-05-08T08:19:14Z</time>
      </trkpt>
      <trkpt lat="45.30915" lon="5.41953">
        <ele>622.048157</ele>
        <time>2016-05-08T08:19:19Z</time>
      </trkpt>
      <trkpt lat="45.30912" lon="5.41948">
        <ele>622.785278</ele>
        <time>2016-05-08T08:19:25Z</time>
      </trkpt>
      <trkpt lat="45.30908" lon="5.41944">
        <ele>623.473938</ele>
        <time>2016-05-08T08:19:30Z</time>
      </trkpt>
      <trkpt lat="45.30905" lon="5.41939">
        <ele>624.208618</ele>
        <time>2016-05-08T08:19:37Z</time>
      </trkpt>
      <trkpt lat="45.30901" lon="5.41934">
        <ele>624.910278</ele>
        <time>2016-05-08T08:19:43Z</time>
      </trkpt>
      <trkpt lat="45.30898" lon="5.41929">
        <ele>625.563049</ele>
        <time>2016-05-08T08:19:56Z</time>
      </trkpt>
      <trkpt lat="45.30894" lon="5.41925">
        <ele>626.346558</ele>
        <time>2016-05-08T08:20:00Z</time>
      </trkpt>
      <trkpt lat="45.30888" lon="5.4192">
        <ele>627.258667</ele>
        <time>2016-05-08T08:20:04Z</time>
      </trkpt>
      <trkpt lat="45.30883" lon="5.41915">
        <ele>628.392151</ele>
        <time>2016-05-08T08:20:07Z</time>
      </trkpt>
      <trkpt lat="45.30879" lon="5.41909">
        <ele>629.911987</ele>
        <time>2016-05-08T08:20:10Z</time>
      </trkpt>
      <trkpt lat="45.30875" lon="5.41905">
        <ele>631.252563</ele>
        <time>2016-05-08T08:20:13Z</time>
      </trkpt>
      <trkpt lat="45.3087" lon="5.419">
        <ele>632.623169</ele>
        <time>2016-05-08T08:20:17Z</time>
      </trkpt>
      <trkpt lat="45.30866" lon="5.41894">
        <ele>634.335999</ele>
        <time>2016-05-08T08:20:21Z</time>
      </trkpt>
      <trkpt lat="45.30862" lon="5.41889">
        <ele>635.615234</ele>
        <time>2016-05-08T08:20:24Z</time>
      </trkpt>
      <trkpt lat="45.30858" lon="5.41884">
        <ele>636.811218</ele>
        <time>2016-05-08T08:20:28Z</time>
      </trkpt>
      <trkpt lat="45.30852" lon="5.4188">
        <ele>638.052551</ele>
        <time>2016-05-08T08:20:32Z</time>
      </trkpt>
      <trkpt lat="45.30847" lon="5.41875">
        <ele>639.39624</ele>
        <time>2016-05-08T08:20:36Z</time>
      </trkpt>
      <trkpt lat="45.30844" lon="5.4187">
        <ele>640.367432</ele>
        <time>2016-05-08T08:20:39Z</time>
      </trkpt>
      <trkpt lat="45.3084" lon="5.41866">
        <ele>641.415833</ele>
        <time>2016-05-08T08:20:43Z</time>
      </trkpt>
      <trkpt lat="45.30836" lon="5.41863">
        <ele>642.27417</ele>
        <time>2016-05-08T08:20:47Z</time>
      </trkpt>
      <trkpt lat="45.30831" lon="5.41859">
        <ele>643.112976</ele>
        <time>2016-05-08T08:20:52Z</time>
      </trkpt>
      <trkpt lat="45.30826" lon="5.41856">
        <ele>643.656189</ele>
        <time>2016-05-08T08:20:57Z</time>
      </trkpt>
      <trkpt lat="45.30821" lon="5.41855">
        <ele>643.939697</ele>
        <time>2016-05-08T08:21:01Z</time>
      </trkpt>
      <trkpt lat="45.30816" lon="5.41855">
        <ele>644.194458</ele>
        <time>2016-05-08T08:21:05Z</time>
      </trkpt>
      <trkpt lat="45.3081" lon="5.41855">
        <ele>644.324463</ele>
        <time>2016-05-08T08:21:09Z</time>
      </trkpt>
      <trkpt lat="45.30804" lon="5.41856">
        <ele>644.338013</ele>
        <time>2016-05-08T08:21:13Z</time>
      </trkpt>
      <trkpt lat="45.30798" lon="5.41857">
        <ele>644.349121</ele>
        <time>2016-05-08T08:21:17Z</time>
      </trkpt>
      <trkpt lat="45.30794" lon="5.41859">
        <ele>644.289062</ele>
        <time>2016-05-08T08:21:21Z</time>
      </trkpt>
      <trkpt lat="45.30788" lon="5.4186">
        <ele>644.240051</ele>
        <time>2016-05-08T08:21:25Z</time>
      </trkpt>
      <trkpt lat="45.30783" lon="5.41861">
        <ele>644.285828</ele>
        <time>2016-05-08T08:21:29Z</time>
      </trkpt>
      <trkpt lat="45.30777" lon="5.41863">
        <ele>644.277954</ele>
        <time>2016-05-08T08:21:33Z</time>
      </trkpt>
      <trkpt lat="45.30772" lon="5.41865">
        <ele>644.132751</ele>
        <time>2016-05-08T08:21:38Z</time>
      </trkpt>
      <trkpt lat="45.30767" lon="5.41868">
        <ele>643.788025</ele>
        <time>2016-05-08T08:21:42Z</time>
      </trkpt>
      <trkpt lat="45.3076" lon="5.41871">
        <ele>643.703003</ele>
        <time>2016-05-08T08:21:46Z</time>
      </trkpt>
      <trkpt lat="45.30754" lon="5.4187">
        <ele>643.966553</ele>
        <time>2016-05-08T08:21:49Z</time>
      </trkpt>
      <trkpt lat="45.30746" lon="5.4187">
        <ele>644.249756</ele>
        <time>2016-05-08T08:21:53Z</time>
      </trkpt>
      <trkpt lat="45.30741" lon="5.41871">
        <ele>644.106812</ele>
        <time>2016-05-08T08:21:56Z</time>
      </trkpt>
      <trkpt lat="45.30732" lon="5.41872">
        <ele>643.996948</ele>
        <time>2016-05-08T08:22:00Z</time>
      </trkpt>
      <trkpt lat="45.30728" lon="5.41872">
        <ele>644.086304</ele>
        <time>2016-05-08T08:22:03Z</time>
      </trkpt>
      <trkpt lat="45.30719" lon="5.41871">
        <ele>644.29248</ele>
        <time>2016-05-08T08:22:07Z</time>
      </trkpt>
      <trkpt lat="45.30712" lon="5.4187">
        <ele>644.422607</ele>
        <time>2016-05-08T08:22:11Z</time>
      </trkpt>
      <trkpt lat="45.30705" lon="5.41869">
        <ele>644.60437</ele>
        <time>2016-05-08T08:22:14Z</time>
      </trkpt>
      <trkpt lat="45.30698" lon="5.41867">
        <ele>644.930664</ele>
        <time>2016-05-08T08:22:18Z</time>
      </trkpt>
      <trkpt lat="45.30691" lon="5.41865">
        <ele>645.287476</ele>
        <time>2016-05-08T08:22:22Z</time>
      </trkpt>
      <trkpt lat="45.30676" lon="5.41866">
        <ele>645.302368</ele>
        <time>2016-05-08T08:22:26Z</time>
      </trkpt>
      <trkpt lat="45.3066" lon="5.41863">
        <ele>645.106934</ele>
        <time>2016-05-08T08:22:29Z</time>
      </trkpt>
      <trkpt lat="45.30632" lon="5.41859">
        <ele>643.342529</ele>
        <time>2016-05-08T08:22:33Z</time>
      </trkpt>
      <trkpt lat="45.30607" lon="5.41862">
        <ele>640.865845</ele>
        <time>2016-05-08T08:22:36Z</time>
      </trkpt>
      <trkpt lat="45.30584" lon="5.41875">
        <ele>638.011597</ele>
        <time>2016-05-08T08:22:39Z</time>
      </trkpt>
      <trkpt lat="45.30553" lon="5.41887">
        <ele>632.094849</ele>
        <time>2016-05-08T08:22:43Z</time>
      </trkpt>
      <trkpt lat="45.30532" lon="5.419">
        <ele>627.761047</ele>
        <time>2016-05-08T08:22:46Z</time>
      </trkpt>
      <trkpt lat="45.30506" lon="5.41938">
        <ele>624.890869</ele>
        <time>2016-05-08T08:22:50Z</time>
      </trkpt>
      <trkpt lat="45.30484" lon="5.41951">
        <ele>624.863647</ele>
        <time>2016-05-08T08:22:53Z</time>
      </trkpt>
      <trkpt lat="45.30479" lon="5.41967">
        <ele>626.347534</ele>
        <time>2016-05-08T08:22:56Z</time>
      </trkpt>
      <trkpt lat="45.3049" lon="5.41983">
        <ele>628.126587</ele>
        <time>2016-05-08T08:23:00Z</time>
      </trkpt>
      <trkpt lat="45.30496" lon="5.41993">
        <ele>629.25116</ele>
        <time>2016-05-08T08:23:03Z</time>
      </trkpt>
      <trkpt lat="45.30499" lon="5.42002">
        <ele>630.223389</ele>
        <time>2016-05-08T08:23:06Z</time>
      </trkpt>
      <trkpt lat="45.30503" lon="5.42012">
        <ele>631.787598</ele>
        <time>2016-05-08T08:23:09Z</time>
      </trkpt>
      <trkpt lat="45.30505" lon="5.42019">
        <ele>632.868652</ele>
        <time>2016-05-08T08:23:12Z</time>
      </trkpt>
      <trkpt lat="45.30506" lon="5.42026">
        <ele>633.955322</ele>
        <time>2016-05-08T08:23:15Z</time>
      </trkpt>
      <trkpt lat="45.30509" lon="5.42036">
        <ele>635.609802</ele>
        <time>2016-05-08T08:23:19Z</time>
      </trkpt>
      <trkpt lat="45.30512" lon="5.42043">
        <ele>636.808594</ele>
        <time>2016-05-08T08:23:22Z</time>
      </trkpt>
      <trkpt lat="45.30513" lon="5.42054">
        <ele>638.425415</ele>
        <time>2016-05-08T08:23:26Z</time>
      </trkpt>
      <trkpt lat="45.30516" lon="5.42063">
        <ele>640.095337</ele>
        <time>2016-05-08T08:23:30Z</time>
      </trkpt>
      <trkpt lat="45.30518" lon="5.42072">
        <ele>641.536743</ele>
        <time>2016-05-08T08:23:34Z</time>
      </trkpt>
      <trkpt lat="45.30519" lon="5.4208">
        <ele>642.660767</ele>
        <time>2016-05-08T08:23:37Z</time>
      </trkpt>
      <trkpt lat="45.30523" lon="5.42087">
        <ele>644.200012</ele>
        <time>2016-05-08T08:23:41Z</time>
      </trkpt>
      <trkpt lat="45.30526" lon="5.42094">
        <ele>645.462646</ele>
        <time>2016-05-08T08:23:45Z</time>
      </trkpt>
      <trkpt lat="45.30529" lon="5.42101">
        <ele>646.667725</ele>
        <time>2016-05-08T08:23:49Z</time>
      </trkpt>
      <trkpt lat="45.30532" lon="5.42105">
        <ele>647.671265</ele>
        <time>2016-05-08T08:23:52Z</time>
      </trkpt>
      <trkpt lat="45.30536" lon="5.42111">
        <ele>648.826233</ele>
        <time>2016-05-08T08:23:56Z</time>
      </trkpt>
      <trkpt lat="45.30536" lon="5.42119">
        <ele>649.632202</ele>
        <time>2016-05-08T08:24:01Z</time>
      </trkpt>
      <trkpt lat="45.30535" lon="5.42125">
        <ele>650.187256</ele>
        <time>2016-05-08T08:24:05Z</time>
      </trkpt>
      <trkpt lat="45.30535" lon="5.42132">
        <ele>650.877502</ele>
        <time>2016-05-08T08:24:09Z</time>
      </trkpt>
      <trkpt lat="45.30535" lon="5.4214">
        <ele>651.632812</ele>
        <time>2016-05-08T08:24:13Z</time>
      </trkpt>
      <trkpt lat="45.30537" lon="5.42147">
        <ele>652.745605</ele>
        <time>2016-05-08T08:24:17Z</time>
      </trkpt>
      <trkpt lat="45.3054" lon="5.42153">
        <ele>653.792969</ele>
        <time>2016-05-08T08:24:21Z</time>
      </trkpt>
      <trkpt lat="45.30541" lon="5.4216">
        <ele>654.729919</ele>
        <time>2016-05-08T08:24:25Z</time>
      </trkpt>
      <trkpt lat="45.30543" lon="5.42167">
        <ele>655.778564</ele>
        <time>2016-05-08T08:24:29Z</time>
      </trkpt>
      <trkpt lat="45.30547" lon="5.42171">
        <ele>656.805115</ele>
        <time>2016-05-08T08:24:34Z</time>
      </trkpt>
      <trkpt lat="45.3055" lon="5.42177">
        <ele>657.737183</ele>
        <time>2016-05-08T08:24:40Z</time>
      </trkpt>
      <trkpt lat="45.30551" lon="5.42184">
        <ele>658.477539</ele>
        <time>2016-05-08T08:24:44Z</time>
      </trkpt>
      <trkpt lat="45.30549" lon="5.42193">
        <ele>658.956177</ele>
        <time>2016-05-08T08:24:48Z</time>
      </trkpt>
      <trkpt lat="45.30545" lon="5.42197">
        <ele>658.793701</ele>
        <time>2016-05-08T08:24:52Z</time>
      </trkpt>
      <trkpt lat="45.3054" lon="5.42197">
        <ele>658.179504</ele>
        <time>2016-05-08T08:24:56Z</time>
      </trkpt>
      <trkpt lat="45.30536" lon="5.42194">
        <ele>657.394531</ele>
        <time>2016-05-08T08:25:00Z</time>
      </trkpt>
      <trkpt lat="45.30532" lon="5.4219">
        <ele>656.388733</ele>
        <time>2016-05-08T08:25:04Z</time>
      </trkpt>
      <trkpt lat="45.30529" lon="5.42183">
        <ele>655.265503</ele>
        <time>2016-05-08T08:25:09Z</time>
      </trkpt>
      <trkpt lat="45.30525" lon="5.42178">
        <ele>654.191711</ele>
        <time>2016-05-08T08:25:14Z</time>
      </trkpt>
      <trkpt lat="45.3052" lon="5.42176">
        <ele>653.234802</ele>
        <time>2016-05-08T08:25:19Z</time>
      </trkpt>
      <trkpt lat="45.30516" lon="5.42174">
        <ele>652.234253</ele>
        <time>2016-05-08T08:25:23Z</time>
      </trkpt>
      <trkpt lat="45.3051" lon="5.4217">
        <ele>650.927856</ele>
        <time>2016-05-08T08:25:27Z</time>
      </trkpt>
      <trkpt lat="45.30505" lon="5.42166">
        <ele>649.757385</ele>
        <time>2016-05-08T08:25:32Z</time>
      </trkpt>
      <trkpt lat="45.30501" lon="5.42162">
        <ele>648.635071</ele>
        <time>2016-05-08T08:25:36Z</time>
      </trkpt>
      <trkpt lat="45.30498" lon="5.42157">
        <ele>648.040039</ele>
        <time>2016-05-08T08:25:40Z</time>
      </trkpt>
      <trkpt lat="45.30494" lon="5.42153">
        <ele>647.727661</ele>
        <time>2016-05-08T08:25:44Z</time>
      </trkpt>
      <trkpt lat="45.30489" lon="5.42152">
        <ele>647.695068</ele>
        <time>2016-05-08T08:25:50Z</time>
      </trkpt>
      <trkpt lat="45.30484" lon="5.42151">
        <ele>647.752258</ele>
        <time>2016-05-08T08:25:54Z</time>
      </trkpt>
      <trkpt lat="45.30479" lon="5.42145">
        <ele>647.186035</ele>
        <time>2016-05-08T08:25:58Z</time>
      </trkpt>
      <trkpt lat="45.30475" lon="5.42142">
        <ele>646.875793</ele>
        <time>2016-05-08T08:26:01Z</time>
      </trkpt>
      <trkpt lat="45.3047" lon="5.42139">
        <ele>646.628723</ele>
        <time>2016-05-08T08:26:04Z</time>
      </trkpt>
      <trkpt lat="45.30465" lon="5.42135">
        <ele>646.178223</ele>
        <time>2016-05-08T08:26:08Z</time>
      </trkpt>
      <trkpt lat="45.3046" lon="5.42129">
        <ele>645.500488</ele>
        <time>2016-05-08T08:26:12Z</time>
      </trkpt>
      <trkpt lat="45.30457" lon="5.42125">
        <ele>644.97522</ele>
        <time>2016-05-08T08:26:15Z</time>
      </trkpt>
      <trkpt lat="45.30451" lon="5.42121">
        <ele>644.58844</ele>
        <time>2016-05-08T08:26:19Z</time>
      </trkpt>
      <trkpt lat="45.30446" lon="5.42123">
        <ele>644.921509</ele>
        <time>2016-05-08T08:26:23Z</time>
      </trkpt>
      <trkpt lat="45.30443" lon="5.42129">
        <ele>645.719971</ele>
        <time>2016-05-08T08:26:28Z</time>
      </trkpt>
      <trkpt lat="45.30442" lon="5.42136">
        <ele>646.816284</ele>
        <time>2016-05-08T08:26:32Z</time>
      </trkpt>
      <trkpt lat="45.30443" lon="5.42143">
        <ele>647.743042</ele>
        <time>2016-05-08T08:26:38Z</time>
      </trkpt>
      <trkpt lat="45.30445" lon="5.4215">
        <ele>648.595825</ele>
        <time>2016-05-08T08:26:42Z</time>
      </trkpt>
      <trkpt lat="45.30447" lon="5.42157">
        <ele>649.58136</ele>
        <time>2016-05-08T08:26:46Z</time>
      </trkpt>
      <trkpt lat="45.30448" lon="5.42165">
        <ele>650.568176</ele>
        <time>2016-05-08T08:26:50Z</time>
      </trkpt>
      <trkpt lat="45.30449" lon="5.42171">
        <ele>651.727905</ele>
        <time>2016-05-08T08:26:54Z</time>
      </trkpt>
      <trkpt lat="45.30451" lon="5.42178">
        <ele>652.939087</ele>
        <time>2016-05-08T08:26:58Z</time>
      </trkpt>
      <trkpt lat="45.30452" lon="5.42185">
        <ele>654.206909</ele>
        <time>2016-05-08T08:27:02Z</time>
      </trkpt>
      <trkpt lat="45.30453" lon="5.42192">
        <ele>655.468872</ele>
        <time>2016-05-08T08:27:06Z</time>
      </trkpt>
      <trkpt lat="45.30454" lon="5.42201">
        <ele>657.256042</ele>
        <time>2016-05-08T08:27:10Z</time>
      </trkpt>
      <trkpt lat="45.30454" lon="5.42211">
        <ele>659.119507</ele>
        <time>2016-05-08T08:27:14Z</time>
      </trkpt>
      <trkpt lat="45.30456" lon="5.4222">
        <ele>660.750183</ele>
        <time>2016-05-08T08:27:18Z</time>
      </trkpt>
      <trkpt lat="45.30455" lon="5.42228">
        <ele>662.230469</ele>
        <time>2016-05-08T08:27:21Z</time>
      </trkpt>
      <trkpt lat="45.30458" lon="5.42237">
        <ele>663.639648</ele>
        <time>2016-05-08T08:27:25Z</time>
      </trkpt>
      <trkpt lat="45.30461" lon="5.42243">
        <ele>664.341553</ele>
        <time>2016-05-08T08:27:28Z</time>
      </trkpt>
      <trkpt lat="45.30461" lon="5.4225">
        <ele>665.677368</ele>
        <time>2016-05-08T08:27:31Z</time>
      </trkpt>
      <trkpt lat="45.3046" lon="5.4226">
        <ele>667.417847</ele>
        <time>2016-05-08T08:27:35Z</time>
      </trkpt>
      <trkpt lat="45.30459" lon="5.4227">
        <ele>669.236389</ele>
        <time>2016-05-08T08:27:39Z</time>
      </trkpt>
      <trkpt lat="45.30459" lon="5.42278">
        <ele>670.65625</ele>
        <time>2016-05-08T08:27:43Z</time>
      </trkpt>
      <trkpt lat="45.30458" lon="5.42287">
        <ele>672.305054</ele>
        <time>2016-05-08T08:27:47Z</time>
      </trkpt>
      <trkpt lat="45.30458" lon="5.42294">
        <ele>673.444214</ele>
        <time>2016-05-08T08:27:50Z</time>
      </trkpt>
      <trkpt lat="45.30457" lon="5.42301">
        <ele>674.759521</ele>
        <time>2016-05-08T08:27:54Z</time>
      </trkpt>
      <trkpt lat="45.30457" lon="5.42309">
        <ele>676.039551</ele>
        <time>2016-05-08T08:27:58Z</time>
      </trkpt>
      <trkpt lat="45.3046" lon="5.42315">
        <ele>676.508789</ele>
        <time>2016-05-08T08:28:02Z</time>
      </trkpt>
      <trkpt lat="45.30464" lon="5.42321">
        <ele>676.944214</ele>
        <time>2016-05-08T08:28:06Z</time>
      </trkpt>
      <trkpt lat="45.3047" lon="5.42326">
        <ele>676.709106</ele>
        <time>2016-05-08T08:28:10Z</time>
      </trkpt>
      <trkpt lat="45.30475" lon="5.42332">
        <ele>676.545532</ele>
        <time>2016-05-08T08:28:14Z</time>
      </trkpt>
      <trkpt lat="45.30482" lon="5.42336">
        <ele>675.711182</ele>
        <time>2016-05-08T08:28:18Z</time>
      </trkpt>
      <trkpt lat="45.30486" lon="5.42338">
        <ele>675.278992</ele>
        <time>2016-05-08T08:28:22Z</time>
      </trkpt>
      <trkpt lat="45.30491" lon="5.42339">
        <ele>674.475403</ele>
        <time>2016-05-08T08:28:27Z</time>
      </trkpt>
      <trkpt lat="45.30496" lon="5.42342">
        <ele>673.855896</ele>
        <time>2016-05-08T08:28:30Z</time>
      </trkpt>
      <trkpt lat="45.30503" lon="5.42346">
        <ele>673.637573</ele>
        <time>2016-05-08T08:28:34Z</time>
      </trkpt>
      <trkpt lat="45.30509" lon="5.42352">
        <ele>674.2901</ele>
        <time>2016-05-08T08:28:38Z</time>
      </trkpt>
      <trkpt lat="45.30515" lon="5.42358">
        <ele>674.903137</ele>
        <time>2016-05-08T08:28:42Z</time>
      </trkpt>
      <trkpt lat="45.30519" lon="5.42362">
        <ele>675.347534</ele>
        <time>2016-05-08T08:28:45Z</time>
      </trkpt>
      <trkpt lat="45.30523" lon="5.42366">
        <ele>675.688599</ele>
        <time>2016-05-08T08:28:48Z</time>
      </trkpt>
      <trkpt lat="45.30528" lon="5.42372">
        <ele>676.16571</ele>
        <time>2016-05-08T08:28:52Z</time>
      </trkpt>
      <trkpt lat="45.30532" lon="5.42376">
        <ele>676.421936</ele>
        <time>2016-05-08T08:28:55Z</time>
      </trkpt>
      <trkpt lat="45.30535" lon="5.42381">
        <ele>676.904541</ele>
        <time>2016-05-08T08:28:59Z</time>
      </trkpt>
      <trkpt lat="45.30537" lon="5.42389">
        <ele>677.591187</ele>
        <time>2016-05-08T08:29:03Z</time>
      </trkpt>
      <trkpt lat="45.30541" lon="5.42395">
        <ele>677.959595</ele>
        <time>2016-05-08T08:29:06Z</time>
      </trkpt>
      <trkpt lat="45.30544" lon="5.424">
        <ele>678.295044</ele>
        <time>2016-05-08T08:29:09Z</time>
      </trkpt>
      <trkpt lat="45.30549" lon="5.42407">
        <ele>678.610352</ele>
        <time>2016-05-08T08:29:13Z</time>
      </trkpt>
      <trkpt lat="45.30552" lon="5.42412">
        <ele>678.793335</ele>
        <time>2016-05-08T08:29:16Z</time>
      </trkpt>
      <trkpt lat="45.30556" lon="5.42421">
        <ele>679.705322</ele>
        <time>2016-05-08T08:29:20Z</time>
      </trkpt>
      <trkpt lat="45.30559" lon="5.42427">
        <ele>680.484863</ele>
        <time>2016-05-08T08:29:23Z</time>
      </trkpt>
      <trkpt lat="45.30563" lon="5.42434">
        <ele>681.266235</ele>
        <time>2016-05-08T08:29:27Z</time>
      </trkpt>
      <trkpt lat="45.30566" lon="5.42441">
        <ele>682.048096</ele>
        <time>2016-05-08T08:29:31Z</time>
      </trkpt>
      <trkpt lat="45.3057" lon="5.42449">
        <ele>682.882629</ele>
        <time>2016-05-08T08:29:35Z</time>
      </trkpt>
      <trkpt lat="45.30573" lon="5.42455">
        <ele>683.602905</ele>
        <time>2016-05-08T08:29:38Z</time>
      </trkpt>
      <trkpt lat="45.30576" lon="5.42463">
        <ele>684.493225</ele>
        <time>2016-05-08T08:29:42Z</time>
      </trkpt>
      <trkpt lat="45.30579" lon="5.42473">
        <ele>685.577698</ele>
        <time>2016-05-08T08:29:46Z</time>
      </trkpt>
      <trkpt lat="45.30582" lon="5.42483">
        <ele>686.765991</ele>
        <time>2016-05-08T08:29:50Z</time>
      </trkpt>
      <trkpt lat="45.30586" lon="5.42492">
        <ele>688.241394</ele>
        <time>2016-05-08T08:29:53Z</time>
      </trkpt>
      <trkpt lat="45.30589" lon="5.42503">
        <ele>690.13031</ele>
        <time>2016-05-08T08:29:57Z</time>
      </trkpt>
      <trkpt lat="45.3059" lon="5.42511">
        <ele>691.522217</ele>
        <time>2016-05-08T08:30:00Z</time>
      </trkpt>
      <trkpt lat="45.30595" lon="5.42522">
        <ele>693.712952</ele>
        <time>2016-05-08T08:30:04Z</time>
      </trkpt>
      <trkpt lat="45.30599" lon="5.42532">
        <ele>695.527161</ele>
        <time>2016-05-08T08:30:08Z</time>
      </trkpt>
      <trkpt lat="45.30603" lon="5.42542">
        <ele>697.086792</ele>
        <time>2016-05-08T08:30:12Z</time>
      </trkpt>
      <trkpt lat="45.30606" lon="5.42552">
        <ele>698.562012</ele>
        <time>2016-05-08T08:30:16Z</time>
      </trkpt>
      <trkpt lat="45.30607" lon="5.4256">
        <ele>699.63678</ele>
        <time>2016-05-08T08:30:19Z</time>
      </trkpt>
      <trkpt lat="45.30608" lon="5.4257">
        <ele>701.059875</ele>
        <time>2016-05-08T08:30:23Z</time>
      </trkpt>
      <trkpt lat="45.3061" lon="5.42581">
        <ele>702.3927</ele>
        <time>2016-05-08T08:30:27Z</time>
      </trkpt>
      <trkpt lat="45.30612" lon="5.42591">
        <ele>703.348633</ele>
        <time>2016-05-08T08:30:31Z</time>
      </trkpt>
      <trkpt lat="45.30614" lon="5.42597">
        <ele>703.899231</ele>
        <time>2016-05-08T08:30:35Z</time>
      </trkpt>
      <trkpt lat="45.30614" lon="5.42606">
        <ele>704.773804</ele>
        <time>2016-05-08T08:30:40Z</time>
      </trkpt>
      <trkpt lat="45.30613" lon="5.42619">
        <ele>706.090881</ele>
        <time>2016-05-08T08:30:44Z</time>
      </trkpt>
      <trkpt lat="45.30616" lon="5.42634">
        <ele>707.292236</ele>
        <time>2016-05-08T08:30:48Z</time>
      </trkpt>
      <trkpt lat="45.30619" lon="5.42648">
        <ele>708.355591</ele>
        <time>2016-05-08T08:30:52Z</time>
      </trkpt>
      <trkpt lat="45.30622" lon="5.42664">
        <ele>709.552856</ele>
        <time>2016-05-08T08:30:56Z</time>
      </trkpt>
      <trkpt lat="45.30624" lon="5.42676">
        <ele>710.389771</ele>
        <time>2016-05-08T08:30:59Z</time>
      </trkpt>
      <trkpt lat="45.30627" lon="5.42691">
        <ele>711.480347</ele>
        <time>2016-05-08T08:31:03Z</time>
      </trkpt>
      <trkpt lat="45.30628" lon="5.42702">
        <ele>712.272949</ele>
        <time>2016-05-08T08:31:06Z</time>
      </trkpt>
      <trkpt lat="45.3063" lon="5.42712">
        <ele>713.005249</ele>
        <time>2016-05-08T08:31:09Z</time>
      </trkpt>
      <trkpt lat="45.30633" lon="5.42727">
        <ele>714.020569</ele>
        <time>2016-05-08T08:31:13Z</time>
      </trkpt>
      <trkpt lat="45.30634" lon="5.42741">
        <ele>715.078857</ele>
        <time>2016-05-08T08:31:17Z</time>
      </trkpt>
      <trkpt lat="45.30635" lon="5.42748">
        <ele>715.68811</ele>
        <time>2016-05-08T08:31:20Z</time>
      </trkpt>
      <trkpt lat="45.30636" lon="5.42757">
        <ele>715.998413</ele>
        <time>2016-05-08T08:31:23Z</time>
      </trkpt>
      <trkpt lat="45.30635" lon="5.42767">
        <ele>716.459473</ele>
        <time>2016-05-08T08:31:27Z</time>
      </trkpt>
      <trkpt lat="45.30636" lon="5.42776">
        <ele>716.730042</ele>
        <time>2016-05-08T08:31:31Z</time>
      </trkpt>
      <trkpt lat="45.30639" lon="5.42785">
        <ele>716.866516</ele>
        <time>2016-05-08T08:31:34Z</time>
      </trkpt>
      <trkpt lat="45.3064" lon="5.42795">
        <ele>717.204163</ele>
        <time>2016-05-08T08:31:38Z</time>
      </trkpt>
      <trkpt lat="45.3064" lon="5.42803">
        <ele>717.60321</ele>
        <time>2016-05-08T08:31:42Z</time>
      </trkpt>
      <trkpt lat="45.30638" lon="5.42809">
        <ele>718.029541</ele>
        <time>2016-05-08T08:31:45Z</time>
      </trkpt>
      <trkpt lat="45.30637" lon="5.42817">
        <ele>718.405518</ele>
        <time>2016-05-08T08:31:48Z</time>
      </trkpt>
      <trkpt lat="45.30639" lon="5.42824">
        <ele>718.601074</ele>
        <time>2016-05-08T08:31:51Z</time>
      </trkpt>
      <trkpt lat="45.30641" lon="5.4283">
        <ele>718.744629</ele>
        <time>2016-05-08T08:31:54Z</time>
      </trkpt>
      <trkpt lat="45.30643" lon="5.42837">
        <ele>718.84845</ele>
        <time>2016-05-08T08:31:58Z</time>
      </trkpt>
      <trkpt lat="45.30645" lon="5.42845">
        <ele>718.761414</ele>
        <time>2016-05-08T08:32:02Z</time>
      </trkpt>
      <trkpt lat="45.30648" lon="5.42852">
        <ele>718.694885</ele>
        <time>2016-05-08T08:32:06Z</time>
      </trkpt>
      <trkpt lat="45.30651" lon="5.42862">
        <ele>718.641846</ele>
        <time>2016-05-08T08:32:10Z</time>
      </trkpt>
      <trkpt lat="45.30653" lon="5.42872">
        <ele>718.645874</ele>
        <time>2016-05-08T08:32:14Z</time>
      </trkpt>
      <trkpt lat="45.30656" lon="5.42884">
        <ele>718.679321</ele>
        <time>2016-05-08T08:32:18Z</time>
      </trkpt>
      <trkpt lat="45.30657" lon="5.42897">
        <ele>718.755981</ele>
        <time>2016-05-08T08:32:22Z</time>
      </trkpt>
      <trkpt lat="45.30656" lon="5.42907">
        <ele>718.818359</ele>
        <time>2016-05-08T08:32:25Z</time>
      </trkpt>
      <trkpt lat="45.30655" lon="5.42919">
        <ele>718.65271</ele>
        <time>2016-05-08T08:32:29Z</time>
      </trkpt>
      <trkpt lat="45.30653" lon="5.42926">
        <ele>718.055054</ele>
        <time>2016-05-08T08:32:33Z</time>
      </trkpt>
      <trkpt lat="45.30648" lon="5.42929">
        <ele>717.741943</ele>
        <time>2016-05-08T08:32:38Z</time>
      </trkpt>
      <trkpt lat="45.30642" lon="5.42926">
        <ele>717.865601</ele>
        <time>2016-05-08T08:32:42Z</time>
      </trkpt>
      <trkpt lat="45.30634" lon="5.42921">
        <ele>718.185486</ele>
        <time>2016-05-08T08:32:46Z</time>
      </trkpt>
      <trkpt lat="45.30627" lon="5.42917">
        <ele>718.504028</ele>
        <time>2016-05-08T08:32:50Z</time>
      </trkpt>
      <trkpt lat="45.30622" lon="5.42912">
        <ele>718.528076</ele>
        <time>2016-05-08T08:32:53Z</time>
      </trkpt>
      <trkpt lat="45.30616" lon="5.42904">
        <ele>718.605225</ele>
        <time>2016-05-08T08:32:57Z</time>
      </trkpt>
      <trkpt lat="45.3061" lon="5.42898">
        <ele>718.70697</ele>
        <time>2016-05-08T08:33:01Z</time>
      </trkpt>
      <trkpt lat="45.30605" lon="5.42893">
        <ele>718.81189</ele>
        <time>2016-05-08T08:33:04Z</time>
      </trkpt>
      <trkpt lat="45.306" lon="5.42883">
        <ele>719.08197</ele>
        <time>2016-05-08T08:33:07Z</time>
      </trkpt>
      <trkpt lat="45.30596" lon="5.42868">
        <ele>719.54834</ele>
        <time>2016-05-08T08:33:11Z</time>
      </trkpt>
      <trkpt lat="45.3059" lon="5.42862">
        <ele>719.83136</ele>
        <time>2016-05-08T08:33:14Z</time>
      </trkpt>
      <trkpt lat="45.30584" lon="5.42855">
        <ele>720.190247</ele>
        <time>2016-05-08T08:33:17Z</time>
      </trkpt>
      <trkpt lat="45.30578" lon="5.42848">
        <ele>720.386292</ele>
        <time>2016-05-08T08:33:20Z</time>
      </trkpt>
      <trkpt lat="45.30571" lon="5.42842">
        <ele>720.567749</ele>
        <time>2016-05-08T08:33:24Z</time>
      </trkpt>
      <trkpt lat="45.30565" lon="5.42837">
        <ele>720.80896</ele>
        <time>2016-05-08T08:33:27Z</time>
      </trkpt>
      <trkpt lat="45.3056" lon="5.42831">
        <ele>721.088196</ele>
        <time>2016-05-08T08:33:30Z</time>
      </trkpt>
      <trkpt lat="45.30556" lon="5.42826">
        <ele>721.288574</ele>
        <time>2016-05-08T08:33:33Z</time>
      </trkpt>
      <trkpt lat="45.3055" lon="5.42817">
        <ele>721.748718</ele>
        <time>2016-05-08T08:33:37Z</time>
      </trkpt>
      <trkpt lat="45.30541" lon="5.42808">
        <ele>722.362183</ele>
        <time>2016-05-08T08:33:41Z</time>
      </trkpt>
      <trkpt lat="45.30535" lon="5.42803">
        <ele>722.820862</ele>
        <time>2016-05-08T08:33:44Z</time>
      </trkpt>
      <trkpt lat="45.30529" lon="5.428">
        <ele>723.263123</ele>
        <time>2016-05-08T08:33:47Z</time>
      </trkpt>
      <trkpt lat="45.30523" lon="5.42798">
        <ele>723.618774</ele>
        <time>2016-05-08T08:33:51Z</time>
      </trkpt>
      <trkpt lat="45.30517" lon="5.42795">
        <ele>723.989197</ele>
        <time>2016-05-08T08:33:55Z</time>
      </trkpt>
      <trkpt lat="45.30511" lon="5.42795">
        <ele>724.239868</ele>
        <time>2016-05-08T08:33:59Z</time>
      </trkpt>
      <trkpt lat="45.30504" lon="5.42794">
        <ele>724.564209</ele>
        <time>2016-05-08T08:34:03Z</time>
      </trkpt>
      <trkpt lat="45.305" lon="5.42793">
        <ele>724.932434</ele>
        <time>2016-05-08T08:34:06Z</time>
      </trkpt>
      <trkpt lat="45.30495" lon="5.42791">
        <ele>725.59552</ele>
        <time>2016-05-08T08:34:09Z</time>
      </trkpt>
      <trkpt lat="45.30488" lon="5.42788">
        <ele>726.623047</ele>
        <time>2016-05-08T08:34:13Z</time>
      </trkpt>
      <trkpt lat="45.30483" lon="5.42785">
        <ele>727.429932</ele>
        <time>2016-05-08T08:34:16Z</time>
      </trkpt>
      <trkpt lat="45.30478" lon="5.42781">
        <ele>728.270691</ele>
        <time>2016-05-08T08:34:19Z</time>
      </trkpt>
      <trkpt lat="45.30472" lon="5.42777">
        <ele>729.266235</ele>
        <time>2016-05-08T08:34:23Z</time>
      </trkpt>
      <trkpt lat="45.30466" lon="5.42773">
        <ele>730.191711</ele>
        <time>2016-05-08T08:34:27Z</time>
      </trkpt>
      <trkpt lat="45.30462" lon="5.42768">
        <ele>731.051941</ele>
        <time>2016-05-08T08:34:31Z</time>
      </trkpt>
      <trkpt lat="45.30457" lon="5.42762">
        <ele>732.054993</ele>
        <time>2016-05-08T08:34:35Z</time>
      </trkpt>
      <trkpt lat="45.30453" lon="5.42759">
        <ele>732.757141</ele>
        <time>2016-05-08T08:34:39Z</time>
      </trkpt>
      <trkpt lat="45.30447" lon="5.42754">
        <ele>733.718994</ele>
        <time>2016-05-08T08:34:43Z</time>
      </trkpt>
      <trkpt lat="45.30443" lon="5.42748">
        <ele>734.328979</ele>
        <time>2016-05-08T08:34:46Z</time>
      </trkpt>
      <trkpt lat="45.30437" lon="5.42746">
        <ele>734.819336</ele>
        <time>2016-05-08T08:34:50Z</time>
      </trkpt>
      <trkpt lat="45.30432" lon="5.42743">
        <ele>735.082397</ele>
        <time>2016-05-08T08:34:53Z</time>
      </trkpt>
      <trkpt lat="45.30425" lon="5.4274">
        <ele>735.486206</ele>
        <time>2016-05-08T08:34:57Z</time>
      </trkpt>
      <trkpt lat="45.3042" lon="5.42737">
        <ele>735.7099</ele>
        <time>2016-05-08T08:35:00Z</time>
      </trkpt>
      <trkpt lat="45.30414" lon="5.42734">
        <ele>736.201416</ele>
        <time>2016-05-08T08:35:04Z</time>
      </trkpt>
      <trkpt lat="45.30408" lon="5.42731">
        <ele>736.743286</ele>
        <time>2016-05-08T08:35:07Z</time>
      </trkpt>
      <trkpt lat="45.30403" lon="5.42728">
        <ele>737.232178</ele>
        <time>2016-05-08T08:35:11Z</time>
      </trkpt>
      <trkpt lat="45.30395" lon="5.42729">
        <ele>738.278931</ele>
        <time>2016-05-08T08:35:15Z</time>
      </trkpt>
      <trkpt lat="45.3039" lon="5.42728">
        <ele>738.908569</ele>
        <time>2016-05-08T08:35:19Z</time>
      </trkpt>
      <trkpt lat="45.30385" lon="5.42727">
        <ele>739.460327</ele>
        <time>2016-05-08T08:35:22Z</time>
      </trkpt>
      <trkpt lat="45.30377" lon="5.42725">
        <ele>740.420898</ele>
        <time>2016-05-08T08:35:26Z</time>
      </trkpt>
      <trkpt lat="45.30369" lon="5.42721">
        <ele>741.238525</ele>
        <time>2016-05-08T08:35:30Z</time>
      </trkpt>
      <trkpt lat="45.30361" lon="5.42718">
        <ele>742.180664</ele>
        <time>2016-05-08T08:35:34Z</time>
      </trkpt>
      <trkpt lat="45.30355" lon="5.42715">
        <ele>742.798645</ele>
        <time>2016-05-08T08:35:37Z</time>
      </trkpt>
      <trkpt lat="45.30349" lon="5.42712">
        <ele>743.46582</ele>
        <time>2016-05-08T08:35:40Z</time>
      </trkpt>
      <trkpt lat="45.30343" lon="5.42706">
        <ele>744.12854</ele>
        <time>2016-05-08T08:35:44Z</time>
      </trkpt>
      <trkpt lat="45.30339" lon="5.42701">
        <ele>744.484436</ele>
        <time>2016-05-08T08:35:47Z</time>
      </trkpt>
      <trkpt lat="45.30336" lon="5.42694">
        <ele>744.630249</ele>
        <time>2016-05-08T08:35:50Z</time>
      </trkpt>
      <trkpt lat="45.30332" lon="5.42685">
        <ele>744.849731</ele>
        <time>2016-05-08T08:35:54Z</time>
      </trkpt>
      <trkpt lat="45.30327" lon="5.42674">
        <ele>745.0979</ele>
        <time>2016-05-08T08:35:57Z</time>
      </trkpt>
      <trkpt lat="45.30321" lon="5.42662">
        <ele>745.031982</ele>
        <time>2016-05-08T08:36:00Z</time>
      </trkpt>
      <trkpt lat="45.30314" lon="5.42649">
        <ele>744.406433</ele>
        <time>2016-05-08T08:36:03Z</time>
      </trkpt>
      <trkpt lat="45.30308" lon="5.42635">
        <ele>743.634399</ele>
        <time>2016-05-08T08:36:06Z</time>
      </trkpt>
      <trkpt lat="45.303" lon="5.4262">
        <ele>742.94104</ele>
        <time>2016-05-08T08:36:09Z</time>
      </trkpt>
      <trkpt lat="45.30284" lon="5.42597">
        <ele>742.345825</ele>
        <time>2016-05-08T08:36:13Z</time>
      </trkpt>
      <trkpt lat="45.30268" lon="5.42574">
        <ele>741.640381</ele>
        <time>2016-05-08T08:36:17Z</time>
      </trkpt>
      <trkpt lat="45.30253" lon="5.42557">
        <ele>741.092041</ele>
        <time>2016-05-08T08:36:20Z</time>
      </trkpt>
      <trkpt lat="45.30238" lon="5.42549">
        <ele>741.864136</ele>
        <time>2016-05-08T08:36:23Z</time>
      </trkpt>
      <trkpt lat="45.3023" lon="5.42553">
        <ele>743.575867</ele>
        <time>2016-05-08T08:36:26Z</time>
      </trkpt>
      <trkpt lat="45.30226" lon="5.4256">
        <ele>744.883301</ele>
        <time>2016-05-08T08:36:30Z</time>
      </trkpt>
      <trkpt lat="45.30223" lon="5.42565">
        <ele>745.89978</ele>
        <time>2016-05-08T08:36:33Z</time>
      </trkpt>
      <trkpt lat="45.30219" lon="5.42569">
        <ele>746.864258</ele>
        <time>2016-05-08T08:36:37Z</time>
      </trkpt>
      <trkpt lat="45.30212" lon="5.42567">
        <ele>747.453125</ele>
        <time>2016-05-08T08:36:41Z</time>
      </trkpt>
      <trkpt lat="45.30207" lon="5.42564">
        <ele>747.749023</ele>
        <time>2016-05-08T08:36:44Z</time>
      </trkpt>
      <trkpt lat="45.30197" lon="5.42556">
        <ele>748.017334</ele>
        <time>2016-05-08T08:36:48Z</time>
      </trkpt>
      <trkpt lat="45.30185" lon="5.42547">
        <ele>748.41626</ele>
        <time>2016-05-08T08:36:52Z</time>
      </trkpt>
      <trkpt lat="45.30174" lon="5.42539">
        <ele>748.652039</ele>
        <time>2016-05-08T08:36:55Z</time>
      </trkpt>
      <trkpt lat="45.30163" lon="5.42528">
        <ele>748.33606</ele>
        <time>2016-05-08T08:36:58Z</time>
      </trkpt>
      <trkpt lat="45.30145" lon="5.42513">
        <ele>746.856995</ele>
        <time>2016-05-08T08:37:02Z</time>
      </trkpt>
      <trkpt lat="45.30131" lon="5.42502">
        <ele>746.067261</ele>
        <time>2016-05-08T08:37:05Z</time>
      </trkpt>
      <trkpt lat="45.30112" lon="5.42487">
        <ele>745.169128</ele>
        <time>2016-05-08T08:37:09Z</time>
      </trkpt>
      <trkpt lat="45.30099" lon="5.42475">
        <ele>744.722473</ele>
        <time>2016-05-08T08:37:12Z</time>
      </trkpt>
      <trkpt lat="45.30082" lon="5.42461">
        <ele>744.602051</ele>
        <time>2016-05-08T08:37:16Z</time>
      </trkpt>
      <trkpt lat="45.30067" lon="5.42446">
        <ele>743.108521</ele>
        <time>2016-05-08T08:37:20Z</time>
      </trkpt>
      <trkpt lat="45.30052" lon="5.42424">
        <ele>741.574707</ele>
        <time>2016-05-08T08:37:24Z</time>
      </trkpt>
      <trkpt lat="45.30052" lon="5.42407">
        <ele>740.899902</ele>
        <time>2016-05-08T08:37:27Z</time>
      </trkpt>
      <trkpt lat="45.30046" lon="5.42382">
        <ele>739.979858</ele>
        <time>2016-05-08T08:37:30Z</time>
      </trkpt>
      <trkpt lat="45.30033" lon="5.42348">
        <ele>738.989075</ele>
        <time>2016-05-08T08:37:34Z</time>
      </trkpt>
      <trkpt lat="45.30026" lon="5.42324">
        <ele>737.656738</ele>
        <time>2016-05-08T08:37:37Z</time>
      </trkpt>
      <trkpt lat="45.30008" lon="5.42297">
        <ele>734.963867</ele>
        <time>2016-05-08T08:37:41Z</time>
      </trkpt>
      <trkpt lat="45.29989" lon="5.42286">
        <ele>731.843994</ele>
        <time>2016-05-08T08:37:44Z</time>
      </trkpt>
      <trkpt lat="45.29982" lon="5.42268">
        <ele>728.249146</ele>
        <time>2016-05-08T08:37:47Z</time>
      </trkpt>
      <trkpt lat="45.29984" lon="5.42245">
        <ele>726.138367</ele>
        <time>2016-05-08T08:37:50Z</time>
      </trkpt>
      <trkpt lat="45.2998" lon="5.42226">
        <ele>723.814331</ele>
        <time>2016-05-08T08:37:53Z</time>
      </trkpt>
      <trkpt lat="45.29973" lon="5.42187">
        <ele>718.968018</ele>
        <time>2016-05-08T08:37:57Z</time>
      </trkpt>
      <trkpt lat="45.29966" lon="5.42151">
        <ele>714.796387</ele>
        <time>2016-05-08T08:38:00Z</time>
      </trkpt>
      <trkpt lat="45.29963" lon="5.42117">
        <ele>712.939209</ele>
        <time>2016-05-08T08:38:03Z</time>
      </trkpt>
      <trkpt lat="45.29956" lon="5.4209">
        <ele>710.695496</ele>
        <time>2016-05-08T08:38:07Z</time>
      </trkpt>
      <trkpt lat="45.29952" lon="5.42084">
        <ele>709.741211</ele>
        <time>2016-05-08T08:38:10Z</time>
      </trkpt>
      <trkpt lat="45.29951" lon="5.42073">
        <ele>709.263062</ele>
        <time>2016-05-08T08:38:13Z</time>
      </trkpt>
      <trkpt lat="45.29951" lon="5.42066">
        <ele>709.079712</ele>
        <time>2016-05-08T08:38:17Z</time>
      </trkpt>
      <trkpt lat="45.29952" lon="5.42073">
        <ele>709.3927</ele>
        <time>2016-05-08T08:38:25Z</time>
      </trkpt>
      <trkpt lat="45.29954" lon="5.42083">
        <ele>710.08728</ele>
        <time>2016-05-08T08:38:28Z</time>
      </trkpt>
      <trkpt lat="45.29956" lon="5.42095">
        <ele>710.924377</ele>
        <time>2016-05-08T08:38:31Z</time>
      </trkpt>
      <trkpt lat="45.29958" lon="5.42106">
        <ele>711.63916</ele>
        <time>2016-05-08T08:38:34Z</time>
      </trkpt>
      <trkpt lat="45.29959" lon="5.42098">
        <ele>711.576782</ele>
        <time>2016-05-08T08:38:41Z</time>
      </trkpt>
      <trkpt lat="45.29955" lon="5.42081">
        <ele>710.256287</ele>
        <time>2016-05-08T08:38:44Z</time>
      </trkpt>
      <trkpt lat="45.29949" lon="5.4204">
        <ele>707.89978</ele>
        <time>2016-05-08T08:38:48Z</time>
      </trkpt>
      <trkpt lat="45.29936" lon="5.41997">
        <ele>705.520752</ele>
        <time>2016-05-08T08:38:52Z</time>
      </trkpt>
      <trkpt lat="45.29925" lon="5.41957">
        <ele>703.365112</ele>
        <time>2016-05-08T08:38:56Z</time>
      </trkpt>
      <trkpt lat="45.29916" lon="5.41925">
        <ele>702.061279</ele>
        <time>2016-05-08T08:38:59Z</time>
      </trkpt>
      <trkpt lat="45.29893" lon="5.41891">
        <ele>698.300659</ele>
        <time>2016-05-08T08:39:03Z</time>
      </trkpt>
      <trkpt lat="45.29875" lon="5.4187">
        <ele>695.947388</ele>
        <time>2016-05-08T08:39:06Z</time>
      </trkpt>
      <trkpt lat="45.29864" lon="5.41841">
        <ele>694.900574</ele>
        <time>2016-05-08T08:39:09Z</time>
      </trkpt>
      <trkpt lat="45.29855" lon="5.41809">
        <ele>692.740479</ele>
        <time>2016-05-08T08:39:12Z</time>
      </trkpt>
      <trkpt lat="45.29847" lon="5.41763">
        <ele>689.596069</ele>
        <time>2016-05-08T08:39:16Z</time>
      </trkpt>
      <trkpt lat="45.29845" lon="5.41719">
        <ele>686.751709</ele>
        <time>2016-05-08T08:39:19Z</time>
      </trkpt>
      <trkpt lat="45.29846" lon="5.41669">
        <ele>683.417358</ele>
        <time>2016-05-08T08:39:22Z</time>
      </trkpt>
      <trkpt lat="45.29839" lon="5.41607">
        <ele>679.380371</ele>
        <time>2016-05-08T08:39:26Z</time>
      </trkpt>
      <trkpt lat="45.29832" lon="5.4156">
        <ele>676.028992</ele>
        <time>2016-05-08T08:39:29Z</time>
      </trkpt>
      <trkpt lat="45.29836" lon="5.41501">
        <ele>672.717285</ele>
        <time>2016-05-08T08:39:33Z</time>
      </trkpt>
      <trkpt lat="45.29827" lon="5.41447">
        <ele>665.834717</ele>
        <time>2016-05-08T08:39:37Z</time>
      </trkpt>
      <trkpt lat="45.2982" lon="5.41404">
        <ele>659.595703</ele>
        <time>2016-05-08T08:39:41Z</time>
      </trkpt>
      <trkpt lat="45.29823" lon="5.41362">
        <ele>657.311646</ele>
        <time>2016-05-08T08:39:44Z</time>
      </trkpt>
      <trkpt lat="45.29815" lon="5.41308">
        <ele>649.879028</ele>
        <time>2016-05-08T08:39:48Z</time>
      </trkpt>
      <trkpt lat="45.29808" lon="5.41249">
        <ele>642.157593</ele>
        <time>2016-05-08T08:39:52Z</time>
      </trkpt>
      <trkpt lat="45.29806" lon="5.41211">
        <ele>639.087585</ele>
        <time>2016-05-08T08:39:55Z</time>
      </trkpt>
      <trkpt lat="45.29805" lon="5.41171">
        <ele>636.031738</ele>
        <time>2016-05-08T08:39:58Z</time>
      </trkpt>
      <trkpt lat="45.29797" lon="5.41114">
        <ele>632.042175</ele>
        <time>2016-05-08T08:40:02Z</time>
      </trkpt>
      <trkpt lat="45.29785" lon="5.4105">
        <ele>628.275513</ele>
        <time>2016-05-08T08:40:06Z</time>
      </trkpt>
      <trkpt lat="45.29773" lon="5.41007">
        <ele>626.088379</ele>
        <time>2016-05-08T08:40:09Z</time>
      </trkpt>
      <trkpt lat="45.29763" lon="5.4096">
        <ele>623.64856</ele>
        <time>2016-05-08T08:40:13Z</time>
      </trkpt>
      <trkpt lat="45.2975" lon="5.4092">
        <ele>622.1521</ele>
        <time>2016-05-08T08:40:16Z</time>
      </trkpt>
      <trkpt lat="45.29742" lon="5.40863">
        <ele>614.377808</ele>
        <time>2016-05-08T08:40:20Z</time>
      </trkpt>
      <trkpt lat="45.29745" lon="5.40847">
        <ele>613.361328</ele>
        <time>2016-05-08T08:40:23Z</time>
      </trkpt>
      <trkpt lat="45.29748" lon="5.40839">
        <ele>613.227783</ele>
        <time>2016-05-08T08:40:26Z</time>
      </trkpt>
      <trkpt lat="45.29755" lon="5.40826">
        <ele>610.923035</ele>
        <time>2016-05-08T08:40:30Z</time>
      </trkpt>
      <trkpt lat="45.29763" lon="5.40812">
        <ele>607.582642</ele>
        <time>2016-05-08T08:40:33Z</time>
      </trkpt>
      <trkpt lat="45.29769" lon="5.40785">
        <ele>602.860046</ele>
        <time>2016-05-08T08:40:36Z</time>
      </trkpt>
      <trkpt lat="45.29777" lon="5.4074">
        <ele>595.50708</ele>
        <time>2016-05-08T08:40:40Z</time>
      </trkpt>
      <trkpt lat="45.29784" lon="5.40702">
        <ele>589.423096</ele>
        <time>2016-05-08T08:40:44Z</time>
      </trkpt>
      <trkpt lat="45.29788" lon="5.40675">
        <ele>585.185181</ele>
        <time>2016-05-08T08:40:47Z</time>
      </trkpt>
      <trkpt lat="45.29786" lon="5.40655">
        <ele>582.757996</ele>
        <time>2016-05-08T08:40:50Z</time>
      </trkpt>
      <trkpt lat="45.29789" lon="5.40622">
        <ele>577.807129</ele>
        <time>2016-05-08T08:40:54Z</time>
      </trkpt>
      <trkpt lat="45.29792" lon="5.40578">
        <ele>571.466309</ele>
        <time>2016-05-08T08:40:57Z</time>
      </trkpt>
      <trkpt lat="45.29789" lon="5.40535">
        <ele>567.502197</ele>
        <time>2016-05-08T08:41:01Z</time>
      </trkpt>
      <trkpt lat="45.29788" lon="5.40515">
        <ele>565.525757</ele>
        <time>2016-05-08T08:41:04Z</time>
      </trkpt>
      <trkpt lat="45.29788" lon="5.40501">
        <ele>564.272095</ele>
        <time>2016-05-08T08:41:07Z</time>
      </trkpt>
      <trkpt lat="45.29787" lon="5.40479">
        <ele>562.673096</ele>
        <time>2016-05-08T08:41:11Z</time>
      </trkpt>
      <trkpt lat="45.29784" lon="5.40471">
        <ele>562.401855</ele>
        <time>2016-05-08T08:41:14Z</time>
      </trkpt>
      <trkpt lat="45.29784" lon="5.40465">
        <ele>561.898621</ele>
        <time>2016-05-08T08:41:18Z</time>
      </trkpt>
      <trkpt lat="45.29778" lon="5.40421">
        <ele>558.998535</ele>
        <time>2016-05-08T08:41:22Z</time>
      </trkpt>
      <trkpt lat="45.29774" lon="5.40394">
        <ele>558.127808</ele>
        <time>2016-05-08T08:41:25Z</time>
      </trkpt>
      <trkpt lat="45.29769" lon="5.40361">
        <ele>557.362183</ele>
        <time>2016-05-08T08:41:28Z</time>
      </trkpt>
      <trkpt lat="45.29767" lon="5.40328">
        <ele>556.416077</ele>
        <time>2016-05-08T08:41:32Z</time>
      </trkpt>
      <trkpt lat="45.29762" lon="5.40315">
        <ele>556.493225</ele>
        <time>2016-05-08T08:41:35Z</time>
      </trkpt>
      <trkpt lat="45.29762" lon="5.4029">
        <ele>555.84668</ele>
        <time>2016-05-08T08:41:39Z</time>
      </trkpt>
      <trkpt lat="45.29764" lon="5.40266">
        <ele>555.126099</ele>
        <time>2016-05-08T08:41:43Z</time>
      </trkpt>
      <trkpt lat="45.29767" lon="5.4025">
        <ele>554.407104</ele>
        <time>2016-05-08T08:41:46Z</time>
      </trkpt>
      <trkpt lat="45.29768" lon="5.40232">
        <ele>553.733459</ele>
        <time>2016-05-08T08:41:50Z</time>
      </trkpt>
      <trkpt lat="45.29761" lon="5.40184">
        <ele>553.126038</ele>
        <time>2016-05-08T08:41:54Z</time>
      </trkpt>
      <trkpt lat="45.29755" lon="5.40155">
        <ele>553.141846</ele>
        <time>2016-05-08T08:41:58Z</time>
      </trkpt>
      <trkpt lat="45.29744" lon="5.40151">
        <ele>553.916382</ele>
        <time>2016-05-08T08:42:02Z</time>
      </trkpt>
      <trkpt lat="45.29737" lon="5.40154">
        <ele>554.291443</ele>
        <time>2016-05-08T08:42:06Z</time>
      </trkpt>
      <trkpt lat="45.29729" lon="5.40158">
        <ele>554.693481</ele>
        <time>2016-05-08T08:42:09Z</time>
      </trkpt>
      <trkpt lat="45.29712" lon="5.40165">
        <ele>555.384521</ele>
        <time>2016-05-08T08:42:13Z</time>
      </trkpt>
      <trkpt lat="45.29702" lon="5.40174">
        <ele>555.861877</ele>
        <time>2016-05-08T08:42:16Z</time>
      </trkpt>
      <trkpt lat="45.2969" lon="5.40181">
        <ele>556.368164</ele>
        <time>2016-05-08T08:42:20Z</time>
      </trkpt>
      <trkpt lat="45.29684" lon="5.40187">
        <ele>556.689148</ele>
        <time>2016-05-08T08:42:24Z</time>
      </trkpt>
      <trkpt lat="45.29688" lon="5.40191">
        <ele>556.605896</ele>
        <time>2016-05-08T08:42:27Z</time>
      </trkpt>
      <trkpt lat="45.29701" lon="5.40178">
        <ele>555.956909</ele>
        <time>2016-05-08T08:42:30Z</time>
      </trkpt>
      <trkpt lat="45.29718" lon="5.40162">
        <ele>555.148071</ele>
        <time>2016-05-08T08:42:34Z</time>
      </trkpt>
      <trkpt lat="45.29732" lon="5.40153">
        <ele>554.514404</ele>
        <time>2016-05-08T08:42:37Z</time>
      </trkpt>
      <trkpt lat="45.29727" lon="5.40138">
        <ele>554.602051</ele>
        <time>2016-05-08T08:42:41Z</time>
      </trkpt>
      <trkpt lat="45.29705" lon="5.4014">
        <ele>555.828613</ele>
        <time>2016-05-08T08:42:45Z</time>
      </trkpt>
      <trkpt lat="45.29691" lon="5.40147">
        <ele>556.481018</ele>
        <time>2016-05-08T08:42:48Z</time>
      </trkpt>
      <trkpt lat="45.29674" lon="5.40156">
        <ele>557.078308</ele>
        <time>2016-05-08T08:42:52Z</time>
      </trkpt>
      <trkpt lat="45.29666" lon="5.40165">
        <ele>557.135925</ele>
        <time>2016-05-08T08:42:55Z</time>
      </trkpt>
      <trkpt lat="45.29654" lon="5.40175">
        <ele>557.92041</ele>
        <time>2016-05-08T08:42:59Z</time>
      </trkpt>
      <trkpt lat="45.29644" lon="5.4018">
        <ele>558.559204</ele>
        <time>2016-05-08T08:43:02Z</time>
      </trkpt>
      <trkpt lat="45.29626" lon="5.40191">
        <ele>559.371155</ele>
        <time>2016-05-08T08:43:06Z</time>
      </trkpt>
      <trkpt lat="45.29614" lon="5.40199">
        <ele>559.713196</ele>
        <time>2016-05-08T08:43:10Z</time>
      </trkpt>
      <trkpt lat="45.29604" lon="5.40209">
        <ele>559.700867</ele>
        <time>2016-05-08T08:43:14Z</time>
      </trkpt>
      <trkpt lat="45.29601" lon="5.40214">
        <ele>559.602661</ele>
        <time>2016-05-08T08:43:17Z</time>
      </trkpt>
      <trkpt lat="45.29597" lon="5.4022">
        <ele>559.473999</ele>
        <time>2016-05-08T08:43:20Z</time>
      </trkpt>
      <trkpt lat="45.29589" lon="5.40223">
        <ele>559.491272</ele>
        <time>2016-05-08T08:43:24Z</time>
      </trkpt>
      <trkpt lat="45.29586" lon="5.40228">
        <ele>559.285767</ele>
        <time>2016-05-08T08:43:29Z</time>
      </trkpt>
      <trkpt lat="45.29578" lon="5.40234">
        <ele>559.179565</ele>
        <time>2016-05-08T09:03:20Z</time>
      </trkpt>
      <trkpt lat="45.29576" lon="5.40228">
        <ele>559.751221</ele>
        <time>2016-05-08T09:04:48Z</time>
      </trkpt>
      <trkpt lat="45.29574" lon="5.40236">
        <ele>559.300842</ele>
        <time>2016-05-08T09:04:52Z</time>
      </trkpt>
      <trkpt lat="45.29577" lon="5.40242">
        <ele>558.732666</ele>
        <time>2016-05-08T09:04:56Z</time>
      </trkpt>
      <trkpt lat="45.29577" lon="5.40235">
        <ele>559.182373</ele>
        <time>2016-05-08T09:05:05Z</time>
      </trkpt>
      <trkpt lat="45.29573" lon="5.4023">
        <ele>559.759155</ele>
        <time>2016-05-08T09:05:12Z</time>
      </trkpt>
      <trkpt lat="45.29574" lon="5.40224">
        <ele>560.177856</ele>
        <time>2016-05-08T09:05:16Z</time>
      </trkpt>
      <trkpt lat="45.29575" lon="5.40217">
        <ele>560.57135</ele>
        <time>2016-05-08T09:05:20Z</time>
      </trkpt>
      <trkpt lat="45.29574" lon="5.4021">
        <ele>561.285706</ele>
        <time>2016-05-08T09:05:23Z</time>
      </trkpt>
      <trkpt lat="45.29569" lon="5.40198">
        <ele>562.612854</ele>
        <time>2016-05-08T09:05:27Z</time>
      </trkpt>
      <trkpt lat="45.29566" lon="5.40192">
        <ele>563.521057</ele>
        <time>2016-05-08T09:05:32Z</time>
      </trkpt>
      <trkpt lat="45.29563" lon="5.40187">
        <ele>564.342285</ele>
        <time>2016-05-08T09:05:36Z</time>
      </trkpt>
      <trkpt lat="45.29559" lon="5.40182">
        <ele>565.295776</ele>
        <time>2016-05-08T09:05:39Z</time>
      </trkpt>
      <trkpt lat="45.29554" lon="5.40181">
        <ele>566.02887</ele>
        <time>2016-05-08T09:05:44Z</time>
      </trkpt>
      <trkpt lat="45.29549" lon="5.4018">
        <ele>566.777893</ele>
        <time>2016-05-08T09:05:48Z</time>
      </trkpt>
      <trkpt lat="45.29547" lon="5.40174">
        <ele>567.801758</ele>
        <time>2016-05-08T09:05:52Z</time>
      </trkpt>
      <trkpt lat="45.29542" lon="5.40173">
        <ele>568.765381</ele>
        <time>2016-05-08T09:05:57Z</time>
      </trkpt>
      <trkpt lat="45.29539" lon="5.40179">
        <ele>568.375366</ele>
        <time>2016-05-08T09:06:02Z</time>
      </trkpt>
      <trkpt lat="45.29535" lon="5.40182">
        <ele>568.469116</ele>
        <time>2016-05-08T09:06:05Z</time>
      </trkpt>
      <trkpt lat="45.2953" lon="5.40183">
        <ele>568.930786</ele>
        <time>2016-05-08T09:06:10Z</time>
      </trkpt>
      <trkpt lat="45.29526" lon="5.40181">
        <ele>569.876038</ele>
        <time>2016-05-08T09:06:14Z</time>
      </trkpt>
      <trkpt lat="45.29526" lon="5.4019">
        <ele>568.375122</ele>
        <time>2016-05-08T09:06:17Z</time>
      </trkpt>
      <trkpt lat="45.29521" lon="5.40203">
        <ele>567.047791</ele>
        <time>2016-05-08T09:06:21Z</time>
      </trkpt>
      <trkpt lat="45.29514" lon="5.40207">
        <ele>567.090942</ele>
        <time>2016-05-08T09:06:24Z</time>
      </trkpt>
      <trkpt lat="45.2951" lon="5.40214">
        <ele>566.140869</ele>
        <time>2016-05-08T09:06:27Z</time>
      </trkpt>
      <trkpt lat="45.29505" lon="5.40225">
        <ele>564.466431</ele>
        <time>2016-05-08T09:06:31Z</time>
      </trkpt>
      <trkpt lat="45.29499" lon="5.40234">
        <ele>563.295288</ele>
        <time>2016-05-08T09:06:35Z</time>
      </trkpt>
      <trkpt lat="45.29496" lon="5.40242">
        <ele>561.862366</ele>
        <time>2016-05-08T09:06:38Z</time>
      </trkpt>
      <trkpt lat="45.29496" lon="5.40254">
        <ele>560.229736</ele>
        <time>2016-05-08T09:06:42Z</time>
      </trkpt>
      <trkpt lat="45.295" lon="5.40263">
        <ele>559.842285</ele>
        <time>2016-05-08T09:06:45Z</time>
      </trkpt>
      <trkpt lat="45.29505" lon="5.40273">
        <ele>559.638672</ele>
        <time>2016-05-08T09:06:48Z</time>
      </trkpt>
      <trkpt lat="45.29509" lon="5.4029">
        <ele>559.412598</ele>
        <time>2016-05-08T09:06:52Z</time>
      </trkpt>
      <trkpt lat="45.2951" lon="5.40304">
        <ele>559.272034</ele>
        <time>2016-05-08T09:06:55Z</time>
      </trkpt>
      <trkpt lat="45.2951" lon="5.40319">
        <ele>559.12854</ele>
        <time>2016-05-08T09:06:58Z</time>
      </trkpt>
      <trkpt lat="45.29508" lon="5.40333">
        <ele>559.00177</ele>
        <time>2016-05-08T09:07:01Z</time>
      </trkpt>
      <trkpt lat="45.29511" lon="5.40345">
        <ele>559.139282</ele>
        <time>2016-05-08T09:07:04Z</time>
      </trkpt>
      <trkpt lat="45.29511" lon="5.40358">
        <ele>559.29425</ele>
        <time>2016-05-08T09:07:08Z</time>
      </trkpt>
      <trkpt lat="45.2951" lon="5.40371">
        <ele>559.456909</ele>
        <time>2016-05-08T09:07:12Z</time>
      </trkpt>
      <trkpt lat="45.29513" lon="5.40384">
        <ele>559.60437</ele>
        <time>2016-05-08T09:07:16Z</time>
      </trkpt>
      <trkpt lat="45.29516" lon="5.40395">
        <ele>559.734863</ele>
        <time>2016-05-08T09:07:19Z</time>
      </trkpt>
      <trkpt lat="45.29518" lon="5.40409">
        <ele>559.90625</ele>
        <time>2016-05-08T09:07:23Z</time>
      </trkpt>
      <trkpt lat="45.29518" lon="5.40419">
        <ele>560.01001</ele>
        <time>2016-05-08T09:07:26Z</time>
      </trkpt>
      <trkpt lat="45.29519" lon="5.4043">
        <ele>560.071411</ele>
        <time>2016-05-08T09:07:30Z</time>
      </trkpt>
      <trkpt lat="45.29519" lon="5.4044">
        <ele>560.126465</ele>
        <time>2016-05-08T09:07:33Z</time>
      </trkpt>
      <trkpt lat="45.2952" lon="5.40455">
        <ele>560.222351</ele>
        <time>2016-05-08T09:07:37Z</time>
      </trkpt>
      <trkpt lat="45.29522" lon="5.40469">
        <ele>560.337341</ele>
        <time>2016-05-08T09:07:41Z</time>
      </trkpt>
      <trkpt lat="45.29524" lon="5.40484">
        <ele>560.464478</ele>
        <time>2016-05-08T09:07:45Z</time>
      </trkpt>
      <trkpt lat="45.29524" lon="5.40498">
        <ele>560.571045</ele>
        <time>2016-05-08T09:07:49Z</time>
      </trkpt>
      <trkpt lat="45.29526" lon="5.40508">
        <ele>560.699951</ele>
        <time>2016-05-08T09:07:52Z</time>
      </trkpt>
      <trkpt lat="45.29528" lon="5.4052">
        <ele>560.908325</ele>
        <time>2016-05-08T09:07:56Z</time>
      </trkpt>
      <trkpt lat="45.29528" lon="5.40535">
        <ele>561.095703</ele>
        <time>2016-05-08T09:08:00Z</time>
      </trkpt>
      <trkpt lat="45.29528" lon="5.40547">
        <ele>561.21875</ele>
        <time>2016-05-08T09:08:03Z</time>
      </trkpt>
      <trkpt lat="45.29526" lon="5.40562">
        <ele>561.342041</ele>
        <time>2016-05-08T09:08:07Z</time>
      </trkpt>
      <trkpt lat="45.29525" lon="5.40574">
        <ele>561.372131</ele>
        <time>2016-05-08T09:08:10Z</time>
      </trkpt>
      <trkpt lat="45.29523" lon="5.4059">
        <ele>561.412354</ele>
        <time>2016-05-08T09:08:14Z</time>
      </trkpt>
      <trkpt lat="45.2952" lon="5.40601">
        <ele>561.327026</ele>
        <time>2016-05-08T09:08:17Z</time>
      </trkpt>
      <trkpt lat="45.2951" lon="5.4061">
        <ele>560.656372</ele>
        <time>2016-05-08T09:08:21Z</time>
      </trkpt>
      <trkpt lat="45.295" lon="5.40614">
        <ele>560.026794</ele>
        <time>2016-05-08T09:08:25Z</time>
      </trkpt>
      <trkpt lat="45.29494" lon="5.40618">
        <ele>560.20929</ele>
        <time>2016-05-08T09:08:28Z</time>
      </trkpt>
      <trkpt lat="45.29486" lon="5.40619">
        <ele>560.514282</ele>
        <time>2016-05-08T09:08:32Z</time>
      </trkpt>
      <trkpt lat="45.29481" lon="5.4062">
        <ele>560.700684</ele>
        <time>2016-05-08T09:08:35Z</time>
      </trkpt>
      <trkpt lat="45.29474" lon="5.4062">
        <ele>560.930725</ele>
        <time>2016-05-08T09:08:39Z</time>
      </trkpt>
      <trkpt lat="45.29469" lon="5.40621">
        <ele>561.125122</ele>
        <time>2016-05-08T09:08:42Z</time>
      </trkpt>
      <trkpt lat="45.29463" lon="5.4062">
        <ele>561.326294</ele>
        <time>2016-05-08T09:08:46Z</time>
      </trkpt>
      <trkpt lat="45.29457" lon="5.40618">
        <ele>561.548706</ele>
        <time>2016-05-08T09:08:50Z</time>
      </trkpt>
      <trkpt lat="45.2945" lon="5.40617">
        <ele>561.814331</ele>
        <time>2016-05-08T09:08:54Z</time>
      </trkpt>
      <trkpt lat="45.29442" lon="5.40616">
        <ele>562.085815</ele>
        <time>2016-05-08T09:08:58Z</time>
      </trkpt>
      <trkpt lat="45.29435" lon="5.40615">
        <ele>562.335571</ele>
        <time>2016-05-08T09:09:02Z</time>
      </trkpt>
      <trkpt lat="45.29431" lon="5.40623">
        <ele>562.483521</ele>
        <time>2016-05-08T09:09:06Z</time>
      </trkpt>
      <trkpt lat="45.29431" lon="5.40633">
        <ele>562.470215</ele>
        <time>2016-05-08T09:09:09Z</time>
      </trkpt>
      <trkpt lat="45.29435" lon="5.40641">
        <ele>562.329224</ele>
        <time>2016-05-08T09:09:12Z</time>
      </trkpt>
      <trkpt lat="45.29439" lon="5.4065">
        <ele>562.183167</ele>
        <time>2016-05-08T09:09:16Z</time>
      </trkpt>
      <trkpt lat="45.29445" lon="5.40654">
        <ele>561.986877</ele>
        <time>2016-05-08T09:09:19Z</time>
      </trkpt>
      <trkpt lat="45.29451" lon="5.40659">
        <ele>561.773376</ele>
        <time>2016-05-08T09:09:23Z</time>
      </trkpt>
      <trkpt lat="45.29455" lon="5.40665">
        <ele>561.627563</ele>
        <time>2016-05-08T09:09:26Z</time>
      </trkpt>
      <trkpt lat="45.29458" lon="5.4067">
        <ele>561.615112</ele>
        <time>2016-05-08T09:09:29Z</time>
      </trkpt>
      <trkpt lat="45.29462" lon="5.40676">
        <ele>561.605103</ele>
        <time>2016-05-08T09:09:32Z</time>
      </trkpt>
      <trkpt lat="45.29463" lon="5.40685">
        <ele>561.797546</ele>
        <time>2016-05-08T09:09:36Z</time>
      </trkpt>
      <trkpt lat="45.29463" lon="5.40693">
        <ele>562.048218</ele>
        <time>2016-05-08T09:09:40Z</time>
      </trkpt>
      <trkpt lat="45.29462" lon="5.40699">
        <ele>562.265015</ele>
        <time>2016-05-08T09:09:43Z</time>
      </trkpt>
      <trkpt lat="45.29461" lon="5.4071">
        <ele>562.657104</ele>
        <time>2016-05-08T09:09:47Z</time>
      </trkpt>
      <trkpt lat="45.29459" lon="5.40716">
        <ele>562.959778</ele>
        <time>2016-05-08T09:09:50Z</time>
      </trkpt>
      <trkpt lat="45.29459" lon="5.40723">
        <ele>563.172119</ele>
        <time>2016-05-08T09:09:54Z</time>
      </trkpt>
      <trkpt lat="45.2946" lon="5.4073">
        <ele>563.284302</ele>
        <time>2016-05-08T09:09:58Z</time>
      </trkpt>
      <trkpt lat="45.29457" lon="5.40735">
        <ele>563.696899</ele>
        <time>2016-05-08T09:10:01Z</time>
      </trkpt>
      <trkpt lat="45.29454" lon="5.40742">
        <ele>564.113525</ele>
        <time>2016-05-08T09:10:04Z</time>
      </trkpt>
      <trkpt lat="45.29453" lon="5.4075">
        <ele>564.520447</ele>
        <time>2016-05-08T09:10:08Z</time>
      </trkpt>
      <trkpt lat="45.29457" lon="5.40756">
        <ele>564.521973</ele>
        <time>2016-05-08T09:10:11Z</time>
      </trkpt>
      <trkpt lat="45.29461" lon="5.40762">
        <ele>564.441406</ele>
        <time>2016-05-08T09:10:15Z</time>
      </trkpt>
      <trkpt lat="45.29462" lon="5.4077">
        <ele>564.698853</ele>
        <time>2016-05-08T09:10:19Z</time>
      </trkpt>
      <trkpt lat="45.29463" lon="5.40778">
        <ele>565.096802</ele>
        <time>2016-05-08T09:10:23Z</time>
      </trkpt>
      <trkpt lat="45.29462" lon="5.40786">
        <ele>565.599609</ele>
        <time>2016-05-08T09:10:27Z</time>
      </trkpt>
      <trkpt lat="45.29461" lon="5.40792">
        <ele>566.088745</ele>
        <time>2016-05-08T09:10:30Z</time>
      </trkpt>
      <trkpt lat="45.29463" lon="5.408">
        <ele>566.199585</ele>
        <time>2016-05-08T09:10:34Z</time>
      </trkpt>
      <trkpt lat="45.29461" lon="5.40806">
        <ele>566.91571</ele>
        <time>2016-05-08T09:10:37Z</time>
      </trkpt>
      <trkpt lat="45.29459" lon="5.40813">
        <ele>567.726562</ele>
        <time>2016-05-08T09:10:41Z</time>
      </trkpt>
      <trkpt lat="45.29456" lon="5.40819">
        <ele>568.543945</ele>
        <time>2016-05-08T09:10:46Z</time>
      </trkpt>
      <trkpt lat="45.29455" lon="5.40827">
        <ele>569.345703</ele>
        <time>2016-05-08T09:10:50Z</time>
      </trkpt>
      <trkpt lat="45.29456" lon="5.40835">
        <ele>569.629883</ele>
        <time>2016-05-08T09:10:54Z</time>
      </trkpt>
      <trkpt lat="45.29454" lon="5.40843">
        <ele>570.393372</ele>
        <time>2016-05-08T09:10:58Z</time>
      </trkpt>
      <trkpt lat="45.29454" lon="5.40852">
        <ele>570.851746</ele>
        <time>2016-05-08T09:11:02Z</time>
      </trkpt>
      <trkpt lat="45.29455" lon="5.40859">
        <ele>571.138855</ele>
        <time>2016-05-08T09:11:05Z</time>
      </trkpt>
      <trkpt lat="45.29457" lon="5.40868">
        <ele>571.073364</ele>
        <time>2016-05-08T09:11:09Z</time>
      </trkpt>
      <trkpt lat="45.29455" lon="5.40875">
        <ele>571.82019</ele>
        <time>2016-05-08T09:11:12Z</time>
      </trkpt>
      <trkpt lat="45.29452" lon="5.40882">
        <ele>572.84729</ele>
        <time>2016-05-08T09:11:15Z</time>
      </trkpt>
      <trkpt lat="45.29449" lon="5.40892">
        <ele>574.015503</ele>
        <time>2016-05-08T09:11:19Z</time>
      </trkpt>
      <trkpt lat="45.29447" lon="5.40898">
        <ele>575.020691</ele>
        <time>2016-05-08T09:11:22Z</time>
      </trkpt>
      <trkpt lat="45.29445" lon="5.40906">
        <ele>576.020081</ele>
        <time>2016-05-08T09:11:26Z</time>
      </trkpt>
      <trkpt lat="45.29443" lon="5.40915">
        <ele>577.013123</ele>
        <time>2016-05-08T09:11:30Z</time>
      </trkpt>
      <trkpt lat="45.29442" lon="5.40925">
        <ele>577.771912</ele>
        <time>2016-05-08T09:11:34Z</time>
      </trkpt>
      <trkpt lat="45.29442" lon="5.40932">
        <ele>578.124756</ele>
        <time>2016-05-08T09:11:38Z</time>
      </trkpt>
      <trkpt lat="45.29441" lon="5.40942">
        <ele>578.850037</ele>
        <time>2016-05-08T09:11:42Z</time>
      </trkpt>
      <trkpt lat="45.29441" lon="5.40949">
        <ele>579.095337</ele>
        <time>2016-05-08T09:11:46Z</time>
      </trkpt>
      <trkpt lat="45.2944" lon="5.40959">
        <ele>579.867737</ele>
        <time>2016-05-08T09:11:50Z</time>
      </trkpt>
      <trkpt lat="45.29441" lon="5.40966">
        <ele>579.865723</ele>
        <time>2016-05-08T09:11:54Z</time>
      </trkpt>
      <trkpt lat="45.29443" lon="5.40974">
        <ele>579.67511</ele>
        <time>2016-05-08T09:11:58Z</time>
      </trkpt>
      <trkpt lat="45.29446" lon="5.40982">
        <ele>579.215271</ele>
        <time>2016-05-08T09:12:02Z</time>
      </trkpt>
      <trkpt lat="45.29447" lon="5.40989">
        <ele>579.08136</ele>
        <time>2016-05-08T09:12:05Z</time>
      </trkpt>
      <trkpt lat="45.29448" lon="5.40998">
        <ele>579.220337</ele>
        <time>2016-05-08T09:12:09Z</time>
      </trkpt>
      <trkpt lat="45.29449" lon="5.41005">
        <ele>578.979675</ele>
        <time>2016-05-08T09:12:12Z</time>
      </trkpt>
      <trkpt lat="45.2945" lon="5.41014">
        <ele>578.500244</ele>
        <time>2016-05-08T09:12:16Z</time>
      </trkpt>
      <trkpt lat="45.29449" lon="5.41022">
        <ele>579.07843</ele>
        <time>2016-05-08T09:12:20Z</time>
      </trkpt>
      <trkpt lat="45.29447" lon="5.4103">
        <ele>579.560547</ele>
        <time>2016-05-08T09:12:24Z</time>
      </trkpt>
      <trkpt lat="45.29448" lon="5.41037">
        <ele>579.424927</ele>
        <time>2016-05-08T09:12:28Z</time>
      </trkpt>
      <trkpt lat="45.29447" lon="5.41045">
        <ele>579.466187</ele>
        <time>2016-05-08T09:12:33Z</time>
      </trkpt>
      <trkpt lat="45.29447" lon="5.41052">
        <ele>579.582886</ele>
        <time>2016-05-08T09:12:36Z</time>
      </trkpt>
      <trkpt lat="45.29445" lon="5.41058">
        <ele>580.133789</ele>
        <time>2016-05-08T09:12:40Z</time>
      </trkpt>
      <trkpt lat="45.2944" lon="5.41063">
        <ele>581.481079</ele>
        <time>2016-05-08T09:12:43Z</time>
      </trkpt>
      <trkpt lat="45.29435" lon="5.41067">
        <ele>583.162659</ele>
        <time>2016-05-08T09:12:46Z</time>
      </trkpt>
      <trkpt lat="45.29429" lon="5.41073">
        <ele>584.571411</ele>
        <time>2016-05-08T09:12:50Z</time>
      </trkpt>
      <trkpt lat="45.29426" lon="5.41078">
        <ele>585.547485</ele>
        <time>2016-05-08T09:12:55Z</time>
      </trkpt>
      <trkpt lat="45.29423" lon="5.41084">
        <ele>586.345093</ele>
        <time>2016-05-08T09:13:00Z</time>
      </trkpt>
      <trkpt lat="45.2942" lon="5.4109">
        <ele>587.321289</ele>
        <time>2016-05-08T09:13:06Z</time>
      </trkpt>
      <trkpt lat="45.29414" lon="5.41092">
        <ele>589.032593</ele>
        <time>2016-05-08T09:13:10Z</time>
      </trkpt>
      <trkpt lat="45.29404" lon="5.41096">
        <ele>591.76825</ele>
        <time>2016-05-08T09:13:13Z</time>
      </trkpt>
      <trkpt lat="45.29398" lon="5.41102">
        <ele>593.733826</ele>
        <time>2016-05-08T09:13:17Z</time>
      </trkpt>
      <trkpt lat="45.29393" lon="5.41108">
        <ele>595.220032</ele>
        <time>2016-05-08T09:13:21Z</time>
      </trkpt>
      <trkpt lat="45.29388" lon="5.41113">
        <ele>596.734741</ele>
        <time>2016-05-08T09:13:25Z</time>
      </trkpt>
      <trkpt lat="45.29383" lon="5.41116">
        <ele>597.889648</ele>
        <time>2016-05-08T09:13:28Z</time>
      </trkpt>
      <trkpt lat="45.2938" lon="5.41122">
        <ele>598.914307</ele>
        <time>2016-05-08T09:13:31Z</time>
      </trkpt>
      <trkpt lat="45.29376" lon="5.41133">
        <ele>600.050659</ele>
        <time>2016-05-08T09:13:35Z</time>
      </trkpt>
      <trkpt lat="45.29378" lon="5.41141">
        <ele>599.758301</ele>
        <time>2016-05-08T09:13:38Z</time>
      </trkpt>
      <trkpt lat="45.29383" lon="5.41147">
        <ele>598.772522</ele>
        <time>2016-05-08T09:13:42Z</time>
      </trkpt>
      <trkpt lat="45.29388" lon="5.41148">
        <ele>597.497559</ele>
        <time>2016-05-08T09:13:45Z</time>
      </trkpt>
      <trkpt lat="45.29396" lon="5.41146">
        <ele>595.483337</ele>
        <time>2016-05-08T09:13:49Z</time>
      </trkpt>
      <trkpt lat="45.29402" lon="5.41148">
        <ele>594.048462</ele>
        <time>2016-05-08T09:13:53Z</time>
      </trkpt>
      <trkpt lat="45.29407" lon="5.4115">
        <ele>592.923706</ele>
        <time>2016-05-08T09:13:58Z</time>
      </trkpt>
      <trkpt lat="45.29413" lon="5.41153">
        <ele>591.532593</ele>
        <time>2016-05-08T09:14:02Z</time>
      </trkpt>
      <trkpt lat="45.29419" lon="5.41157">
        <ele>590.085144</ele>
        <time>2016-05-08T09:14:06Z</time>
      </trkpt>
      <trkpt lat="45.29424" lon="5.41162">
        <ele>589.092468</ele>
        <time>2016-05-08T09:14:10Z</time>
      </trkpt>
      <trkpt lat="45.29425" lon="5.4117">
        <ele>589.503296</ele>
        <time>2016-05-08T09:14:13Z</time>
      </trkpt>
      <trkpt lat="45.29427" lon="5.41179">
        <ele>590.215088</ele>
        <time>2016-05-08T09:14:17Z</time>
      </trkpt>
      <trkpt lat="45.29427" lon="5.41188">
        <ele>591.448303</ele>
        <time>2016-05-08T09:14:20Z</time>
      </trkpt>
      <trkpt lat="45.29427" lon="5.41194">
        <ele>592.40979</ele>
        <time>2016-05-08T09:14:23Z</time>
      </trkpt>
      <trkpt lat="45.29429" lon="5.41202">
        <ele>593.062988</ele>
        <time>2016-05-08T09:14:27Z</time>
      </trkpt>
      <trkpt lat="45.29429" lon="5.4121">
        <ele>594.297241</ele>
        <time>2016-05-08T09:14:31Z</time>
      </trkpt>
      <trkpt lat="45.29427" lon="5.4122">
        <ele>596.266602</ele>
        <time>2016-05-08T09:14:35Z</time>
      </trkpt>
      <trkpt lat="45.29426" lon="5.41227">
        <ele>597.621399</ele>
        <time>2016-05-08T09:14:38Z</time>
      </trkpt>
      <trkpt lat="45.29425" lon="5.41235">
        <ele>599.084167</ele>
        <time>2016-05-08T09:14:42Z</time>
      </trkpt>
      <trkpt lat="45.29423" lon="5.41244">
        <ele>600.755371</ele>
        <time>2016-05-08T09:14:46Z</time>
      </trkpt>
      <trkpt lat="45.29422" lon="5.41254">
        <ele>602.304871</ele>
        <time>2016-05-08T09:14:50Z</time>
      </trkpt>
      <trkpt lat="45.2942" lon="5.41265">
        <ele>603.481812</ele>
        <time>2016-05-08T09:14:54Z</time>
      </trkpt>
      <trkpt lat="45.29419" lon="5.41274">
        <ele>604.488708</ele>
        <time>2016-05-08T09:14:57Z</time>
      </trkpt>
      <trkpt lat="45.29417" lon="5.41283">
        <ele>605.668213</ele>
        <time>2016-05-08T09:15:01Z</time>
      </trkpt>
      <trkpt lat="45.29417" lon="5.4129">
        <ele>606.242371</ele>
        <time>2016-05-08T09:15:04Z</time>
      </trkpt>
      <trkpt lat="45.29419" lon="5.41299">
        <ele>606.679932</ele>
        <time>2016-05-08T09:15:08Z</time>
      </trkpt>
      <trkpt lat="45.29419" lon="5.41307">
        <ele>607.181824</ele>
        <time>2016-05-08T09:15:11Z</time>
      </trkpt>
      <trkpt lat="45.29421" lon="5.41318">
        <ele>607.741211</ele>
        <time>2016-05-08T09:15:15Z</time>
      </trkpt>
      <trkpt lat="45.29423" lon="5.41327">
        <ele>608.19812</ele>
        <time>2016-05-08T09:15:18Z</time>
      </trkpt>
      <trkpt lat="45.29425" lon="5.41339">
        <ele>608.435303</ele>
        <time>2016-05-08T09:15:22Z</time>
      </trkpt>
      <trkpt lat="45.29426" lon="5.41348">
        <ele>608.267456</ele>
        <time>2016-05-08T09:15:25Z</time>
      </trkpt>
      <trkpt lat="45.29428" lon="5.41358">
        <ele>608.085999</ele>
        <time>2016-05-08T09:15:29Z</time>
      </trkpt>
      <trkpt lat="45.29431" lon="5.41371">
        <ele>607.691284</ele>
        <time>2016-05-08T09:15:33Z</time>
      </trkpt>
      <trkpt lat="45.29431" lon="5.41382">
        <ele>607.708923</ele>
        <time>2016-05-08T09:15:36Z</time>
      </trkpt>
      <trkpt lat="45.29426" lon="5.41391">
        <ele>608.902161</ele>
        <time>2016-05-08T09:15:40Z</time>
      </trkpt>
      <trkpt lat="45.29419" lon="5.41391">
        <ele>610.240723</ele>
        <time>2016-05-08T09:15:43Z</time>
      </trkpt>
      <trkpt lat="45.29413" lon="5.4139">
        <ele>611.637451</ele>
        <time>2016-05-08T09:15:47Z</time>
      </trkpt>
      <trkpt lat="45.29408" lon="5.41391">
        <ele>613.009949</ele>
        <time>2016-05-08T09:15:50Z</time>
      </trkpt>
      <trkpt lat="45.29403" lon="5.41391">
        <ele>614.518982</ele>
        <time>2016-05-08T09:15:54Z</time>
      </trkpt>
      <trkpt lat="45.29397" lon="5.41391">
        <ele>616.210876</ele>
        <time>2016-05-08T09:15:57Z</time>
      </trkpt>
      <trkpt lat="45.29388" lon="5.41391">
        <ele>618.469238</ele>
        <time>2016-05-08T09:16:01Z</time>
      </trkpt>
      <trkpt lat="45.29382" lon="5.4139">
        <ele>620.134033</ele>
        <time>2016-05-08T09:16:04Z</time>
      </trkpt>
      <trkpt lat="45.29375" lon="5.4139">
        <ele>622.195068</ele>
        <time>2016-05-08T09:16:08Z</time>
      </trkpt>
      <trkpt lat="45.29368" lon="5.41392">
        <ele>623.958801</ele>
        <time>2016-05-08T09:16:11Z</time>
      </trkpt>
      <trkpt lat="45.29363" lon="5.41392">
        <ele>625.581177</ele>
        <time>2016-05-08T09:16:15Z</time>
      </trkpt>
      <trkpt lat="45.29358" lon="5.41392">
        <ele>626.964844</ele>
        <time>2016-05-08T09:16:18Z</time>
      </trkpt>
      <trkpt lat="45.2935" lon="5.41394">
        <ele>628.923157</ele>
        <time>2016-05-08T09:16:22Z</time>
      </trkpt>
      <trkpt lat="45.29344" lon="5.41398">
        <ele>630.647156</ele>
        <time>2016-05-08T09:16:26Z</time>
      </trkpt>
      <trkpt lat="45.29339" lon="5.41398">
        <ele>631.859009</ele>
        <time>2016-05-08T09:16:33Z</time>
      </trkpt>
      <trkpt lat="45.29334" lon="5.41398">
        <ele>633.190125</ele>
        <time>2016-05-08T09:16:37Z</time>
      </trkpt>
      <trkpt lat="45.29324" lon="5.41398">
        <ele>635.246643</ele>
        <time>2016-05-08T09:16:41Z</time>
      </trkpt>
      <trkpt lat="45.2932" lon="5.41401">
        <ele>635.997681</ele>
        <time>2016-05-08T09:16:44Z</time>
      </trkpt>
      <trkpt lat="45.29312" lon="5.41401">
        <ele>637.487488</ele>
        <time>2016-05-08T09:16:48Z</time>
      </trkpt>
      <trkpt lat="45.29306" lon="5.41404">
        <ele>638.659607</ele>
        <time>2016-05-08T09:16:52Z</time>
      </trkpt>
      <trkpt lat="45.29301" lon="5.41405">
        <ele>639.623901</ele>
        <time>2016-05-08T09:16:55Z</time>
      </trkpt>
      <trkpt lat="45.29295" lon="5.41407">
        <ele>640.670654</ele>
        <time>2016-05-08T09:16:58Z</time>
      </trkpt>
      <trkpt lat="45.29289" lon="5.4141">
        <ele>641.767334</ele>
        <time>2016-05-08T09:17:02Z</time>
      </trkpt>
      <trkpt lat="45.29284" lon="5.41414">
        <ele>642.510864</ele>
        <time>2016-05-08T09:17:06Z</time>
      </trkpt>
      <trkpt lat="45.29278" lon="5.41417">
        <ele>643.545898</ele>
        <time>2016-05-08T09:17:10Z</time>
      </trkpt>
      <trkpt lat="45.29274" lon="5.41419">
        <ele>644.09668</ele>
        <time>2016-05-08T09:17:16Z</time>
      </trkpt>
      <trkpt lat="45.29269" lon="5.41424">
        <ele>644.453491</ele>
        <time>2016-05-08T09:17:21Z</time>
      </trkpt>
      <trkpt lat="45.29263" lon="5.4143">
        <ele>644.741089</ele>
        <time>2016-05-08T09:17:25Z</time>
      </trkpt>
      <trkpt lat="45.29259" lon="5.41434">
        <ele>644.999084</ele>
        <time>2016-05-08T09:17:28Z</time>
      </trkpt>
      <trkpt lat="45.29254" lon="5.41439">
        <ele>645.301636</ele>
        <time>2016-05-08T09:17:32Z</time>
      </trkpt>
      <trkpt lat="45.2925" lon="5.41444">
        <ele>645.484985</ele>
        <time>2016-05-08T09:17:35Z</time>
      </trkpt>
      <trkpt lat="45.29243" lon="5.4145">
        <ele>646.179199</ele>
        <time>2016-05-08T09:17:39Z</time>
      </trkpt>
      <trkpt lat="45.29239" lon="5.41456">
        <ele>646.191284</ele>
        <time>2016-05-08T09:17:43Z</time>
      </trkpt>
      <trkpt lat="45.29234" lon="5.4146">
        <ele>646.646362</ele>
        <time>2016-05-08T09:17:47Z</time>
      </trkpt>
      <trkpt lat="45.2923" lon="5.41464">
        <ele>647.105591</ele>
        <time>2016-05-08T09:17:51Z</time>
      </trkpt>
      <trkpt lat="45.29225" lon="5.41467">
        <ele>647.713745</ele>
        <time>2016-05-08T09:17:55Z</time>
      </trkpt>
      <trkpt lat="45.2922" lon="5.4147">
        <ele>648.321167</ele>
        <time>2016-05-08T09:17:59Z</time>
      </trkpt>
      <trkpt lat="45.29215" lon="5.41475">
        <ele>648.850952</ele>
        <time>2016-05-08T09:18:03Z</time>
      </trkpt>
      <trkpt lat="45.29211" lon="5.41477">
        <ele>649.422607</ele>
        <time>2016-05-08T09:18:06Z</time>
      </trkpt>
      <trkpt lat="45.29205" lon="5.41479">
        <ele>650.386414</ele>
        <time>2016-05-08T09:18:10Z</time>
      </trkpt>
      <trkpt lat="45.292" lon="5.41482">
        <ele>651.129272</ele>
        <time>2016-05-08T09:18:15Z</time>
      </trkpt>
      <trkpt lat="45.29195" lon="5.41484">
        <ele>652.100647</ele>
        <time>2016-05-08T09:18:19Z</time>
      </trkpt>
      <trkpt lat="45.2919" lon="5.41484">
        <ele>653.119873</ele>
        <time>2016-05-08T09:18:23Z</time>
      </trkpt>
      <trkpt lat="45.29184" lon="5.41484">
        <ele>654.343506</ele>
        <time>2016-05-08T09:18:27Z</time>
      </trkpt>
      <trkpt lat="45.29179" lon="5.41484">
        <ele>655.508179</ele>
        <time>2016-05-08T09:18:31Z</time>
      </trkpt>
      <trkpt lat="45.29174" lon="5.41484">
        <ele>656.434143</ele>
        <time>2016-05-08T09:18:34Z</time>
      </trkpt>
      <trkpt lat="45.29169" lon="5.41486">
        <ele>657.468933</ele>
        <time>2016-05-08T09:18:37Z</time>
      </trkpt>
      <trkpt lat="45.29164" lon="5.41488">
        <ele>658.367493</ele>
        <time>2016-05-08T09:18:40Z</time>
      </trkpt>
      <trkpt lat="45.29157" lon="5.41489">
        <ele>659.792664</ele>
        <time>2016-05-08T09:18:44Z</time>
      </trkpt>
      <trkpt lat="45.29154" lon="5.41485">
        <ele>661.251587</ele>
        <time>2016-05-08T09:18:47Z</time>
      </trkpt>
      <trkpt lat="45.29153" lon="5.41478">
        <ele>662.231018</ele>
        <time>2016-05-08T09:18:50Z</time>
      </trkpt>
      <trkpt lat="45.29157" lon="5.41473">
        <ele>661.848145</ele>
        <time>2016-05-08T09:18:55Z</time>
      </trkpt>
      <trkpt lat="45.29161" lon="5.41468">
        <ele>661.656372</ele>
        <time>2016-05-08T09:19:00Z</time>
      </trkpt>
      <trkpt lat="45.29159" lon="5.4146">
        <ele>663.129028</ele>
        <time>2016-05-08T09:19:04Z</time>
      </trkpt>
      <trkpt lat="45.29164" lon="5.41454">
        <ele>662.669922</ele>
        <time>2016-05-08T09:19:10Z</time>
      </trkpt>
      <trkpt lat="45.29168" lon="5.41451">
        <ele>662.198059</ele>
        <time>2016-05-08T09:19:13Z</time>
      </trkpt>
      <trkpt lat="45.29173" lon="5.41445">
        <ele>661.987</ele>
        <time>2016-05-08T09:19:16Z</time>
      </trkpt>
      <trkpt lat="45.29179" lon="5.41438">
        <ele>661.606628</ele>
        <time>2016-05-08T09:19:20Z</time>
      </trkpt>
      <trkpt lat="45.29183" lon="5.41433">
        <ele>661.297485</ele>
        <time>2016-05-08T09:19:24Z</time>
      </trkpt>
      <trkpt lat="45.29187" lon="5.41427">
        <ele>661.307678</ele>
        <time>2016-05-08T09:19:28Z</time>
      </trkpt>
      <trkpt lat="45.29188" lon="5.41419">
        <ele>662.185181</ele>
        <time>2016-05-08T09:19:32Z</time>
      </trkpt>
      <trkpt lat="45.29188" lon="5.41412">
        <ele>662.525452</ele>
        <time>2016-05-08T09:19:36Z</time>
      </trkpt>
      <trkpt lat="45.29191" lon="5.41406">
        <ele>662.32135</ele>
        <time>2016-05-08T09:19:40Z</time>
      </trkpt>
      <trkpt lat="45.29193" lon="5.41399">
        <ele>662.219604</ele>
        <time>2016-05-08T09:19:44Z</time>
      </trkpt>
      <trkpt lat="45.29195" lon="5.41392">
        <ele>662.116821</ele>
        <time>2016-05-08T09:19:47Z</time>
      </trkpt>
      <trkpt lat="45.29197" lon="5.41385">
        <ele>662.06366</ele>
        <time>2016-05-08T09:19:51Z</time>
      </trkpt>
      <trkpt lat="45.29199" lon="5.41377">
        <ele>662.007446</ele>
        <time>2016-05-08T09:19:56Z</time>
      </trkpt>
      <trkpt lat="45.29201" lon="5.41368">
        <ele>661.946289</ele>
        <time>2016-05-08T09:20:00Z</time>
      </trkpt>
      <trkpt lat="45.29202" lon="5.41359">
        <ele>662.063904</ele>
        <time>2016-05-08T09:20:04Z</time>
      </trkpt>
      <trkpt lat="45.29203" lon="5.41351">
        <ele>662.330322</ele>
        <time>2016-05-08T09:20:08Z</time>
      </trkpt>
      <trkpt lat="45.29201" lon="5.41345">
        <ele>663.140198</ele>
        <time>2016-05-08T09:20:12Z</time>
      </trkpt>
      <trkpt lat="45.292" lon="5.41339">
        <ele>663.667358</ele>
        <time>2016-05-08T09:20:19Z</time>
      </trkpt>
      <trkpt lat="45.29195" lon="5.41332">
        <ele>664.925659</ele>
        <time>2016-05-08T09:20:23Z</time>
      </trkpt>
      <trkpt lat="45.29192" lon="5.41326">
        <ele>665.101868</ele>
        <time>2016-05-08T09:20:27Z</time>
      </trkpt>
      <trkpt lat="45.29188" lon="5.41321">
        <ele>665.756958</ele>
        <time>2016-05-08T09:20:31Z</time>
      </trkpt>
      <trkpt lat="45.29181" lon="5.41315">
        <ele>666.997864</ele>
        <time>2016-05-08T09:20:35Z</time>
      </trkpt>
      <trkpt lat="45.29176" lon="5.41313">
        <ele>667.844421</ele>
        <time>2016-05-08T09:20:38Z</time>
      </trkpt>
      <trkpt lat="45.29171" lon="5.41311">
        <ele>668.942932</ele>
        <time>2016-05-08T09:20:42Z</time>
      </trkpt>
      <trkpt lat="45.29165" lon="5.4131">
        <ele>670.187073</ele>
        <time>2016-05-08T09:20:46Z</time>
      </trkpt>
      <trkpt lat="45.2916" lon="5.41312">
        <ele>671.370972</ele>
        <time>2016-05-08T09:20:50Z</time>
      </trkpt>
      <trkpt lat="45.29158" lon="5.41319">
        <ele>672.05011</ele>
        <time>2016-05-08T09:20:54Z</time>
      </trkpt>
      <trkpt lat="45.29157" lon="5.41325">
        <ele>672.664001</ele>
        <time>2016-05-08T09:20:58Z</time>
      </trkpt>
      <trkpt lat="45.29155" lon="5.41333">
        <ele>673.31189</ele>
        <time>2016-05-08T09:21:03Z</time>
      </trkpt>
      <trkpt lat="45.29153" lon="5.41339">
        <ele>673.491089</ele>
        <time>2016-05-08T09:21:07Z</time>
      </trkpt>
      <trkpt lat="45.29149" lon="5.41345">
        <ele>674.02478</ele>
        <time>2016-05-08T09:21:11Z</time>
      </trkpt>
      <trkpt lat="45.29145" lon="5.4135">
        <ele>674.783203</ele>
        <time>2016-05-08T09:21:15Z</time>
      </trkpt>
      <trkpt lat="45.2914" lon="5.41351">
        <ele>675.758423</ele>
        <time>2016-05-08T09:21:19Z</time>
      </trkpt>
      <trkpt lat="45.29135" lon="5.41348">
        <ele>676.98822</ele>
        <time>2016-05-08T09:21:23Z</time>
      </trkpt>
      <trkpt lat="45.2913" lon="5.41344">
        <ele>678.053284</ele>
        <time>2016-05-08T09:21:26Z</time>
      </trkpt>
      <trkpt lat="45.29126" lon="5.4134">
        <ele>679.082092</ele>
        <time>2016-05-08T09:21:29Z</time>
      </trkpt>
      <trkpt lat="45.2912" lon="5.41334">
        <ele>680.457153</ele>
        <time>2016-05-08T09:21:33Z</time>
      </trkpt>
      <trkpt lat="45.29114" lon="5.41331">
        <ele>681.534607</ele>
        <time>2016-05-08T09:21:37Z</time>
      </trkpt>
      <trkpt lat="45.29108" lon="5.41328">
        <ele>682.600952</ele>
        <time>2016-05-08T09:21:41Z</time>
      </trkpt>
      <trkpt lat="45.29103" lon="5.4133">
        <ele>683.828979</ele>
        <time>2016-05-08T09:21:45Z</time>
      </trkpt>
      <trkpt lat="45.29098" lon="5.41333">
        <ele>685.074829</ele>
        <time>2016-05-08T09:21:49Z</time>
      </trkpt>
      <trkpt lat="45.29091" lon="5.41335">
        <ele>686.380188</ele>
        <time>2016-05-08T09:21:53Z</time>
      </trkpt>
      <trkpt lat="45.29087" lon="5.41336">
        <ele>687.284851</ele>
        <time>2016-05-08T09:21:56Z</time>
      </trkpt>
      <trkpt lat="45.29081" lon="5.41336">
        <ele>688.227661</ele>
        <time>2016-05-08T09:22:00Z</time>
      </trkpt>
      <trkpt lat="45.29076" lon="5.41337">
        <ele>688.974365</ele>
        <time>2016-05-08T09:22:04Z</time>
      </trkpt>
      <trkpt lat="45.29071" lon="5.41338">
        <ele>689.68866</ele>
        <time>2016-05-08T09:22:08Z</time>
      </trkpt>
      <trkpt lat="45.29066" lon="5.41338">
        <ele>690.367126</ele>
        <time>2016-05-08T09:22:12Z</time>
      </trkpt>
      <trkpt lat="45.29061" lon="5.4134">
        <ele>691.130981</ele>
        <time>2016-05-08T09:22:17Z</time>
      </trkpt>
      <trkpt lat="45.29055" lon="5.41342">
        <ele>691.921265</ele>
        <time>2016-05-08T09:22:21Z</time>
      </trkpt>
      <trkpt lat="45.2905" lon="5.41342">
        <ele>692.634888</ele>
        <time>2016-05-08T09:22:25Z</time>
      </trkpt>
      <trkpt lat="45.29045" lon="5.41342">
        <ele>693.402161</ele>
        <time>2016-05-08T09:22:30Z</time>
      </trkpt>
      <trkpt lat="45.2904" lon="5.41343">
        <ele>694.089966</ele>
        <time>2016-05-08T09:22:34Z</time>
      </trkpt>
      <trkpt lat="45.29035" lon="5.41343">
        <ele>694.864197</ele>
        <time>2016-05-08T09:22:39Z</time>
      </trkpt>
      <trkpt lat="45.2903" lon="5.41343">
        <ele>695.570923</ele>
        <time>2016-05-08T09:22:44Z</time>
      </trkpt>
      <trkpt lat="45.29025" lon="5.41345">
        <ele>696.294006</ele>
        <time>2016-05-08T09:22:49Z</time>
      </trkpt>
      <trkpt lat="45.2902" lon="5.41346">
        <ele>696.999756</ele>
        <time>2016-05-08T09:22:54Z</time>
      </trkpt>
      <trkpt lat="45.29015" lon="5.41347">
        <ele>697.71875</ele>
        <time>2016-05-08T09:22:59Z</time>
      </trkpt>
      <trkpt lat="45.29011" lon="5.41349">
        <ele>698.365784</ele>
        <time>2016-05-08T09:23:04Z</time>
      </trkpt>
      <trkpt lat="45.29006" lon="5.4135">
        <ele>699.11438</ele>
        <time>2016-05-08T09:23:08Z</time>
      </trkpt>
      <trkpt lat="45.29001" lon="5.41354">
        <ele>699.899414</ele>
        <time>2016-05-08T09:23:12Z</time>
      </trkpt>
      <trkpt lat="45.28994" lon="5.41358">
        <ele>700.171753</ele>
        <time>2016-05-08T09:23:16Z</time>
      </trkpt>
      <trkpt lat="45.28989" lon="5.41361">
        <ele>700.304199</ele>
        <time>2016-05-08T09:23:20Z</time>
      </trkpt>
      <trkpt lat="45.28984" lon="5.41366">
        <ele>700.502808</ele>
        <time>2016-05-08T09:23:24Z</time>
      </trkpt>
      <trkpt lat="45.28976" lon="5.41372">
        <ele>700.836975</ele>
        <time>2016-05-08T09:23:28Z</time>
      </trkpt>
      <trkpt lat="45.28969" lon="5.41379">
        <ele>701.190369</ele>
        <time>2016-05-08T09:23:32Z</time>
      </trkpt>
      <trkpt lat="45.28964" lon="5.41382">
        <ele>701.456116</ele>
        <time>2016-05-08T09:23:35Z</time>
      </trkpt>
      <trkpt lat="45.28958" lon="5.41386">
        <ele>701.770264</ele>
        <time>2016-05-08T09:23:38Z</time>
      </trkpt>
      <trkpt lat="45.28951" lon="5.41392">
        <ele>702.274414</ele>
        <time>2016-05-08T09:23:42Z</time>
      </trkpt>
      <trkpt lat="45.28942" lon="5.41398">
        <ele>702.849609</ele>
        <time>2016-05-08T09:23:46Z</time>
      </trkpt>
      <trkpt lat="45.28936" lon="5.41402">
        <ele>703.298706</ele>
        <time>2016-05-08T09:23:49Z</time>
      </trkpt>
      <trkpt lat="45.28931" lon="5.41405">
        <ele>703.670349</ele>
        <time>2016-05-08T09:23:52Z</time>
      </trkpt>
      <trkpt lat="45.28925" lon="5.4141">
        <ele>704.197205</ele>
        <time>2016-05-08T09:23:56Z</time>
      </trkpt>
      <trkpt lat="45.28921" lon="5.41413">
        <ele>704.571411</ele>
        <time>2016-05-08T09:23:59Z</time>
      </trkpt>
      <trkpt lat="45.28915" lon="5.41416">
        <ele>705.064758</ele>
        <time>2016-05-08T09:24:02Z</time>
      </trkpt>
      <trkpt lat="45.28909" lon="5.41423">
        <ele>705.717041</ele>
        <time>2016-05-08T09:24:06Z</time>
      </trkpt>
      <trkpt lat="45.28904" lon="5.41428">
        <ele>706.290466</ele>
        <time>2016-05-08T09:24:09Z</time>
      </trkpt>
      <trkpt lat="45.289" lon="5.41433">
        <ele>706.814514</ele>
        <time>2016-05-08T09:24:12Z</time>
      </trkpt>
      <trkpt lat="45.28895" lon="5.41436">
        <ele>707.343506</ele>
        <time>2016-05-08T09:24:15Z</time>
      </trkpt>
      <trkpt lat="45.28889" lon="5.41441">
        <ele>708.100586</ele>
        <time>2016-05-08T09:24:19Z</time>
      </trkpt>
      <trkpt lat="45.28882" lon="5.41446">
        <ele>708.981201</ele>
        <time>2016-05-08T09:24:23Z</time>
      </trkpt>
      <trkpt lat="45.28877" lon="5.41452">
        <ele>709.831726</ele>
        <time>2016-05-08T09:24:26Z</time>
      </trkpt>
      <trkpt lat="45.28873" lon="5.41458">
        <ele>710.638184</ele>
        <time>2016-05-08T09:24:30Z</time>
      </trkpt>
      <trkpt lat="45.28869" lon="5.41465">
        <ele>711.578125</ele>
        <time>2016-05-08T09:24:33Z</time>
      </trkpt>
      <trkpt lat="45.28865" lon="5.41474">
        <ele>712.766724</ele>
        <time>2016-05-08T09:24:37Z</time>
      </trkpt>
      <trkpt lat="45.28861" lon="5.4148">
        <ele>713.729187</ele>
        <time>2016-05-08T09:24:40Z</time>
      </trkpt>
      <trkpt lat="45.28855" lon="5.41486">
        <ele>714.970337</ele>
        <time>2016-05-08T09:24:44Z</time>
      </trkpt>
      <trkpt lat="45.2885" lon="5.41488">
        <ele>715.785461</ele>
        <time>2016-05-08T09:24:48Z</time>
      </trkpt>
      <trkpt lat="45.28844" lon="5.41493">
        <ele>716.942139</ele>
        <time>2016-05-08T09:24:52Z</time>
      </trkpt>
      <trkpt lat="45.28839" lon="5.41497">
        <ele>717.999451</ele>
        <time>2016-05-08T09:24:57Z</time>
      </trkpt>
      <trkpt lat="45.28833" lon="5.415">
        <ele>718.959351</ele>
        <time>2016-05-08T09:25:00Z</time>
      </trkpt>
      <trkpt lat="45.2883" lon="5.41505">
        <ele>718.931458</ele>
        <time>2016-05-08T09:25:04Z</time>
      </trkpt>
      <trkpt lat="45.28825" lon="5.41509">
        <ele>718.866394</ele>
        <time>2016-05-08T09:25:08Z</time>
      </trkpt>
      <trkpt lat="45.2882" lon="5.41512">
        <ele>718.791931</ele>
        <time>2016-05-08T09:25:11Z</time>
      </trkpt>
      <trkpt lat="45.28813" lon="5.41516">
        <ele>718.681396</ele>
        <time>2016-05-08T09:25:15Z</time>
      </trkpt>
      <trkpt lat="45.28807" lon="5.41517">
        <ele>718.596008</ele>
        <time>2016-05-08T09:25:18Z</time>
      </trkpt>
      <trkpt lat="45.28801" lon="5.4152">
        <ele>718.539673</ele>
        <time>2016-05-08T09:25:21Z</time>
      </trkpt>
      <trkpt lat="45.28796" lon="5.41523">
        <ele>718.548096</ele>
        <time>2016-05-08T09:25:24Z</time>
      </trkpt>
      <trkpt lat="45.28789" lon="5.41528">
        <ele>718.630249</ele>
        <time>2016-05-08T09:25:28Z</time>
      </trkpt>
      <trkpt lat="45.28784" lon="5.41531">
        <ele>718.681824</ele>
        <time>2016-05-08T09:25:31Z</time>
      </trkpt>
      <trkpt lat="45.28779" lon="5.41533">
        <ele>718.742615</ele>
        <time>2016-05-08T09:25:34Z</time>
      </trkpt>
      <trkpt lat="45.28774" lon="5.41536">
        <ele>718.847778</ele>
        <time>2016-05-08T09:25:37Z</time>
      </trkpt>
      <trkpt lat="45.28769" lon="5.41539">
        <ele>718.948669</ele>
        <time>2016-05-08T09:25:40Z</time>
      </trkpt>
      <trkpt lat="45.28763" lon="5.41543">
        <ele>719.177734</ele>
        <time>2016-05-08T09:25:44Z</time>
      </trkpt>
      <trkpt lat="45.28757" lon="5.41549">
        <ele>719.549805</ele>
        <time>2016-05-08T09:25:48Z</time>
      </trkpt>
      <trkpt lat="45.28754" lon="5.41554">
        <ele>719.886108</ele>
        <time>2016-05-08T09:25:51Z</time>
      </trkpt>
      <trkpt lat="45.28748" lon="5.41558">
        <ele>720.378784</ele>
        <time>2016-05-08T09:25:54Z</time>
      </trkpt>
      <trkpt lat="45.28741" lon="5.41563">
        <ele>721.824219</ele>
        <time>2016-05-08T09:25:58Z</time>
      </trkpt>
      <trkpt lat="45.28737" lon="5.41567">
        <ele>722.671631</ele>
        <time>2016-05-08T09:26:02Z</time>
      </trkpt>
      <trkpt lat="45.28732" lon="5.4157">
        <ele>723.655273</ele>
        <time>2016-05-08T09:26:06Z</time>
      </trkpt>
      <trkpt lat="45.28728" lon="5.41575">
        <ele>724.621338</ele>
        <time>2016-05-08T09:26:11Z</time>
      </trkpt>
      <trkpt lat="45.28728" lon="5.41582">
        <ele>725.082397</ele>
        <time>2016-05-08T09:26:43Z</time>
      </trkpt>
      <trkpt lat="45.28731" lon="5.41601">
        <ele>725.820068</ele>
        <time>2016-05-08T09:26:46Z</time>
      </trkpt>
      <trkpt lat="45.28735" lon="5.41631">
        <ele>726.964661</ele>
        <time>2016-05-08T09:26:49Z</time>
      </trkpt>
      <trkpt lat="45.28743" lon="5.41652">
        <ele>727.088501</ele>
        <time>2016-05-08T09:26:52Z</time>
      </trkpt>
      <trkpt lat="45.28751" lon="5.4168">
        <ele>727.672668</ele>
        <time>2016-05-08T09:26:56Z</time>
      </trkpt>
      <trkpt lat="45.28764" lon="5.41698">
        <ele>727.324646</ele>
        <time>2016-05-08T09:26:59Z</time>
      </trkpt>
      <trkpt lat="45.28794" lon="5.4172">
        <ele>724.927368</ele>
        <time>2016-05-08T09:27:03Z</time>
      </trkpt>
      <trkpt lat="45.28818" lon="5.41745">
        <ele>722.92572</ele>
        <time>2016-05-08T09:27:07Z</time>
      </trkpt>
      <trkpt lat="45.28834" lon="5.4176">
        <ele>721.588135</ele>
        <time>2016-05-08T09:27:10Z</time>
      </trkpt>
      <trkpt lat="45.2886" lon="5.4178">
        <ele>718.962646</ele>
        <time>2016-05-08T09:27:14Z</time>
      </trkpt>
      <trkpt lat="45.28875" lon="5.41788">
        <ele>717.443848</ele>
        <time>2016-05-08T09:27:17Z</time>
      </trkpt>
      <trkpt lat="45.28898" lon="5.41814">
        <ele>716.886658</ele>
        <time>2016-05-08T09:27:21Z</time>
      </trkpt>
      <trkpt lat="45.28917" lon="5.41835">
        <ele>717.032227</ele>
        <time>2016-05-08T09:27:25Z</time>
      </trkpt>
      <trkpt lat="45.2893" lon="5.41852">
        <ele>715.881836</ele>
        <time>2016-05-08T09:27:29Z</time>
      </trkpt>
      <trkpt lat="45.28939" lon="5.41868">
        <ele>715.147583</ele>
        <time>2016-05-08T09:27:32Z</time>
      </trkpt>
      <trkpt lat="45.28942" lon="5.41896">
        <ele>716.587524</ele>
        <time>2016-05-08T09:27:36Z</time>
      </trkpt>
      <trkpt lat="45.28949" lon="5.41908">
        <ele>716.175659</ele>
        <time>2016-05-08T09:27:39Z</time>
      </trkpt>
      <trkpt lat="45.28949" lon="5.41917">
        <ele>716.900452</ele>
        <time>2016-05-08T09:27:42Z</time>
      </trkpt>
      <trkpt lat="45.28944" lon="5.41931">
        <ele>718.271667</ele>
        <time>2016-05-08T09:27:45Z</time>
      </trkpt>
      <trkpt lat="45.28942" lon="5.41948">
        <ele>719.14209</ele>
        <time>2016-05-08T09:27:49Z</time>
      </trkpt>
      <trkpt lat="45.2894" lon="5.41961">
        <ele>719.952148</ele>
        <time>2016-05-08T09:27:52Z</time>
      </trkpt>
      <trkpt lat="45.28935" lon="5.41987">
        <ele>721.477417</ele>
        <time>2016-05-08T09:27:56Z</time>
      </trkpt>
      <trkpt lat="45.28929" lon="5.42011">
        <ele>722.413269</ele>
        <time>2016-05-08T09:28:00Z</time>
      </trkpt>
      <trkpt lat="45.28922" lon="5.42028">
        <ele>723.060242</ele>
        <time>2016-05-08T09:28:03Z</time>
      </trkpt>
      <trkpt lat="45.28914" lon="5.42042">
        <ele>723.67218</ele>
        <time>2016-05-08T09:28:06Z</time>
      </trkpt>
      <trkpt lat="45.28901" lon="5.42055">
        <ele>724.30542</ele>
        <time>2016-05-08T09:28:10Z</time>
      </trkpt>
      <trkpt lat="45.28875" lon="5.42065">
        <ele>725.527344</ele>
        <time>2016-05-08T09:28:14Z</time>
      </trkpt>
      <trkpt lat="45.28846" lon="5.42074">
        <ele>726.824463</ele>
        <time>2016-05-08T09:28:18Z</time>
      </trkpt>
      <trkpt lat="45.28824" lon="5.42086">
        <ele>727.857056</ele>
        <time>2016-05-08T09:28:22Z</time>
      </trkpt>
      <trkpt lat="45.28816" lon="5.42091">
        <ele>728.504822</ele>
        <time>2016-05-08T09:28:26Z</time>
      </trkpt>
      <trkpt lat="45.28813" lon="5.42085">
        <ele>729.123718</ele>
        <time>2016-05-08T09:28:38Z</time>
      </trkpt>
      <trkpt lat="45.28807" lon="5.42081">
        <ele>729.887573</ele>
        <time>2016-05-08T09:28:42Z</time>
      </trkpt>
      <trkpt lat="45.28803" lon="5.42081">
        <ele>730.416016</ele>
        <time>2016-05-08T09:28:51Z</time>
      </trkpt>
      <trkpt lat="45.28798" lon="5.42081">
        <ele>730.914307</ele>
        <time>2016-05-08T09:28:58Z</time>
      </trkpt>
      <trkpt lat="45.28793" lon="5.42082">
        <ele>731.429016</ele>
        <time>2016-05-08T09:29:04Z</time>
      </trkpt>
      <trkpt lat="45.28788" lon="5.42081">
        <ele>731.943604</ele>
        <time>2016-05-08T09:29:09Z</time>
      </trkpt>
      <trkpt lat="45.28783" lon="5.42079">
        <ele>732.55835</ele>
        <time>2016-05-08T09:29:15Z</time>
      </trkpt>
      <trkpt lat="45.28779" lon="5.42078">
        <ele>733.095093</ele>
        <time>2016-05-08T09:29:22Z</time>
      </trkpt>
      <trkpt lat="45.28774" lon="5.42074">
        <ele>733.670471</ele>
        <time>2016-05-08T09:29:29Z</time>
      </trkpt>
      <trkpt lat="45.2877" lon="5.42072">
        <ele>734.227417</ele>
        <time>2016-05-08T09:29:34Z</time>
      </trkpt>
      <trkpt lat="45.28767" lon="5.42067">
        <ele>734.69751</ele>
        <time>2016-05-08T09:29:39Z</time>
      </trkpt>
      <trkpt lat="45.28762" lon="5.42067">
        <ele>735.163879</ele>
        <time>2016-05-08T09:29:45Z</time>
      </trkpt>
      <trkpt lat="45.28759" lon="5.42071">
        <ele>735.388245</ele>
        <time>2016-05-08T09:29:51Z</time>
      </trkpt>
      <trkpt lat="45.2876" lon="5.42085">
        <ele>734.911011</ele>
        <time>2016-05-08T09:29:54Z</time>
      </trkpt>
      <trkpt lat="45.28766" lon="5.42117">
        <ele>733.230896</ele>
        <time>2016-05-08T09:29:58Z</time>
      </trkpt>
      <trkpt lat="45.28766" lon="5.42153">
        <ele>732.080444</ele>
        <time>2016-05-08T09:30:02Z</time>
      </trkpt>
      <trkpt lat="45.28758" lon="5.42185">
        <ele>732.108215</ele>
        <time>2016-05-08T09:30:05Z</time>
      </trkpt>
      <trkpt lat="45.28749" lon="5.42217">
        <ele>732.227539</ele>
        <time>2016-05-08T09:30:09Z</time>
      </trkpt>
      <trkpt lat="45.2874" lon="5.4224">
        <ele>731.847595</ele>
        <time>2016-05-08T09:30:13Z</time>
      </trkpt>
      <trkpt lat="45.28735" lon="5.42259">
        <ele>731.511963</ele>
        <time>2016-05-08T09:30:16Z</time>
      </trkpt>
      <trkpt lat="45.28731" lon="5.42283">
        <ele>731.142029</ele>
        <time>2016-05-08T09:30:20Z</time>
      </trkpt>
      <trkpt lat="45.28729" lon="5.42306">
        <ele>730.692993</ele>
        <time>2016-05-08T09:30:24Z</time>
      </trkpt>
      <trkpt lat="45.28729" lon="5.42324">
        <ele>730.238037</ele>
        <time>2016-05-08T09:30:27Z</time>
      </trkpt>
      <trkpt lat="45.28731" lon="5.42346">
        <ele>729.523987</ele>
        <time>2016-05-08T09:30:30Z</time>
      </trkpt>
      <trkpt lat="45.28728" lon="5.42361">
        <ele>729.169312</ele>
        <time>2016-05-08T09:30:33Z</time>
      </trkpt>
      <trkpt lat="45.28727" lon="5.42389">
        <ele>728.30365</ele>
        <time>2016-05-08T09:30:37Z</time>
      </trkpt>
      <trkpt lat="45.28725" lon="5.42412">
        <ele>727.620056</ele>
        <time>2016-05-08T09:30:40Z</time>
      </trkpt>
      <trkpt lat="45.28719" lon="5.42438">
        <ele>727.08429</ele>
        <time>2016-05-08T09:30:44Z</time>
      </trkpt>
      <trkpt lat="45.28714" lon="5.42456">
        <ele>726.745361</ele>
        <time>2016-05-08T09:30:47Z</time>
      </trkpt>
      <trkpt lat="45.28711" lon="5.42473">
        <ele>726.302979</ele>
        <time>2016-05-08T09:30:50Z</time>
      </trkpt>
      <trkpt lat="45.28709" lon="5.42502">
        <ele>725.3927</ele>
        <time>2016-05-08T09:30:54Z</time>
      </trkpt>
      <trkpt lat="45.28708" lon="5.42522">
        <ele>724.694885</ele>
        <time>2016-05-08T09:30:57Z</time>
      </trkpt>
      <trkpt lat="45.28703" lon="5.42551">
        <ele>724.078857</ele>
        <time>2016-05-08T09:31:01Z</time>
      </trkpt>
      <trkpt lat="45.28707" lon="5.42579">
        <ele>722.822449</ele>
        <time>2016-05-08T09:31:04Z</time>
      </trkpt>
      <trkpt lat="45.28711" lon="5.4262">
        <ele>721.174316</ele>
        <time>2016-05-08T09:31:08Z</time>
      </trkpt>
      <trkpt lat="45.28728" lon="5.42663">
        <ele>718.271423</ele>
        <time>2016-05-08T09:31:12Z</time>
      </trkpt>
      <trkpt lat="45.28725" lon="5.42698">
        <ele>716.617004</ele>
        <time>2016-05-08T09:31:15Z</time>
      </trkpt>
      <trkpt lat="45.28714" lon="5.42731">
        <ele>716.169739</ele>
        <time>2016-05-08T09:31:18Z</time>
      </trkpt>
      <trkpt lat="45.2869" lon="5.42762">
        <ele>717.528076</ele>
        <time>2016-05-08T09:31:22Z</time>
      </trkpt>
      <trkpt lat="45.2867" lon="5.42784">
        <ele>718.243042</ele>
        <time>2016-05-08T09:31:26Z</time>
      </trkpt>
      <trkpt lat="45.28658" lon="5.42796">
        <ele>717.678955</ele>
        <time>2016-05-08T09:31:29Z</time>
      </trkpt>
      <trkpt lat="45.28649" lon="5.42795">
        <ele>717.848877</ele>
        <time>2016-05-08T09:31:33Z</time>
      </trkpt>
      <trkpt lat="45.28641" lon="5.42795">
        <ele>717.933777</ele>
        <time>2016-05-08T09:31:37Z</time>
      </trkpt>
      <trkpt lat="45.28635" lon="5.42793">
        <ele>718.10022</ele>
        <time>2016-05-08T09:31:41Z</time>
      </trkpt>
      <trkpt lat="45.28627" lon="5.42793">
        <ele>718.142212</ele>
        <time>2016-05-08T09:31:45Z</time>
      </trkpt>
      <trkpt lat="45.28622" lon="5.42792">
        <ele>718.24939</ele>
        <time>2016-05-08T09:31:48Z</time>
      </trkpt>
      <trkpt lat="45.28617" lon="5.42793">
        <ele>718.229858</ele>
        <time>2016-05-08T09:31:51Z</time>
      </trkpt>
      <trkpt lat="45.28611" lon="5.42794">
        <ele>718.225159</ele>
        <time>2016-05-08T09:31:54Z</time>
      </trkpt>
      <trkpt lat="45.28601" lon="5.42794">
        <ele>718.273499</ele>
        <time>2016-05-08T09:31:58Z</time>
      </trkpt>
      <trkpt lat="45.28594" lon="5.42793">
        <ele>718.364075</ele>
        <time>2016-05-08T09:32:01Z</time>
      </trkpt>
      <trkpt lat="45.28584" lon="5.42795">
        <ele>718.390259</ele>
        <time>2016-05-08T09:32:05Z</time>
      </trkpt>
      <trkpt lat="45.28576" lon="5.42795">
        <ele>716.514221</ele>
        <time>2016-05-08T09:32:08Z</time>
      </trkpt>
      <trkpt lat="45.28564" lon="5.42799">
        <ele>713.486816</ele>
        <time>2016-05-08T09:32:12Z</time>
      </trkpt>
      <trkpt lat="45.28557" lon="5.42797">
        <ele>711.731689</ele>
        <time>2016-05-08T09:32:15Z</time>
      </trkpt>
      <trkpt lat="45.28551" lon="5.42794">
        <ele>710.203247</ele>
        <time>2016-05-08T09:32:20Z</time>
      </trkpt>
      <trkpt lat="45.28546" lon="5.42786">
        <ele>708.681946</ele>
        <time>2016-05-08T09:32:23Z</time>
      </trkpt>
      <trkpt lat="45.28542" lon="5.42775">
        <ele>706.997559</ele>
        <time>2016-05-08T09:32:27Z</time>
      </trkpt>
      <trkpt lat="45.28537" lon="5.42775">
        <ele>705.665649</ele>
        <time>2016-05-08T09:32:34Z</time>
      </trkpt>
      <trkpt lat="45.28533" lon="5.42782">
        <ele>704.816345</ele>
        <time>2016-05-08T09:32:38Z</time>
      </trkpt>
      <trkpt lat="45.28521" lon="5.42789">
        <ele>702.283081</ele>
        <time>2016-05-08T09:32:42Z</time>
      </trkpt>
      <trkpt lat="45.28494" lon="5.42787">
        <ele>694.269775</ele>
        <time>2016-05-08T09:32:45Z</time>
      </trkpt>
      <trkpt lat="45.28458" lon="5.42784">
        <ele>680.148621</ele>
        <time>2016-05-08T09:32:49Z</time>
      </trkpt>
      <trkpt lat="45.28425" lon="5.42808">
        <ele>672.454102</ele>
        <time>2016-05-08T09:32:53Z</time>
      </trkpt>
      <trkpt lat="45.28402" lon="5.42829">
        <ele>667.745056</ele>
        <time>2016-05-08T09:32:56Z</time>
      </trkpt>
      <trkpt lat="45.28376" lon="5.4284">
        <ele>659.025757</ele>
        <time>2016-05-08T09:33:00Z</time>
      </trkpt>
      <trkpt lat="45.28358" lon="5.42844">
        <ele>652.224609</ele>
        <time>2016-05-08T09:33:03Z</time>
      </trkpt>
      <trkpt lat="45.28338" lon="5.42848">
        <ele>645.087646</ele>
        <time>2016-05-08T09:33:07Z</time>
      </trkpt>
      <trkpt lat="45.28329" lon="5.42855">
        <ele>643.427612</ele>
        <time>2016-05-08T09:33:10Z</time>
      </trkpt>
      <trkpt lat="45.28324" lon="5.42859">
        <ele>642.343262</ele>
        <time>2016-05-08T09:33:14Z</time>
      </trkpt>
      <trkpt lat="45.2832" lon="5.42855">
        <ele>640.231262</ele>
        <time>2016-05-08T09:33:18Z</time>
      </trkpt>
      <trkpt lat="45.28322" lon="5.42846">
        <ele>638.71228</ele>
        <time>2016-05-08T09:33:21Z</time>
      </trkpt>
      <trkpt lat="45.28332" lon="5.4282">
        <ele>635.589172</ele>
        <time>2016-05-08T09:33:25Z</time>
      </trkpt>
      <trkpt lat="45.28346" lon="5.42797">
        <ele>635.43512</ele>
        <time>2016-05-08T09:33:28Z</time>
      </trkpt>
      <trkpt lat="45.2835" lon="5.42787">
        <ele>634.453857</ele>
        <time>2016-05-08T09:33:32Z</time>
      </trkpt>
      <trkpt lat="45.28344" lon="5.42786">
        <ele>632.005554</ele>
        <time>2016-05-08T09:33:36Z</time>
      </trkpt>
      <trkpt lat="45.28337" lon="5.42795">
        <ele>631.037964</ele>
        <time>2016-05-08T09:33:40Z</time>
      </trkpt>
      <trkpt lat="45.28331" lon="5.42802">
        <ele>630.187256</ele>
        <time>2016-05-08T09:33:43Z</time>
      </trkpt>
      <trkpt lat="45.28324" lon="5.42807">
        <ele>629.47467</ele>
        <time>2016-05-08T09:33:47Z</time>
      </trkpt>
      <trkpt lat="45.28319" lon="5.42813">
        <ele>629.071228</ele>
        <time>2016-05-08T09:33:50Z</time>
      </trkpt>
      <trkpt lat="45.28312" lon="5.42821">
        <ele>628.947083</ele>
        <time>2016-05-08T09:33:54Z</time>
      </trkpt>
      <trkpt lat="45.28306" lon="5.42828">
        <ele>628.847534</ele>
        <time>2016-05-08T09:33:57Z</time>
      </trkpt>
      <trkpt lat="45.28297" lon="5.42841">
        <ele>629.27002</ele>
        <time>2016-05-08T09:34:01Z</time>
      </trkpt>
      <trkpt lat="45.28289" lon="5.42851">
        <ele>628.644043</ele>
        <time>2016-05-08T09:34:04Z</time>
      </trkpt>
      <trkpt lat="45.28282" lon="5.42864">
        <ele>629.496948</ele>
        <time>2016-05-08T09:34:08Z</time>
      </trkpt>
      <trkpt lat="45.28289" lon="5.4288">
        <ele>635.474976</ele>
        <time>2016-05-08T09:34:12Z</time>
      </trkpt>
      <trkpt lat="45.28298" lon="5.42889">
        <ele>640.621094</ele>
        <time>2016-05-08T09:34:15Z</time>
      </trkpt>
      <trkpt lat="45.28308" lon="5.42897">
        <ele>645.548218</ele>
        <time>2016-05-08T09:34:18Z</time>
      </trkpt>
      <trkpt lat="45.28321" lon="5.42911">
        <ele>653.011169</ele>
        <time>2016-05-08T09:34:22Z</time>
      </trkpt>
      <trkpt lat="45.28336" lon="5.42924">
        <ele>658.828186</ele>
        <time>2016-05-08T09:34:25Z</time>
      </trkpt>
      <trkpt lat="45.28355" lon="5.42934">
        <ele>664.490967</ele>
        <time>2016-05-08T09:34:28Z</time>
      </trkpt>
      <trkpt lat="45.28377" lon="5.42943">
        <ele>671.248291</ele>
        <time>2016-05-08T09:34:31Z</time>
      </trkpt>
      <trkpt lat="45.28384" lon="5.42982">
        <ele>672.495361</ele>
        <time>2016-05-08T09:34:35Z</time>
      </trkpt>
      <trkpt lat="45.28373" lon="5.43031">
        <ele>669.246399</ele>
        <time>2016-05-08T09:34:39Z</time>
      </trkpt>
      <trkpt lat="45.28353" lon="5.43065">
        <ele>661.990723</ele>
        <time>2016-05-08T09:34:42Z</time>
      </trkpt>
      <trkpt lat="45.28313" lon="5.43079">
        <ele>647.780884</ele>
        <time>2016-05-08T09:34:46Z</time>
      </trkpt>
      <trkpt lat="45.28295" lon="5.43101">
        <ele>642.27124</ele>
        <time>2016-05-08T09:34:49Z</time>
      </trkpt>
      <trkpt lat="45.2828" lon="5.4311">
        <ele>637.458435</ele>
        <time>2016-05-08T09:34:53Z</time>
      </trkpt>
      <trkpt lat="45.28273" lon="5.43111">
        <ele>635.040527</ele>
        <time>2016-05-08T09:34:56Z</time>
      </trkpt>
      <trkpt lat="45.28258" lon="5.43117">
        <ele>630.223999</ele>
        <time>2016-05-08T09:35:00Z</time>
      </trkpt>
      <trkpt lat="45.28246" lon="5.43124">
        <ele>626.157471</ele>
        <time>2016-05-08T09:35:03Z</time>
      </trkpt>
      <trkpt lat="45.28234" lon="5.43138">
        <ele>621.69751</ele>
        <time>2016-05-08T09:35:07Z</time>
      </trkpt>
      <trkpt lat="45.28226" lon="5.4315">
        <ele>618.734619</ele>
        <time>2016-05-08T09:35:10Z</time>
      </trkpt>
      <trkpt lat="45.28219" lon="5.43162">
        <ele>615.960754</ele>
        <time>2016-05-08T09:35:13Z</time>
      </trkpt>
      <trkpt lat="45.28207" lon="5.4318">
        <ele>613.109619</ele>
        <time>2016-05-08T09:35:17Z</time>
      </trkpt>
      <trkpt lat="45.28201" lon="5.43197">
        <ele>613.061096</ele>
        <time>2016-05-08T09:35:20Z</time>
      </trkpt>
      <trkpt lat="45.28207" lon="5.43221">
        <ele>617.819275</ele>
        <time>2016-05-08T09:35:24Z</time>
      </trkpt>
      <trkpt lat="45.28216" lon="5.4324">
        <ele>623.642334</ele>
        <time>2016-05-08T09:35:28Z</time>
      </trkpt>
      <trkpt lat="45.28219" lon="5.43254">
        <ele>626.390564</ele>
        <time>2016-05-08T09:35:31Z</time>
      </trkpt>
      <trkpt lat="45.28221" lon="5.43261">
        <ele>627.882874</ele>
        <time>2016-05-08T09:35:34Z</time>
      </trkpt>
      <trkpt lat="45.28221" lon="5.43271">
        <ele>629.453735</ele>
        <time>2016-05-08T09:35:37Z</time>
      </trkpt>
      <trkpt lat="45.28223" lon="5.43293">
        <ele>632.836975</ele>
        <time>2016-05-08T09:35:41Z</time>
      </trkpt>
      <trkpt lat="45.28223" lon="5.43318">
        <ele>636.319092</ele>
        <time>2016-05-08T09:35:44Z</time>
      </trkpt>
      <trkpt lat="45.28218" lon="5.4335">
        <ele>639.263794</ele>
        <time>2016-05-08T09:35:48Z</time>
      </trkpt>
      <trkpt lat="45.28206" lon="5.43365">
        <ele>638.294983</ele>
        <time>2016-05-08T09:35:52Z</time>
      </trkpt>
      <trkpt lat="45.28194" lon="5.43372">
        <ele>636.097046</ele>
        <time>2016-05-08T09:35:56Z</time>
      </trkpt>
      <trkpt lat="45.28184" lon="5.43375">
        <ele>634.042969</ele>
        <time>2016-05-08T09:35:59Z</time>
      </trkpt>
      <trkpt lat="45.28168" lon="5.43377">
        <ele>630.074951</ele>
        <time>2016-05-08T09:36:03Z</time>
      </trkpt>
      <trkpt lat="45.28156" lon="5.43378">
        <ele>628.514526</ele>
        <time>2016-05-08T09:36:06Z</time>
      </trkpt>
      <trkpt lat="45.28144" lon="5.43382">
        <ele>627.629578</ele>
        <time>2016-05-08T09:36:10Z</time>
      </trkpt>
      <trkpt lat="45.28137" lon="5.43386">
        <ele>627.458069</ele>
        <time>2016-05-08T09:36:14Z</time>
      </trkpt>
      <trkpt lat="45.28132" lon="5.43388">
        <ele>627.267273</ele>
        <time>2016-05-08T09:36:18Z</time>
      </trkpt>
      <trkpt lat="45.28126" lon="5.4339">
        <ele>626.969238</ele>
        <time>2016-05-08T09:36:22Z</time>
      </trkpt>
      <trkpt lat="45.2812" lon="5.43393">
        <ele>626.653137</ele>
        <time>2016-05-08T09:36:26Z</time>
      </trkpt>
      <trkpt lat="45.28115" lon="5.43395">
        <ele>626.4198</ele>
        <time>2016-05-08T09:36:30Z</time>
      </trkpt>
      <trkpt lat="45.2811" lon="5.43398">
        <ele>626.545105</ele>
        <time>2016-05-08T09:36:34Z</time>
      </trkpt>
      <trkpt lat="45.28105" lon="5.43402">
        <ele>626.908997</ele>
        <time>2016-05-08T09:36:38Z</time>
      </trkpt>
      <trkpt lat="45.281" lon="5.43407">
        <ele>627.418335</ele>
        <time>2016-05-08T09:36:41Z</time>
      </trkpt>
      <trkpt lat="45.28094" lon="5.4341">
        <ele>627.562683</ele>
        <time>2016-05-08T09:36:45Z</time>
      </trkpt>
      <trkpt lat="45.2809" lon="5.43413">
        <ele>627.640991</ele>
        <time>2016-05-08T09:36:48Z</time>
      </trkpt>
      <trkpt lat="45.28083" lon="5.43415">
        <ele>627.588562</ele>
        <time>2016-05-08T09:36:52Z</time>
      </trkpt>
      <trkpt lat="45.28078" lon="5.43417">
        <ele>627.717651</ele>
        <time>2016-05-08T09:36:55Z</time>
      </trkpt>
      <trkpt lat="45.28071" lon="5.43419">
        <ele>628.354492</ele>
        <time>2016-05-08T09:36:59Z</time>
      </trkpt>
      <trkpt lat="45.28063" lon="5.43421">
        <ele>628.541199</ele>
        <time>2016-05-08T09:37:03Z</time>
      </trkpt>
      <trkpt lat="45.28056" lon="5.43421">
        <ele>628.176941</ele>
        <time>2016-05-08T09:37:06Z</time>
      </trkpt>
      <trkpt lat="45.28047" lon="5.43422">
        <ele>628.199158</ele>
        <time>2016-05-08T09:37:10Z</time>
      </trkpt>
      <trkpt lat="45.28033" lon="5.43426">
        <ele>628.709473</ele>
        <time>2016-05-08T09:37:14Z</time>
      </trkpt>
      <trkpt lat="45.28014" lon="5.43433">
        <ele>629.841919</ele>
        <time>2016-05-08T09:37:18Z</time>
      </trkpt>
      <trkpt lat="45.27997" lon="5.43447">
        <ele>632.32843</ele>
        <time>2016-05-08T09:37:22Z</time>
      </trkpt>
      <trkpt lat="45.27978" lon="5.43464">
        <ele>634.255981</ele>
        <time>2016-05-08T09:37:26Z</time>
      </trkpt>
      <trkpt lat="45.27967" lon="5.43485">
        <ele>638.026245</ele>
        <time>2016-05-08T09:37:29Z</time>
      </trkpt>
      <trkpt lat="45.27964" lon="5.43518">
        <ele>643.548706</ele>
        <time>2016-05-08T09:37:33Z</time>
      </trkpt>
      <trkpt lat="45.2796" lon="5.43548">
        <ele>646.819092</ele>
        <time>2016-05-08T09:37:36Z</time>
      </trkpt>
      <trkpt lat="45.27969" lon="5.43574">
        <ele>652.888306</ele>
        <time>2016-05-08T09:37:40Z</time>
      </trkpt>
      <trkpt lat="45.27977" lon="5.43593">
        <ele>656.063782</ele>
        <time>2016-05-08T09:37:43Z</time>
      </trkpt>
      <trkpt lat="45.27987" lon="5.4361">
        <ele>658.375061</ele>
        <time>2016-05-08T09:37:46Z</time>
      </trkpt>
      <trkpt lat="45.28002" lon="5.43628">
        <ele>662.520142</ele>
        <time>2016-05-08T09:37:49Z</time>
      </trkpt>
      <trkpt lat="45.28021" lon="5.43654">
        <ele>668.534119</ele>
        <time>2016-05-08T09:37:53Z</time>
      </trkpt>
      <trkpt lat="45.28037" lon="5.43693">
        <ele>669.746216</ele>
        <time>2016-05-08T09:37:57Z</time>
      </trkpt>
      <trkpt lat="45.28047" lon="5.43727">
        <ele>667.073303</ele>
        <time>2016-05-08T09:38:00Z</time>
      </trkpt>
      <trkpt lat="45.28061" lon="5.4376">
        <ele>665.546265</ele>
        <time>2016-05-08T09:38:03Z</time>
      </trkpt>
      <trkpt lat="45.28072" lon="5.43807">
        <ele>657.826721</ele>
        <time>2016-05-08T09:38:07Z</time>
      </trkpt>
      <trkpt lat="45.28087" lon="5.43826">
        <ele>656.106201</ele>
        <time>2016-05-08T09:38:10Z</time>
      </trkpt>
      <trkpt lat="45.28114" lon="5.43821">
        <ele>658.690308</ele>
        <time>2016-05-08T09:38:14Z</time>
      </trkpt>
      <trkpt lat="45.28147" lon="5.43806">
        <ele>664.64856</ele>
        <time>2016-05-08T09:38:18Z</time>
      </trkpt>
      <trkpt lat="45.28184" lon="5.43784">
        <ele>672.507141</ele>
        <time>2016-05-08T09:38:22Z</time>
      </trkpt>
      <trkpt lat="45.28217" lon="5.43766">
        <ele>676.807251</ele>
        <time>2016-05-08T09:38:26Z</time>
      </trkpt>
      <trkpt lat="45.28242" lon="5.43764">
        <ele>676.508789</ele>
        <time>2016-05-08T09:38:29Z</time>
      </trkpt>
      <trkpt lat="45.28271" lon="5.43782">
        <ele>669.754272</ele>
        <time>2016-05-08T09:38:33Z</time>
      </trkpt>
      <trkpt lat="45.28295" lon="5.43815">
        <ele>659.86792</ele>
        <time>2016-05-08T09:38:37Z</time>
      </trkpt>
      <trkpt lat="45.2831" lon="5.4384">
        <ele>653.171936</ele>
        <time>2016-05-08T09:38:40Z</time>
      </trkpt>
      <trkpt lat="45.28331" lon="5.43861">
        <ele>648.355164</ele>
        <time>2016-05-08T09:38:44Z</time>
      </trkpt>
      <trkpt lat="45.28349" lon="5.43866">
        <ele>644.697571</ele>
        <time>2016-05-08T09:38:47Z</time>
      </trkpt>
      <trkpt lat="45.2837" lon="5.43858">
        <ele>642.26355</ele>
        <time>2016-05-08T09:38:51Z</time>
      </trkpt>
      <trkpt lat="45.28381" lon="5.43839">
        <ele>643.39624</ele>
        <time>2016-05-08T09:38:54Z</time>
      </trkpt>
      <trkpt lat="45.28391" lon="5.4381">
        <ele>646.39978</ele>
        <time>2016-05-08T09:38:58Z</time>
      </trkpt>
      <trkpt lat="45.28397" lon="5.43786">
        <ele>649.098022</ele>
        <time>2016-05-08T09:39:01Z</time>
      </trkpt>
      <trkpt lat="45.28413" lon="5.43753">
        <ele>650.627136</ele>
        <time>2016-05-08T09:39:05Z</time>
      </trkpt>
      <trkpt lat="45.28427" lon="5.43721">
        <ele>653.409912</ele>
        <time>2016-05-08T09:39:09Z</time>
      </trkpt>
      <trkpt lat="45.28436" lon="5.43696">
        <ele>656.437805</ele>
        <time>2016-05-08T09:39:12Z</time>
      </trkpt>
      <trkpt lat="45.28445" lon="5.43665">
        <ele>661.237183</ele>
        <time>2016-05-08T09:39:16Z</time>
      </trkpt>
      <trkpt lat="45.28456" lon="5.4365">
        <ele>661.41571</ele>
        <time>2016-05-08T09:39:19Z</time>
      </trkpt>
      <trkpt lat="45.28474" lon="5.43621">
        <ele>662.974182</ele>
        <time>2016-05-08T09:39:23Z</time>
      </trkpt>
      <trkpt lat="45.28495" lon="5.436">
        <ele>663.357239</ele>
        <time>2016-05-08T09:39:26Z</time>
      </trkpt>
      <trkpt lat="45.28519" lon="5.43602">
        <ele>666.511108</ele>
        <time>2016-05-08T09:39:30Z</time>
      </trkpt>
      <trkpt lat="45.28533" lon="5.43643">
        <ele>661.067322</ele>
        <time>2016-05-08T09:39:34Z</time>
      </trkpt>
      <trkpt lat="45.28551" lon="5.43692">
        <ele>652.500488</ele>
        <time>2016-05-08T09:39:38Z</time>
      </trkpt>
      <trkpt lat="45.2857" lon="5.43742">
        <ele>640.559509</ele>
        <time>2016-05-08T09:39:42Z</time>
      </trkpt>
      <trkpt lat="45.28593" lon="5.43784">
        <ele>631.148132</ele>
        <time>2016-05-08T09:39:46Z</time>
      </trkpt>
      <trkpt lat="45.28615" lon="5.43809">
        <ele>627.502014</ele>
        <time>2016-05-08T09:39:49Z</time>
      </trkpt>
      <trkpt lat="45.2865" lon="5.43811">
        <ele>633.911377</ele>
        <time>2016-05-08T09:39:53Z</time>
      </trkpt>
      <trkpt lat="45.28672" lon="5.43805">
        <ele>638.503235</ele>
        <time>2016-05-08T09:39:56Z</time>
      </trkpt>
      <trkpt lat="45.28697" lon="5.43809">
        <ele>636.116943</ele>
        <time>2016-05-08T09:39:59Z</time>
      </trkpt>
      <trkpt lat="45.28726" lon="5.4382">
        <ele>631.874451</ele>
        <time>2016-05-08T09:40:03Z</time>
      </trkpt>
      <trkpt lat="45.2876" lon="5.43819">
        <ele>629.116577</ele>
        <time>2016-05-08T09:40:07Z</time>
      </trkpt>
      <trkpt lat="45.28784" lon="5.4381">
        <ele>626.602661</ele>
        <time>2016-05-08T09:40:11Z</time>
      </trkpt>
      <trkpt lat="45.28801" lon="5.43795">
        <ele>626.251221</ele>
        <time>2016-05-08T09:40:14Z</time>
      </trkpt>
      <trkpt lat="45.28818" lon="5.43765">
        <ele>629.068481</ele>
        <time>2016-05-08T09:40:18Z</time>
      </trkpt>
      <trkpt lat="45.2884" lon="5.4373">
        <ele>633.434448</ele>
        <time>2016-05-08T09:40:22Z</time>
      </trkpt>
      <trkpt lat="45.28852" lon="5.43705">
        <ele>638.833618</ele>
        <time>2016-05-08T09:40:25Z</time>
      </trkpt>
      <trkpt lat="45.28868" lon="5.43681">
        <ele>643.747437</ele>
        <time>2016-05-08T09:40:29Z</time>
      </trkpt>
      <trkpt lat="45.28894" lon="5.43688">
        <ele>641.622437</ele>
        <time>2016-05-08T09:40:33Z</time>
      </trkpt>
      <trkpt lat="45.28899" lon="5.43693">
        <ele>640.246338</ele>
        <time>2016-05-08T09:40:37Z</time>
      </trkpt>
      <trkpt lat="45.28907" lon="5.43698">
        <ele>638.796692</ele>
        <time>2016-05-08T09:40:41Z</time>
      </trkpt>
      <trkpt lat="45.28911" lon="5.43704">
        <ele>637.323975</ele>
        <time>2016-05-08T09:40:44Z</time>
      </trkpt>
      <trkpt lat="45.28906" lon="5.437">
        <ele>638.380676</ele>
        <time>2016-05-08T09:40:53Z</time>
      </trkpt>
      <trkpt lat="45.28903" lon="5.43695">
        <ele>639.613647</ele>
        <time>2016-05-08T09:40:56Z</time>
      </trkpt>
      <trkpt lat="45.28899" lon="5.43689">
        <ele>641.067505</ele>
        <time>2016-05-08T09:41:02Z</time>
      </trkpt>
      <trkpt lat="45.28897" lon="5.43683">
        <ele>642.644897</ele>
        <time>2016-05-08T09:41:06Z</time>
      </trkpt>
      <trkpt lat="45.28898" lon="5.4369">
        <ele>640.837158</ele>
        <time>2016-05-08T09:41:18Z</time>
      </trkpt>
      <trkpt lat="45.289" lon="5.43696">
        <ele>639.367126</ele>
        <time>2016-05-08T09:41:23Z</time>
      </trkpt>
      <trkpt lat="45.28903" lon="5.43702">
        <ele>637.918091</ele>
        <time>2016-05-08T09:41:26Z</time>
      </trkpt>
      <trkpt lat="45.28906" lon="5.43707">
        <ele>636.661377</ele>
        <time>2016-05-08T09:41:30Z</time>
      </trkpt>
      <trkpt lat="45.28907" lon="5.43714">
        <ele>634.901428</ele>
        <time>2016-05-08T09:41:35Z</time>
      </trkpt>
      <trkpt lat="45.2891" lon="5.4372">
        <ele>633.393372</ele>
        <time>2016-05-08T09:41:39Z</time>
      </trkpt>
      <trkpt lat="45.28917" lon="5.43726">
        <ele>631.85553</ele>
        <time>2016-05-08T09:41:43Z</time>
      </trkpt>
      <trkpt lat="45.2892" lon="5.43733">
        <ele>631.212769</ele>
        <time>2016-05-08T09:41:47Z</time>
      </trkpt>
      <trkpt lat="45.28919" lon="5.43741">
        <ele>629.305725</ele>
        <time>2016-05-08T09:41:51Z</time>
      </trkpt>
      <trkpt lat="45.28921" lon="5.43747">
        <ele>628.630615</ele>
        <time>2016-05-08T09:41:55Z</time>
      </trkpt>
      <trkpt lat="45.28922" lon="5.43755">
        <ele>627.818054</ele>
        <time>2016-05-08T09:42:00Z</time>
      </trkpt>
      <trkpt lat="45.28925" lon="5.43763">
        <ele>627.948608</ele>
        <time>2016-05-08T09:42:04Z</time>
      </trkpt>
      <trkpt lat="45.28925" lon="5.43769">
        <ele>627.133057</ele>
        <time>2016-05-08T09:42:07Z</time>
      </trkpt>
      <trkpt lat="45.2893" lon="5.43778">
        <ele>627.937378</ele>
        <time>2016-05-08T09:42:11Z</time>
      </trkpt>
      <trkpt lat="45.28933" lon="5.43784">
        <ele>628.45459</ele>
        <time>2016-05-08T09:42:14Z</time>
      </trkpt>
      <trkpt lat="45.28936" lon="5.43791">
        <ele>628.656982</ele>
        <time>2016-05-08T09:42:18Z</time>
      </trkpt>
      <trkpt lat="45.28939" lon="5.43797">
        <ele>629.352478</ele>
        <time>2016-05-08T09:42:21Z</time>
      </trkpt>
      <trkpt lat="45.28942" lon="5.43803">
        <ele>629.904907</ele>
        <time>2016-05-08T09:42:25Z</time>
      </trkpt>
      <trkpt lat="45.28943" lon="5.4381">
        <ele>629.432495</ele>
        <time>2016-05-08T09:42:29Z</time>
      </trkpt>
      <trkpt lat="45.28942" lon="5.43819">
        <ele>627.668701</ele>
        <time>2016-05-08T09:42:33Z</time>
      </trkpt>
      <trkpt lat="45.28943" lon="5.43825">
        <ele>627.012939</ele>
        <time>2016-05-08T09:42:36Z</time>
      </trkpt>
      <trkpt lat="45.28945" lon="5.43835">
        <ele>626.521973</ele>
        <time>2016-05-08T09:42:40Z</time>
      </trkpt>
      <trkpt lat="45.28949" lon="5.43847">
        <ele>627.343018</ele>
        <time>2016-05-08T09:42:44Z</time>
      </trkpt>
      <trkpt lat="45.28953" lon="5.43856">
        <ele>628.27771</ele>
        <time>2016-05-08T09:42:48Z</time>
      </trkpt>
      <trkpt lat="45.28951" lon="5.43874">
        <ele>625.784668</ele>
        <time>2016-05-08T09:42:52Z</time>
      </trkpt>
      <trkpt lat="45.28949" lon="5.43885">
        <ele>623.958374</ele>
        <time>2016-05-08T09:42:55Z</time>
      </trkpt>
      <trkpt lat="45.28951" lon="5.43902">
        <ele>623.045044</ele>
        <time>2016-05-08T09:42:59Z</time>
      </trkpt>
      <trkpt lat="45.28951" lon="5.43914">
        <ele>622.259888</ele>
        <time>2016-05-08T09:43:02Z</time>
      </trkpt>
      <trkpt lat="45.28952" lon="5.43923">
        <ele>621.822815</ele>
        <time>2016-05-08T09:43:05Z</time>
      </trkpt>
      <trkpt lat="45.28955" lon="5.43934">
        <ele>622.511841</ele>
        <time>2016-05-08T09:43:09Z</time>
      </trkpt>
      <trkpt lat="45.28958" lon="5.43942">
        <ele>623.324707</ele>
        <time>2016-05-08T09:43:13Z</time>
      </trkpt>
      <trkpt lat="45.2896" lon="5.43954">
        <ele>623.279541</ele>
        <time>2016-05-08T09:43:17Z</time>
      </trkpt>
      <trkpt lat="45.28962" lon="5.43961">
        <ele>623.39679</ele>
        <time>2016-05-08T09:43:20Z</time>
      </trkpt>
      <trkpt lat="45.28963" lon="5.4397">
        <ele>623.161499</ele>
        <time>2016-05-08T09:43:24Z</time>
      </trkpt>
      <trkpt lat="45.28963" lon="5.43978">
        <ele>622.489014</ele>
        <time>2016-05-08T09:43:27Z</time>
      </trkpt>
      <trkpt lat="45.28962" lon="5.43986">
        <ele>621.812866</ele>
        <time>2016-05-08T09:43:30Z</time>
      </trkpt>
      <trkpt lat="45.28962" lon="5.43996">
        <ele>620.871216</ele>
        <time>2016-05-08T09:43:33Z</time>
      </trkpt>
      <trkpt lat="45.28961" lon="5.44009">
        <ele>619.802734</ele>
        <time>2016-05-08T09:43:37Z</time>
      </trkpt>
      <trkpt lat="45.2896" lon="5.44019">
        <ele>619.12793</ele>
        <time>2016-05-08T09:43:41Z</time>
      </trkpt>
      <trkpt lat="45.28961" lon="5.44027">
        <ele>618.806641</ele>
        <time>2016-05-08T09:43:44Z</time>
      </trkpt>
      <trkpt lat="45.28963" lon="5.44035">
        <ele>619.086548</ele>
        <time>2016-05-08T09:43:48Z</time>
      </trkpt>
      <trkpt lat="45.28966" lon="5.44041">
        <ele>619.4021</ele>
        <time>2016-05-08T09:43:51Z</time>
      </trkpt>
      <trkpt lat="45.28971" lon="5.44049">
        <ele>620.460266</ele>
        <time>2016-05-08T09:43:55Z</time>
      </trkpt>
      <trkpt lat="45.28976" lon="5.44054">
        <ele>621.442505</ele>
        <time>2016-05-08T09:43:59Z</time>
      </trkpt>
      <trkpt lat="45.28983" lon="5.44057">
        <ele>622.983093</ele>
        <time>2016-05-08T09:44:03Z</time>
      </trkpt>
      <trkpt lat="45.28988" lon="5.44061">
        <ele>623.925049</ele>
        <time>2016-05-08T09:44:06Z</time>
      </trkpt>
      <trkpt lat="45.28994" lon="5.44065">
        <ele>625.208679</ele>
        <time>2016-05-08T09:44:10Z</time>
      </trkpt>
      <trkpt lat="45.28998" lon="5.44068">
        <ele>625.970337</ele>
        <time>2016-05-08T09:44:13Z</time>
      </trkpt>
      <trkpt lat="45.29002" lon="5.44072">
        <ele>625.966125</ele>
        <time>2016-05-08T09:44:17Z</time>
      </trkpt>
      <trkpt lat="45.29007" lon="5.44075">
        <ele>625.360107</ele>
        <time>2016-05-08T09:44:21Z</time>
      </trkpt>
      <trkpt lat="45.29011" lon="5.44076">
        <ele>624.941528</ele>
        <time>2016-05-08T09:44:25Z</time>
      </trkpt>
      <trkpt lat="45.29019" lon="5.44072">
        <ele>624.862915</ele>
        <time>2016-05-08T09:44:29Z</time>
      </trkpt>
      <trkpt lat="45.29024" lon="5.44071">
        <ele>624.720337</ele>
        <time>2016-05-08T09:44:32Z</time>
      </trkpt>
      <trkpt lat="45.29031" lon="5.44067">
        <ele>624.846069</ele>
        <time>2016-05-08T09:44:36Z</time>
      </trkpt>
      <trkpt lat="45.29038" lon="5.44063">
        <ele>625.153687</ele>
        <time>2016-05-08T09:44:39Z</time>
      </trkpt>
      <trkpt lat="45.29042" lon="5.44055">
        <ele>626.183044</ele>
        <time>2016-05-08T09:44:43Z</time>
      </trkpt>
      <trkpt lat="45.29043" lon="5.44048">
        <ele>627.376221</ele>
        <time>2016-05-08T09:44:47Z</time>
      </trkpt>
      <trkpt lat="45.29049" lon="5.4404">
        <ele>628.798706</ele>
        <time>2016-05-08T09:44:51Z</time>
      </trkpt>
      <trkpt lat="45.29054" lon="5.44033">
        <ele>630.07251</ele>
        <time>2016-05-08T09:44:54Z</time>
      </trkpt>
      <trkpt lat="45.29059" lon="5.44021">
        <ele>632.382874</ele>
        <time>2016-05-08T09:44:58Z</time>
      </trkpt>
      <trkpt lat="45.29064" lon="5.4401">
        <ele>634.794739</ele>
        <time>2016-05-08T09:45:02Z</time>
      </trkpt>
      <trkpt lat="45.29069" lon="5.44003">
        <ele>636.386536</ele>
        <time>2016-05-08T09:45:05Z</time>
      </trkpt>
      <trkpt lat="45.29075" lon="5.43994">
        <ele>639.217529</ele>
        <time>2016-05-08T09:45:09Z</time>
      </trkpt>
      <trkpt lat="45.29079" lon="5.43986">
        <ele>641.803711</ele>
        <time>2016-05-08T09:45:12Z</time>
      </trkpt>
      <trkpt lat="45.29082" lon="5.43975">
        <ele>645.338806</ele>
        <time>2016-05-08T09:45:16Z</time>
      </trkpt>
      <trkpt lat="45.29084" lon="5.43966">
        <ele>648.006714</ele>
        <time>2016-05-08T09:45:19Z</time>
      </trkpt>
      <trkpt lat="45.29087" lon="5.43956">
        <ele>650.790527</ele>
        <time>2016-05-08T09:45:23Z</time>
      </trkpt>
      <trkpt lat="45.29089" lon="5.43948">
        <ele>652.914856</ele>
        <time>2016-05-08T09:45:26Z</time>
      </trkpt>
      <trkpt lat="45.29092" lon="5.43941">
        <ele>654.643066</ele>
        <time>2016-05-08T09:45:29Z</time>
      </trkpt>
      <trkpt lat="45.29097" lon="5.43934">
        <ele>656.164673</ele>
        <time>2016-05-08T09:45:33Z</time>
      </trkpt>
      <trkpt lat="45.29101" lon="5.43927">
        <ele>657.835205</ele>
        <time>2016-05-08T09:45:36Z</time>
      </trkpt>
      <trkpt lat="45.29107" lon="5.4392">
        <ele>659.295471</ele>
        <time>2016-05-08T09:45:40Z</time>
      </trkpt>
      <trkpt lat="45.29111" lon="5.43915">
        <ele>660.012207</ele>
        <time>2016-05-08T09:45:43Z</time>
      </trkpt>
      <trkpt lat="45.29117" lon="5.43907">
        <ele>661.234802</ele>
        <time>2016-05-08T09:45:47Z</time>
      </trkpt>
      <trkpt lat="45.29122" lon="5.439">
        <ele>662.4104</ele>
        <time>2016-05-08T09:45:51Z</time>
      </trkpt>
      <trkpt lat="45.29125" lon="5.43894">
        <ele>663.511597</ele>
        <time>2016-05-08T09:45:54Z</time>
      </trkpt>
      <trkpt lat="45.29129" lon="5.43886">
        <ele>664.971924</ele>
        <time>2016-05-08T09:45:58Z</time>
      </trkpt>
      <trkpt lat="45.29133" lon="5.43881">
        <ele>665.999023</ele>
        <time>2016-05-08T09:46:01Z</time>
      </trkpt>
      <trkpt lat="45.29138" lon="5.43873">
        <ele>667.505981</ele>
        <time>2016-05-08T09:46:05Z</time>
      </trkpt>
      <trkpt lat="45.29141" lon="5.43867">
        <ele>668.788696</ele>
        <time>2016-05-08T09:46:08Z</time>
      </trkpt>
      <trkpt lat="45.29145" lon="5.43858">
        <ele>670.578369</ele>
        <time>2016-05-08T09:46:12Z</time>
      </trkpt>
      <trkpt lat="45.29152" lon="5.43851">
        <ele>672.21582</ele>
        <time>2016-05-08T09:46:16Z</time>
      </trkpt>
      <trkpt lat="45.29157" lon="5.43843">
        <ele>673.924805</ele>
        <time>2016-05-08T09:46:20Z</time>
      </trkpt>
      <trkpt lat="45.29162" lon="5.43837">
        <ele>675.316772</ele>
        <time>2016-05-08T09:46:23Z</time>
      </trkpt>
      <trkpt lat="45.29168" lon="5.43829">
        <ele>677.099182</ele>
        <time>2016-05-08T09:46:27Z</time>
      </trkpt>
      <trkpt lat="45.29172" lon="5.43821">
        <ele>679.018311</ele>
        <time>2016-05-08T09:46:31Z</time>
      </trkpt>
      <trkpt lat="45.29175" lon="5.43813">
        <ele>680.783813</ele>
        <time>2016-05-08T09:46:35Z</time>
      </trkpt>
      <trkpt lat="45.29178" lon="5.43806">
        <ele>682.420654</ele>
        <time>2016-05-08T09:46:38Z</time>
      </trkpt>
      <trkpt lat="45.29183" lon="5.43799">
        <ele>684.064819</ele>
        <time>2016-05-08T09:46:42Z</time>
      </trkpt>
      <trkpt lat="45.29189" lon="5.43793">
        <ele>685.309265</ele>
        <time>2016-05-08T09:46:46Z</time>
      </trkpt>
      <trkpt lat="45.29194" lon="5.43789">
        <ele>686.24353</ele>
        <time>2016-05-08T09:46:49Z</time>
      </trkpt>
      <trkpt lat="45.29201" lon="5.43783">
        <ele>687.484863</ele>
        <time>2016-05-08T09:46:53Z</time>
      </trkpt>
      <trkpt lat="45.29205" lon="5.43779">
        <ele>688.290588</ele>
        <time>2016-05-08T09:46:56Z</time>
      </trkpt>
      <trkpt lat="45.29212" lon="5.43776">
        <ele>688.729004</ele>
        <time>2016-05-08T09:47:00Z</time>
      </trkpt>
      <trkpt lat="45.29219" lon="5.43776">
        <ele>688.665039</ele>
        <time>2016-05-08T09:47:03Z</time>
      </trkpt>
      <trkpt lat="45.29226" lon="5.43777">
        <ele>688.150879</ele>
        <time>2016-05-08T09:47:07Z</time>
      </trkpt>
      <trkpt lat="45.29232" lon="5.43779">
        <ele>687.374878</ele>
        <time>2016-05-08T09:47:11Z</time>
      </trkpt>
      <trkpt lat="45.2924" lon="5.43785">
        <ele>685.644165</ele>
        <time>2016-05-08T09:47:15Z</time>
      </trkpt>
      <trkpt lat="45.29244" lon="5.43787">
        <ele>684.894897</ele>
        <time>2016-05-08T09:47:18Z</time>
      </trkpt>
      <trkpt lat="45.2925" lon="5.43789">
        <ele>684.194946</ele>
        <time>2016-05-08T09:47:21Z</time>
      </trkpt>
      <trkpt lat="45.29257" lon="5.43794">
        <ele>683.527832</ele>
        <time>2016-05-08T09:47:24Z</time>
      </trkpt>
      <trkpt lat="45.29263" lon="5.43802">
        <ele>682.065308</ele>
        <time>2016-05-08T09:47:28Z</time>
      </trkpt>
      <trkpt lat="45.2927" lon="5.43808">
        <ele>681.273682</ele>
        <time>2016-05-08T09:47:32Z</time>
      </trkpt>
      <trkpt lat="45.29274" lon="5.43812">
        <ele>680.6604</ele>
        <time>2016-05-08T09:47:35Z</time>
      </trkpt>
      <trkpt lat="45.29278" lon="5.4382">
        <ele>679.499023</ele>
        <time>2016-05-08T09:47:39Z</time>
      </trkpt>
      <trkpt lat="45.2928" lon="5.4383">
        <ele>677.691528</ele>
        <time>2016-05-08T09:47:42Z</time>
      </trkpt>
      <trkpt lat="45.2928" lon="5.4384">
        <ele>675.737061</ele>
        <time>2016-05-08T09:47:46Z</time>
      </trkpt>
      <trkpt lat="45.2928" lon="5.43851">
        <ele>673.856506</ele>
        <time>2016-05-08T09:47:50Z</time>
      </trkpt>
      <trkpt lat="45.29281" lon="5.43859">
        <ele>672.523987</ele>
        <time>2016-05-08T09:47:54Z</time>
      </trkpt>
      <trkpt lat="45.29282" lon="5.43867">
        <ele>671.166809</ele>
        <time>2016-05-08T09:47:57Z</time>
      </trkpt>
      <trkpt lat="45.29282" lon="5.43876">
        <ele>669.679932</ele>
        <time>2016-05-08T09:48:00Z</time>
      </trkpt>
      <trkpt lat="45.29282" lon="5.43886">
        <ele>667.920532</ele>
        <time>2016-05-08T09:48:03Z</time>
      </trkpt>
      <trkpt lat="45.29284" lon="5.43901">
        <ele>665.631104</ele>
        <time>2016-05-08T09:48:07Z</time>
      </trkpt>
      <trkpt lat="45.29286" lon="5.43913">
        <ele>664.189087</ele>
        <time>2016-05-08T09:48:11Z</time>
      </trkpt>
      <trkpt lat="45.29288" lon="5.43923">
        <ele>662.955444</ele>
        <time>2016-05-08T09:48:15Z</time>
      </trkpt>
      <trkpt lat="45.2929" lon="5.43934">
        <ele>661.735596</ele>
        <time>2016-05-08T09:48:19Z</time>
      </trkpt>
      <trkpt lat="45.29291" lon="5.43942">
        <ele>660.927368</ele>
        <time>2016-05-08T09:48:22Z</time>
      </trkpt>
      <trkpt lat="45.29293" lon="5.43952">
        <ele>660.04895</ele>
        <time>2016-05-08T09:48:26Z</time>
      </trkpt>
      <trkpt lat="45.29295" lon="5.43959">
        <ele>659.320129</ele>
        <time>2016-05-08T09:48:29Z</time>
      </trkpt>
      <trkpt lat="45.29298" lon="5.4397">
        <ele>658.338257</ele>
        <time>2016-05-08T09:48:33Z</time>
      </trkpt>
      <trkpt lat="45.29301" lon="5.4398">
        <ele>657.559814</ele>
        <time>2016-05-08T09:48:37Z</time>
      </trkpt>
      <trkpt lat="45.29303" lon="5.43988">
        <ele>657.186829</ele>
        <time>2016-05-08T09:48:40Z</time>
      </trkpt>
      <trkpt lat="45.29307" lon="5.43999">
        <ele>656.494324</ele>
        <time>2016-05-08T09:48:44Z</time>
      </trkpt>
      <trkpt lat="45.29309" lon="5.44006">
        <ele>656.330566</ele>
        <time>2016-05-08T09:48:47Z</time>
      </trkpt>
      <trkpt lat="45.29313" lon="5.44015">
        <ele>656.235291</ele>
        <time>2016-05-08T09:48:51Z</time>
      </trkpt>
      <trkpt lat="45.29319" lon="5.44022">
        <ele>656.779419</ele>
        <time>2016-05-08T09:48:55Z</time>
      </trkpt>
      <trkpt lat="45.29323" lon="5.44026">
        <ele>657.610535</ele>
        <time>2016-05-08T09:48:58Z</time>
      </trkpt>
      <trkpt lat="45.29328" lon="5.44027">
        <ele>658.580444</ele>
        <time>2016-05-08T09:49:01Z</time>
      </trkpt>
      <trkpt lat="45.29335" lon="5.44029">
        <ele>660.043518</ele>
        <time>2016-05-08T09:49:05Z</time>
      </trkpt>
      <trkpt lat="45.29339" lon="5.44028">
        <ele>660.683228</ele>
        <time>2016-05-08T09:49:10Z</time>
      </trkpt>
      <trkpt lat="45.29346" lon="5.44025">
        <ele>661.902039</ele>
        <time>2016-05-08T09:49:14Z</time>
      </trkpt>
      <trkpt lat="45.29364" lon="5.44012">
        <ele>666.257446</ele>
        <time>2016-05-08T09:49:18Z</time>
      </trkpt>
      <trkpt lat="45.29387" lon="5.43998">
        <ele>672.08667</ele>
        <time>2016-05-08T09:49:21Z</time>
      </trkpt>
      <trkpt lat="45.29419" lon="5.43995">
        <ele>676.952271</ele>
        <time>2016-05-08T09:49:25Z</time>
      </trkpt>
      <trkpt lat="45.2945" lon="5.43997">
        <ele>680.457336</ele>
        <time>2016-05-08T09:49:28Z</time>
      </trkpt>
      <trkpt lat="45.2947" lon="5.43996">
        <ele>683.13385</ele>
        <time>2016-05-08T09:49:32Z</time>
      </trkpt>
      <trkpt lat="45.29484" lon="5.44003">
        <ele>683.352905</ele>
        <time>2016-05-08T09:49:35Z</time>
      </trkpt>
      <trkpt lat="45.29496" lon="5.44002">
        <ele>685.054688</ele>
        <time>2016-05-08T09:49:38Z</time>
      </trkpt>
      <trkpt lat="45.29509" lon="5.44">
        <ele>687.460327</ele>
        <time>2016-05-08T09:49:42Z</time>
      </trkpt>
      <trkpt lat="45.29528" lon="5.43999">
        <ele>690.411865</ele>
        <time>2016-05-08T09:49:46Z</time>
      </trkpt>
      <trkpt lat="45.29538" lon="5.43994">
        <ele>693.01416</ele>
        <time>2016-05-08T09:49:49Z</time>
      </trkpt>
      <trkpt lat="45.29549" lon="5.43987">
        <ele>695.928833</ele>
        <time>2016-05-08T09:49:52Z</time>
      </trkpt>
      <trkpt lat="45.29565" lon="5.43983">
        <ele>699.363037</ele>
        <time>2016-05-08T09:49:56Z</time>
      </trkpt>
      <trkpt lat="45.29575" lon="5.43982">
        <ele>701.044861</ele>
        <time>2016-05-08T09:49:59Z</time>
      </trkpt>
      <trkpt lat="45.29584" lon="5.4399">
        <ele>700.924805</ele>
        <time>2016-05-08T09:50:02Z</time>
      </trkpt>
      <trkpt lat="45.29597" lon="5.43999">
        <ele>699.876465</ele>
        <time>2016-05-08T09:50:06Z</time>
      </trkpt>
      <trkpt lat="45.29609" lon="5.44005">
        <ele>699.255066</ele>
        <time>2016-05-08T09:50:09Z</time>
      </trkpt>
      <trkpt lat="45.29622" lon="5.44006">
        <ele>699.664673</ele>
        <time>2016-05-08T09:50:13Z</time>
      </trkpt>
      <trkpt lat="45.29633" lon="5.44007">
        <ele>700.164856</ele>
        <time>2016-05-08T09:50:17Z</time>
      </trkpt>
      <trkpt lat="45.29642" lon="5.44007">
        <ele>700.687378</ele>
        <time>2016-05-08T09:50:21Z</time>
      </trkpt>
      <trkpt lat="45.2965" lon="5.44008">
        <ele>700.98938</ele>
        <time>2016-05-08T09:50:24Z</time>
      </trkpt>
      <trkpt lat="45.29655" lon="5.44012">
        <ele>700.792969</ele>
        <time>2016-05-08T09:50:29Z</time>
      </trkpt>
      <trkpt lat="45.29658" lon="5.44019">
        <ele>700.130859</ele>
        <time>2016-05-08T09:50:35Z</time>
      </trkpt>
      <trkpt lat="45.29662" lon="5.44022">
        <ele>699.975952</ele>
        <time>2016-05-08T09:50:38Z</time>
      </trkpt>
      <trkpt lat="45.29667" lon="5.44031">
        <ele>699.28064</ele>
        <time>2016-05-08T09:50:42Z</time>
      </trkpt>
      <trkpt lat="45.29668" lon="5.44038">
        <ele>698.505127</ele>
        <time>2016-05-08T09:50:45Z</time>
      </trkpt>
      <trkpt lat="45.29666" lon="5.44045">
        <ele>697.571106</ele>
        <time>2016-05-08T09:50:48Z</time>
      </trkpt>
      <trkpt lat="45.29664" lon="5.44051">
        <ele>696.476135</ele>
        <time>2016-05-08T09:50:51Z</time>
      </trkpt>
      <trkpt lat="45.29662" lon="5.44059">
        <ele>695.267334</ele>
        <time>2016-05-08T09:50:55Z</time>
      </trkpt>
      <trkpt lat="45.2966" lon="5.44069">
        <ele>693.643494</ele>
        <time>2016-05-08T09:50:59Z</time>
      </trkpt>
      <trkpt lat="45.29657" lon="5.44078">
        <ele>692.000488</ele>
        <time>2016-05-08T09:51:02Z</time>
      </trkpt>
      <trkpt lat="45.29653" lon="5.44093">
        <ele>689.82666</ele>
        <time>2016-05-08T09:51:06Z</time>
      </trkpt>
      <trkpt lat="45.29647" lon="5.4411">
        <ele>687.291992</ele>
        <time>2016-05-08T09:51:10Z</time>
      </trkpt>
      <trkpt lat="45.29645" lon="5.44117">
        <ele>686.150513</ele>
        <time>2016-05-08T09:51:13Z</time>
      </trkpt>
      <trkpt lat="45.29641" lon="5.44128">
        <ele>683.939331</ele>
        <time>2016-05-08T09:51:17Z</time>
      </trkpt>
      <trkpt lat="45.29637" lon="5.44136">
        <ele>682.179626</ele>
        <time>2016-05-08T09:51:21Z</time>
      </trkpt>
      <trkpt lat="45.29634" lon="5.44145">
        <ele>680.281738</ele>
        <time>2016-05-08T09:51:25Z</time>
      </trkpt>
      <trkpt lat="45.29631" lon="5.44152">
        <ele>678.752747</ele>
        <time>2016-05-08T09:51:28Z</time>
      </trkpt>
      <trkpt lat="45.29628" lon="5.4416">
        <ele>676.753052</ele>
        <time>2016-05-08T09:51:32Z</time>
      </trkpt>
      <trkpt lat="45.29624" lon="5.44165">
        <ele>674.935303</ele>
        <time>2016-05-08T09:51:35Z</time>
      </trkpt>
      <trkpt lat="45.29622" lon="5.44174">
        <ele>673.650757</ele>
        <time>2016-05-08T09:51:38Z</time>
      </trkpt>
      <trkpt lat="45.29619" lon="5.44185">
        <ele>671.670532</ele>
        <time>2016-05-08T09:51:42Z</time>
      </trkpt>
      <trkpt lat="45.29613" lon="5.44194">
        <ele>669.057251</ele>
        <time>2016-05-08T09:51:46Z</time>
      </trkpt>
      <trkpt lat="45.29611" lon="5.442">
        <ele>667.760498</ele>
        <time>2016-05-08T09:51:49Z</time>
      </trkpt>
      <trkpt lat="45.29615" lon="5.44199">
        <ele>669.500488</ele>
        <time>2016-05-08T09:51:59Z</time>
      </trkpt>
      <trkpt lat="45.2962" lon="5.44196">
        <ele>671.289917</ele>
        <time>2016-05-08T09:52:07Z</time>
      </trkpt>
      <trkpt lat="45.29624" lon="5.44192">
        <ele>672.83606</ele>
        <time>2016-05-08T09:52:13Z</time>
      </trkpt>
      <trkpt lat="45.29628" lon="5.44189">
        <ele>674.502625</ele>
        <time>2016-05-08T09:52:27Z</time>
      </trkpt>
      <trkpt lat="45.29633" lon="5.44187">
        <ele>676.414551</ele>
        <time>2016-05-08T09:52:34Z</time>
      </trkpt>
      <trkpt lat="45.29638" lon="5.44185">
        <ele>678.089478</ele>
        <time>2016-05-08T09:52:41Z</time>
      </trkpt>
      <trkpt lat="45.29642" lon="5.44182">
        <ele>679.826538</ele>
        <time>2016-05-08T09:52:48Z</time>
      </trkpt>
      <trkpt lat="45.29646" lon="5.44178">
        <ele>681.340271</ele>
        <time>2016-05-08T09:52:56Z</time>
      </trkpt>
      <trkpt lat="45.2965" lon="5.44174">
        <ele>683.079163</ele>
        <time>2016-05-08T09:53:10Z</time>
      </trkpt>
      <trkpt lat="45.29654" lon="5.44168">
        <ele>684.548401</ele>
        <time>2016-05-08T09:53:14Z</time>
      </trkpt>
      <trkpt lat="45.29658" lon="5.44163">
        <ele>686.439697</ele>
        <time>2016-05-08T09:53:18Z</time>
      </trkpt>
      <trkpt lat="45.29662" lon="5.44159">
        <ele>687.871155</ele>
        <time>2016-05-08T09:53:21Z</time>
      </trkpt>
      <trkpt lat="45.29667" lon="5.44152">
        <ele>689.802063</ele>
        <time>2016-05-08T09:53:25Z</time>
      </trkpt>
      <trkpt lat="45.29672" lon="5.4415">
        <ele>690.794312</ele>
        <time>2016-05-08T09:53:28Z</time>
      </trkpt>
      <trkpt lat="45.29677" lon="5.44146">
        <ele>691.721497</ele>
        <time>2016-05-08T09:53:31Z</time>
      </trkpt>
      <trkpt lat="45.2968" lon="5.4414">
        <ele>692.533508</ele>
        <time>2016-05-08T09:53:34Z</time>
      </trkpt>
      <trkpt lat="45.29685" lon="5.44134">
        <ele>693.386108</ele>
        <time>2016-05-08T09:53:38Z</time>
      </trkpt>
      <trkpt lat="45.2969" lon="5.44133">
        <ele>694.201111</ele>
        <time>2016-05-08T09:53:43Z</time>
      </trkpt>
      <trkpt lat="45.29693" lon="5.44129">
        <ele>694.798706</ele>
        <time>2016-05-08T09:53:47Z</time>
      </trkpt>
      <trkpt lat="45.29699" lon="5.44125">
        <ele>695.595581</ele>
        <time>2016-05-08T09:53:50Z</time>
      </trkpt>
      <trkpt lat="45.29705" lon="5.44122">
        <ele>696.488403</ele>
        <time>2016-05-08T09:53:54Z</time>
      </trkpt>
      <trkpt lat="45.29709" lon="5.44116">
        <ele>697.00769</ele>
        <time>2016-05-08T09:53:58Z</time>
      </trkpt>
      <trkpt lat="45.29713" lon="5.44111">
        <ele>697.420471</ele>
        <time>2016-05-08T09:54:02Z</time>
      </trkpt>
      <trkpt lat="45.29717" lon="5.44106">
        <ele>697.792969</ele>
        <time>2016-05-08T09:54:06Z</time>
      </trkpt>
      <trkpt lat="45.29721" lon="5.44101">
        <ele>698.058838</ele>
        <time>2016-05-08T09:54:11Z</time>
      </trkpt>
      <trkpt lat="45.29722" lon="5.44094">
        <ele>697.998596</ele>
        <time>2016-05-08T09:54:15Z</time>
      </trkpt>
      <trkpt lat="45.29726" lon="5.4409">
        <ele>698.178162</ele>
        <time>2016-05-08T09:54:19Z</time>
      </trkpt>
      <trkpt lat="45.29729" lon="5.44086">
        <ele>698.37439</ele>
        <time>2016-05-08T09:54:23Z</time>
      </trkpt>
      <trkpt lat="45.29733" lon="5.44081">
        <ele>698.79126</ele>
        <time>2016-05-08T09:54:27Z</time>
      </trkpt>
      <trkpt lat="45.29739" lon="5.44079">
        <ele>699.405762</ele>
        <time>2016-05-08T09:54:31Z</time>
      </trkpt>
      <trkpt lat="45.29744" lon="5.44077">
        <ele>700.039551</ele>
        <time>2016-05-08T09:54:36Z</time>
      </trkpt>
      <trkpt lat="45.29748" lon="5.44074">
        <ele>700.588806</ele>
        <time>2016-05-08T09:54:40Z</time>
      </trkpt>
      <trkpt lat="45.29752" lon="5.4407">
        <ele>701.49353</ele>
        <time>2016-05-08T09:54:44Z</time>
      </trkpt>
      <trkpt lat="45.29756" lon="5.44065">
        <ele>702.725342</ele>
        <time>2016-05-08T09:54:49Z</time>
      </trkpt>
      <trkpt lat="45.2976" lon="5.4406">
        <ele>703.959412</ele>
        <time>2016-05-08T09:54:53Z</time>
      </trkpt>
      <trkpt lat="45.29763" lon="5.44055">
        <ele>705.078125</ele>
        <time>2016-05-08T09:54:59Z</time>
      </trkpt>
      <trkpt lat="45.29767" lon="5.4405">
        <ele>706.110718</ele>
        <time>2016-05-08T09:55:03Z</time>
      </trkpt>
      <trkpt lat="45.29773" lon="5.44047">
        <ele>707.375854</ele>
        <time>2016-05-08T09:55:07Z</time>
      </trkpt>
      <trkpt lat="45.29777" lon="5.44044">
        <ele>708.445068</ele>
        <time>2016-05-08T09:55:12Z</time>
      </trkpt>
      <trkpt lat="45.29782" lon="5.44042">
        <ele>709.380737</ele>
        <time>2016-05-08T09:55:16Z</time>
      </trkpt>
      <trkpt lat="45.29786" lon="5.44038">
        <ele>710.354187</ele>
        <time>2016-05-08T09:55:21Z</time>
      </trkpt>
      <trkpt lat="45.29789" lon="5.44032">
        <ele>711.124146</ele>
        <time>2016-05-08T09:55:27Z</time>
      </trkpt>
      <trkpt lat="45.29792" lon="5.44027">
        <ele>711.858154</ele>
        <time>2016-05-08T09:55:33Z</time>
      </trkpt>
      <trkpt lat="45.29796" lon="5.44023">
        <ele>712.803345</ele>
        <time>2016-05-08T09:55:38Z</time>
      </trkpt>
      <trkpt lat="45.29801" lon="5.44019">
        <ele>713.672241</ele>
        <time>2016-05-08T09:55:42Z</time>
      </trkpt>
      <trkpt lat="45.29804" lon="5.44014">
        <ele>714.424194</ele>
        <time>2016-05-08T09:55:47Z</time>
      </trkpt>
      <trkpt lat="45.29808" lon="5.4401">
        <ele>715.114685</ele>
        <time>2016-05-08T09:55:52Z</time>
      </trkpt>
      <trkpt lat="45.29811" lon="5.44005">
        <ele>715.711426</ele>
        <time>2016-05-08T09:55:56Z</time>
      </trkpt>
      <trkpt lat="45.29815" lon="5.44">
        <ele>716.392883</ele>
        <time>2016-05-08T09:56:01Z</time>
      </trkpt>
      <trkpt lat="45.2982" lon="5.43997">
        <ele>717.230896</ele>
        <time>2016-05-08T09:56:06Z</time>
      </trkpt>
      <trkpt lat="45.29824" lon="5.43993">
        <ele>718.032898</ele>
        <time>2016-05-08T09:56:11Z</time>
      </trkpt>
      <trkpt lat="45.29829" lon="5.43991">
        <ele>718.778809</ele>
        <time>2016-05-08T09:56:15Z</time>
      </trkpt>
      <trkpt lat="45.29834" lon="5.43989">
        <ele>719.469116</ele>
        <time>2016-05-08T09:56:18Z</time>
      </trkpt>
      <trkpt lat="45.29839" lon="5.43988">
        <ele>720.093323</ele>
        <time>2016-05-08T09:56:23Z</time>
      </trkpt>
      <trkpt lat="45.29846" lon="5.43987">
        <ele>720.987793</ele>
        <time>2016-05-08T09:56:35Z</time>
      </trkpt>
      <trkpt lat="45.29851" lon="5.43987">
        <ele>721.625732</ele>
        <time>2016-05-08T09:56:44Z</time>
      </trkpt>
      <trkpt lat="45.29856" lon="5.43986">
        <ele>722.304749</ele>
        <time>2016-05-08T09:56:50Z</time>
      </trkpt>
      <trkpt lat="45.29861" lon="5.43986">
        <ele>722.87561</ele>
        <time>2016-05-08T09:56:54Z</time>
      </trkpt>
      <trkpt lat="45.29866" lon="5.43988">
        <ele>723.476562</ele>
        <time>2016-05-08T09:56:59Z</time>
      </trkpt>
      <trkpt lat="45.29871" lon="5.43988">
        <ele>724.12439</ele>
        <time>2016-05-08T09:57:04Z</time>
      </trkpt>
      <trkpt lat="45.29877" lon="5.43991">
        <ele>724.748779</ele>
        <time>2016-05-08T09:57:09Z</time>
      </trkpt>
      <trkpt lat="45.29881" lon="5.43993">
        <ele>725.258606</ele>
        <time>2016-05-08T09:57:13Z</time>
      </trkpt>
      <trkpt lat="45.29886" lon="5.43997">
        <ele>725.928772</ele>
        <time>2016-05-08T09:57:17Z</time>
      </trkpt>
      <trkpt lat="45.2989" lon="5.44">
        <ele>726.489807</ele>
        <time>2016-05-08T09:57:21Z</time>
      </trkpt>
      <trkpt lat="45.29896" lon="5.44002">
        <ele>727.290894</ele>
        <time>2016-05-08T09:57:25Z</time>
      </trkpt>
      <trkpt lat="45.299" lon="5.44005">
        <ele>727.952026</ele>
        <time>2016-05-08T09:57:28Z</time>
      </trkpt>
      <trkpt lat="45.29906" lon="5.44011">
        <ele>728.833374</ele>
        <time>2016-05-08T09:57:32Z</time>
      </trkpt>
      <trkpt lat="45.29909" lon="5.44017">
        <ele>729.357788</ele>
        <time>2016-05-08T09:57:35Z</time>
      </trkpt>
      <trkpt lat="45.29912" lon="5.44022">
        <ele>729.893005</ele>
        <time>2016-05-08T09:57:39Z</time>
      </trkpt>
      <trkpt lat="45.29916" lon="5.44028">
        <ele>730.556335</ele>
        <time>2016-05-08T09:57:44Z</time>
      </trkpt>
      <trkpt lat="45.29921" lon="5.44033">
        <ele>731.184814</ele>
        <time>2016-05-08T09:57:47Z</time>
      </trkpt>
      <trkpt lat="45.29942" lon="5.44053">
        <ele>733.028137</ele>
        <time>2016-05-08T09:57:51Z</time>
      </trkpt>
      <trkpt lat="45.29958" lon="5.44066">
        <ele>734.058105</ele>
        <time>2016-05-08T09:57:55Z</time>
      </trkpt>
      <trkpt lat="45.29964" lon="5.44073">
        <ele>734.388428</ele>
        <time>2016-05-08T09:57:59Z</time>
      </trkpt>
      <trkpt lat="45.29968" lon="5.44076">
        <ele>734.575562</ele>
        <time>2016-05-08T09:58:03Z</time>
      </trkpt>
      <trkpt lat="45.29972" lon="5.44079">
        <ele>734.752502</ele>
        <time>2016-05-08T09:58:10Z</time>
      </trkpt>
      <trkpt lat="45.29977" lon="5.44078">
        <ele>735.012939</ele>
        <time>2016-05-08T09:58:14Z</time>
      </trkpt>
      <trkpt lat="45.29982" lon="5.44076">
        <ele>735.305115</ele>
        <time>2016-05-08T09:58:18Z</time>
      </trkpt>
      <trkpt lat="45.29986" lon="5.44073">
        <ele>735.612915</ele>
        <time>2016-05-08T09:58:22Z</time>
      </trkpt>
      <trkpt lat="45.2999" lon="5.44068">
        <ele>735.960449</ele>
        <time>2016-05-08T09:58:26Z</time>
      </trkpt>
      <trkpt lat="45.29996" lon="5.44064">
        <ele>736.464417</ele>
        <time>2016-05-08T09:58:30Z</time>
      </trkpt>
      <trkpt lat="45.30002" lon="5.44059">
        <ele>736.976746</ele>
        <time>2016-05-08T09:58:33Z</time>
      </trkpt>
      <trkpt lat="45.30009" lon="5.44055">
        <ele>737.479553</ele>
        <time>2016-05-08T09:58:37Z</time>
      </trkpt>
      <trkpt lat="45.30012" lon="5.44051">
        <ele>737.802368</ele>
        <time>2016-05-08T09:58:40Z</time>
      </trkpt>
      <trkpt lat="45.30016" lon="5.44046">
        <ele>738.142212</ele>
        <time>2016-05-08T09:58:43Z</time>
      </trkpt>
      <trkpt lat="45.30021" lon="5.44041">
        <ele>738.539917</ele>
        <time>2016-05-08T09:58:47Z</time>
      </trkpt>
      <trkpt lat="45.30025" lon="5.44038">
        <ele>738.828369</ele>
        <time>2016-05-08T09:58:50Z</time>
      </trkpt>
      <trkpt lat="45.30032" lon="5.44034">
        <ele>739.219116</ele>
        <time>2016-05-08T09:58:54Z</time>
      </trkpt>
      <trkpt lat="45.30037" lon="5.44031">
        <ele>739.529053</ele>
        <time>2016-05-08T09:58:58Z</time>
      </trkpt>
      <trkpt lat="45.30041" lon="5.44029">
        <ele>739.785889</ele>
        <time>2016-05-08T09:59:02Z</time>
      </trkpt>
      <trkpt lat="45.30047" lon="5.44029">
        <ele>740.02655</ele>
        <time>2016-05-08T09:59:06Z</time>
      </trkpt>
      <trkpt lat="45.30052" lon="5.44028">
        <ele>740.296021</ele>
        <time>2016-05-08T09:59:10Z</time>
      </trkpt>
      <trkpt lat="45.30057" lon="5.44027">
        <ele>740.524597</ele>
        <time>2016-05-08T09:59:13Z</time>
      </trkpt>
      <trkpt lat="45.30063" lon="5.44025">
        <ele>740.806152</ele>
        <time>2016-05-08T09:59:17Z</time>
      </trkpt>
      <trkpt lat="45.30067" lon="5.44024">
        <ele>741.035583</ele>
        <time>2016-05-08T09:59:21Z</time>
      </trkpt>
      <trkpt lat="45.30073" lon="5.44022">
        <ele>741.285767</ele>
        <time>2016-05-08T09:59:25Z</time>
      </trkpt>
      <trkpt lat="45.30078" lon="5.44019">
        <ele>741.548645</ele>
        <time>2016-05-08T09:59:29Z</time>
      </trkpt>
      <trkpt lat="45.30083" lon="5.44015">
        <ele>741.804077</ele>
        <time>2016-05-08T09:59:33Z</time>
      </trkpt>
      <trkpt lat="45.30087" lon="5.44011">
        <ele>741.798706</ele>
        <time>2016-05-08T09:59:36Z</time>
      </trkpt>
      <trkpt lat="45.30091" lon="5.44007">
        <ele>741.749023</ele>
        <time>2016-05-08T09:59:39Z</time>
      </trkpt>
      <trkpt lat="45.30097" lon="5.44">
        <ele>741.682007</ele>
        <time>2016-05-08T09:59:43Z</time>
      </trkpt>
      <trkpt lat="45.30105" lon="5.4399">
        <ele>741.492126</ele>
        <time>2016-05-08T09:59:47Z</time>
      </trkpt>
      <trkpt lat="45.30112" lon="5.43986">
        <ele>741.302063</ele>
        <time>2016-05-08T09:59:50Z</time>
      </trkpt>
      <trkpt lat="45.30121" lon="5.43985">
        <ele>741.108154</ele>
        <time>2016-05-08T09:59:53Z</time>
      </trkpt>
      <trkpt lat="45.30132" lon="5.43989">
        <ele>740.831116</ele>
        <time>2016-05-08T09:59:57Z</time>
      </trkpt>
      <trkpt lat="45.30139" lon="5.43999">
        <ele>740.65802</ele>
        <time>2016-05-08T10:00:00Z</time>
      </trkpt>
      <trkpt lat="45.30146" lon="5.44017">
        <ele>740.452576</ele>
        <time>2016-05-08T10:00:04Z</time>
      </trkpt>
      <trkpt lat="45.30149" lon="5.44032">
        <ele>740.349304</ele>
        <time>2016-05-08T10:00:07Z</time>
      </trkpt>
      <trkpt lat="45.30152" lon="5.4405">
        <ele>740.252075</ele>
        <time>2016-05-08T10:00:11Z</time>
      </trkpt>
      <trkpt lat="45.30152" lon="5.44068">
        <ele>740.208496</ele>
        <time>2016-05-08T10:00:15Z</time>
      </trkpt>
      <trkpt lat="45.30152" lon="5.44081">
        <ele>740.177246</ele>
        <time>2016-05-08T10:00:18Z</time>
      </trkpt>
      <trkpt lat="45.30155" lon="5.44094">
        <ele>740.029785</ele>
        <time>2016-05-08T10:00:21Z</time>
      </trkpt>
      <trkpt lat="45.30161" lon="5.44118">
        <ele>739.896606</ele>
        <time>2016-05-08T10:00:25Z</time>
      </trkpt>
      <trkpt lat="45.30168" lon="5.44139">
        <ele>739.958191</ele>
        <time>2016-05-08T10:00:29Z</time>
      </trkpt>
      <trkpt lat="45.30172" lon="5.44153">
        <ele>739.85907</ele>
        <time>2016-05-08T10:00:32Z</time>
      </trkpt>
      <trkpt lat="45.30178" lon="5.44179">
        <ele>739.492676</ele>
        <time>2016-05-08T10:00:36Z</time>
      </trkpt>
      <trkpt lat="45.30183" lon="5.44211">
        <ele>738.866028</ele>
        <time>2016-05-08T10:00:39Z</time>
      </trkpt>
      <trkpt lat="45.30189" lon="5.44235">
        <ele>738.486633</ele>
        <time>2016-05-08T10:00:42Z</time>
      </trkpt>
      <trkpt lat="45.30194" lon="5.44264">
        <ele>737.933228</ele>
        <time>2016-05-08T10:00:45Z</time>
      </trkpt>
      <trkpt lat="45.30199" lon="5.44309">
        <ele>736.933533</ele>
        <time>2016-05-08T10:00:49Z</time>
      </trkpt>
      <trkpt lat="45.30207" lon="5.44356">
        <ele>736.215942</ele>
        <time>2016-05-08T10:00:53Z</time>
      </trkpt>
      <trkpt lat="45.30213" lon="5.44407">
        <ele>735.402222</ele>
        <time>2016-05-08T10:00:57Z</time>
      </trkpt>
      <trkpt lat="45.30232" lon="5.44466">
        <ele>736.991333</ele>
        <time>2016-05-08T10:01:01Z</time>
      </trkpt>
      <trkpt lat="45.30231" lon="5.44523">
        <ele>735.549072</ele>
        <time>2016-05-08T10:01:05Z</time>
      </trkpt>
      <trkpt lat="45.30229" lon="5.44548">
        <ele>734.241943</ele>
        <time>2016-05-08T10:01:08Z</time>
      </trkpt>
      <trkpt lat="45.30225" lon="5.44571">
        <ele>732.527039</ele>
        <time>2016-05-08T10:01:11Z</time>
      </trkpt>
      <trkpt lat="45.30225" lon="5.44598">
        <ele>731.609192</ele>
        <time>2016-05-08T10:01:15Z</time>
      </trkpt>
      <trkpt lat="45.30224" lon="5.44613">
        <ele>730.918091</ele>
        <time>2016-05-08T10:01:18Z</time>
      </trkpt>
      <trkpt lat="45.30227" lon="5.44621">
        <ele>731.721619</ele>
        <time>2016-05-08T10:01:23Z</time>
      </trkpt>
      <trkpt lat="45.30233" lon="5.4463">
        <ele>733.056274</ele>
        <time>2016-05-08T10:01:27Z</time>
      </trkpt>
      <trkpt lat="45.30239" lon="5.44637">
        <ele>734.899536</ele>
        <time>2016-05-08T10:01:31Z</time>
      </trkpt>
      <trkpt lat="45.30245" lon="5.44642">
        <ele>736.369446</ele>
        <time>2016-05-08T10:01:34Z</time>
      </trkpt>
      <trkpt lat="45.30259" lon="5.44651">
        <ele>737.176025</ele>
        <time>2016-05-08T10:01:38Z</time>
      </trkpt>
      <trkpt lat="45.30288" lon="5.44659">
        <ele>734.631104</ele>
        <time>2016-05-08T10:01:42Z</time>
      </trkpt>
      <trkpt lat="45.3031" lon="5.44675">
        <ele>732.924438</ele>
        <time>2016-05-08T10:01:45Z</time>
      </trkpt>
      <trkpt lat="45.30328" lon="5.44689">
        <ele>732.062805</ele>
        <time>2016-05-08T10:01:49Z</time>
      </trkpt>
      <trkpt lat="45.30346" lon="5.44703">
        <ele>728.626831</ele>
        <time>2016-05-08T10:01:52Z</time>
      </trkpt>
      <trkpt lat="45.30379" lon="5.44709">
        <ele>719.131592</ele>
        <time>2016-05-08T10:01:56Z</time>
      </trkpt>
      <trkpt lat="45.30401" lon="5.4471">
        <ele>712.777466</ele>
        <time>2016-05-08T10:01:59Z</time>
      </trkpt>
      <trkpt lat="45.30428" lon="5.44721">
        <ele>705.805908</ele>
        <time>2016-05-08T10:02:03Z</time>
      </trkpt>
      <trkpt lat="45.30446" lon="5.44734">
        <ele>702.156738</ele>
        <time>2016-05-08T10:02:06Z</time>
      </trkpt>
      <trkpt lat="45.30478" lon="5.44739">
        <ele>694.839844</ele>
        <time>2016-05-08T10:02:10Z</time>
      </trkpt>
      <trkpt lat="45.30497" lon="5.44725">
        <ele>689.456909</ele>
        <time>2016-05-08T10:02:13Z</time>
      </trkpt>
      <trkpt lat="45.30502" lon="5.44727">
        <ele>688.509399</ele>
        <time>2016-05-08T10:02:16Z</time>
      </trkpt>
      <trkpt lat="45.30498" lon="5.44749">
        <ele>690.546387</ele>
        <time>2016-05-08T10:02:19Z</time>
      </trkpt>
      <trkpt lat="45.30475" lon="5.44766">
        <ele>696.262329</ele>
        <time>2016-05-08T10:02:23Z</time>
      </trkpt>
      <trkpt lat="45.30453" lon="5.44796">
        <ele>702.222046</ele>
        <time>2016-05-08T10:02:27Z</time>
      </trkpt>
      <trkpt lat="45.30426" lon="5.44826">
        <ele>709.522278</ele>
        <time>2016-05-08T10:02:31Z</time>
      </trkpt>
      <trkpt lat="45.30411" lon="5.44844">
        <ele>712.528137</ele>
        <time>2016-05-08T10:02:34Z</time>
      </trkpt>
      <trkpt lat="45.30402" lon="5.44855">
        <ele>713.258911</ele>
        <time>2016-05-08T10:02:37Z</time>
      </trkpt>
      <trkpt lat="45.30395" lon="5.4486">
        <ele>714.095032</ele>
        <time>2016-05-08T10:02:41Z</time>
      </trkpt>
      <trkpt lat="45.30395" lon="5.44873">
        <ele>713.369507</ele>
        <time>2016-05-08T10:02:45Z</time>
      </trkpt>
      <trkpt lat="45.30408" lon="5.449">
        <ele>710.494202</ele>
        <time>2016-05-08T10:02:49Z</time>
      </trkpt>
      <trkpt lat="45.30419" lon="5.44929">
        <ele>707.857422</ele>
        <time>2016-05-08T10:02:52Z</time>
      </trkpt>
      <trkpt lat="45.30433" lon="5.44961">
        <ele>702.731995</ele>
        <time>2016-05-08T10:02:55Z</time>
      </trkpt>
      <trkpt lat="45.30452" lon="5.45004">
        <ele>694.938354</ele>
        <time>2016-05-08T10:02:59Z</time>
      </trkpt>
      <trkpt lat="45.30466" lon="5.45032">
        <ele>690.094788</ele>
        <time>2016-05-08T10:03:02Z</time>
      </trkpt>
      <trkpt lat="45.30477" lon="5.45067">
        <ele>686.16864</ele>
        <time>2016-05-08T10:03:06Z</time>
      </trkpt>
      <trkpt lat="45.30484" lon="5.45098">
        <ele>685.308594</ele>
        <time>2016-05-08T10:03:10Z</time>
      </trkpt>
      <trkpt lat="45.30487" lon="5.4513">
        <ele>686.638123</ele>
        <time>2016-05-08T10:03:13Z</time>
      </trkpt>
      <trkpt lat="45.30479" lon="5.45176">
        <ele>690.5896</ele>
        <time>2016-05-08T10:03:17Z</time>
      </trkpt>
      <trkpt lat="45.30473" lon="5.4521">
        <ele>691.962708</ele>
        <time>2016-05-08T10:03:20Z</time>
      </trkpt>
      <trkpt lat="45.30481" lon="5.45246">
        <ele>691.249634</ele>
        <time>2016-05-08T10:03:24Z</time>
      </trkpt>
      <trkpt lat="45.30496" lon="5.45264">
        <ele>689.370117</ele>
        <time>2016-05-08T10:03:27Z</time>
      </trkpt>
      <trkpt lat="45.3052" lon="5.45285">
        <ele>684.181641</ele>
        <time>2016-05-08T10:03:31Z</time>
      </trkpt>
      <trkpt lat="45.30551" lon="5.45306">
        <ele>677.820557</ele>
        <time>2016-05-08T10:03:35Z</time>
      </trkpt>
      <trkpt lat="45.30573" lon="5.45321">
        <ele>673.60498</ele>
        <time>2016-05-08T10:03:39Z</time>
      </trkpt>
      <trkpt lat="45.30592" lon="5.45336">
        <ele>670.879578</ele>
        <time>2016-05-08T10:03:42Z</time>
      </trkpt>
      <trkpt lat="45.30617" lon="5.45362">
        <ele>668.930298</ele>
        <time>2016-05-08T10:03:46Z</time>
      </trkpt>
      <trkpt lat="45.30628" lon="5.45386">
        <ele>668.786926</ele>
        <time>2016-05-08T10:03:49Z</time>
      </trkpt>
      <trkpt lat="45.30625" lon="5.45418">
        <ele>671.602905</ele>
        <time>2016-05-08T10:03:52Z</time>
      </trkpt>
      <trkpt lat="45.30618" lon="5.45453">
        <ele>676.320557</ele>
        <time>2016-05-08T10:03:55Z</time>
      </trkpt>
      <trkpt lat="45.30613" lon="5.45484">
        <ele>680.424194</ele>
        <time>2016-05-08T10:03:58Z</time>
      </trkpt>
      <trkpt lat="45.30612" lon="5.45515">
        <ele>683.16925</ele>
        <time>2016-05-08T10:04:01Z</time>
      </trkpt>
      <trkpt lat="45.30609" lon="5.4554">
        <ele>685.04303</ele>
        <time>2016-05-08T10:04:05Z</time>
      </trkpt>
      <trkpt lat="45.30606" lon="5.45545">
        <ele>686.009705</ele>
        <time>2016-05-08T10:04:10Z</time>
      </trkpt>
      <trkpt lat="45.30608" lon="5.4555">
        <ele>685.985535</ele>
        <time>2016-05-08T10:14:03Z</time>
      </trkpt>
      <trkpt lat="45.30612" lon="5.45548">
        <ele>685.023315</ele>
        <time>2016-05-08T10:17:05Z</time>
      </trkpt>
      <trkpt lat="45.30612" lon="5.4554">
        <ele>684.519287</ele>
        <time>2016-05-08T10:17:14Z</time>
      </trkpt>
      <trkpt lat="45.30616" lon="5.45536">
        <ele>683.551392</ele>
        <time>2016-05-08T10:17:18Z</time>
      </trkpt>
      <trkpt lat="45.30624" lon="5.45537">
        <ele>682.033325</ele>
        <time>2016-05-08T10:17:22Z</time>
      </trkpt>
      <trkpt lat="45.30632" lon="5.45536">
        <ele>680.488464</ele>
        <time>2016-05-08T10:17:25Z</time>
      </trkpt>
      <trkpt lat="45.30643" lon="5.45535">
        <ele>678.362793</ele>
        <time>2016-05-08T10:17:28Z</time>
      </trkpt>
      <trkpt lat="45.30655" lon="5.45531">
        <ele>675.781494</ele>
        <time>2016-05-08T10:17:32Z</time>
      </trkpt>
      <trkpt lat="45.30665" lon="5.45528">
        <ele>673.641296</ele>
        <time>2016-05-08T10:17:36Z</time>
      </trkpt>
      <trkpt lat="45.30676" lon="5.45526">
        <ele>671.596985</ele>
        <time>2016-05-08T10:17:40Z</time>
      </trkpt>
      <trkpt lat="45.30685" lon="5.45524">
        <ele>669.996399</ele>
        <time>2016-05-08T10:17:43Z</time>
      </trkpt>
      <trkpt lat="45.30698" lon="5.45523">
        <ele>667.764771</ele>
        <time>2016-05-08T10:17:47Z</time>
      </trkpt>
      <trkpt lat="45.30712" lon="5.45525">
        <ele>665.667236</ele>
        <time>2016-05-08T10:17:51Z</time>
      </trkpt>
      <trkpt lat="45.30727" lon="5.4553">
        <ele>663.666565</ele>
        <time>2016-05-08T10:17:54Z</time>
      </trkpt>
      <trkpt lat="45.30745" lon="5.45552">
        <ele>663.633301</ele>
        <time>2016-05-08T10:17:58Z</time>
      </trkpt>
      <trkpt lat="45.30754" lon="5.45567">
        <ele>664.796936</ele>
        <time>2016-05-08T10:18:01Z</time>
      </trkpt>
      <trkpt lat="45.30766" lon="5.45589">
        <ele>667.642456</ele>
        <time>2016-05-08T10:18:05Z</time>
      </trkpt>
      <trkpt lat="45.3078" lon="5.45614">
        <ele>670.629028</ele>
        <time>2016-05-08T10:18:09Z</time>
      </trkpt>
      <trkpt lat="45.30799" lon="5.45646">
        <ele>673.906616</ele>
        <time>2016-05-08T10:18:13Z</time>
      </trkpt>
      <trkpt lat="45.30813" lon="5.45669">
        <ele>675.991943</ele>
        <time>2016-05-08T10:18:16Z</time>
      </trkpt>
      <trkpt lat="45.30838" lon="5.45674">
        <ele>677.172424</ele>
        <time>2016-05-08T10:18:20Z</time>
      </trkpt>
      <trkpt lat="45.30849" lon="5.4566">
        <ele>678.990906</ele>
        <time>2016-05-08T10:18:23Z</time>
      </trkpt>
      <trkpt lat="45.30856" lon="5.45628">
        <ele>678.388611</ele>
        <time>2016-05-08T10:18:27Z</time>
      </trkpt>
      <trkpt lat="45.30867" lon="5.45599">
        <ele>679.583801</ele>
        <time>2016-05-08T10:18:30Z</time>
      </trkpt>
      <trkpt lat="45.30866" lon="5.45572">
        <ele>675.831055</ele>
        <time>2016-05-08T10:18:34Z</time>
      </trkpt>
      <trkpt lat="45.30871" lon="5.45561">
        <ele>675.263428</ele>
        <time>2016-05-08T10:18:37Z</time>
      </trkpt>
      <trkpt lat="45.30873" lon="5.45549">
        <ele>673.445618</ele>
        <time>2016-05-08T10:18:40Z</time>
      </trkpt>
      <trkpt lat="45.30876" lon="5.45534">
        <ele>671.321289</ele>
        <time>2016-05-08T10:18:44Z</time>
      </trkpt>
      <trkpt lat="45.30878" lon="5.45519">
        <ele>669.146606</ele>
        <time>2016-05-08T10:18:47Z</time>
      </trkpt>
      <trkpt lat="45.30883" lon="5.45491">
        <ele>664.264038</ele>
        <time>2016-05-08T10:18:51Z</time>
      </trkpt>
      <trkpt lat="45.30889" lon="5.45465">
        <ele>657.848267</ele>
        <time>2016-05-08T10:18:54Z</time>
      </trkpt>
      <trkpt lat="45.30899" lon="5.45438">
        <ele>651.372131</ele>
        <time>2016-05-08T10:18:58Z</time>
      </trkpt>
      <trkpt lat="45.30916" lon="5.4541">
        <ele>644.599365</ele>
        <time>2016-05-08T10:19:01Z</time>
      </trkpt>
      <trkpt lat="45.30932" lon="5.45383">
        <ele>638.008423</ele>
        <time>2016-05-08T10:19:04Z</time>
      </trkpt>
      <trkpt lat="45.3095" lon="5.45357">
        <ele>632.336426</ele>
        <time>2016-05-08T10:19:07Z</time>
      </trkpt>
      <trkpt lat="45.30965" lon="5.45324">
        <ele>624.722168</ele>
        <time>2016-05-08T10:19:11Z</time>
      </trkpt>
      <trkpt lat="45.30985" lon="5.45318">
        <ele>626.102356</ele>
        <time>2016-05-08T10:19:15Z</time>
      </trkpt>
      <trkpt lat="45.30997" lon="5.45316">
        <ele>627.539368</ele>
        <time>2016-05-08T10:19:18Z</time>
      </trkpt>
      <trkpt lat="45.31017" lon="5.45312">
        <ele>626.044067</ele>
        <time>2016-05-08T10:19:22Z</time>
      </trkpt>
      <trkpt lat="45.31035" lon="5.45322">
        <ele>628.478149</ele>
        <time>2016-05-08T10:19:26Z</time>
      </trkpt>
      <trkpt lat="45.31058" lon="5.45346">
        <ele>634.24939</ele>
        <time>2016-05-08T10:19:30Z</time>
      </trkpt>
      <trkpt lat="45.31075" lon="5.45375">
        <ele>640.143433</ele>
        <time>2016-05-08T10:19:34Z</time>
      </trkpt>
      <trkpt lat="45.31088" lon="5.45391">
        <ele>642.069763</ele>
        <time>2016-05-08T10:19:37Z</time>
      </trkpt>
      <trkpt lat="45.31097" lon="5.45413">
        <ele>645.104553</ele>
        <time>2016-05-08T10:19:41Z</time>
      </trkpt>
      <trkpt lat="45.31103" lon="5.45426">
        <ele>646.747437</ele>
        <time>2016-05-08T10:19:44Z</time>
      </trkpt>
      <trkpt lat="45.31116" lon="5.4545">
        <ele>649.297485</ele>
        <time>2016-05-08T10:19:48Z</time>
      </trkpt>
      <trkpt lat="45.31121" lon="5.4546">
        <ele>650.700439</ele>
        <time>2016-05-08T10:19:51Z</time>
      </trkpt>
      <trkpt lat="45.31127" lon="5.45475">
        <ele>652.827393</ele>
        <time>2016-05-08T10:19:55Z</time>
      </trkpt>
      <trkpt lat="45.31136" lon="5.455">
        <ele>657.283447</ele>
        <time>2016-05-08T10:19:59Z</time>
      </trkpt>
      <trkpt lat="45.31141" lon="5.45522">
        <ele>661.477966</ele>
        <time>2016-05-08T10:20:02Z</time>
      </trkpt>
      <trkpt lat="45.31152" lon="5.45535">
        <ele>663.046143</ele>
        <time>2016-05-08T10:20:06Z</time>
      </trkpt>
      <trkpt lat="45.31157" lon="5.45533">
        <ele>661.862427</ele>
        <time>2016-05-08T10:20:09Z</time>
      </trkpt>
      <trkpt lat="45.31167" lon="5.45517">
        <ele>656.265442</ele>
        <time>2016-05-08T10:20:13Z</time>
      </trkpt>
      <trkpt lat="45.31172" lon="5.45513">
        <ele>655.613098</ele>
        <time>2016-05-08T10:20:16Z</time>
      </trkpt>
      <trkpt lat="45.31179" lon="5.45507">
        <ele>654.629089</ele>
        <time>2016-05-08T10:20:20Z</time>
      </trkpt>
      <trkpt lat="45.31195" lon="5.45486">
        <ele>650.506897</ele>
        <time>2016-05-08T10:20:24Z</time>
      </trkpt>
      <trkpt lat="45.31212" lon="5.45476">
        <ele>649.389587</ele>
        <time>2016-05-08T10:20:27Z</time>
      </trkpt>
      <trkpt lat="45.31241" lon="5.45465">
        <ele>649.395081</ele>
        <time>2016-05-08T10:20:31Z</time>
      </trkpt>
      <trkpt lat="45.31251" lon="5.45464">
        <ele>650.715393</ele>
        <time>2016-05-08T10:20:35Z</time>
      </trkpt>
      <trkpt lat="45.31247" lon="5.45454">
        <ele>647.976746</ele>
        <time>2016-05-08T10:20:38Z</time>
      </trkpt>
      <trkpt lat="45.31243" lon="5.45445">
        <ele>645.787048</ele>
        <time>2016-05-08T10:20:42Z</time>
      </trkpt>
      <trkpt lat="45.31243" lon="5.45438">
        <ele>644.250061</ele>
        <time>2016-05-08T10:20:45Z</time>
      </trkpt>
      <trkpt lat="45.3124" lon="5.45416">
        <ele>639.709045</ele>
        <time>2016-05-08T10:20:48Z</time>
      </trkpt>
      <trkpt lat="45.31243" lon="5.45389">
        <ele>636.988403</ele>
        <time>2016-05-08T10:20:52Z</time>
      </trkpt>
      <trkpt lat="45.31258" lon="5.45334">
        <ele>638.407166</ele>
        <time>2016-05-08T10:20:56Z</time>
      </trkpt>
      <trkpt lat="45.31262" lon="5.45312">
        <ele>638.329346</ele>
        <time>2016-05-08T10:20:59Z</time>
      </trkpt>
      <trkpt lat="45.3126" lon="5.45281">
        <ele>634.341003</ele>
        <time>2016-05-08T10:21:03Z</time>
      </trkpt>
      <trkpt lat="45.31266" lon="5.45247">
        <ele>634.780396</ele>
        <time>2016-05-08T10:21:07Z</time>
      </trkpt>
      <trkpt lat="45.31268" lon="5.45218">
        <ele>633.860413</ele>
        <time>2016-05-08T10:21:11Z</time>
      </trkpt>
      <trkpt lat="45.31267" lon="5.45198">
        <ele>631.980042</ele>
        <time>2016-05-08T10:21:14Z</time>
      </trkpt>
      <trkpt lat="45.31266" lon="5.45164">
        <ele>628.896179</ele>
        <time>2016-05-08T10:21:18Z</time>
      </trkpt>
      <trkpt lat="45.31265" lon="5.45131">
        <ele>623.868896</ele>
        <time>2016-05-08T10:21:21Z</time>
      </trkpt>
      <trkpt lat="45.31264" lon="5.45095">
        <ele>618.002625</ele>
        <time>2016-05-08T10:21:24Z</time>
      </trkpt>
      <trkpt lat="45.31262" lon="5.45058">
        <ele>610.884155</ele>
        <time>2016-05-08T10:21:28Z</time>
      </trkpt>
      <trkpt lat="45.31263" lon="5.45034">
        <ele>606.387146</ele>
        <time>2016-05-08T10:21:31Z</time>
      </trkpt>
      <trkpt lat="45.3127" lon="5.4501">
        <ele>603.254089</ele>
        <time>2016-05-08T10:21:35Z</time>
      </trkpt>
      <trkpt lat="45.31281" lon="5.44989">
        <ele>601.261963</ele>
        <time>2016-05-08T10:21:38Z</time>
      </trkpt>
      <trkpt lat="45.31294" lon="5.44967">
        <ele>599.565857</ele>
        <time>2016-05-08T10:21:42Z</time>
      </trkpt>
      <trkpt lat="45.31307" lon="5.44949">
        <ele>598.752808</ele>
        <time>2016-05-08T10:21:46Z</time>
      </trkpt>
      <trkpt lat="45.31323" lon="5.44937">
        <ele>599.900513</ele>
        <time>2016-05-08T10:21:49Z</time>
      </trkpt>
      <trkpt lat="45.31341" lon="5.44935">
        <ele>601.855835</ele>
        <time>2016-05-08T10:21:53Z</time>
      </trkpt>
      <trkpt lat="45.31353" lon="5.44945">
        <ele>603.700134</ele>
        <time>2016-05-08T10:21:57Z</time>
      </trkpt>
      <trkpt lat="45.31366" lon="5.44959">
        <ele>606.494446</ele>
        <time>2016-05-08T10:22:01Z</time>
      </trkpt>
      <trkpt lat="45.3138" lon="5.44967">
        <ele>607.873413</ele>
        <time>2016-05-08T10:22:05Z</time>
      </trkpt>
      <trkpt lat="45.31388" lon="5.44976">
        <ele>609.314026</ele>
        <time>2016-05-08T10:22:08Z</time>
      </trkpt>
      <trkpt lat="45.31403" lon="5.44996">
        <ele>612.661682</ele>
        <time>2016-05-08T10:22:12Z</time>
      </trkpt>
      <trkpt lat="45.31411" lon="5.45005">
        <ele>614.340576</ele>
        <time>2016-05-08T10:22:15Z</time>
      </trkpt>
      <trkpt lat="45.31417" lon="5.45015">
        <ele>617.058411</ele>
        <time>2016-05-08T10:22:19Z</time>
      </trkpt>
      <trkpt lat="45.31422" lon="5.45022">
        <ele>618.809937</ele>
        <time>2016-05-08T10:22:22Z</time>
      </trkpt>
      <trkpt lat="45.31428" lon="5.45026">
        <ele>619.983215</ele>
        <time>2016-05-08T10:22:25Z</time>
      </trkpt>
      <trkpt lat="45.31433" lon="5.45033">
        <ele>621.608948</ele>
        <time>2016-05-08T10:22:28Z</time>
      </trkpt>
      <trkpt lat="45.31443" lon="5.45045">
        <ele>624.094604</ele>
        <time>2016-05-08T10:22:32Z</time>
      </trkpt>
      <trkpt lat="45.31451" lon="5.45057">
        <ele>626.22168</ele>
        <time>2016-05-08T10:22:35Z</time>
      </trkpt>
      <trkpt lat="45.31469" lon="5.45079">
        <ele>628.729187</ele>
        <time>2016-05-08T10:22:38Z</time>
      </trkpt>
      <trkpt lat="45.31491" lon="5.45111">
        <ele>631.49884</ele>
        <time>2016-05-08T10:22:42Z</time>
      </trkpt>
      <trkpt lat="45.31512" lon="5.45136">
        <ele>638.170166</ele>
        <time>2016-05-08T10:22:46Z</time>
      </trkpt>
      <trkpt lat="45.31529" lon="5.45117">
        <ele>641.635193</ele>
        <time>2016-05-08T10:22:50Z</time>
      </trkpt>
      <trkpt lat="45.31546" lon="5.451">
        <ele>645.992065</ele>
        <time>2016-05-08T10:22:54Z</time>
      </trkpt>
      <trkpt lat="45.31556" lon="5.45083">
        <ele>648.103638</ele>
        <time>2016-05-08T10:22:57Z</time>
      </trkpt>
      <trkpt lat="45.31562" lon="5.45064">
        <ele>648.679016</ele>
        <time>2016-05-08T10:23:00Z</time>
      </trkpt>
      <trkpt lat="45.31567" lon="5.45043">
        <ele>649.168762</ele>
        <time>2016-05-08T10:23:03Z</time>
      </trkpt>
      <trkpt lat="45.31575" lon="5.45012">
        <ele>649.60022</ele>
        <time>2016-05-08T10:23:07Z</time>
      </trkpt>
      <trkpt lat="45.31584" lon="5.44971">
        <ele>650.757019</ele>
        <time>2016-05-08T10:23:11Z</time>
      </trkpt>
      <trkpt lat="45.31588" lon="5.44932">
        <ele>650.199341</ele>
        <time>2016-05-08T10:23:15Z</time>
      </trkpt>
      <trkpt lat="45.31587" lon="5.44899">
        <ele>648.072449</ele>
        <time>2016-05-08T10:23:19Z</time>
      </trkpt>
      <trkpt lat="45.31582" lon="5.44854">
        <ele>643.879089</ele>
        <time>2016-05-08T10:23:23Z</time>
      </trkpt>
      <trkpt lat="45.31572" lon="5.44808">
        <ele>637.462341</ele>
        <time>2016-05-08T10:23:27Z</time>
      </trkpt>
      <trkpt lat="45.31564" lon="5.44778">
        <ele>633.371765</ele>
        <time>2016-05-08T10:23:30Z</time>
      </trkpt>
      <trkpt lat="45.31562" lon="5.44737">
        <ele>630.901978</ele>
        <time>2016-05-08T10:23:34Z</time>
      </trkpt>
      <trkpt lat="45.3157" lon="5.44701">
        <ele>632.088623</ele>
        <time>2016-05-08T10:23:38Z</time>
      </trkpt>
      <trkpt lat="45.31578" lon="5.44667">
        <ele>633.060547</ele>
        <time>2016-05-08T10:23:42Z</time>
      </trkpt>
      <trkpt lat="45.31578" lon="5.44636">
        <ele>630.959229</ele>
        <time>2016-05-08T10:23:46Z</time>
      </trkpt>
      <trkpt lat="45.31581" lon="5.44609">
        <ele>630.066528</ele>
        <time>2016-05-08T10:23:50Z</time>
      </trkpt>
      <trkpt lat="45.31585" lon="5.44585">
        <ele>629.384216</ele>
        <time>2016-05-08T10:23:53Z</time>
      </trkpt>
      <trkpt lat="45.31593" lon="5.4457">
        <ele>628.94104</ele>
        <time>2016-05-08T10:23:56Z</time>
      </trkpt>
      <trkpt lat="45.31596" lon="5.44549">
        <ele>627.273376</ele>
        <time>2016-05-08T10:24:00Z</time>
      </trkpt>
      <trkpt lat="45.31603" lon="5.44523">
        <ele>625.490356</ele>
        <time>2016-05-08T10:24:04Z</time>
      </trkpt>
      <trkpt lat="45.31606" lon="5.44491">
        <ele>622.580566</ele>
        <time>2016-05-08T10:24:07Z</time>
      </trkpt>
      <trkpt lat="45.31594" lon="5.44434">
        <ele>615.787109</ele>
        <time>2016-05-08T10:24:11Z</time>
      </trkpt>
      <trkpt lat="45.31593" lon="5.44389">
        <ele>614.197693</ele>
        <time>2016-05-08T10:24:15Z</time>
      </trkpt>
      <trkpt lat="45.31585" lon="5.44359">
        <ele>613.769714</ele>
        <time>2016-05-08T10:24:18Z</time>
      </trkpt>
      <trkpt lat="45.31588" lon="5.44316">
        <ele>614.985168</ele>
        <time>2016-05-08T10:24:22Z</time>
      </trkpt>
      <trkpt lat="45.31574" lon="5.44273">
        <ele>614.356506</ele>
        <time>2016-05-08T10:24:26Z</time>
      </trkpt>
      <trkpt lat="45.3156" lon="5.44248">
        <ele>611.715454</ele>
        <time>2016-05-08T10:24:29Z</time>
      </trkpt>
      <trkpt lat="45.3154" lon="5.44225">
        <ele>605.865234</ele>
        <time>2016-05-08T10:24:32Z</time>
      </trkpt>
      <trkpt lat="45.31516" lon="5.44202">
        <ele>598.241089</ele>
        <time>2016-05-08T10:24:36Z</time>
      </trkpt>
      <trkpt lat="45.31489" lon="5.44172">
        <ele>588.254822</ele>
        <time>2016-05-08T10:24:40Z</time>
      </trkpt>
      <trkpt lat="45.31471" lon="5.44148">
        <ele>580.054016</ele>
        <time>2016-05-08T10:24:43Z</time>
      </trkpt>
      <trkpt lat="45.31446" lon="5.44117">
        <ele>568.894165</ele>
        <time>2016-05-08T10:24:47Z</time>
      </trkpt>
      <trkpt lat="45.31424" lon="5.44079">
        <ele>558.52594</ele>
        <time>2016-05-08T10:24:51Z</time>
      </trkpt>
      <trkpt lat="45.31409" lon="5.44037">
        <ele>549.706848</ele>
        <time>2016-05-08T10:24:55Z</time>
      </trkpt>
      <trkpt lat="45.3138" lon="5.44036">
        <ele>539.630615</ele>
        <time>2016-05-08T10:24:58Z</time>
      </trkpt>
      <trkpt lat="45.3135" lon="5.44048">
        <ele>530.398743</ele>
        <time>2016-05-08T10:25:02Z</time>
      </trkpt>
      <trkpt lat="45.31342" lon="5.4408">
        <ele>529.089722</ele>
        <time>2016-05-08T10:25:05Z</time>
      </trkpt>
      <trkpt lat="45.31333" lon="5.44124">
        <ele>527.46637</ele>
        <time>2016-05-08T10:25:09Z</time>
      </trkpt>
      <trkpt lat="45.31325" lon="5.44151">
        <ele>528.239075</ele>
        <time>2016-05-08T10:25:12Z</time>
      </trkpt>
      <trkpt lat="45.31319" lon="5.44187">
        <ele>529.384521</ele>
        <time>2016-05-08T10:25:16Z</time>
      </trkpt>
      <trkpt lat="45.3131" lon="5.44217">
        <ele>530.231384</ele>
        <time>2016-05-08T10:25:19Z</time>
      </trkpt>
      <trkpt lat="45.31305" lon="5.4425">
        <ele>531.311096</ele>
        <time>2016-05-08T10:25:22Z</time>
      </trkpt>
      <trkpt lat="45.31291" lon="5.44264">
        <ele>531.484802</ele>
        <time>2016-05-08T10:25:26Z</time>
      </trkpt>
      <trkpt lat="45.31279" lon="5.44256">
        <ele>530.908813</ele>
        <time>2016-05-08T10:25:29Z</time>
      </trkpt>
      <trkpt lat="45.31265" lon="5.44247">
        <ele>530.233582</ele>
        <time>2016-05-08T10:25:33Z</time>
      </trkpt>
      <trkpt lat="45.31255" lon="5.44246">
        <ele>529.977722</ele>
        <time>2016-05-08T10:25:36Z</time>
      </trkpt>
      <trkpt lat="45.31246" lon="5.44244">
        <ele>530.521545</ele>
        <time>2016-05-08T10:25:40Z</time>
      </trkpt>
      <trkpt lat="45.31241" lon="5.44241">
        <ele>531.183411</ele>
        <time>2016-05-08T10:25:43Z</time>
      </trkpt>
      <trkpt lat="45.31241" lon="5.44234">
        <ele>531.051514</ele>
        <time>2016-05-08T10:25:47Z</time>
      </trkpt>
      <trkpt lat="45.31242" lon="5.44226">
        <ele>530.523865</ele>
        <time>2016-05-08T10:25:51Z</time>
      </trkpt>
      <trkpt lat="45.31244" lon="5.44218">
        <ele>530.082458</ele>
        <time>2016-05-08T10:25:55Z</time>
      </trkpt>
      <trkpt lat="45.31246" lon="5.44208">
        <ele>529.375427</ele>
        <time>2016-05-08T10:25:59Z</time>
      </trkpt>
      <trkpt lat="45.31246" lon="5.44196">
        <ele>528.957214</ele>
        <time>2016-05-08T10:26:02Z</time>
      </trkpt>
      <trkpt lat="45.31246" lon="5.44182">
        <ele>528.393066</ele>
        <time>2016-05-08T10:26:05Z</time>
      </trkpt>
      <trkpt lat="45.31247" lon="5.44167">
        <ele>527.718018</ele>
        <time>2016-05-08T10:26:08Z</time>
      </trkpt>
      <trkpt lat="45.31247" lon="5.44146">
        <ele>527.112305</ele>
        <time>2016-05-08T10:26:11Z</time>
      </trkpt>
      <trkpt lat="45.31246" lon="5.44124">
        <ele>526.518372</ele>
        <time>2016-05-08T10:26:14Z</time>
      </trkpt>
      <trkpt lat="45.31243" lon="5.44091">
        <ele>526.3302</ele>
        <time>2016-05-08T10:26:18Z</time>
      </trkpt>
      <trkpt lat="45.31237" lon="5.44052">
        <ele>527.574402</ele>
        <time>2016-05-08T10:26:22Z</time>
      </trkpt>
      <trkpt lat="45.31233" lon="5.4401">
        <ele>528.17804</ele>
        <time>2016-05-08T10:26:26Z</time>
      </trkpt>
      <trkpt lat="45.31231" lon="5.43975">
        <ele>528.383362</ele>
        <time>2016-05-08T10:26:29Z</time>
      </trkpt>
      <trkpt lat="45.31229" lon="5.43937">
        <ele>527.761902</ele>
        <time>2016-05-08T10:26:32Z</time>
      </trkpt>
      <trkpt lat="45.31236" lon="5.43884">
        <ele>524.037109</ele>
        <time>2016-05-08T10:26:36Z</time>
      </trkpt>
      <trkpt lat="45.31243" lon="5.43835">
        <ele>521.236206</ele>
        <time>2016-05-08T10:26:40Z</time>
      </trkpt>
      <trkpt lat="45.31244" lon="5.43785">
        <ele>522.013</ele>
        <time>2016-05-08T10:26:44Z</time>
      </trkpt>
      <trkpt lat="45.31239" lon="5.43747">
        <ele>524.057678</ele>
        <time>2016-05-08T10:26:47Z</time>
      </trkpt>
      <trkpt lat="45.3124" lon="5.43707">
        <ele>533.437012</ele>
        <time>2016-05-08T10:26:50Z</time>
      </trkpt>
      <trkpt lat="45.31249" lon="5.43675">
        <ele>540.08136</ele>
        <time>2016-05-08T10:26:53Z</time>
      </trkpt>
      <trkpt lat="45.31286" lon="5.43659">
        <ele>536.089966</ele>
        <time>2016-05-08T10:26:57Z</time>
      </trkpt>
      <trkpt lat="45.31307" lon="5.43643">
        <ele>534.597351</ele>
        <time>2016-05-08T10:27:00Z</time>
      </trkpt>
      <trkpt lat="45.31324" lon="5.43613">
        <ele>536.302795</ele>
        <time>2016-05-08T10:27:04Z</time>
      </trkpt>
      <trkpt lat="45.31332" lon="5.43591">
        <ele>538.153137</ele>
        <time>2016-05-08T10:27:07Z</time>
      </trkpt>
      <trkpt lat="45.31342" lon="5.43562">
        <ele>540.326172</ele>
        <time>2016-05-08T10:27:11Z</time>
      </trkpt>
      <trkpt lat="45.31353" lon="5.43541">
        <ele>540.722229</ele>
        <time>2016-05-08T10:27:14Z</time>
      </trkpt>
      <trkpt lat="45.31373" lon="5.43515">
        <ele>537.828918</ele>
        <time>2016-05-08T10:27:18Z</time>
      </trkpt>
      <trkpt lat="45.3139" lon="5.43496">
        <ele>534.259277</ele>
        <time>2016-05-08T10:27:21Z</time>
      </trkpt>
      <trkpt lat="45.31406" lon="5.43475">
        <ele>530.680908</ele>
        <time>2016-05-08T10:27:24Z</time>
      </trkpt>
      <trkpt lat="45.31428" lon="5.43451">
        <ele>526.254211</ele>
        <time>2016-05-08T10:27:28Z</time>
      </trkpt>
      <trkpt lat="45.31452" lon="5.43426">
        <ele>522.256165</ele>
        <time>2016-05-08T10:27:32Z</time>
      </trkpt>
      <trkpt lat="45.31466" lon="5.43406">
        <ele>520.485107</ele>
        <time>2016-05-08T10:27:35Z</time>
      </trkpt>
      <trkpt lat="45.31487" lon="5.43383">
        <ele>517.597656</ele>
        <time>2016-05-08T10:27:39Z</time>
      </trkpt>
      <trkpt lat="45.315" lon="5.43367">
        <ele>516.056396</ele>
        <time>2016-05-08T10:27:42Z</time>
      </trkpt>
      <trkpt lat="45.3152" lon="5.4335">
        <ele>515.22467</ele>
        <time>2016-05-08T10:27:46Z</time>
      </trkpt>
      <trkpt lat="45.31535" lon="5.43339">
        <ele>514.296082</ele>
        <time>2016-05-08T10:27:49Z</time>
      </trkpt>
      <trkpt lat="45.3155" lon="5.43328">
        <ele>513.721008</ele>
        <time>2016-05-08T10:27:52Z</time>
      </trkpt>
      <trkpt lat="45.31564" lon="5.43315">
        <ele>513.797058</ele>
        <time>2016-05-08T10:27:56Z</time>
      </trkpt>
      <trkpt lat="45.3157" lon="5.43301">
        <ele>515.198242</ele>
        <time>2016-05-08T10:28:00Z</time>
      </trkpt>
      <trkpt lat="45.31572" lon="5.4329">
        <ele>516.762817</ele>
        <time>2016-05-08T10:28:03Z</time>
      </trkpt>
      <trkpt lat="45.31572" lon="5.43281">
        <ele>518.377869</ele>
        <time>2016-05-08T10:28:06Z</time>
      </trkpt>
      <trkpt lat="45.3157" lon="5.43271">
        <ele>520.22522</ele>
        <time>2016-05-08T10:28:09Z</time>
      </trkpt>
      <trkpt lat="45.31568" lon="5.43261">
        <ele>522.152588</ele>
        <time>2016-05-08T10:28:12Z</time>
      </trkpt>
      <trkpt lat="45.31566" lon="5.43248">
        <ele>524.99823</ele>
        <time>2016-05-08T10:28:16Z</time>
      </trkpt>
      <trkpt lat="45.31562" lon="5.43236">
        <ele>529.636841</ele>
        <time>2016-05-08T10:28:20Z</time>
      </trkpt>
      <trkpt lat="45.31557" lon="5.43228">
        <ele>532.946411</ele>
        <time>2016-05-08T10:28:23Z</time>
      </trkpt>
      <trkpt lat="45.31549" lon="5.4322">
        <ele>536.43158</ele>
        <time>2016-05-08T10:28:27Z</time>
      </trkpt>
      <trkpt lat="45.31541" lon="5.4321">
        <ele>540.337769</ele>
        <time>2016-05-08T10:28:31Z</time>
      </trkpt>
      <trkpt lat="45.31536" lon="5.43202">
        <ele>543.274841</ele>
        <time>2016-05-08T10:28:34Z</time>
      </trkpt>
      <trkpt lat="45.31529" lon="5.43193">
        <ele>546.593933</ele>
        <time>2016-05-08T10:28:38Z</time>
      </trkpt>
      <trkpt lat="45.31522" lon="5.43187">
        <ele>548.794922</ele>
        <time>2016-05-08T10:28:41Z</time>
      </trkpt>
      <trkpt lat="45.31512" lon="5.43182">
        <ele>551.050842</ele>
        <time>2016-05-08T10:28:45Z</time>
      </trkpt>
      <trkpt lat="45.31506" lon="5.43178">
        <ele>552.54718</ele>
        <time>2016-05-08T10:28:48Z</time>
      </trkpt>
      <trkpt lat="45.31499" lon="5.43176">
        <ele>553.653687</ele>
        <time>2016-05-08T10:28:51Z</time>
      </trkpt>
      <trkpt lat="45.31492" lon="5.43173">
        <ele>555.075134</ele>
        <time>2016-05-08T10:28:54Z</time>
      </trkpt>
      <trkpt lat="45.31483" lon="5.43169">
        <ele>557.033081</ele>
        <time>2016-05-08T10:28:58Z</time>
      </trkpt>
      <trkpt lat="45.31474" lon="5.43166">
        <ele>558.754272</ele>
        <time>2016-05-08T10:29:02Z</time>
      </trkpt>
      <trkpt lat="45.31468" lon="5.43162">
        <ele>560.343567</ele>
        <time>2016-05-08T10:29:05Z</time>
      </trkpt>
      <trkpt lat="45.31459" lon="5.43158">
        <ele>562.156982</ele>
        <time>2016-05-08T10:29:09Z</time>
      </trkpt>
      <trkpt lat="45.31453" lon="5.43155">
        <ele>563.413757</ele>
        <time>2016-05-08T10:29:12Z</time>
      </trkpt>
      <trkpt lat="45.31445" lon="5.43147">
        <ele>565.914185</ele>
        <time>2016-05-08T10:29:16Z</time>
      </trkpt>
      <trkpt lat="45.31443" lon="5.43139">
        <ele>568.168945</ele>
        <time>2016-05-08T10:29:19Z</time>
      </trkpt>
      <trkpt lat="45.31448" lon="5.43125">
        <ele>570.998596</ele>
        <time>2016-05-08T10:29:23Z</time>
      </trkpt>
      <trkpt lat="45.31456" lon="5.43119">
        <ele>571.86908</ele>
        <time>2016-05-08T10:29:26Z</time>
      </trkpt>
      <trkpt lat="45.31464" lon="5.43114">
        <ele>572.470215</ele>
        <time>2016-05-08T10:29:29Z</time>
      </trkpt>
      <trkpt lat="45.31471" lon="5.4311">
        <ele>572.968018</ele>
        <time>2016-05-08T10:29:32Z</time>
      </trkpt>
      <trkpt lat="45.3148" lon="5.43105">
        <ele>573.619812</ele>
        <time>2016-05-08T10:29:36Z</time>
      </trkpt>
      <trkpt lat="45.31487" lon="5.43102">
        <ele>574.084961</ele>
        <time>2016-05-08T10:29:39Z</time>
      </trkpt>
      <trkpt lat="45.31497" lon="5.43096">
        <ele>574.747192</ele>
        <time>2016-05-08T10:29:43Z</time>
      </trkpt>
      <trkpt lat="45.31506" lon="5.43091">
        <ele>575.590332</ele>
        <time>2016-05-08T10:29:47Z</time>
      </trkpt>
      <trkpt lat="45.31514" lon="5.43089">
        <ele>575.997559</ele>
        <time>2016-05-08T10:29:50Z</time>
      </trkpt>
      <trkpt lat="45.31521" lon="5.43086">
        <ele>576.319824</ele>
        <time>2016-05-08T10:29:53Z</time>
      </trkpt>
      <trkpt lat="45.31528" lon="5.43082">
        <ele>576.874084</ele>
        <time>2016-05-08T10:29:57Z</time>
      </trkpt>
      <trkpt lat="45.31535" lon="5.43081">
        <ele>576.689575</ele>
        <time>2016-05-08T10:30:00Z</time>
      </trkpt>
      <trkpt lat="45.31544" lon="5.4308">
        <ele>576.345459</ele>
        <time>2016-05-08T10:30:04Z</time>
      </trkpt>
      <trkpt lat="45.31552" lon="5.43079">
        <ele>576.101501</ele>
        <time>2016-05-08T10:30:07Z</time>
      </trkpt>
      <trkpt lat="45.31561" lon="5.43077">
        <ele>575.895203</ele>
        <time>2016-05-08T10:30:10Z</time>
      </trkpt>
      <trkpt lat="45.31568" lon="5.43075">
        <ele>575.75708</ele>
        <time>2016-05-08T10:30:13Z</time>
      </trkpt>
      <trkpt lat="45.31577" lon="5.43072">
        <ele>575.75293</ele>
        <time>2016-05-08T10:30:17Z</time>
      </trkpt>
      <trkpt lat="45.31586" lon="5.43064">
        <ele>575.921631</ele>
        <time>2016-05-08T10:30:21Z</time>
      </trkpt>
      <trkpt lat="45.31593" lon="5.43056">
        <ele>575.795471</ele>
        <time>2016-05-08T10:30:24Z</time>
      </trkpt>
      <trkpt lat="45.31602" lon="5.43044">
        <ele>575.675903</ele>
        <time>2016-05-08T10:30:28Z</time>
      </trkpt>
      <trkpt lat="45.31609" lon="5.43035">
        <ele>575.439575</ele>
        <time>2016-05-08T10:30:31Z</time>
      </trkpt>
      <trkpt lat="45.31617" lon="5.43022">
        <ele>575.405029</ele>
        <time>2016-05-08T10:30:35Z</time>
      </trkpt>
      <trkpt lat="45.31622" lon="5.43012">
        <ele>575.399048</ele>
        <time>2016-05-08T10:30:38Z</time>
      </trkpt>
      <trkpt lat="45.31627" lon="5.42998">
        <ele>575.574707</ele>
        <time>2016-05-08T10:30:42Z</time>
      </trkpt>
      <trkpt lat="45.31632" lon="5.42987">
        <ele>574.889648</ele>
        <time>2016-05-08T10:30:45Z</time>
      </trkpt>
      <trkpt lat="45.31636" lon="5.42975">
        <ele>574.149963</ele>
        <time>2016-05-08T10:30:48Z</time>
      </trkpt>
      <trkpt lat="45.3164" lon="5.4296">
        <ele>573.3974</ele>
        <time>2016-05-08T10:30:52Z</time>
      </trkpt>
      <trkpt lat="45.31641" lon="5.42948">
        <ele>573.241333</ele>
        <time>2016-05-08T10:30:55Z</time>
      </trkpt>
      <trkpt lat="45.31642" lon="5.42932">
        <ele>573.203613</ele>
        <time>2016-05-08T10:30:59Z</time>
      </trkpt>
      <trkpt lat="45.31643" lon="5.42919">
        <ele>573.158813</ele>
        <time>2016-05-08T10:31:02Z</time>
      </trkpt>
      <trkpt lat="45.31645" lon="5.42907">
        <ele>571.591675</ele>
        <time>2016-05-08T10:31:05Z</time>
      </trkpt>
      <trkpt lat="45.31651" lon="5.42889">
        <ele>568.044067</ele>
        <time>2016-05-08T10:31:09Z</time>
      </trkpt>
      <trkpt lat="45.31656" lon="5.42878">
        <ele>565.468445</ele>
        <time>2016-05-08T10:31:12Z</time>
      </trkpt>
      <trkpt lat="45.31659" lon="5.42872">
        <ele>563.957214</ele>
        <time>2016-05-08T10:31:16Z</time>
      </trkpt>
      <trkpt lat="45.31657" lon="5.42864">
        <ele>563.634521</ele>
        <time>2016-05-08T10:31:19Z</time>
      </trkpt>
      <trkpt lat="45.31649" lon="5.42845">
        <ele>563.539856</ele>
        <time>2016-05-08T10:31:23Z</time>
      </trkpt>
      <trkpt lat="45.3164" lon="5.42823">
        <ele>563.554382</ele>
        <time>2016-05-08T10:31:26Z</time>
      </trkpt>
      <trkpt lat="45.31634" lon="5.42796">
        <ele>561.876648</ele>
        <time>2016-05-08T10:31:30Z</time>
      </trkpt>
      <trkpt lat="45.31628" lon="5.42768">
        <ele>560.004272</ele>
        <time>2016-05-08T10:31:33Z</time>
      </trkpt>
      <trkpt lat="45.31611" lon="5.42726">
        <ele>558.746399</ele>
        <time>2016-05-08T10:31:37Z</time>
      </trkpt>
      <trkpt lat="45.3161" lon="5.42683">
        <ele>552.880005</ele>
        <time>2016-05-08T10:31:40Z</time>
      </trkpt>
      <trkpt lat="45.3162" lon="5.42641">
        <ele>546.853333</ele>
        <time>2016-05-08T10:31:43Z</time>
      </trkpt>
      <trkpt lat="45.31646" lon="5.4258">
        <ele>539.040161</ele>
        <time>2016-05-08T10:31:47Z</time>
      </trkpt>
      <trkpt lat="45.3166" lon="5.42527">
        <ele>534.86261</ele>
        <time>2016-05-08T10:31:50Z</time>
      </trkpt>
      <trkpt lat="45.31674" lon="5.42461">
        <ele>529.673645</ele>
        <time>2016-05-08T10:31:54Z</time>
      </trkpt>
      <trkpt lat="45.31674" lon="5.42408">
        <ele>525.818115</ele>
        <time>2016-05-08T10:31:58Z</time>
      </trkpt>
      <trkpt lat="45.31681" lon="5.42392">
        <ele>524.065063</ele>
        <time>2016-05-08T10:32:01Z</time>
      </trkpt>
      <trkpt lat="45.31703" lon="5.42393">
        <ele>522.870911</ele>
        <time>2016-05-08T10:32:05Z</time>
      </trkpt>
      <trkpt lat="45.31725" lon="5.42396">
        <ele>521.766235</ele>
        <time>2016-05-08T10:32:08Z</time>
      </trkpt>
      <trkpt lat="45.31751" lon="5.42416">
        <ele>521.923828</ele>
        <time>2016-05-08T10:32:11Z</time>
      </trkpt>
      <trkpt lat="45.31785" lon="5.42451">
        <ele>522.114502</ele>
        <time>2016-05-08T10:32:15Z</time>
      </trkpt>
      <trkpt lat="45.31817" lon="5.42497">
        <ele>521.138428</ele>
        <time>2016-05-08T10:32:19Z</time>
      </trkpt>
      <trkpt lat="45.31851" lon="5.42509">
        <ele>518.537842</ele>
        <time>2016-05-08T10:32:22Z</time>
      </trkpt>
      <trkpt lat="45.31887" lon="5.42522">
        <ele>514.903442</ele>
        <time>2016-05-08T10:32:26Z</time>
      </trkpt>
      <trkpt lat="45.31903" lon="5.42545">
        <ele>512.411682</ele>
        <time>2016-05-08T10:32:29Z</time>
      </trkpt>
      <trkpt lat="45.3191" lon="5.42573">
        <ele>510.475067</ele>
        <time>2016-05-08T10:32:32Z</time>
      </trkpt>
      <trkpt lat="45.3192" lon="5.42604">
        <ele>510.247467</ele>
        <time>2016-05-08T10:32:36Z</time>
      </trkpt>
      <trkpt lat="45.31928" lon="5.42627">
        <ele>511.106079</ele>
        <time>2016-05-08T10:32:39Z</time>
      </trkpt>
      <trkpt lat="45.31937" lon="5.42652">
        <ele>511.890686</ele>
        <time>2016-05-08T10:32:42Z</time>
      </trkpt>
      <trkpt lat="45.31952" lon="5.42685">
        <ele>512.417725</ele>
        <time>2016-05-08T10:32:46Z</time>
      </trkpt>
      <trkpt lat="45.31968" lon="5.42718">
        <ele>513.013245</ele>
        <time>2016-05-08T10:32:50Z</time>
      </trkpt>
      <trkpt lat="45.3198" lon="5.42743">
        <ele>513.762695</ele>
        <time>2016-05-08T10:32:53Z</time>
      </trkpt>
      <trkpt lat="45.3199" lon="5.42777">
        <ele>515.012939</ele>
        <time>2016-05-08T10:32:57Z</time>
      </trkpt>
      <trkpt lat="45.31995" lon="5.42802">
        <ele>516.241455</ele>
        <time>2016-05-08T10:33:00Z</time>
      </trkpt>
      <trkpt lat="45.32006" lon="5.42833">
        <ele>517.377014</ele>
        <time>2016-05-08T10:33:04Z</time>
      </trkpt>
      <trkpt lat="45.32014" lon="5.42852">
        <ele>517.336121</ele>
        <time>2016-05-08T10:33:07Z</time>
      </trkpt>
      <trkpt lat="45.32034" lon="5.42849">
        <ele>515.286865</ele>
        <time>2016-05-08T10:33:11Z</time>
      </trkpt>
      <trkpt lat="45.32055" lon="5.42838">
        <ele>512.903748</ele>
        <time>2016-05-08T10:33:14Z</time>
      </trkpt>
      <trkpt lat="45.32077" lon="5.42823">
        <ele>509.988312</ele>
        <time>2016-05-08T10:33:17Z</time>
      </trkpt>
      <trkpt lat="45.32108" lon="5.42788">
        <ele>505.213104</ele>
        <time>2016-05-08T10:33:21Z</time>
      </trkpt>
      <trkpt lat="45.32129" lon="5.42753">
        <ele>501.33725</ele>
        <time>2016-05-08T10:33:24Z</time>
      </trkpt>
      <trkpt lat="45.32158" lon="5.42707">
        <ele>494.728485</ele>
        <time>2016-05-08T10:33:28Z</time>
      </trkpt>
      <trkpt lat="45.32183" lon="5.4268">
        <ele>488.941376</ele>
        <time>2016-05-08T10:33:31Z</time>
      </trkpt>
      <trkpt lat="45.32207" lon="5.42661">
        <ele>484.521301</ele>
        <time>2016-05-08T10:33:34Z</time>
      </trkpt>
      <trkpt lat="45.32232" lon="5.42645">
        <ele>481.30658</ele>
        <time>2016-05-08T10:33:38Z</time>
      </trkpt>
      <trkpt lat="45.32268" lon="5.42641">
        <ele>478.57959</ele>
        <time>2016-05-08T10:33:42Z</time>
      </trkpt>
      <trkpt lat="45.32294" lon="5.42639">
        <ele>477.570129</ele>
        <time>2016-05-08T10:33:45Z</time>
      </trkpt>
      <trkpt lat="45.32319" lon="5.42639">
        <ele>476.563843</ele>
        <time>2016-05-08T10:33:49Z</time>
      </trkpt>
      <trkpt lat="45.32341" lon="5.42652">
        <ele>474.371704</ele>
        <time>2016-05-08T10:33:52Z</time>
      </trkpt>
      <trkpt lat="45.32358" lon="5.4267">
        <ele>470.956665</ele>
        <time>2016-05-08T10:33:56Z</time>
      </trkpt>
      <trkpt lat="45.32362" lon="5.42675">
        <ele>470.192474</ele>
        <time>2016-05-08T10:34:01Z</time>
      </trkpt>
      <trkpt lat="45.32371" lon="5.42682">
        <ele>468.551636</ele>
        <time>2016-05-08T10:34:05Z</time>
      </trkpt>
      <trkpt lat="45.32383" lon="5.42679">
        <ele>466.710693</ele>
        <time>2016-05-08T10:34:09Z</time>
      </trkpt>
      <trkpt lat="45.32385" lon="5.4267">
        <ele>466.803314</ele>
        <time>2016-05-08T10:34:12Z</time>
      </trkpt>
      <trkpt lat="45.32389" lon="5.42656">
        <ele>466.860748</ele>
        <time>2016-05-08T10:34:16Z</time>
      </trkpt>
      <trkpt lat="45.32395" lon="5.42648">
        <ele>466.342163</ele>
        <time>2016-05-08T10:34:19Z</time>
      </trkpt>
      <trkpt lat="45.32411" lon="5.42644">
        <ele>464.275574</ele>
        <time>2016-05-08T10:34:23Z</time>
      </trkpt>
      <trkpt lat="45.32423" lon="5.42647">
        <ele>462.916901</ele>
        <time>2016-05-08T10:34:26Z</time>
      </trkpt>
      <trkpt lat="45.32439" lon="5.42648">
        <ele>462.21344</ele>
        <time>2016-05-08T10:34:30Z</time>
      </trkpt>
      <trkpt lat="45.32461" lon="5.42635">
        <ele>461.868958</ele>
        <time>2016-05-08T10:34:34Z</time>
      </trkpt>
      <trkpt lat="45.32486" lon="5.42622">
        <ele>461.314301</ele>
        <time>2016-05-08T10:34:38Z</time>
      </trkpt>
      <trkpt lat="45.32504" lon="5.42609">
        <ele>461.011322</ele>
        <time>2016-05-08T10:34:41Z</time>
      </trkpt>
      <trkpt lat="45.32521" lon="5.42597">
        <ele>461.078064</ele>
        <time>2016-05-08T10:34:44Z</time>
      </trkpt>
      <trkpt lat="45.32546" lon="5.42582">
        <ele>460.951111</ele>
        <time>2016-05-08T10:34:48Z</time>
      </trkpt>
      <trkpt lat="45.32566" lon="5.42571">
        <ele>460.902039</ele>
        <time>2016-05-08T10:34:51Z</time>
      </trkpt>
      <trkpt lat="45.32593" lon="5.42554">
        <ele>461.432831</ele>
        <time>2016-05-08T10:34:55Z</time>
      </trkpt>
      <trkpt lat="45.32614" lon="5.42548">
        <ele>462.841248</ele>
        <time>2016-05-08T10:34:58Z</time>
      </trkpt>
      <trkpt lat="45.32645" lon="5.42549">
        <ele>464.363983</ele>
        <time>2016-05-08T10:35:02Z</time>
      </trkpt>
      <trkpt lat="45.32682" lon="5.42556">
        <ele>464.872498</ele>
        <time>2016-05-08T10:35:06Z</time>
      </trkpt>
      <trkpt lat="45.32711" lon="5.42571">
        <ele>463.69928</ele>
        <time>2016-05-08T10:35:09Z</time>
      </trkpt>
      <trkpt lat="45.32742" lon="5.4258">
        <ele>463.259216</ele>
        <time>2016-05-08T10:35:12Z</time>
      </trkpt>
      <trkpt lat="45.32772" lon="5.42585">
        <ele>462.904175</ele>
        <time>2016-05-08T10:35:15Z</time>
      </trkpt>
      <trkpt lat="45.32806" lon="5.42582">
        <ele>463.220642</ele>
        <time>2016-05-08T10:35:19Z</time>
      </trkpt>
      <trkpt lat="45.32833" lon="5.42567">
        <ele>465.90451</ele>
        <time>2016-05-08T10:35:23Z</time>
      </trkpt>
      <trkpt lat="45.32846" lon="5.42564">
        <ele>465.568878</ele>
        <time>2016-05-08T10:35:26Z</time>
      </trkpt>
      <trkpt lat="45.32858" lon="5.42563">
        <ele>464.640381</ele>
        <time>2016-05-08T10:35:30Z</time>
      </trkpt>
      <trkpt lat="45.32867" lon="5.4256">
        <ele>464.631592</ele>
        <time>2016-05-08T10:35:33Z</time>
      </trkpt>
      <trkpt lat="45.32879" lon="5.42555">
        <ele>464.521606</ele>
        <time>2016-05-08T10:35:37Z</time>
      </trkpt>
      <trkpt lat="45.32892" lon="5.42555">
        <ele>463.752747</ele>
        <time>2016-05-08T10:35:41Z</time>
      </trkpt>
      <trkpt lat="45.329" lon="5.42553">
        <ele>463.377045</ele>
        <time>2016-05-08T10:35:44Z</time>
      </trkpt>
      <trkpt lat="45.32906" lon="5.42551">
        <ele>463.423676</ele>
        <time>2016-05-08T10:35:47Z</time>
      </trkpt>
      <trkpt lat="45.32915" lon="5.42552">
        <ele>462.457672</ele>
        <time>2016-05-08T10:35:51Z</time>
      </trkpt>
      <trkpt lat="45.32926" lon="5.42548">
        <ele>461.920563</ele>
        <time>2016-05-08T10:35:54Z</time>
      </trkpt>
      <trkpt lat="45.32937" lon="5.42543">
        <ele>461.608398</ele>
        <time>2016-05-08T10:35:57Z</time>
      </trkpt>
      <trkpt lat="45.32948" lon="5.42541">
        <ele>460.436829</ele>
        <time>2016-05-08T10:36:00Z</time>
      </trkpt>
      <trkpt lat="45.32963" lon="5.42532">
        <ele>460.484314</ele>
        <time>2016-05-08T10:36:04Z</time>
      </trkpt>
      <trkpt lat="45.32982" lon="5.4252">
        <ele>460.353821</ele>
        <time>2016-05-08T10:36:08Z</time>
      </trkpt>
      <trkpt lat="45.32995" lon="5.42512">
        <ele>460.383606</ele>
        <time>2016-05-08T10:36:11Z</time>
      </trkpt>
      <trkpt lat="45.33004" lon="5.42504">
        <ele>460.423859</ele>
        <time>2016-05-08T10:36:14Z</time>
      </trkpt>
      <trkpt lat="45.33022" lon="5.42489">
        <ele>460.734619</ele>
        <time>2016-05-08T10:36:18Z</time>
      </trkpt>
      <trkpt lat="45.33041" lon="5.42477">
        <ele>460.165771</ele>
        <time>2016-05-08T10:36:21Z</time>
      </trkpt>
      <trkpt lat="45.33054" lon="5.42462">
        <ele>460.833069</ele>
        <time>2016-05-08T10:36:24Z</time>
      </trkpt>
      <trkpt lat="45.33062" lon="5.42445">
        <ele>462.749176</ele>
        <time>2016-05-08T10:36:28Z</time>
      </trkpt>
      <trkpt lat="45.33067" lon="5.42435">
        <ele>463.778839</ele>
        <time>2016-05-08T10:36:31Z</time>
      </trkpt>
      <trkpt lat="45.33072" lon="5.42426">
        <ele>464.602936</ele>
        <time>2016-05-08T10:36:34Z</time>
      </trkpt>
      <trkpt lat="45.33077" lon="5.42412">
        <ele>466.216736</ele>
        <time>2016-05-08T10:36:38Z</time>
      </trkpt>
      <trkpt lat="45.33087" lon="5.42396">
        <ele>466.869446</ele>
        <time>2016-05-08T10:36:42Z</time>
      </trkpt>
      <trkpt lat="45.33097" lon="5.42382">
        <ele>467.272308</ele>
        <time>2016-05-08T10:36:46Z</time>
      </trkpt>
      <trkpt lat="45.33107" lon="5.42373">
        <ele>466.676849</ele>
        <time>2016-05-08T10:36:49Z</time>
      </trkpt>
      <trkpt lat="45.33125" lon="5.42357">
        <ele>464.870972</ele>
        <time>2016-05-08T10:36:53Z</time>
      </trkpt>
      <trkpt lat="45.33141" lon="5.42342">
        <ele>463.253357</ele>
        <time>2016-05-08T10:36:56Z</time>
      </trkpt>
      <trkpt lat="45.33158" lon="5.42321">
        <ele>461.45517</ele>
        <time>2016-05-08T10:36:59Z</time>
      </trkpt>
      <trkpt lat="45.33177" lon="5.42285">
        <ele>460.349518</ele>
        <time>2016-05-08T10:37:03Z</time>
      </trkpt>
      <trkpt lat="45.33191" lon="5.42256">
        <ele>460.051147</ele>
        <time>2016-05-08T10:37:06Z</time>
      </trkpt>
      <trkpt lat="45.3321" lon="5.42219">
        <ele>458.111816</ele>
        <time>2016-05-08T10:37:10Z</time>
      </trkpt>
      <trkpt lat="45.33227" lon="5.42197">
        <ele>455.955139</ele>
        <time>2016-05-08T10:37:13Z</time>
      </trkpt>
      <trkpt lat="45.33245" lon="5.42172">
        <ele>453.64856</ele>
        <time>2016-05-08T10:37:17Z</time>
      </trkpt>
      <trkpt lat="45.33255" lon="5.42133">
        <ele>454.504028</ele>
        <time>2016-05-08T10:37:21Z</time>
      </trkpt>
      <trkpt lat="45.33265" lon="5.42087">
        <ele>456.109924</ele>
        <time>2016-05-08T10:37:25Z</time>
      </trkpt>
      <trkpt lat="45.33276" lon="5.42042">
        <ele>457.791748</ele>
        <time>2016-05-08T10:37:29Z</time>
      </trkpt>
      <trkpt lat="45.33287" lon="5.42015">
        <ele>458.421112</ele>
        <time>2016-05-08T10:37:32Z</time>
      </trkpt>
      <trkpt lat="45.333" lon="5.41979">
        <ele>459.565308</ele>
        <time>2016-05-08T10:37:36Z</time>
      </trkpt>
      <trkpt lat="45.33311" lon="5.41953">
        <ele>460.151917</ele>
        <time>2016-05-08T10:37:39Z</time>
      </trkpt>
      <trkpt lat="45.33327" lon="5.41915">
        <ele>460.808594</ele>
        <time>2016-05-08T10:37:43Z</time>
      </trkpt>
      <trkpt lat="45.33341" lon="5.41883">
        <ele>460.299286</ele>
        <time>2016-05-08T10:37:46Z</time>
      </trkpt>
      <trkpt lat="45.33358" lon="5.41837">
        <ele>459.138489</ele>
        <time>2016-05-08T10:37:50Z</time>
      </trkpt>
      <trkpt lat="45.33373" lon="5.41801">
        <ele>455.545685</ele>
        <time>2016-05-08T10:37:53Z</time>
      </trkpt>
      <trkpt lat="45.33391" lon="5.41751">
        <ele>450.022278</ele>
        <time>2016-05-08T10:37:57Z</time>
      </trkpt>
      <trkpt lat="45.33404" lon="5.41699">
        <ele>444.122528</ele>
        <time>2016-05-08T10:38:01Z</time>
      </trkpt>
      <trkpt lat="45.33418" lon="5.41672">
        <ele>439.139587</ele>
        <time>2016-05-08T10:38:04Z</time>
      </trkpt>
      <trkpt lat="45.33462" lon="5.41674">
        <ele>431.076385</ele>
        <time>2016-05-08T10:38:08Z</time>
      </trkpt>
      <trkpt lat="45.33491" lon="5.41695">
        <ele>427.597626</ele>
        <time>2016-05-08T10:38:11Z</time>
      </trkpt>
      <trkpt lat="45.33519" lon="5.4175">
        <ele>429.5177</ele>
        <time>2016-05-08T10:38:15Z</time>
      </trkpt>
      <trkpt lat="45.33547" lon="5.41763">
        <ele>426.780701</ele>
        <time>2016-05-08T10:38:18Z</time>
      </trkpt>
      <trkpt lat="45.33582" lon="5.41749">
        <ele>421.066345</ele>
        <time>2016-05-08T10:38:22Z</time>
      </trkpt>
      <trkpt lat="45.33608" lon="5.41736">
        <ele>417.43042</ele>
        <time>2016-05-08T10:38:25Z</time>
      </trkpt>
      <trkpt lat="45.33629" lon="5.41727">
        <ele>414.799744</ele>
        <time>2016-05-08T10:38:28Z</time>
      </trkpt>
      <trkpt lat="45.33627" lon="5.41697">
        <ele>413.880615</ele>
        <time>2016-05-08T10:38:32Z</time>
      </trkpt>
      <trkpt lat="45.33616" lon="5.4167">
        <ele>413.747345</ele>
        <time>2016-05-08T10:38:35Z</time>
      </trkpt>
      <trkpt lat="45.3361" lon="5.41642">
        <ele>413.304657</ele>
        <time>2016-05-08T10:38:38Z</time>
      </trkpt>
      <trkpt lat="45.33605" lon="5.41614">
        <ele>412.556641</ele>
        <time>2016-05-08T10:38:41Z</time>
      </trkpt>
      <trkpt lat="45.33602" lon="5.41579">
        <ele>411.474915</ele>
        <time>2016-05-08T10:38:45Z</time>
      </trkpt>
      <trkpt lat="45.33598" lon="5.41551">
        <ele>411.009583</ele>
        <time>2016-05-08T10:38:48Z</time>
      </trkpt>
      <trkpt lat="45.33591" lon="5.41513">
        <ele>410.272705</ele>
        <time>2016-05-08T10:38:52Z</time>
      </trkpt>
      <trkpt lat="45.33581" lon="5.41487">
        <ele>410.220795</ele>
        <time>2016-05-08T10:38:55Z</time>
      </trkpt>
      <trkpt lat="45.33571" lon="5.41464">
        <ele>411.134613</ele>
        <time>2016-05-08T10:38:58Z</time>
      </trkpt>
      <trkpt lat="45.33558" lon="5.41435">
        <ele>412.382446</ele>
        <time>2016-05-08T10:39:02Z</time>
      </trkpt>
      <trkpt lat="45.33552" lon="5.41408">
        <ele>413.057434</ele>
        <time>2016-05-08T10:39:05Z</time>
      </trkpt>
      <trkpt lat="45.33548" lon="5.41369">
        <ele>413.67511</ele>
        <time>2016-05-08T10:39:09Z</time>
      </trkpt>
      <trkpt lat="45.33547" lon="5.41339">
        <ele>413.874298</ele>
        <time>2016-05-08T10:39:12Z</time>
      </trkpt>
      <trkpt lat="45.33547" lon="5.41311">
        <ele>414.193054</ele>
        <time>2016-05-08T10:39:15Z</time>
      </trkpt>
      <trkpt lat="45.33547" lon="5.41271">
        <ele>414.547333</ele>
        <time>2016-05-08T10:39:19Z</time>
      </trkpt>
      <trkpt lat="45.33549" lon="5.41231">
        <ele>414.857422</ele>
        <time>2016-05-08T10:39:23Z</time>
      </trkpt>
      <trkpt lat="45.33548" lon="5.41189">
        <ele>415.673645</ele>
        <time>2016-05-08T10:39:27Z</time>
      </trkpt>
      <trkpt lat="45.33546" lon="5.41149">
        <ele>416.555664</ele>
        <time>2016-05-08T10:39:31Z</time>
      </trkpt>
      <trkpt lat="45.33543" lon="5.4112">
        <ele>417.61145</ele>
        <time>2016-05-08T10:39:34Z</time>
      </trkpt>
      <trkpt lat="45.33539" lon="5.4109">
        <ele>418.937073</ele>
        <time>2016-05-08T10:39:37Z</time>
      </trkpt>
      <trkpt lat="45.33531" lon="5.4105">
        <ele>421.373413</ele>
        <time>2016-05-08T10:39:41Z</time>
      </trkpt>
      <trkpt lat="45.33519" lon="5.41013">
        <ele>425.004761</ele>
        <time>2016-05-08T10:39:45Z</time>
      </trkpt>
      <trkpt lat="45.3351" lon="5.40988">
        <ele>428.118347</ele>
        <time>2016-05-08T10:39:48Z</time>
      </trkpt>
      <trkpt lat="45.335" lon="5.40952">
        <ele>431.888275</ele>
        <time>2016-05-08T10:39:52Z</time>
      </trkpt>
      <trkpt lat="45.33494" lon="5.40922">
        <ele>434.797852</ele>
        <time>2016-05-08T10:39:55Z</time>
      </trkpt>
      <trkpt lat="45.33494" lon="5.40883">
        <ele>434.922058</ele>
        <time>2016-05-08T10:39:59Z</time>
      </trkpt>
      <trkpt lat="45.33496" lon="5.40857">
        <ele>434.263855</ele>
        <time>2016-05-08T10:40:02Z</time>
      </trkpt>
      <trkpt lat="45.33497" lon="5.40819">
        <ele>433.097473</ele>
        <time>2016-05-08T10:40:06Z</time>
      </trkpt>
      <trkpt lat="45.33493" lon="5.40793">
        <ele>432.329712</ele>
        <time>2016-05-08T10:40:09Z</time>
      </trkpt>
      <trkpt lat="45.33488" lon="5.40758">
        <ele>431.393372</ele>
        <time>2016-05-08T10:40:13Z</time>
      </trkpt>
      <trkpt lat="45.33485" lon="5.40726">
        <ele>429.637085</ele>
        <time>2016-05-08T10:40:17Z</time>
      </trkpt>
      <trkpt lat="45.33491" lon="5.40697">
        <ele>426.097321</ele>
        <time>2016-05-08T10:40:21Z</time>
      </trkpt>
      <trkpt lat="45.33496" lon="5.40681">
        <ele>423.800964</ele>
        <time>2016-05-08T10:40:25Z</time>
      </trkpt>
      <trkpt lat="45.33502" lon="5.4067">
        <ele>421.920624</ele>
        <time>2016-05-08T10:40:29Z</time>
      </trkpt>
      <trkpt lat="45.33507" lon="5.40661">
        <ele>420.843323</ele>
        <time>2016-05-08T10:40:33Z</time>
      </trkpt>
      <trkpt lat="45.3351" lon="5.40652">
        <ele>419.933594</ele>
        <time>2016-05-08T10:40:36Z</time>
      </trkpt>
      <trkpt lat="45.33517" lon="5.40639">
        <ele>418.448822</ele>
        <time>2016-05-08T10:40:40Z</time>
      </trkpt>
      <trkpt lat="45.33521" lon="5.40626">
        <ele>417.358734</ele>
        <time>2016-05-08T10:40:43Z</time>
      </trkpt>
      <trkpt lat="45.33521" lon="5.40608">
        <ele>416.601837</ele>
        <time>2016-05-08T10:40:47Z</time>
      </trkpt>
      <trkpt lat="45.33518" lon="5.40596">
        <ele>416.333527</ele>
        <time>2016-05-08T10:40:50Z</time>
      </trkpt>
      <trkpt lat="45.33515" lon="5.4058">
        <ele>415.819763</ele>
        <time>2016-05-08T10:40:54Z</time>
      </trkpt>
      <trkpt lat="45.33515" lon="5.40566">
        <ele>415.541779</ele>
        <time>2016-05-08T10:40:57Z</time>
      </trkpt>
      <trkpt lat="45.33516" lon="5.40546">
        <ele>415.043579</ele>
        <time>2016-05-08T10:41:01Z</time>
      </trkpt>
      <trkpt lat="45.33516" lon="5.40529">
        <ele>414.670227</ele>
        <time>2016-05-08T10:41:04Z</time>
      </trkpt>
      <trkpt lat="45.3352" lon="5.40499">
        <ele>413.816589</ele>
        <time>2016-05-08T10:41:08Z</time>
      </trkpt>
      <trkpt lat="45.33525" lon="5.40479">
        <ele>413.132538</ele>
        <time>2016-05-08T10:41:12Z</time>
      </trkpt>
      <trkpt lat="45.33551" lon="5.40476">
        <ele>411.717224</ele>
        <time>2016-05-08T10:41:16Z</time>
      </trkpt>
      <trkpt lat="45.33585" lon="5.40476">
        <ele>410</ele>
        <time>2016-05-08T10:41:20Z</time>
      </trkpt>
      <trkpt lat="45.33613" lon="5.40481">
        <ele>410</ele>
        <time>2016-05-08T10:41:23Z</time>
      </trkpt>
      <trkpt lat="45.33649" lon="5.40489">
        <ele>410</ele>
        <time>2016-05-08T10:41:27Z</time>
      </trkpt>
      <trkpt lat="45.33673" lon="5.40492">
        <ele>410</ele>
        <time>2016-05-08T10:41:30Z</time>
      </trkpt>
      <trkpt lat="45.33697" lon="5.40495">
        <ele>410</ele>
        <time>2016-05-08T10:41:34Z</time>
      </trkpt>
      <trkpt lat="45.33703" lon="5.40487">
        <ele>410</ele>
        <time>2016-05-08T10:41:37Z</time>
      </trkpt>
      <trkpt lat="45.33709" lon="5.40459">
        <ele>410</ele>
        <time>2016-05-08T10:41:41Z</time>
      </trkpt>
      <trkpt lat="45.33714" lon="5.40435">
        <ele>410</ele>
        <time>2016-05-08T10:41:44Z</time>
      </trkpt>
      <trkpt lat="45.33722" lon="5.40409">
        <ele>410</ele>
        <time>2016-05-08T10:41:47Z</time>
      </trkpt>
      <trkpt lat="45.3373" lon="5.40375">
        <ele>410</ele>
        <time>2016-05-08T10:41:51Z</time>
      </trkpt>
      <trkpt lat="45.33737" lon="5.40349">
        <ele>410</ele>
        <time>2016-05-08T10:41:54Z</time>
      </trkpt>
      <trkpt lat="45.33745" lon="5.40313">
        <ele>410</ele>
        <time>2016-05-08T10:41:58Z</time>
      </trkpt>
      <trkpt lat="45.33752" lon="5.40287">
        <ele>410</ele>
        <time>2016-05-08T10:42:01Z</time>
      </trkpt>
      <trkpt lat="45.33762" lon="5.40252">
        <ele>410</ele>
        <time>2016-05-08T10:42:05Z</time>
      </trkpt>
      <trkpt lat="45.33773" lon="5.4022">
        <ele>410</ele>
        <time>2016-05-08T10:42:09Z</time>
      </trkpt>
      <trkpt lat="45.33783" lon="5.4019">
        <ele>410</ele>
        <time>2016-05-08T10:42:13Z</time>
      </trkpt>
      <trkpt lat="45.33791" lon="5.40167">
        <ele>410</ele>
        <time>2016-05-08T10:42:16Z</time>
      </trkpt>
      <trkpt lat="45.33801" lon="5.40136">
        <ele>410</ele>
        <time>2016-05-08T10:42:20Z</time>
      </trkpt>
      <trkpt lat="45.33808" lon="5.40111">
        <ele>410</ele>
        <time>2016-05-08T10:42:23Z</time>
      </trkpt>
      <trkpt lat="45.33817" lon="5.40076">
        <ele>410</ele>
        <time>2016-05-08T10:42:27Z</time>
      </trkpt>
      <trkpt lat="45.33822" lon="5.40048">
        <ele>410</ele>
        <time>2016-05-08T10:42:30Z</time>
      </trkpt>
      <trkpt lat="45.33827" lon="5.40011">
        <ele>410</ele>
        <time>2016-05-08T10:42:34Z</time>
      </trkpt>
      <trkpt lat="45.33832" lon="5.39974">
        <ele>410</ele>
        <time>2016-05-08T10:42:38Z</time>
      </trkpt>
      <trkpt lat="45.33837" lon="5.39938">
        <ele>410</ele>
        <time>2016-05-08T10:42:42Z</time>
      </trkpt>
      <trkpt lat="45.33841" lon="5.39901">
        <ele>410</ele>
        <time>2016-05-08T10:42:46Z</time>
      </trkpt>
      <trkpt lat="45.33845" lon="5.39874">
        <ele>410</ele>
        <time>2016-05-08T10:42:49Z</time>
      </trkpt>
      <trkpt lat="45.33848" lon="5.39846">
        <ele>410</ele>
        <time>2016-05-08T10:42:52Z</time>
      </trkpt>
      <trkpt lat="45.33852" lon="5.39809">
        <ele>410</ele>
        <time>2016-05-08T10:42:56Z</time>
      </trkpt>
      <trkpt lat="45.33856" lon="5.39773">
        <ele>410</ele>
        <time>2016-05-08T10:43:00Z</time>
      </trkpt>
      <trkpt lat="45.3386" lon="5.39747">
        <ele>410</ele>
        <time>2016-05-08T10:43:03Z</time>
      </trkpt>
      <trkpt lat="45.33863" lon="5.3972">
        <ele>410</ele>
        <time>2016-05-08T10:43:06Z</time>
      </trkpt>
      <trkpt lat="45.33867" lon="5.39684">
        <ele>410</ele>
        <time>2016-05-08T10:43:10Z</time>
      </trkpt>
      <trkpt lat="45.33874" lon="5.39658">
        <ele>410</ele>
        <time>2016-05-08T10:43:13Z</time>
      </trkpt>
      <trkpt lat="45.33883" lon="5.39625">
        <ele>410</ele>
        <time>2016-05-08T10:43:17Z</time>
      </trkpt>
      <trkpt lat="45.33889" lon="5.39599">
        <ele>410</ele>
        <time>2016-05-08T10:43:20Z</time>
      </trkpt>
      <trkpt lat="45.33897" lon="5.39564">
        <ele>410</ele>
        <time>2016-05-08T10:43:24Z</time>
      </trkpt>
      <trkpt lat="45.33902" lon="5.39539">
        <ele>410</ele>
        <time>2016-05-08T10:43:27Z</time>
      </trkpt>
      <trkpt lat="45.33909" lon="5.39505">
        <ele>410</ele>
        <time>2016-05-08T10:43:31Z</time>
      </trkpt>
      <trkpt lat="45.33915" lon="5.39468">
        <ele>410</ele>
        <time>2016-05-08T10:43:35Z</time>
      </trkpt>
      <trkpt lat="45.3392" lon="5.39441">
        <ele>410</ele>
        <time>2016-05-08T10:43:38Z</time>
      </trkpt>
      <trkpt lat="45.33925" lon="5.39402">
        <ele>410</ele>
        <time>2016-05-08T10:43:42Z</time>
      </trkpt>
      <trkpt lat="45.3393" lon="5.39374">
        <ele>410</ele>
        <time>2016-05-08T10:43:45Z</time>
      </trkpt>
      <trkpt lat="45.33934" lon="5.39345">
        <ele>410</ele>
        <time>2016-05-08T10:43:48Z</time>
      </trkpt>
      <trkpt lat="45.3394" lon="5.39307">
        <ele>409.364502</ele>
        <time>2016-05-08T10:43:52Z</time>
      </trkpt>
      <trkpt lat="45.33948" lon="5.3927">
        <ele>408.467529</ele>
        <time>2016-05-08T10:43:56Z</time>
      </trkpt>
      <trkpt lat="45.33953" lon="5.39241">
        <ele>407.789795</ele>
        <time>2016-05-08T10:43:59Z</time>
      </trkpt>
      <trkpt lat="45.33961" lon="5.39202">
        <ele>406.838501</ele>
        <time>2016-05-08T10:44:03Z</time>
      </trkpt>
      <trkpt lat="45.33968" lon="5.39165">
        <ele>405.957581</ele>
        <time>2016-05-08T10:44:07Z</time>
      </trkpt>
      <trkpt lat="45.33973" lon="5.39138">
        <ele>405.309021</ele>
        <time>2016-05-08T10:44:10Z</time>
      </trkpt>
      <trkpt lat="45.33977" lon="5.39099">
        <ele>404.376038</ele>
        <time>2016-05-08T10:44:14Z</time>
      </trkpt>
      <trkpt lat="45.33979" lon="5.3907">
        <ele>403.802551</ele>
        <time>2016-05-08T10:44:17Z</time>
      </trkpt>
      <trkpt lat="45.33995" lon="5.39056">
        <ele>403.64978</ele>
        <time>2016-05-08T10:44:21Z</time>
      </trkpt>
      <trkpt lat="45.34009" lon="5.39053">
        <ele>403.631775</ele>
        <time>2016-05-08T10:44:24Z</time>
      </trkpt>
      <trkpt lat="45.34012" lon="5.39018">
        <ele>403.217682</ele>
        <time>2016-05-08T10:44:28Z</time>
      </trkpt>
      <trkpt lat="45.34015" lon="5.38983">
        <ele>402.590698</ele>
        <time>2016-05-08T10:44:32Z</time>
      </trkpt>
      <trkpt lat="45.34018" lon="5.38956">
        <ele>401.953552</ele>
        <time>2016-05-08T10:44:35Z</time>
      </trkpt>
      <trkpt lat="45.3402" lon="5.38931">
        <ele>401.335205</ele>
        <time>2016-05-08T10:44:38Z</time>
      </trkpt>
      <trkpt lat="45.34017" lon="5.38896">
        <ele>400.506775</ele>
        <time>2016-05-08T10:44:42Z</time>
      </trkpt>
      <trkpt lat="45.34016" lon="5.38862">
        <ele>399.688477</ele>
        <time>2016-05-08T10:44:46Z</time>
      </trkpt>
      <trkpt lat="45.34014" lon="5.38836">
        <ele>399.069885</ele>
        <time>2016-05-08T10:44:49Z</time>
      </trkpt>
      <trkpt lat="45.34019" lon="5.38803">
        <ele>399</ele>
        <time>2016-05-08T10:44:53Z</time>
      </trkpt>
      <trkpt lat="45.34023" lon="5.38778">
        <ele>399</ele>
        <time>2016-05-08T10:44:56Z</time>
      </trkpt>
      <trkpt lat="45.34029" lon="5.38752">
        <ele>399</ele>
        <time>2016-05-08T10:44:59Z</time>
      </trkpt>
      <trkpt lat="45.34033" lon="5.38727">
        <ele>399</ele>
        <time>2016-05-08T10:45:02Z</time>
      </trkpt>
      <trkpt lat="45.3404" lon="5.38696">
        <ele>399</ele>
        <time>2016-05-08T10:45:06Z</time>
      </trkpt>
      <trkpt lat="45.34046" lon="5.38663">
        <ele>399</ele>
        <time>2016-05-08T10:45:10Z</time>
      </trkpt>
      <trkpt lat="45.3405" lon="5.38639">
        <ele>399</ele>
        <time>2016-05-08T10:45:13Z</time>
      </trkpt>
      <trkpt lat="45.34054" lon="5.38623">
        <ele>399</ele>
        <time>2016-05-08T10:45:16Z</time>
      </trkpt>
      <trkpt lat="45.34074" lon="5.38621">
        <ele>399</ele>
        <time>2016-05-08T10:45:19Z</time>
      </trkpt>
      <trkpt lat="45.34101" lon="5.38622">
        <ele>399</ele>
        <time>2016-05-08T10:45:23Z</time>
      </trkpt>
      <trkpt lat="45.34124" lon="5.38619">
        <ele>399</ele>
        <time>2016-05-08T10:45:27Z</time>
      </trkpt>
      <trkpt lat="45.3414" lon="5.38618">
        <ele>399</ele>
        <time>2016-05-08T10:45:30Z</time>
      </trkpt>
      <trkpt lat="45.34159" lon="5.38618">
        <ele>399</ele>
        <time>2016-05-08T10:45:34Z</time>
      </trkpt>
      <trkpt lat="45.34162" lon="5.38603">
        <ele>399</ele>
        <time>2016-05-08T10:45:37Z</time>
      </trkpt>
      <trkpt lat="45.3416" lon="5.38576">
        <ele>399</ele>
        <time>2016-05-08T10:45:41Z</time>
      </trkpt>
      <trkpt lat="45.34151" lon="5.38559">
        <ele>399</ele>
        <time>2016-05-08T10:45:44Z</time>
      </trkpt>
      <trkpt lat="45.34143" lon="5.38545">
        <ele>399</ele>
        <time>2016-05-08T10:45:48Z</time>
      </trkpt>
      <trkpt lat="45.34141" lon="5.38539">
        <ele>399</ele>
        <time>2016-05-08T10:45:52Z</time>
      </trkpt>
      <trkpt lat="45.34135" lon="5.38538">
        <ele>399</ele>
        <time>2016-05-08T10:45:56Z</time>
      </trkpt>
      <trkpt lat="45.3413" lon="5.3854">
        <ele>399</ele>
        <time>2016-05-08T10:46:02Z</time>
      </trkpt>
    </trkseg>
  </trk>
</gpx>